<?xml version="1.0" encoding="UTF-8" standalone="no" ?>
<gpx xmlns="http://www.topografix.com/GPX/1/1" xmlns:xsi="http://www.w3.org/2001/XMLSchema-instance" xsi:schemaLocation="http://www.topografix.com/GPX/1/1 http://www.topografix.com/GPX/1/1/gpx.xsd" version="1.1" creator="VisuGPX - https://www.visugpx.com">
  <metadata>
    <name>2025-06-09laMouilleBelvMorez</name>
  </metadata>
  <trk>
    <name><![CDATA[2025-06-09laMouillebelvMorez]]></name>
    <trkseg>
      <trkpt lat="46.50552" lon="5.98696">
        <ele>970</ele>
        <time>2025-06-09T11:41:07Z</time>
      </trkpt>
      <trkpt lat="46.50551" lon="5.98695">
        <ele>971</ele>
        <time>2025-06-09T11:41:59Z</time>
      </trkpt>
      <trkpt lat="46.5055" lon="5.98699">
        <ele>970</ele>
        <time>2025-06-09T11:42:04Z</time>
      </trkpt>
      <trkpt lat="46.50551" lon="5.98702">
        <ele>970</ele>
        <time>2025-06-09T11:42:07Z</time>
      </trkpt>
      <trkpt lat="46.50552" lon="5.98707">
        <ele>970</ele>
        <time>2025-06-09T11:42:09Z</time>
      </trkpt>
      <trkpt lat="46.50553" lon="5.98712">
        <ele>969</ele>
        <time>2025-06-09T11:42:12Z</time>
      </trkpt>
      <trkpt lat="46.50553" lon="5.98717">
        <ele>969</ele>
        <time>2025-06-09T11:42:15Z</time>
      </trkpt>
      <trkpt lat="46.50554" lon="5.98722">
        <ele>969</ele>
        <time>2025-06-09T11:42:17Z</time>
      </trkpt>
      <trkpt lat="46.50554" lon="5.98727">
        <ele>968</ele>
        <time>2025-06-09T11:42:20Z</time>
      </trkpt>
      <trkpt lat="46.50554" lon="5.98732">
        <ele>968</ele>
        <time>2025-06-09T11:42:23Z</time>
      </trkpt>
      <trkpt lat="46.50554" lon="5.98737">
        <ele>967</ele>
        <time>2025-06-09T11:42:26Z</time>
      </trkpt>
      <trkpt lat="46.50555" lon="5.98741">
        <ele>967</ele>
        <time>2025-06-09T11:42:29Z</time>
      </trkpt>
      <trkpt lat="46.50555" lon="5.98745">
        <ele>967</ele>
        <time>2025-06-09T11:42:32Z</time>
      </trkpt>
      <trkpt lat="46.50556" lon="5.98749">
        <ele>967</ele>
        <time>2025-06-09T11:42:35Z</time>
      </trkpt>
      <trkpt lat="46.50557" lon="5.98754">
        <ele>967</ele>
        <time>2025-06-09T11:42:38Z</time>
      </trkpt>
      <trkpt lat="46.50557" lon="5.98759">
        <ele>966</ele>
        <time>2025-06-09T11:42:41Z</time>
      </trkpt>
      <trkpt lat="46.50557" lon="5.98764">
        <ele>965</ele>
        <time>2025-06-09T11:42:44Z</time>
      </trkpt>
      <trkpt lat="46.50558" lon="5.98769">
        <ele>965</ele>
        <time>2025-06-09T11:42:47Z</time>
      </trkpt>
      <trkpt lat="46.50559" lon="5.98774">
        <ele>964</ele>
        <time>2025-06-09T11:42:51Z</time>
      </trkpt>
      <trkpt lat="46.5056" lon="5.98778">
        <ele>964</ele>
        <time>2025-06-09T11:42:55Z</time>
      </trkpt>
      <trkpt lat="46.50562" lon="5.98782">
        <ele>964</ele>
        <time>2025-06-09T11:42:58Z</time>
      </trkpt>
      <trkpt lat="46.50563" lon="5.98786">
        <ele>964</ele>
        <time>2025-06-09T11:43:02Z</time>
      </trkpt>
      <trkpt lat="46.50565" lon="5.9879">
        <ele>965</ele>
        <time>2025-06-09T11:43:08Z</time>
      </trkpt>
      <trkpt lat="46.50566" lon="5.98793">
        <ele>965</ele>
        <time>2025-06-09T11:43:13Z</time>
      </trkpt>
      <trkpt lat="46.50567" lon="5.98792">
        <ele>964</ele>
        <time>2025-06-09T11:43:22Z</time>
      </trkpt>
      <trkpt lat="46.5057" lon="5.98791">
        <ele>964</ele>
        <time>2025-06-09T11:43:35Z</time>
      </trkpt>
      <trkpt lat="46.50572" lon="5.9879">
        <ele>965</ele>
        <time>2025-06-09T11:43:40Z</time>
      </trkpt>
      <trkpt lat="46.50575" lon="5.9879">
        <ele>963</ele>
        <time>2025-06-09T11:43:45Z</time>
      </trkpt>
      <trkpt lat="46.50577" lon="5.98791">
        <ele>962</ele>
        <time>2025-06-09T11:43:52Z</time>
      </trkpt>
      <trkpt lat="46.50576" lon="5.98792">
        <ele>965</ele>
        <time>2025-06-09T11:44:00Z</time>
      </trkpt>
      <trkpt lat="46.50574" lon="5.98794">
        <ele>966</ele>
        <time>2025-06-09T11:44:03Z</time>
      </trkpt>
      <trkpt lat="46.50573" lon="5.98798">
        <ele>967</ele>
        <time>2025-06-09T11:44:06Z</time>
      </trkpt>
      <trkpt lat="46.50572" lon="5.98801">
        <ele>967</ele>
        <time>2025-06-09T11:44:09Z</time>
      </trkpt>
      <trkpt lat="46.5057" lon="5.98805">
        <ele>969</ele>
        <time>2025-06-09T11:44:13Z</time>
      </trkpt>
      <trkpt lat="46.50568" lon="5.98809">
        <ele>970</ele>
        <time>2025-06-09T11:44:16Z</time>
      </trkpt>
      <trkpt lat="46.50565" lon="5.98816">
        <ele>975</ele>
        <time>2025-06-09T11:44:22Z</time>
      </trkpt>
      <trkpt lat="46.50566" lon="5.98818">
        <ele>976</ele>
        <time>2025-06-09T11:44:28Z</time>
      </trkpt>
      <trkpt lat="46.50567" lon="5.98821">
        <ele>977</ele>
        <time>2025-06-09T11:44:31Z</time>
      </trkpt>
      <trkpt lat="46.50567" lon="5.98826">
        <ele>977</ele>
        <time>2025-06-09T11:44:35Z</time>
      </trkpt>
      <trkpt lat="46.50565" lon="5.98829">
        <ele>978</ele>
        <time>2025-06-09T11:44:39Z</time>
      </trkpt>
      <trkpt lat="46.50561" lon="5.9883">
        <ele>981</ele>
        <time>2025-06-09T11:45:08Z</time>
      </trkpt>
      <trkpt lat="46.5056" lon="5.9883">
        <ele>981</ele>
        <time>2025-06-09T11:45:11Z</time>
      </trkpt>
      <trkpt lat="46.50557" lon="5.98831">
        <ele>982</ele>
        <time>2025-06-09T11:45:14Z</time>
      </trkpt>
      <trkpt lat="46.50558" lon="5.98831">
        <ele>981</ele>
        <time>2025-06-09T11:45:39Z</time>
      </trkpt>
      <trkpt lat="46.5056" lon="5.98832">
        <ele>981</ele>
        <time>2025-06-09T11:45:41Z</time>
      </trkpt>
      <trkpt lat="46.50561" lon="5.98835">
        <ele>980</ele>
        <time>2025-06-09T11:45:45Z</time>
      </trkpt>
      <trkpt lat="46.5056" lon="5.98837">
        <ele>980</ele>
        <time>2025-06-09T11:45:57Z</time>
      </trkpt>
      <trkpt lat="46.50558" lon="5.98838">
        <ele>979</ele>
        <time>2025-06-09T11:46:18Z</time>
      </trkpt>
      <trkpt lat="46.50556" lon="5.98841">
        <ele>979</ele>
        <time>2025-06-09T11:46:25Z</time>
      </trkpt>
      <trkpt lat="46.50554" lon="5.98844">
        <ele>979</ele>
        <time>2025-06-09T11:46:35Z</time>
      </trkpt>
      <trkpt lat="46.50551" lon="5.98846">
        <ele>980</ele>
        <time>2025-06-09T11:46:39Z</time>
      </trkpt>
      <trkpt lat="46.50549" lon="5.98849">
        <ele>981</ele>
        <time>2025-06-09T11:46:43Z</time>
      </trkpt>
      <trkpt lat="46.50546" lon="5.98851">
        <ele>982</ele>
        <time>2025-06-09T11:46:50Z</time>
      </trkpt>
      <trkpt lat="46.50543" lon="5.98852">
        <ele>983</ele>
        <time>2025-06-09T11:46:55Z</time>
      </trkpt>
      <trkpt lat="46.5054" lon="5.98854">
        <ele>983</ele>
        <time>2025-06-09T11:47:00Z</time>
      </trkpt>
      <trkpt lat="46.50538" lon="5.98857">
        <ele>983</ele>
        <time>2025-06-09T11:47:08Z</time>
      </trkpt>
      <trkpt lat="46.50535" lon="5.98858">
        <ele>982</ele>
        <time>2025-06-09T11:47:22Z</time>
      </trkpt>
      <trkpt lat="46.50532" lon="5.98858">
        <ele>983</ele>
        <time>2025-06-09T11:47:26Z</time>
      </trkpt>
      <trkpt lat="46.50529" lon="5.98858">
        <ele>982</ele>
        <time>2025-06-09T11:47:29Z</time>
      </trkpt>
      <trkpt lat="46.50526" lon="5.98857">
        <ele>982</ele>
        <time>2025-06-09T11:47:32Z</time>
      </trkpt>
      <trkpt lat="46.50522" lon="5.98859">
        <ele>981</ele>
        <time>2025-06-09T11:47:37Z</time>
      </trkpt>
      <trkpt lat="46.5052" lon="5.98861">
        <ele>981</ele>
        <time>2025-06-09T11:47:41Z</time>
      </trkpt>
      <trkpt lat="46.50516" lon="5.98862">
        <ele>980</ele>
        <time>2025-06-09T11:47:45Z</time>
      </trkpt>
      <trkpt lat="46.50513" lon="5.98863">
        <ele>980</ele>
        <time>2025-06-09T11:47:49Z</time>
      </trkpt>
      <trkpt lat="46.5051" lon="5.98863">
        <ele>979</ele>
        <time>2025-06-09T11:47:52Z</time>
      </trkpt>
      <trkpt lat="46.50507" lon="5.98863">
        <ele>980</ele>
        <time>2025-06-09T11:47:55Z</time>
      </trkpt>
      <trkpt lat="46.50502" lon="5.98862">
        <ele>980</ele>
        <time>2025-06-09T11:47:58Z</time>
      </trkpt>
      <trkpt lat="46.505" lon="5.98863">
        <ele>980</ele>
        <time>2025-06-09T11:48:01Z</time>
      </trkpt>
      <trkpt lat="46.50497" lon="5.98863">
        <ele>981</ele>
        <time>2025-06-09T11:48:05Z</time>
      </trkpt>
      <trkpt lat="46.50494" lon="5.98861">
        <ele>982</ele>
        <time>2025-06-09T11:48:10Z</time>
      </trkpt>
      <trkpt lat="46.50492" lon="5.98859">
        <ele>984</ele>
        <time>2025-06-09T11:48:15Z</time>
      </trkpt>
      <trkpt lat="46.50489" lon="5.98857">
        <ele>985</ele>
        <time>2025-06-09T11:48:20Z</time>
      </trkpt>
      <trkpt lat="46.50486" lon="5.98855">
        <ele>987</ele>
        <time>2025-06-09T11:48:26Z</time>
      </trkpt>
      <trkpt lat="46.50483" lon="5.98854">
        <ele>989</ele>
        <time>2025-06-09T11:48:30Z</time>
      </trkpt>
      <trkpt lat="46.50481" lon="5.98852">
        <ele>990</ele>
        <time>2025-06-09T11:48:35Z</time>
      </trkpt>
      <trkpt lat="46.50477" lon="5.98851">
        <ele>991</ele>
        <time>2025-06-09T11:48:45Z</time>
      </trkpt>
      <trkpt lat="46.50473" lon="5.98849">
        <ele>992</ele>
        <time>2025-06-09T11:48:51Z</time>
      </trkpt>
      <trkpt lat="46.50471" lon="5.98847">
        <ele>992</ele>
        <time>2025-06-09T11:48:54Z</time>
      </trkpt>
      <trkpt lat="46.50468" lon="5.98845">
        <ele>992</ele>
        <time>2025-06-09T11:48:58Z</time>
      </trkpt>
      <trkpt lat="46.50466" lon="5.98842">
        <ele>992</ele>
        <time>2025-06-09T11:49:03Z</time>
      </trkpt>
      <trkpt lat="46.50464" lon="5.98839">
        <ele>992</ele>
        <time>2025-06-09T11:49:07Z</time>
      </trkpt>
      <trkpt lat="46.50462" lon="5.98836">
        <ele>992</ele>
        <time>2025-06-09T11:49:11Z</time>
      </trkpt>
      <trkpt lat="46.5046" lon="5.98832">
        <ele>992</ele>
        <time>2025-06-09T11:49:15Z</time>
      </trkpt>
      <trkpt lat="46.50458" lon="5.98829">
        <ele>992</ele>
        <time>2025-06-09T11:49:18Z</time>
      </trkpt>
      <trkpt lat="46.50455" lon="5.98826">
        <ele>992</ele>
        <time>2025-06-09T11:49:22Z</time>
      </trkpt>
      <trkpt lat="46.50452" lon="5.98825">
        <ele>992</ele>
        <time>2025-06-09T11:49:26Z</time>
      </trkpt>
      <trkpt lat="46.50449" lon="5.98824">
        <ele>992</ele>
        <time>2025-06-09T11:49:29Z</time>
      </trkpt>
      <trkpt lat="46.50446" lon="5.98824">
        <ele>992</ele>
        <time>2025-06-09T11:49:32Z</time>
      </trkpt>
      <trkpt lat="46.50443" lon="5.98823">
        <ele>992</ele>
        <time>2025-06-09T11:49:35Z</time>
      </trkpt>
      <trkpt lat="46.5044" lon="5.98822">
        <ele>992</ele>
        <time>2025-06-09T11:49:39Z</time>
      </trkpt>
      <trkpt lat="46.50436" lon="5.98822">
        <ele>993</ele>
        <time>2025-06-09T11:49:43Z</time>
      </trkpt>
      <trkpt lat="46.50433" lon="5.98822">
        <ele>993</ele>
        <time>2025-06-09T11:49:46Z</time>
      </trkpt>
      <trkpt lat="46.5043" lon="5.98823">
        <ele>993</ele>
        <time>2025-06-09T11:49:49Z</time>
      </trkpt>
      <trkpt lat="46.50427" lon="5.98823">
        <ele>993</ele>
        <time>2025-06-09T11:49:53Z</time>
      </trkpt>
      <trkpt lat="46.50424" lon="5.98823">
        <ele>993</ele>
        <time>2025-06-09T11:49:56Z</time>
      </trkpt>
      <trkpt lat="46.50421" lon="5.98822">
        <ele>993</ele>
        <time>2025-06-09T11:49:59Z</time>
      </trkpt>
      <trkpt lat="46.50418" lon="5.98823">
        <ele>993</ele>
        <time>2025-06-09T11:50:02Z</time>
      </trkpt>
      <trkpt lat="46.50415" lon="5.98824">
        <ele>993</ele>
        <time>2025-06-09T11:50:05Z</time>
      </trkpt>
      <trkpt lat="46.50412" lon="5.98826">
        <ele>994</ele>
        <time>2025-06-09T11:50:09Z</time>
      </trkpt>
      <trkpt lat="46.50409" lon="5.98829">
        <ele>994</ele>
        <time>2025-06-09T11:50:11Z</time>
      </trkpt>
      <trkpt lat="46.50406" lon="5.98832">
        <ele>994</ele>
        <time>2025-06-09T11:50:14Z</time>
      </trkpt>
      <trkpt lat="46.50403" lon="5.98834">
        <ele>994</ele>
        <time>2025-06-09T11:50:17Z</time>
      </trkpt>
      <trkpt lat="46.504" lon="5.98837">
        <ele>995</ele>
        <time>2025-06-09T11:50:21Z</time>
      </trkpt>
      <trkpt lat="46.50397" lon="5.9884">
        <ele>995</ele>
        <time>2025-06-09T11:50:26Z</time>
      </trkpt>
      <trkpt lat="46.50395" lon="5.98843">
        <ele>995</ele>
        <time>2025-06-09T11:50:31Z</time>
      </trkpt>
      <trkpt lat="46.50392" lon="5.98845">
        <ele>995</ele>
        <time>2025-06-09T11:50:39Z</time>
      </trkpt>
      <trkpt lat="46.50389" lon="5.98846">
        <ele>995</ele>
        <time>2025-06-09T11:50:46Z</time>
      </trkpt>
      <trkpt lat="46.50386" lon="5.98848">
        <ele>995</ele>
        <time>2025-06-09T11:50:51Z</time>
      </trkpt>
      <trkpt lat="46.50384" lon="5.9885">
        <ele>995</ele>
        <time>2025-06-09T11:50:54Z</time>
      </trkpt>
      <trkpt lat="46.50381" lon="5.98852">
        <ele>996</ele>
        <time>2025-06-09T11:51:00Z</time>
      </trkpt>
      <trkpt lat="46.50378" lon="5.98855">
        <ele>995</ele>
        <time>2025-06-09T11:51:05Z</time>
      </trkpt>
      <trkpt lat="46.50375" lon="5.98857">
        <ele>995</ele>
        <time>2025-06-09T11:51:10Z</time>
      </trkpt>
      <trkpt lat="46.50372" lon="5.98858">
        <ele>996</ele>
        <time>2025-06-09T11:51:14Z</time>
      </trkpt>
      <trkpt lat="46.50369" lon="5.9886">
        <ele>996</ele>
        <time>2025-06-09T11:51:18Z</time>
      </trkpt>
      <trkpt lat="46.50366" lon="5.98861">
        <ele>996</ele>
        <time>2025-06-09T11:51:22Z</time>
      </trkpt>
      <trkpt lat="46.50364" lon="5.98862">
        <ele>997</ele>
        <time>2025-06-09T11:51:27Z</time>
      </trkpt>
      <trkpt lat="46.50361" lon="5.98865">
        <ele>997</ele>
        <time>2025-06-09T11:51:31Z</time>
      </trkpt>
      <trkpt lat="46.50358" lon="5.98867">
        <ele>997</ele>
        <time>2025-06-09T11:51:34Z</time>
      </trkpt>
      <trkpt lat="46.50356" lon="5.98871">
        <ele>998</ele>
        <time>2025-06-09T11:51:39Z</time>
      </trkpt>
      <trkpt lat="46.50354" lon="5.98874">
        <ele>998</ele>
        <time>2025-06-09T11:51:43Z</time>
      </trkpt>
      <trkpt lat="46.50353" lon="5.98878">
        <ele>999</ele>
        <time>2025-06-09T11:51:47Z</time>
      </trkpt>
      <trkpt lat="46.50351" lon="5.98882">
        <ele>999</ele>
        <time>2025-06-09T11:51:52Z</time>
      </trkpt>
      <trkpt lat="46.5035" lon="5.98886">
        <ele>999</ele>
        <time>2025-06-09T11:51:57Z</time>
      </trkpt>
      <trkpt lat="46.50347" lon="5.98889">
        <ele>999</ele>
        <time>2025-06-09T11:52:01Z</time>
      </trkpt>
      <trkpt lat="46.50345" lon="5.98892">
        <ele>1000</ele>
        <time>2025-06-09T11:52:05Z</time>
      </trkpt>
      <trkpt lat="46.50342" lon="5.98894">
        <ele>1000</ele>
        <time>2025-06-09T11:52:08Z</time>
      </trkpt>
      <trkpt lat="46.50339" lon="5.98897">
        <ele>1001</ele>
        <time>2025-06-09T11:52:13Z</time>
      </trkpt>
      <trkpt lat="46.50337" lon="5.98899">
        <ele>1001</ele>
        <time>2025-06-09T11:52:16Z</time>
      </trkpt>
      <trkpt lat="46.50335" lon="5.98902">
        <ele>1001</ele>
        <time>2025-06-09T11:52:21Z</time>
      </trkpt>
      <trkpt lat="46.50332" lon="5.98905">
        <ele>1002</ele>
        <time>2025-06-09T11:52:25Z</time>
      </trkpt>
      <trkpt lat="46.5033" lon="5.98907">
        <ele>1002</ele>
        <time>2025-06-09T11:52:29Z</time>
      </trkpt>
      <trkpt lat="46.50327" lon="5.98908">
        <ele>1002</ele>
        <time>2025-06-09T11:52:33Z</time>
      </trkpt>
      <trkpt lat="46.50324" lon="5.98909">
        <ele>1003</ele>
        <time>2025-06-09T11:52:38Z</time>
      </trkpt>
      <trkpt lat="46.50321" lon="5.98911">
        <ele>1003</ele>
        <time>2025-06-09T11:52:42Z</time>
      </trkpt>
      <trkpt lat="46.50319" lon="5.98914">
        <ele>1004</ele>
        <time>2025-06-09T11:52:46Z</time>
      </trkpt>
      <trkpt lat="46.50316" lon="5.98916">
        <ele>1004</ele>
        <time>2025-06-09T11:52:50Z</time>
      </trkpt>
      <trkpt lat="46.50313" lon="5.98918">
        <ele>1005</ele>
        <time>2025-06-09T11:52:55Z</time>
      </trkpt>
      <trkpt lat="46.50311" lon="5.9892">
        <ele>1006</ele>
        <time>2025-06-09T11:52:59Z</time>
      </trkpt>
      <trkpt lat="46.50308" lon="5.98924">
        <ele>1006</ele>
        <time>2025-06-09T11:53:03Z</time>
      </trkpt>
      <trkpt lat="46.50306" lon="5.98927">
        <ele>1006</ele>
        <time>2025-06-09T11:53:06Z</time>
      </trkpt>
      <trkpt lat="46.50305" lon="5.98931">
        <ele>1007</ele>
        <time>2025-06-09T11:53:09Z</time>
      </trkpt>
      <trkpt lat="46.50303" lon="5.98935">
        <ele>1007</ele>
        <time>2025-06-09T11:53:12Z</time>
      </trkpt>
      <trkpt lat="46.503" lon="5.98939">
        <ele>1008</ele>
        <time>2025-06-09T11:53:15Z</time>
      </trkpt>
      <trkpt lat="46.50298" lon="5.98943">
        <ele>1009</ele>
        <time>2025-06-09T11:53:20Z</time>
      </trkpt>
      <trkpt lat="46.50296" lon="5.98947">
        <ele>1009</ele>
        <time>2025-06-09T11:53:24Z</time>
      </trkpt>
      <trkpt lat="46.50295" lon="5.98951">
        <ele>1010</ele>
        <time>2025-06-09T11:53:27Z</time>
      </trkpt>
      <trkpt lat="46.50294" lon="5.98955">
        <ele>1010</ele>
        <time>2025-06-09T11:53:30Z</time>
      </trkpt>
      <trkpt lat="46.50294" lon="5.98959">
        <ele>1010</ele>
        <time>2025-06-09T11:53:33Z</time>
      </trkpt>
      <trkpt lat="46.50292" lon="5.98964">
        <ele>1011</ele>
        <time>2025-06-09T11:53:37Z</time>
      </trkpt>
      <trkpt lat="46.50292" lon="5.98968">
        <ele>1011</ele>
        <time>2025-06-09T11:53:41Z</time>
      </trkpt>
      <trkpt lat="46.50291" lon="5.98973">
        <ele>1012</ele>
        <time>2025-06-09T11:53:46Z</time>
      </trkpt>
      <trkpt lat="46.50291" lon="5.98977">
        <ele>1012</ele>
        <time>2025-06-09T11:53:50Z</time>
      </trkpt>
      <trkpt lat="46.5029" lon="5.98981">
        <ele>1012</ele>
        <time>2025-06-09T11:53:55Z</time>
      </trkpt>
      <trkpt lat="46.50289" lon="5.98985">
        <ele>1013</ele>
        <time>2025-06-09T11:53:59Z</time>
      </trkpt>
      <trkpt lat="46.50289" lon="5.9899">
        <ele>1013</ele>
        <time>2025-06-09T11:54:03Z</time>
      </trkpt>
      <trkpt lat="46.50288" lon="5.98995">
        <ele>1013</ele>
        <time>2025-06-09T11:54:06Z</time>
      </trkpt>
      <trkpt lat="46.50288" lon="5.99">
        <ele>1012</ele>
        <time>2025-06-09T11:54:09Z</time>
      </trkpt>
      <trkpt lat="46.50289" lon="5.99004">
        <ele>1012</ele>
        <time>2025-06-09T11:54:22Z</time>
      </trkpt>
      <trkpt lat="46.50293" lon="5.99008">
        <ele>1011</ele>
        <time>2025-06-09T11:54:30Z</time>
      </trkpt>
      <trkpt lat="46.50293" lon="5.99011">
        <ele>1011</ele>
        <time>2025-06-09T11:54:36Z</time>
      </trkpt>
      <trkpt lat="46.50293" lon="5.99014">
        <ele>1011</ele>
        <time>2025-06-09T11:54:39Z</time>
      </trkpt>
      <trkpt lat="46.50291" lon="5.99017">
        <ele>1011</ele>
        <time>2025-06-09T11:54:42Z</time>
      </trkpt>
      <trkpt lat="46.50289" lon="5.9902">
        <ele>1011</ele>
        <time>2025-06-09T11:54:46Z</time>
      </trkpt>
      <trkpt lat="46.50288" lon="5.99024">
        <ele>1012</ele>
        <time>2025-06-09T11:54:50Z</time>
      </trkpt>
      <trkpt lat="46.50286" lon="5.99028">
        <ele>1013</ele>
        <time>2025-06-09T11:54:54Z</time>
      </trkpt>
      <trkpt lat="46.50286" lon="5.99032">
        <ele>1014</ele>
        <time>2025-06-09T11:54:59Z</time>
      </trkpt>
      <trkpt lat="46.50285" lon="5.99036">
        <ele>1015</ele>
        <time>2025-06-09T11:55:03Z</time>
      </trkpt>
      <trkpt lat="46.50285" lon="5.9904">
        <ele>1016</ele>
        <time>2025-06-09T11:55:08Z</time>
      </trkpt>
      <trkpt lat="46.50284" lon="5.99045">
        <ele>1016</ele>
        <time>2025-06-09T11:55:11Z</time>
      </trkpt>
      <trkpt lat="46.50283" lon="5.99049">
        <ele>1016</ele>
        <time>2025-06-09T11:55:15Z</time>
      </trkpt>
      <trkpt lat="46.50282" lon="5.99054">
        <ele>1017</ele>
        <time>2025-06-09T11:55:22Z</time>
      </trkpt>
      <trkpt lat="46.50281" lon="5.99058">
        <ele>1017</ele>
        <time>2025-06-09T11:55:27Z</time>
      </trkpt>
      <trkpt lat="46.5028" lon="5.99062">
        <ele>1018</ele>
        <time>2025-06-09T11:55:31Z</time>
      </trkpt>
      <trkpt lat="46.50279" lon="5.99067">
        <ele>1018</ele>
        <time>2025-06-09T11:55:39Z</time>
      </trkpt>
      <trkpt lat="46.50278" lon="5.99071">
        <ele>1018</ele>
        <time>2025-06-09T11:55:43Z</time>
      </trkpt>
      <trkpt lat="46.50277" lon="5.99074">
        <ele>1018</ele>
        <time>2025-06-09T11:55:46Z</time>
      </trkpt>
      <trkpt lat="46.50275" lon="5.99078">
        <ele>1019</ele>
        <time>2025-06-09T11:55:50Z</time>
      </trkpt>
      <trkpt lat="46.50273" lon="5.99081">
        <ele>1019</ele>
        <time>2025-06-09T11:55:55Z</time>
      </trkpt>
      <trkpt lat="46.50272" lon="5.99085">
        <ele>1020</ele>
        <time>2025-06-09T11:55:58Z</time>
      </trkpt>
      <trkpt lat="46.50271" lon="5.9909">
        <ele>1020</ele>
        <time>2025-06-09T11:56:02Z</time>
      </trkpt>
      <trkpt lat="46.5027" lon="5.99095">
        <ele>1021</ele>
        <time>2025-06-09T11:56:05Z</time>
      </trkpt>
      <trkpt lat="46.50268" lon="5.99098">
        <ele>1021</ele>
        <time>2025-06-09T11:56:08Z</time>
      </trkpt>
      <trkpt lat="46.50266" lon="5.99102">
        <ele>1022</ele>
        <time>2025-06-09T11:56:13Z</time>
      </trkpt>
      <trkpt lat="46.50263" lon="5.99105">
        <ele>1023</ele>
        <time>2025-06-09T11:56:19Z</time>
      </trkpt>
      <trkpt lat="46.50261" lon="5.99108">
        <ele>1023</ele>
        <time>2025-06-09T11:56:23Z</time>
      </trkpt>
      <trkpt lat="46.50258" lon="5.99111">
        <ele>1024</ele>
        <time>2025-06-09T11:56:29Z</time>
      </trkpt>
      <trkpt lat="46.50255" lon="5.99112">
        <ele>1025</ele>
        <time>2025-06-09T11:56:33Z</time>
      </trkpt>
      <trkpt lat="46.50253" lon="5.99115">
        <ele>1025</ele>
        <time>2025-06-09T11:56:37Z</time>
      </trkpt>
      <trkpt lat="46.50251" lon="5.99119">
        <ele>1026</ele>
        <time>2025-06-09T11:56:42Z</time>
      </trkpt>
      <trkpt lat="46.5025" lon="5.99122">
        <ele>1027</ele>
        <time>2025-06-09T11:56:45Z</time>
      </trkpt>
      <trkpt lat="46.50248" lon="5.99126">
        <ele>1027</ele>
        <time>2025-06-09T11:56:49Z</time>
      </trkpt>
      <trkpt lat="46.50246" lon="5.9913">
        <ele>1028</ele>
        <time>2025-06-09T11:56:54Z</time>
      </trkpt>
      <trkpt lat="46.50244" lon="5.99134">
        <ele>1028</ele>
        <time>2025-06-09T11:56:58Z</time>
      </trkpt>
      <trkpt lat="46.50242" lon="5.99137">
        <ele>1028</ele>
        <time>2025-06-09T11:57:01Z</time>
      </trkpt>
      <trkpt lat="46.50239" lon="5.99139">
        <ele>1028</ele>
        <time>2025-06-09T11:57:05Z</time>
      </trkpt>
      <trkpt lat="46.50237" lon="5.99141">
        <ele>1029</ele>
        <time>2025-06-09T11:57:09Z</time>
      </trkpt>
      <trkpt lat="46.50234" lon="5.99144">
        <ele>1029</ele>
        <time>2025-06-09T11:57:13Z</time>
      </trkpt>
      <trkpt lat="46.50232" lon="5.99146">
        <ele>1029</ele>
        <time>2025-06-09T11:57:19Z</time>
      </trkpt>
      <trkpt lat="46.50229" lon="5.99148">
        <ele>1030</ele>
        <time>2025-06-09T11:57:24Z</time>
      </trkpt>
      <trkpt lat="46.50228" lon="5.99151">
        <ele>1030</ele>
        <time>2025-06-09T11:57:28Z</time>
      </trkpt>
      <trkpt lat="46.50226" lon="5.99155">
        <ele>1030</ele>
        <time>2025-06-09T11:57:32Z</time>
      </trkpt>
      <trkpt lat="46.50224" lon="5.99158">
        <ele>1030</ele>
        <time>2025-06-09T11:57:37Z</time>
      </trkpt>
      <trkpt lat="46.50221" lon="5.9916">
        <ele>1030</ele>
        <time>2025-06-09T11:57:42Z</time>
      </trkpt>
      <trkpt lat="46.50218" lon="5.99162">
        <ele>1030</ele>
        <time>2025-06-09T11:57:47Z</time>
      </trkpt>
      <trkpt lat="46.50215" lon="5.99163">
        <ele>1030</ele>
        <time>2025-06-09T11:57:51Z</time>
      </trkpt>
      <trkpt lat="46.50211" lon="5.99163">
        <ele>1030</ele>
        <time>2025-06-09T11:57:58Z</time>
      </trkpt>
      <trkpt lat="46.50208" lon="5.99164">
        <ele>1030</ele>
        <time>2025-06-09T11:58:03Z</time>
      </trkpt>
      <trkpt lat="46.50205" lon="5.99165">
        <ele>1030</ele>
        <time>2025-06-09T11:58:06Z</time>
      </trkpt>
      <trkpt lat="46.50202" lon="5.99166">
        <ele>1031</ele>
        <time>2025-06-09T11:58:09Z</time>
      </trkpt>
      <trkpt lat="46.502" lon="5.99168">
        <ele>1031</ele>
        <time>2025-06-09T11:58:12Z</time>
      </trkpt>
      <trkpt lat="46.50197" lon="5.9917">
        <ele>1031</ele>
        <time>2025-06-09T11:58:16Z</time>
      </trkpt>
      <trkpt lat="46.50195" lon="5.99173">
        <ele>1031</ele>
        <time>2025-06-09T11:58:21Z</time>
      </trkpt>
      <trkpt lat="46.50194" lon="5.99176">
        <ele>1031</ele>
        <time>2025-06-09T11:58:24Z</time>
      </trkpt>
      <trkpt lat="46.50192" lon="5.99179">
        <ele>1031</ele>
        <time>2025-06-09T11:58:28Z</time>
      </trkpt>
      <trkpt lat="46.5019" lon="5.99183">
        <ele>1031</ele>
        <time>2025-06-09T11:58:32Z</time>
      </trkpt>
      <trkpt lat="46.50187" lon="5.99186">
        <ele>1031</ele>
        <time>2025-06-09T11:58:36Z</time>
      </trkpt>
      <trkpt lat="46.50185" lon="5.99189">
        <ele>1031</ele>
        <time>2025-06-09T11:58:40Z</time>
      </trkpt>
      <trkpt lat="46.50182" lon="5.99191">
        <ele>1031</ele>
        <time>2025-06-09T11:58:43Z</time>
      </trkpt>
      <trkpt lat="46.50179" lon="5.99193">
        <ele>1031</ele>
        <time>2025-06-09T11:58:46Z</time>
      </trkpt>
      <trkpt lat="46.50176" lon="5.99193">
        <ele>1032</ele>
        <time>2025-06-09T11:58:56Z</time>
      </trkpt>
      <trkpt lat="46.50174" lon="5.99195">
        <ele>1032</ele>
        <time>2025-06-09T11:59:00Z</time>
      </trkpt>
      <trkpt lat="46.50172" lon="5.99198">
        <ele>1033</ele>
        <time>2025-06-09T11:59:04Z</time>
      </trkpt>
      <trkpt lat="46.50169" lon="5.99199">
        <ele>1033</ele>
        <time>2025-06-09T11:59:09Z</time>
      </trkpt>
      <trkpt lat="46.50166" lon="5.99201">
        <ele>1033</ele>
        <time>2025-06-09T11:59:14Z</time>
      </trkpt>
      <trkpt lat="46.50163" lon="5.99203">
        <ele>1034</ele>
        <time>2025-06-09T11:59:19Z</time>
      </trkpt>
      <trkpt lat="46.5016" lon="5.99205">
        <ele>1034</ele>
        <time>2025-06-09T11:59:25Z</time>
      </trkpt>
      <trkpt lat="46.50158" lon="5.99207">
        <ele>1035</ele>
        <time>2025-06-09T11:59:30Z</time>
      </trkpt>
      <trkpt lat="46.50155" lon="5.9921">
        <ele>1035</ele>
        <time>2025-06-09T11:59:36Z</time>
      </trkpt>
      <trkpt lat="46.50153" lon="5.99212">
        <ele>1036</ele>
        <time>2025-06-09T11:59:41Z</time>
      </trkpt>
      <trkpt lat="46.5015" lon="5.99213">
        <ele>1036</ele>
        <time>2025-06-09T11:59:45Z</time>
      </trkpt>
      <trkpt lat="46.50147" lon="5.99213">
        <ele>1037</ele>
        <time>2025-06-09T11:59:50Z</time>
      </trkpt>
      <trkpt lat="46.50144" lon="5.99213">
        <ele>1038</ele>
        <time>2025-06-09T11:59:54Z</time>
      </trkpt>
      <trkpt lat="46.50141" lon="5.99215">
        <ele>1038</ele>
        <time>2025-06-09T11:59:59Z</time>
      </trkpt>
      <trkpt lat="46.50139" lon="5.99216">
        <ele>1039</ele>
        <time>2025-06-09T12:00:03Z</time>
      </trkpt>
      <trkpt lat="46.50137" lon="5.99219">
        <ele>1040</ele>
        <time>2025-06-09T12:00:09Z</time>
      </trkpt>
      <trkpt lat="46.50136" lon="5.99223">
        <ele>1041</ele>
        <time>2025-06-09T12:00:13Z</time>
      </trkpt>
      <trkpt lat="46.50135" lon="5.99227">
        <ele>1041</ele>
        <time>2025-06-09T12:00:17Z</time>
      </trkpt>
      <trkpt lat="46.50134" lon="5.99231">
        <ele>1042</ele>
        <time>2025-06-09T12:00:21Z</time>
      </trkpt>
      <trkpt lat="46.50133" lon="5.99234">
        <ele>1042</ele>
        <time>2025-06-09T12:00:25Z</time>
      </trkpt>
      <trkpt lat="46.50132" lon="5.99239">
        <ele>1043</ele>
        <time>2025-06-09T12:00:30Z</time>
      </trkpt>
      <trkpt lat="46.50131" lon="5.99243">
        <ele>1043</ele>
        <time>2025-06-09T12:00:34Z</time>
      </trkpt>
      <trkpt lat="46.5013" lon="5.99248">
        <ele>1043</ele>
        <time>2025-06-09T12:00:38Z</time>
      </trkpt>
      <trkpt lat="46.50129" lon="5.99252">
        <ele>1044</ele>
        <time>2025-06-09T12:00:44Z</time>
      </trkpt>
      <trkpt lat="46.50127" lon="5.99255">
        <ele>1044</ele>
        <time>2025-06-09T12:00:50Z</time>
      </trkpt>
      <trkpt lat="46.50124" lon="5.99258">
        <ele>1045</ele>
        <time>2025-06-09T12:00:57Z</time>
      </trkpt>
      <trkpt lat="46.50121" lon="5.99262">
        <ele>1046</ele>
        <time>2025-06-09T12:01:13Z</time>
      </trkpt>
      <trkpt lat="46.50118" lon="5.99266">
        <ele>1046</ele>
        <time>2025-06-09T12:01:18Z</time>
      </trkpt>
      <trkpt lat="46.50115" lon="5.99269">
        <ele>1047</ele>
        <time>2025-06-09T12:01:25Z</time>
      </trkpt>
      <trkpt lat="46.50113" lon="5.99271">
        <ele>1047</ele>
        <time>2025-06-09T12:01:31Z</time>
      </trkpt>
      <trkpt lat="46.50111" lon="5.99274">
        <ele>1048</ele>
        <time>2025-06-09T12:01:35Z</time>
      </trkpt>
      <trkpt lat="46.50108" lon="5.99276">
        <ele>1048</ele>
        <time>2025-06-09T12:01:38Z</time>
      </trkpt>
      <trkpt lat="46.50105" lon="5.99277">
        <ele>1049</ele>
        <time>2025-06-09T12:01:41Z</time>
      </trkpt>
      <trkpt lat="46.50103" lon="5.99278">
        <ele>1049</ele>
        <time>2025-06-09T12:01:45Z</time>
      </trkpt>
      <trkpt lat="46.501" lon="5.9928">
        <ele>1050</ele>
        <time>2025-06-09T12:01:50Z</time>
      </trkpt>
      <trkpt lat="46.50094" lon="5.99281">
        <ele>1051</ele>
        <time>2025-06-09T12:02:08Z</time>
      </trkpt>
      <trkpt lat="46.5009" lon="5.99282">
        <ele>1051</ele>
        <time>2025-06-09T12:02:12Z</time>
      </trkpt>
      <trkpt lat="46.50087" lon="5.99282">
        <ele>1051</ele>
        <time>2025-06-09T12:02:17Z</time>
      </trkpt>
      <trkpt lat="46.50082" lon="5.99283">
        <ele>1051</ele>
        <time>2025-06-09T12:02:31Z</time>
      </trkpt>
      <trkpt lat="46.50078" lon="5.99285">
        <ele>1052</ele>
        <time>2025-06-09T12:02:36Z</time>
      </trkpt>
      <trkpt lat="46.50074" lon="5.99288">
        <ele>1053</ele>
        <time>2025-06-09T12:02:58Z</time>
      </trkpt>
      <trkpt lat="46.50071" lon="5.99291">
        <ele>1053</ele>
        <time>2025-06-09T12:03:03Z</time>
      </trkpt>
      <trkpt lat="46.50069" lon="5.99295">
        <ele>1053</ele>
        <time>2025-06-09T12:03:08Z</time>
      </trkpt>
      <trkpt lat="46.50067" lon="5.99299">
        <ele>1054</ele>
        <time>2025-06-09T12:03:12Z</time>
      </trkpt>
      <trkpt lat="46.50065" lon="5.99302">
        <ele>1053</ele>
        <time>2025-06-09T12:03:16Z</time>
      </trkpt>
      <trkpt lat="46.50063" lon="5.99306">
        <ele>1053</ele>
        <time>2025-06-09T12:03:19Z</time>
      </trkpt>
      <trkpt lat="46.50061" lon="5.99309">
        <ele>1053</ele>
        <time>2025-06-09T12:03:23Z</time>
      </trkpt>
      <trkpt lat="46.50059" lon="5.99313">
        <ele>1053</ele>
        <time>2025-06-09T12:03:29Z</time>
      </trkpt>
      <trkpt lat="46.50061" lon="5.99313">
        <ele>1055</ele>
        <time>2025-06-09T12:04:13Z</time>
      </trkpt>
      <trkpt lat="46.50059" lon="5.99313">
        <ele>1054</ele>
        <time>2025-06-09T12:04:28Z</time>
      </trkpt>
      <trkpt lat="46.50055" lon="5.99314">
        <ele>1053</ele>
        <time>2025-06-09T12:04:32Z</time>
      </trkpt>
      <trkpt lat="46.50051" lon="5.99316">
        <ele>1054</ele>
        <time>2025-06-09T12:04:38Z</time>
      </trkpt>
      <trkpt lat="46.50048" lon="5.99317">
        <ele>1055</ele>
        <time>2025-06-09T12:04:43Z</time>
      </trkpt>
      <trkpt lat="46.50045" lon="5.99319">
        <ele>1056</ele>
        <time>2025-06-09T12:04:48Z</time>
      </trkpt>
      <trkpt lat="46.50041" lon="5.9932">
        <ele>1057</ele>
        <time>2025-06-09T12:05:04Z</time>
      </trkpt>
      <trkpt lat="46.50038" lon="5.99322">
        <ele>1057</ele>
        <time>2025-06-09T12:05:08Z</time>
      </trkpt>
      <trkpt lat="46.50036" lon="5.99324">
        <ele>1058</ele>
        <time>2025-06-09T12:05:15Z</time>
      </trkpt>
      <trkpt lat="46.50034" lon="5.99327">
        <ele>1058</ele>
        <time>2025-06-09T12:05:20Z</time>
      </trkpt>
      <trkpt lat="46.50031" lon="5.99329">
        <ele>1058</ele>
        <time>2025-06-09T12:05:24Z</time>
      </trkpt>
      <trkpt lat="46.50028" lon="5.9933">
        <ele>1058</ele>
        <time>2025-06-09T12:05:29Z</time>
      </trkpt>
      <trkpt lat="46.50026" lon="5.99332">
        <ele>1059</ele>
        <time>2025-06-09T12:05:34Z</time>
      </trkpt>
      <trkpt lat="46.50021" lon="5.99338">
        <ele>1058</ele>
        <time>2025-06-09T12:05:59Z</time>
      </trkpt>
      <trkpt lat="46.50017" lon="5.99341">
        <ele>1058</ele>
        <time>2025-06-09T12:06:03Z</time>
      </trkpt>
      <trkpt lat="46.50014" lon="5.99342">
        <ele>1058</ele>
        <time>2025-06-09T12:06:08Z</time>
      </trkpt>
      <trkpt lat="46.50011" lon="5.99344">
        <ele>1058</ele>
        <time>2025-06-09T12:06:13Z</time>
      </trkpt>
      <trkpt lat="46.50008" lon="5.99345">
        <ele>1057</ele>
        <time>2025-06-09T12:06:19Z</time>
      </trkpt>
      <trkpt lat="46.50006" lon="5.99347">
        <ele>1057</ele>
        <time>2025-06-09T12:06:23Z</time>
      </trkpt>
      <trkpt lat="46.50003" lon="5.99348">
        <ele>1057</ele>
        <time>2025-06-09T12:06:27Z</time>
      </trkpt>
      <trkpt lat="46.5" lon="5.9935">
        <ele>1057</ele>
        <time>2025-06-09T12:06:30Z</time>
      </trkpt>
      <trkpt lat="46.49997" lon="5.99352">
        <ele>1058</ele>
        <time>2025-06-09T12:06:34Z</time>
      </trkpt>
      <trkpt lat="46.49995" lon="5.99354">
        <ele>1058</ele>
        <time>2025-06-09T12:06:39Z</time>
      </trkpt>
      <trkpt lat="46.49992" lon="5.99356">
        <ele>1058</ele>
        <time>2025-06-09T12:06:45Z</time>
      </trkpt>
      <trkpt lat="46.4999" lon="5.99359">
        <ele>1059</ele>
        <time>2025-06-09T12:06:59Z</time>
      </trkpt>
      <trkpt lat="46.49988" lon="5.99362">
        <ele>1060</ele>
        <time>2025-06-09T12:07:05Z</time>
      </trkpt>
      <trkpt lat="46.49986" lon="5.99364">
        <ele>1061</ele>
        <time>2025-06-09T12:07:09Z</time>
      </trkpt>
      <trkpt lat="46.49983" lon="5.99365">
        <ele>1062</ele>
        <time>2025-06-09T12:07:14Z</time>
      </trkpt>
      <trkpt lat="46.4998" lon="5.99366">
        <ele>1063</ele>
        <time>2025-06-09T12:07:19Z</time>
      </trkpt>
      <trkpt lat="46.49975" lon="5.99365">
        <ele>1065</ele>
        <time>2025-06-09T12:07:31Z</time>
      </trkpt>
      <trkpt lat="46.49971" lon="5.99366">
        <ele>1066</ele>
        <time>2025-06-09T12:07:38Z</time>
      </trkpt>
      <trkpt lat="46.49968" lon="5.99368">
        <ele>1066</ele>
        <time>2025-06-09T12:07:42Z</time>
      </trkpt>
      <trkpt lat="46.49965" lon="5.9937">
        <ele>1067</ele>
        <time>2025-06-09T12:07:46Z</time>
      </trkpt>
      <trkpt lat="46.49963" lon="5.99372">
        <ele>1067</ele>
        <time>2025-06-09T12:07:49Z</time>
      </trkpt>
      <trkpt lat="46.4996" lon="5.99374">
        <ele>1067</ele>
        <time>2025-06-09T12:07:53Z</time>
      </trkpt>
      <trkpt lat="46.49952" lon="5.99376">
        <ele>1068</ele>
        <time>2025-06-09T12:08:24Z</time>
      </trkpt>
      <trkpt lat="46.49944" lon="5.99378">
        <ele>1069</ele>
        <time>2025-06-09T12:08:44Z</time>
      </trkpt>
      <trkpt lat="46.49939" lon="5.9938">
        <ele>1070</ele>
        <time>2025-06-09T12:08:48Z</time>
      </trkpt>
      <trkpt lat="46.49935" lon="5.9938">
        <ele>1070</ele>
        <time>2025-06-09T12:08:53Z</time>
      </trkpt>
      <trkpt lat="46.4993" lon="5.99381">
        <ele>1069</ele>
        <time>2025-06-09T12:09:22Z</time>
      </trkpt>
      <trkpt lat="46.49926" lon="5.99382">
        <ele>1069</ele>
        <time>2025-06-09T12:09:26Z</time>
      </trkpt>
      <trkpt lat="46.49923" lon="5.99385">
        <ele>1069</ele>
        <time>2025-06-09T12:09:30Z</time>
      </trkpt>
      <trkpt lat="46.4992" lon="5.99387">
        <ele>1068</ele>
        <time>2025-06-09T12:09:34Z</time>
      </trkpt>
      <trkpt lat="46.49916" lon="5.99388">
        <ele>1068</ele>
        <time>2025-06-09T12:09:43Z</time>
      </trkpt>
      <trkpt lat="46.49913" lon="5.99389">
        <ele>1069</ele>
        <time>2025-06-09T12:09:49Z</time>
      </trkpt>
      <trkpt lat="46.4991" lon="5.99391">
        <ele>1070</ele>
        <time>2025-06-09T12:09:56Z</time>
      </trkpt>
      <trkpt lat="46.49907" lon="5.99392">
        <ele>1071</ele>
        <time>2025-06-09T12:10:12Z</time>
      </trkpt>
      <trkpt lat="46.49905" lon="5.994">
        <ele>1071</ele>
        <time>2025-06-09T12:10:35Z</time>
      </trkpt>
      <trkpt lat="46.49903" lon="5.99404">
        <ele>1071</ele>
        <time>2025-06-09T12:10:40Z</time>
      </trkpt>
      <trkpt lat="46.49901" lon="5.99413">
        <ele>1071</ele>
        <time>2025-06-09T12:11:13Z</time>
      </trkpt>
      <trkpt lat="46.49897" lon="5.99422">
        <ele>1069</ele>
        <time>2025-06-09T12:11:46Z</time>
      </trkpt>
      <trkpt lat="46.49894" lon="5.99428">
        <ele>1069</ele>
        <time>2025-06-09T12:11:53Z</time>
      </trkpt>
      <trkpt lat="46.49894" lon="5.99433">
        <ele>1068</ele>
        <time>2025-06-09T12:11:58Z</time>
      </trkpt>
      <trkpt lat="46.49891" lon="5.99441">
        <ele>1069</ele>
        <time>2025-06-09T12:12:20Z</time>
      </trkpt>
      <trkpt lat="46.49889" lon="5.99446">
        <ele>1070</ele>
        <time>2025-06-09T12:12:28Z</time>
      </trkpt>
      <trkpt lat="46.49887" lon="5.9945">
        <ele>1071</ele>
        <time>2025-06-09T12:12:33Z</time>
      </trkpt>
      <trkpt lat="46.49885" lon="5.99453">
        <ele>1071</ele>
        <time>2025-06-09T12:12:37Z</time>
      </trkpt>
      <trkpt lat="46.49883" lon="5.99456">
        <ele>1072</ele>
        <time>2025-06-09T12:12:43Z</time>
      </trkpt>
      <trkpt lat="46.49881" lon="5.99461">
        <ele>1072</ele>
        <time>2025-06-09T12:12:54Z</time>
      </trkpt>
      <trkpt lat="46.49879" lon="5.99466">
        <ele>1073</ele>
        <time>2025-06-09T12:12:58Z</time>
      </trkpt>
      <trkpt lat="46.49879" lon="5.9947">
        <ele>1073</ele>
        <time>2025-06-09T12:13:03Z</time>
      </trkpt>
      <trkpt lat="46.49878" lon="5.99475">
        <ele>1073</ele>
        <time>2025-06-09T12:13:07Z</time>
      </trkpt>
      <trkpt lat="46.49877" lon="5.99485">
        <ele>1073</ele>
        <time>2025-06-09T12:13:25Z</time>
      </trkpt>
      <trkpt lat="46.49877" lon="5.99493">
        <ele>1073</ele>
        <time>2025-06-09T12:13:31Z</time>
      </trkpt>
      <trkpt lat="46.4988" lon="5.995">
        <ele>1075</ele>
        <time>2025-06-09T12:14:05Z</time>
      </trkpt>
      <trkpt lat="46.49885" lon="5.99506">
        <ele>1077</ele>
        <time>2025-06-09T12:15:28Z</time>
      </trkpt>
      <trkpt lat="46.49883" lon="5.99506">
        <ele>1077</ele>
        <time>2025-06-09T12:16:14Z</time>
      </trkpt>
      <trkpt lat="46.49883" lon="5.99509">
        <ele>1077</ele>
        <time>2025-06-09T12:16:19Z</time>
      </trkpt>
      <trkpt lat="46.49883" lon="5.99513">
        <ele>1077</ele>
        <time>2025-06-09T12:16:23Z</time>
      </trkpt>
      <trkpt lat="46.49882" lon="5.99518">
        <ele>1077</ele>
        <time>2025-06-09T12:16:28Z</time>
      </trkpt>
      <trkpt lat="46.49883" lon="5.99526">
        <ele>1079</ele>
        <time>2025-06-09T12:17:13Z</time>
      </trkpt>
      <trkpt lat="46.49885" lon="5.9953">
        <ele>1078</ele>
        <time>2025-06-09T12:17:30Z</time>
      </trkpt>
      <trkpt lat="46.49882" lon="5.99527">
        <ele>1076</ele>
        <time>2025-06-09T12:17:57Z</time>
      </trkpt>
      <trkpt lat="46.49882" lon="5.99525">
        <ele>1076</ele>
        <time>2025-06-09T12:18:03Z</time>
      </trkpt>
      <trkpt lat="46.49882" lon="5.99521">
        <ele>1077</ele>
        <time>2025-06-09T12:18:07Z</time>
      </trkpt>
      <trkpt lat="46.4988" lon="5.9952">
        <ele>1078</ele>
        <time>2025-06-09T12:18:21Z</time>
      </trkpt>
      <trkpt lat="46.49878" lon="5.99522">
        <ele>1078</ele>
        <time>2025-06-09T12:18:26Z</time>
      </trkpt>
      <trkpt lat="46.49876" lon="5.99525">
        <ele>1079</ele>
        <time>2025-06-09T12:18:30Z</time>
      </trkpt>
      <trkpt lat="46.49874" lon="5.99529">
        <ele>1079</ele>
        <time>2025-06-09T12:18:36Z</time>
      </trkpt>
      <trkpt lat="46.49873" lon="5.99532">
        <ele>1080</ele>
        <time>2025-06-09T12:18:41Z</time>
      </trkpt>
      <trkpt lat="46.4987" lon="5.99537">
        <ele>1080</ele>
        <time>2025-06-09T12:18:58Z</time>
      </trkpt>
      <trkpt lat="46.49869" lon="5.99542">
        <ele>1080</ele>
        <time>2025-06-09T12:19:02Z</time>
      </trkpt>
      <trkpt lat="46.49868" lon="5.99547">
        <ele>1081</ele>
        <time>2025-06-09T12:19:06Z</time>
      </trkpt>
      <trkpt lat="46.49868" lon="5.99551">
        <ele>1081</ele>
        <time>2025-06-09T12:19:11Z</time>
      </trkpt>
      <trkpt lat="46.49867" lon="5.99555">
        <ele>1081</ele>
        <time>2025-06-09T12:19:17Z</time>
      </trkpt>
      <trkpt lat="46.49864" lon="5.99559">
        <ele>1081</ele>
        <time>2025-06-09T12:19:22Z</time>
      </trkpt>
      <trkpt lat="46.49863" lon="5.99562">
        <ele>1082</ele>
        <time>2025-06-09T12:19:27Z</time>
      </trkpt>
      <trkpt lat="46.4986" lon="5.99564">
        <ele>1082</ele>
        <time>2025-06-09T12:19:31Z</time>
      </trkpt>
      <trkpt lat="46.49858" lon="5.99567">
        <ele>1082</ele>
        <time>2025-06-09T12:19:41Z</time>
      </trkpt>
      <trkpt lat="46.49855" lon="5.99572">
        <ele>1082</ele>
        <time>2025-06-09T12:19:51Z</time>
      </trkpt>
      <trkpt lat="46.49853" lon="5.99576">
        <ele>1082</ele>
        <time>2025-06-09T12:19:54Z</time>
      </trkpt>
      <trkpt lat="46.49851" lon="5.99579">
        <ele>1082</ele>
        <time>2025-06-09T12:20:00Z</time>
      </trkpt>
      <trkpt lat="46.4985" lon="5.99586">
        <ele>1083</ele>
        <time>2025-06-09T12:20:37Z</time>
      </trkpt>
      <trkpt lat="46.49848" lon="5.99589">
        <ele>1083</ele>
        <time>2025-06-09T12:20:42Z</time>
      </trkpt>
      <trkpt lat="46.49845" lon="5.99589">
        <ele>1083</ele>
        <time>2025-06-09T12:20:46Z</time>
      </trkpt>
      <trkpt lat="46.49842" lon="5.99589">
        <ele>1084</ele>
        <time>2025-06-09T12:20:51Z</time>
      </trkpt>
      <trkpt lat="46.49836" lon="5.99588">
        <ele>1086</ele>
        <time>2025-06-09T12:21:13Z</time>
      </trkpt>
      <trkpt lat="46.49832" lon="5.99589">
        <ele>1087</ele>
        <time>2025-06-09T12:21:20Z</time>
      </trkpt>
      <trkpt lat="46.49829" lon="5.99589">
        <ele>1088</ele>
        <time>2025-06-09T12:21:26Z</time>
      </trkpt>
      <trkpt lat="46.49826" lon="5.99591">
        <ele>1088</ele>
        <time>2025-06-09T12:21:34Z</time>
      </trkpt>
      <trkpt lat="46.49823" lon="5.99594">
        <ele>1089</ele>
        <time>2025-06-09T12:21:38Z</time>
      </trkpt>
      <trkpt lat="46.49821" lon="5.99595">
        <ele>1089</ele>
        <time>2025-06-09T12:21:41Z</time>
      </trkpt>
      <trkpt lat="46.49818" lon="5.99605">
        <ele>1089</ele>
        <time>2025-06-09T12:22:14Z</time>
      </trkpt>
      <trkpt lat="46.49815" lon="5.99608">
        <ele>1091</ele>
        <time>2025-06-09T12:22:55Z</time>
      </trkpt>
      <trkpt lat="46.49811" lon="5.99611">
        <ele>1092</ele>
        <time>2025-06-09T12:23:13Z</time>
      </trkpt>
      <trkpt lat="46.49808" lon="5.99614">
        <ele>1093</ele>
        <time>2025-06-09T12:23:20Z</time>
      </trkpt>
      <trkpt lat="46.49805" lon="5.99618">
        <ele>1094</ele>
        <time>2025-06-09T12:23:32Z</time>
      </trkpt>
      <trkpt lat="46.49802" lon="5.99622">
        <ele>1094</ele>
        <time>2025-06-09T12:23:36Z</time>
      </trkpt>
      <trkpt lat="46.49801" lon="5.99626">
        <ele>1093</ele>
        <time>2025-06-09T12:23:42Z</time>
      </trkpt>
      <trkpt lat="46.49802" lon="5.99631">
        <ele>1093</ele>
        <time>2025-06-09T12:23:50Z</time>
      </trkpt>
      <trkpt lat="46.498" lon="5.99634">
        <ele>1093</ele>
        <time>2025-06-09T12:23:55Z</time>
      </trkpt>
      <trkpt lat="46.49799" lon="5.99637">
        <ele>1093</ele>
        <time>2025-06-09T12:24:01Z</time>
      </trkpt>
      <trkpt lat="46.49797" lon="5.99641">
        <ele>1094</ele>
        <time>2025-06-09T12:24:07Z</time>
      </trkpt>
      <trkpt lat="46.49796" lon="5.99644">
        <ele>1095</ele>
        <time>2025-06-09T12:24:13Z</time>
      </trkpt>
      <trkpt lat="46.49794" lon="5.99648">
        <ele>1096</ele>
        <time>2025-06-09T12:24:20Z</time>
      </trkpt>
      <trkpt lat="46.49793" lon="5.99652">
        <ele>1097</ele>
        <time>2025-06-09T12:24:24Z</time>
      </trkpt>
      <trkpt lat="46.49793" lon="5.99656">
        <ele>1098</ele>
        <time>2025-06-09T12:24:28Z</time>
      </trkpt>
      <trkpt lat="46.49793" lon="5.9966">
        <ele>1100</ele>
        <time>2025-06-09T12:24:34Z</time>
      </trkpt>
      <trkpt lat="46.49794" lon="5.99672">
        <ele>1100</ele>
        <time>2025-06-09T12:25:18Z</time>
      </trkpt>
      <trkpt lat="46.49801" lon="5.99682">
        <ele>1097</ele>
        <time>2025-06-09T12:25:38Z</time>
      </trkpt>
      <trkpt lat="46.49799" lon="5.99682">
        <ele>1099</ele>
        <time>2025-06-09T12:26:47Z</time>
      </trkpt>
      <trkpt lat="46.49797" lon="5.99684">
        <ele>1100</ele>
        <time>2025-06-09T12:26:50Z</time>
      </trkpt>
      <trkpt lat="46.49794" lon="5.99684">
        <ele>1100</ele>
        <time>2025-06-09T12:26:52Z</time>
      </trkpt>
      <trkpt lat="46.49791" lon="5.99686">
        <ele>1100</ele>
        <time>2025-06-09T12:26:58Z</time>
      </trkpt>
      <trkpt lat="46.49788" lon="5.99688">
        <ele>1100</ele>
        <time>2025-06-09T12:27:04Z</time>
      </trkpt>
      <trkpt lat="46.49786" lon="5.99687">
        <ele>1100</ele>
        <time>2025-06-09T12:27:10Z</time>
      </trkpt>
      <trkpt lat="46.49784" lon="5.99689">
        <ele>1100</ele>
        <time>2025-06-09T12:27:14Z</time>
      </trkpt>
      <trkpt lat="46.49782" lon="5.99693">
        <ele>1100</ele>
        <time>2025-06-09T12:27:18Z</time>
      </trkpt>
      <trkpt lat="46.4978" lon="5.99697">
        <ele>1100</ele>
        <time>2025-06-09T12:27:22Z</time>
      </trkpt>
      <trkpt lat="46.49778" lon="5.997">
        <ele>1100</ele>
        <time>2025-06-09T12:27:25Z</time>
      </trkpt>
      <trkpt lat="46.49777" lon="5.99704">
        <ele>1100</ele>
        <time>2025-06-09T12:27:28Z</time>
      </trkpt>
      <trkpt lat="46.49776" lon="5.99708">
        <ele>1099</ele>
        <time>2025-06-09T12:27:31Z</time>
      </trkpt>
      <trkpt lat="46.49775" lon="5.99712">
        <ele>1099</ele>
        <time>2025-06-09T12:27:35Z</time>
      </trkpt>
      <trkpt lat="46.49774" lon="5.99716">
        <ele>1099</ele>
        <time>2025-06-09T12:27:39Z</time>
      </trkpt>
      <trkpt lat="46.49773" lon="5.99721">
        <ele>1099</ele>
        <time>2025-06-09T12:27:43Z</time>
      </trkpt>
      <trkpt lat="46.49773" lon="5.99725">
        <ele>1099</ele>
        <time>2025-06-09T12:27:48Z</time>
      </trkpt>
      <trkpt lat="46.49772" lon="5.99729">
        <ele>1099</ele>
        <time>2025-06-09T12:27:52Z</time>
      </trkpt>
      <trkpt lat="46.49771" lon="5.99734">
        <ele>1100</ele>
        <time>2025-06-09T12:27:56Z</time>
      </trkpt>
      <trkpt lat="46.4977" lon="5.99739">
        <ele>1099</ele>
        <time>2025-06-09T12:28:00Z</time>
      </trkpt>
      <trkpt lat="46.49769" lon="5.99743">
        <ele>1100</ele>
        <time>2025-06-09T12:28:04Z</time>
      </trkpt>
      <trkpt lat="46.49769" lon="5.99748">
        <ele>1100</ele>
        <time>2025-06-09T12:28:08Z</time>
      </trkpt>
      <trkpt lat="46.49768" lon="5.99753">
        <ele>1100</ele>
        <time>2025-06-09T12:28:12Z</time>
      </trkpt>
      <trkpt lat="46.49767" lon="5.99757">
        <ele>1100</ele>
        <time>2025-06-09T12:28:15Z</time>
      </trkpt>
      <trkpt lat="46.49766" lon="5.99761">
        <ele>1100</ele>
        <time>2025-06-09T12:28:22Z</time>
      </trkpt>
      <trkpt lat="46.49765" lon="5.99765">
        <ele>1100</ele>
        <time>2025-06-09T12:28:26Z</time>
      </trkpt>
      <trkpt lat="46.49764" lon="5.99769">
        <ele>1100</ele>
        <time>2025-06-09T12:28:30Z</time>
      </trkpt>
      <trkpt lat="46.49763" lon="5.99773">
        <ele>1100</ele>
        <time>2025-06-09T12:28:34Z</time>
      </trkpt>
      <trkpt lat="46.49762" lon="5.99777">
        <ele>1100</ele>
        <time>2025-06-09T12:28:38Z</time>
      </trkpt>
      <trkpt lat="46.49761" lon="5.99781">
        <ele>1100</ele>
        <time>2025-06-09T12:28:42Z</time>
      </trkpt>
      <trkpt lat="46.4976" lon="5.99785">
        <ele>1100</ele>
        <time>2025-06-09T12:28:46Z</time>
      </trkpt>
      <trkpt lat="46.49759" lon="5.9979">
        <ele>1101</ele>
        <time>2025-06-09T12:28:50Z</time>
      </trkpt>
      <trkpt lat="46.49758" lon="5.99794">
        <ele>1100</ele>
        <time>2025-06-09T12:28:53Z</time>
      </trkpt>
      <trkpt lat="46.49757" lon="5.99799">
        <ele>1100</ele>
        <time>2025-06-09T12:28:57Z</time>
      </trkpt>
      <trkpt lat="46.49756" lon="5.99803">
        <ele>1100</ele>
        <time>2025-06-09T12:29:01Z</time>
      </trkpt>
      <trkpt lat="46.49754" lon="5.99806">
        <ele>1099</ele>
        <time>2025-06-09T12:29:06Z</time>
      </trkpt>
      <trkpt lat="46.49752" lon="5.99808">
        <ele>1099</ele>
        <time>2025-06-09T12:29:11Z</time>
      </trkpt>
      <trkpt lat="46.4975" lon="5.99811">
        <ele>1098</ele>
        <time>2025-06-09T12:29:16Z</time>
      </trkpt>
      <trkpt lat="46.49748" lon="5.99815">
        <ele>1098</ele>
        <time>2025-06-09T12:29:21Z</time>
      </trkpt>
      <trkpt lat="46.49747" lon="5.99819">
        <ele>1097</ele>
        <time>2025-06-09T12:29:27Z</time>
      </trkpt>
      <trkpt lat="46.49745" lon="5.99824">
        <ele>1097</ele>
        <time>2025-06-09T12:29:36Z</time>
      </trkpt>
      <trkpt lat="46.49743" lon="5.99827">
        <ele>1097</ele>
        <time>2025-06-09T12:29:42Z</time>
      </trkpt>
      <trkpt lat="46.4974" lon="5.99829">
        <ele>1097</ele>
        <time>2025-06-09T12:29:50Z</time>
      </trkpt>
      <trkpt lat="46.49738" lon="5.99831">
        <ele>1098</ele>
        <time>2025-06-09T12:29:56Z</time>
      </trkpt>
      <trkpt lat="46.49734" lon="5.99831">
        <ele>1098</ele>
        <time>2025-06-09T12:30:02Z</time>
      </trkpt>
      <trkpt lat="46.49731" lon="5.99832">
        <ele>1099</ele>
        <time>2025-06-09T12:30:08Z</time>
      </trkpt>
      <trkpt lat="46.49728" lon="5.99832">
        <ele>1100</ele>
        <time>2025-06-09T12:30:12Z</time>
      </trkpt>
      <trkpt lat="46.49725" lon="5.99831">
        <ele>1100</ele>
        <time>2025-06-09T12:30:17Z</time>
      </trkpt>
      <trkpt lat="46.49722" lon="5.99831">
        <ele>1101</ele>
        <time>2025-06-09T12:30:23Z</time>
      </trkpt>
      <trkpt lat="46.49718" lon="5.99832">
        <ele>1102</ele>
        <time>2025-06-09T12:30:29Z</time>
      </trkpt>
      <trkpt lat="46.49716" lon="5.99837">
        <ele>1103</ele>
        <time>2025-06-09T12:30:40Z</time>
      </trkpt>
      <trkpt lat="46.49714" lon="5.99836">
        <ele>1103</ele>
        <time>2025-06-09T12:30:47Z</time>
      </trkpt>
      <trkpt lat="46.49714" lon="5.9984">
        <ele>1100</ele>
        <time>2025-06-09T12:30:58Z</time>
      </trkpt>
      <trkpt lat="46.49715" lon="5.99843">
        <ele>1100</ele>
        <time>2025-06-09T12:31:02Z</time>
      </trkpt>
      <trkpt lat="46.49715" lon="5.99847">
        <ele>1100</ele>
        <time>2025-06-09T12:31:04Z</time>
      </trkpt>
      <trkpt lat="46.49713" lon="5.99848">
        <ele>1101</ele>
        <time>2025-06-09T12:31:09Z</time>
      </trkpt>
      <trkpt lat="46.49711" lon="5.9985">
        <ele>1101</ele>
        <time>2025-06-09T12:31:18Z</time>
      </trkpt>
      <trkpt lat="46.4971" lon="5.99854">
        <ele>1102</ele>
        <time>2025-06-09T12:31:25Z</time>
      </trkpt>
      <trkpt lat="46.49711" lon="5.99858">
        <ele>1102</ele>
        <time>2025-06-09T12:31:29Z</time>
      </trkpt>
      <trkpt lat="46.49713" lon="5.99862">
        <ele>1103</ele>
        <time>2025-06-09T12:31:33Z</time>
      </trkpt>
      <trkpt lat="46.49715" lon="5.99866">
        <ele>1103</ele>
        <time>2025-06-09T12:31:37Z</time>
      </trkpt>
      <trkpt lat="46.49716" lon="5.9987">
        <ele>1104</ele>
        <time>2025-06-09T12:31:41Z</time>
      </trkpt>
      <trkpt lat="46.49717" lon="5.99875">
        <ele>1105</ele>
        <time>2025-06-09T12:31:45Z</time>
      </trkpt>
      <trkpt lat="46.4972" lon="5.99878">
        <ele>1105</ele>
        <time>2025-06-09T12:31:49Z</time>
      </trkpt>
      <trkpt lat="46.49722" lon="5.99881">
        <ele>1106</ele>
        <time>2025-06-09T12:31:53Z</time>
      </trkpt>
      <trkpt lat="46.49724" lon="5.99884">
        <ele>1107</ele>
        <time>2025-06-09T12:31:57Z</time>
      </trkpt>
      <trkpt lat="46.49726" lon="5.99887">
        <ele>1107</ele>
        <time>2025-06-09T12:32:03Z</time>
      </trkpt>
      <trkpt lat="46.49729" lon="5.9989">
        <ele>1108</ele>
        <time>2025-06-09T12:32:08Z</time>
      </trkpt>
      <trkpt lat="46.49731" lon="5.99893">
        <ele>1108</ele>
        <time>2025-06-09T12:32:12Z</time>
      </trkpt>
      <trkpt lat="46.49733" lon="5.99896">
        <ele>1108</ele>
        <time>2025-06-09T12:32:15Z</time>
      </trkpt>
      <trkpt lat="46.49736" lon="5.99898">
        <ele>1109</ele>
        <time>2025-06-09T12:32:18Z</time>
      </trkpt>
      <trkpt lat="46.49738" lon="5.99901">
        <ele>1109</ele>
        <time>2025-06-09T12:32:22Z</time>
      </trkpt>
      <trkpt lat="46.4974" lon="5.99903">
        <ele>1109</ele>
        <time>2025-06-09T12:32:29Z</time>
      </trkpt>
      <trkpt lat="46.49743" lon="5.99906">
        <ele>1109</ele>
        <time>2025-06-09T12:32:35Z</time>
      </trkpt>
      <trkpt lat="46.49745" lon="5.99909">
        <ele>1110</ele>
        <time>2025-06-09T12:32:40Z</time>
      </trkpt>
      <trkpt lat="46.49747" lon="5.99912">
        <ele>1110</ele>
        <time>2025-06-09T12:32:46Z</time>
      </trkpt>
      <trkpt lat="46.49748" lon="5.9991">
        <ele>1109</ele>
        <time>2025-06-09T12:32:53Z</time>
      </trkpt>
      <trkpt lat="46.4975" lon="5.99905">
        <ele>1108</ele>
        <time>2025-06-09T12:33:07Z</time>
      </trkpt>
      <trkpt lat="46.49751" lon="5.99907">
        <ele>1107</ele>
        <time>2025-06-09T12:33:11Z</time>
      </trkpt>
      <trkpt lat="46.49753" lon="5.99911">
        <ele>1106</ele>
        <time>2025-06-09T12:33:14Z</time>
      </trkpt>
      <trkpt lat="46.49754" lon="5.99915">
        <ele>1106</ele>
        <time>2025-06-09T12:33:17Z</time>
      </trkpt>
      <trkpt lat="46.49755" lon="5.9992">
        <ele>1106</ele>
        <time>2025-06-09T12:33:27Z</time>
      </trkpt>
      <trkpt lat="46.49756" lon="5.99924">
        <ele>1106</ele>
        <time>2025-06-09T12:33:31Z</time>
      </trkpt>
      <trkpt lat="46.49757" lon="5.9993">
        <ele>1107</ele>
        <time>2025-06-09T12:33:35Z</time>
      </trkpt>
      <trkpt lat="46.49758" lon="5.99934">
        <ele>1108</ele>
        <time>2025-06-09T12:33:39Z</time>
      </trkpt>
      <trkpt lat="46.4976" lon="5.99938">
        <ele>1108</ele>
        <time>2025-06-09T12:33:43Z</time>
      </trkpt>
      <trkpt lat="46.49761" lon="5.99942">
        <ele>1109</ele>
        <time>2025-06-09T12:33:47Z</time>
      </trkpt>
      <trkpt lat="46.49763" lon="5.99946">
        <ele>1110</ele>
        <time>2025-06-09T12:33:50Z</time>
      </trkpt>
      <trkpt lat="46.49764" lon="5.9995">
        <ele>1110</ele>
        <time>2025-06-09T12:33:53Z</time>
      </trkpt>
      <trkpt lat="46.49765" lon="5.99954">
        <ele>1111</ele>
        <time>2025-06-09T12:33:57Z</time>
      </trkpt>
      <trkpt lat="46.49767" lon="5.99958">
        <ele>1111</ele>
        <time>2025-06-09T12:34:01Z</time>
      </trkpt>
      <trkpt lat="46.49768" lon="5.99961">
        <ele>1112</ele>
        <time>2025-06-09T12:34:05Z</time>
      </trkpt>
      <trkpt lat="46.4977" lon="5.99965">
        <ele>1112</ele>
        <time>2025-06-09T12:34:09Z</time>
      </trkpt>
      <trkpt lat="46.49771" lon="5.99969">
        <ele>1113</ele>
        <time>2025-06-09T12:34:14Z</time>
      </trkpt>
      <trkpt lat="46.49772" lon="5.99973">
        <ele>1113</ele>
        <time>2025-06-09T12:34:18Z</time>
      </trkpt>
      <trkpt lat="46.49774" lon="5.99977">
        <ele>1113</ele>
        <time>2025-06-09T12:34:21Z</time>
      </trkpt>
      <trkpt lat="46.49776" lon="5.99981">
        <ele>1114</ele>
        <time>2025-06-09T12:34:25Z</time>
      </trkpt>
      <trkpt lat="46.49777" lon="5.99984">
        <ele>1114</ele>
        <time>2025-06-09T12:34:29Z</time>
      </trkpt>
      <trkpt lat="46.49779" lon="5.99988">
        <ele>1115</ele>
        <time>2025-06-09T12:34:34Z</time>
      </trkpt>
      <trkpt lat="46.4978" lon="5.99992">
        <ele>1115</ele>
        <time>2025-06-09T12:34:38Z</time>
      </trkpt>
      <trkpt lat="46.49781" lon="5.99995">
        <ele>1116</ele>
        <time>2025-06-09T12:34:42Z</time>
      </trkpt>
      <trkpt lat="46.49782" lon="6">
        <ele>1117</ele>
        <time>2025-06-09T12:34:46Z</time>
      </trkpt>
      <trkpt lat="46.49783" lon="6.00005">
        <ele>1117</ele>
        <time>2025-06-09T12:34:49Z</time>
      </trkpt>
      <trkpt lat="46.49784" lon="6.00009">
        <ele>1117</ele>
        <time>2025-06-09T12:34:53Z</time>
      </trkpt>
      <trkpt lat="46.49784" lon="6.00014">
        <ele>1118</ele>
        <time>2025-06-09T12:34:58Z</time>
      </trkpt>
      <trkpt lat="46.49784" lon="6.00018">
        <ele>1118</ele>
        <time>2025-06-09T12:35:02Z</time>
      </trkpt>
      <trkpt lat="46.49785" lon="6.00022">
        <ele>1118</ele>
        <time>2025-06-09T12:35:06Z</time>
      </trkpt>
      <trkpt lat="46.49785" lon="6.00026">
        <ele>1119</ele>
        <time>2025-06-09T12:35:10Z</time>
      </trkpt>
      <trkpt lat="46.49785" lon="6.00031">
        <ele>1119</ele>
        <time>2025-06-09T12:35:14Z</time>
      </trkpt>
      <trkpt lat="46.49786" lon="6.00036">
        <ele>1120</ele>
        <time>2025-06-09T12:35:18Z</time>
      </trkpt>
      <trkpt lat="46.49787" lon="6.0004">
        <ele>1120</ele>
        <time>2025-06-09T12:35:21Z</time>
      </trkpt>
      <trkpt lat="46.49789" lon="6.00044">
        <ele>1120</ele>
        <time>2025-06-09T12:35:24Z</time>
      </trkpt>
      <trkpt lat="46.49791" lon="6.00048">
        <ele>1121</ele>
        <time>2025-06-09T12:35:27Z</time>
      </trkpt>
      <trkpt lat="46.49792" lon="6.00052">
        <ele>1121</ele>
        <time>2025-06-09T12:35:31Z</time>
      </trkpt>
      <trkpt lat="46.49794" lon="6.00056">
        <ele>1121</ele>
        <time>2025-06-09T12:35:36Z</time>
      </trkpt>
      <trkpt lat="46.49796" lon="6.0006">
        <ele>1122</ele>
        <time>2025-06-09T12:35:41Z</time>
      </trkpt>
      <trkpt lat="46.49798" lon="6.00063">
        <ele>1122</ele>
        <time>2025-06-09T12:35:45Z</time>
      </trkpt>
      <trkpt lat="46.49801" lon="6.00067">
        <ele>1123</ele>
        <time>2025-06-09T12:35:51Z</time>
      </trkpt>
      <trkpt lat="46.49803" lon="6.00071">
        <ele>1124</ele>
        <time>2025-06-09T12:35:55Z</time>
      </trkpt>
      <trkpt lat="46.49804" lon="6.00074">
        <ele>1124</ele>
        <time>2025-06-09T12:36:00Z</time>
      </trkpt>
      <trkpt lat="46.49806" lon="6.00077">
        <ele>1125</ele>
        <time>2025-06-09T12:36:04Z</time>
      </trkpt>
      <trkpt lat="46.49808" lon="6.0008">
        <ele>1125</ele>
        <time>2025-06-09T12:36:09Z</time>
      </trkpt>
      <trkpt lat="46.49811" lon="6.00083">
        <ele>1125</ele>
        <time>2025-06-09T12:36:13Z</time>
      </trkpt>
      <trkpt lat="46.49814" lon="6.00084">
        <ele>1126</ele>
        <time>2025-06-09T12:36:17Z</time>
      </trkpt>
      <trkpt lat="46.49817" lon="6.00087">
        <ele>1126</ele>
        <time>2025-06-09T12:36:19Z</time>
      </trkpt>
      <trkpt lat="46.4982" lon="6.0009">
        <ele>1126</ele>
        <time>2025-06-09T12:36:22Z</time>
      </trkpt>
      <trkpt lat="46.49822" lon="6.00092">
        <ele>1126</ele>
        <time>2025-06-09T12:36:26Z</time>
      </trkpt>
      <trkpt lat="46.49824" lon="6.00096">
        <ele>1127</ele>
        <time>2025-06-09T12:36:30Z</time>
      </trkpt>
      <trkpt lat="46.49826" lon="6.001">
        <ele>1127</ele>
        <time>2025-06-09T12:36:34Z</time>
      </trkpt>
      <trkpt lat="46.49828" lon="6.00103">
        <ele>1128</ele>
        <time>2025-06-09T12:36:38Z</time>
      </trkpt>
      <trkpt lat="46.4983" lon="6.00106">
        <ele>1128</ele>
        <time>2025-06-09T12:36:42Z</time>
      </trkpt>
      <trkpt lat="46.49832" lon="6.0011">
        <ele>1129</ele>
        <time>2025-06-09T12:36:47Z</time>
      </trkpt>
      <trkpt lat="46.49835" lon="6.00112">
        <ele>1130</ele>
        <time>2025-06-09T12:36:52Z</time>
      </trkpt>
      <trkpt lat="46.49837" lon="6.00114">
        <ele>1130</ele>
        <time>2025-06-09T12:36:57Z</time>
      </trkpt>
      <trkpt lat="46.4984" lon="6.00116">
        <ele>1130</ele>
        <time>2025-06-09T12:37:03Z</time>
      </trkpt>
      <trkpt lat="46.49842" lon="6.00119">
        <ele>1130</ele>
        <time>2025-06-09T12:37:07Z</time>
      </trkpt>
      <trkpt lat="46.49844" lon="6.00122">
        <ele>1130</ele>
        <time>2025-06-09T12:37:11Z</time>
      </trkpt>
      <trkpt lat="46.49846" lon="6.00125">
        <ele>1130</ele>
        <time>2025-06-09T12:37:14Z</time>
      </trkpt>
      <trkpt lat="46.49848" lon="6.00129">
        <ele>1130</ele>
        <time>2025-06-09T12:37:18Z</time>
      </trkpt>
      <trkpt lat="46.49849" lon="6.00132">
        <ele>1129</ele>
        <time>2025-06-09T12:37:24Z</time>
      </trkpt>
      <trkpt lat="46.49851" lon="6.00136">
        <ele>1128</ele>
        <time>2025-06-09T12:37:30Z</time>
      </trkpt>
      <trkpt lat="46.49855" lon="6.00141">
        <ele>1127</ele>
        <time>2025-06-09T12:37:41Z</time>
      </trkpt>
      <trkpt lat="46.49857" lon="6.00145">
        <ele>1127</ele>
        <time>2025-06-09T12:37:46Z</time>
      </trkpt>
      <trkpt lat="46.49857" lon="6.0015">
        <ele>1126</ele>
        <time>2025-06-09T12:37:51Z</time>
      </trkpt>
      <trkpt lat="46.49858" lon="6.00154">
        <ele>1126</ele>
        <time>2025-06-09T12:37:55Z</time>
      </trkpt>
      <trkpt lat="46.49858" lon="6.00158">
        <ele>1126</ele>
        <time>2025-06-09T12:38:00Z</time>
      </trkpt>
      <trkpt lat="46.49859" lon="6.00162">
        <ele>1126</ele>
        <time>2025-06-09T12:38:04Z</time>
      </trkpt>
      <trkpt lat="46.4986" lon="6.00167">
        <ele>1126</ele>
        <time>2025-06-09T12:38:08Z</time>
      </trkpt>
      <trkpt lat="46.49862" lon="6.00171">
        <ele>1126</ele>
        <time>2025-06-09T12:38:13Z</time>
      </trkpt>
      <trkpt lat="46.49863" lon="6.00176">
        <ele>1126</ele>
        <time>2025-06-09T12:38:17Z</time>
      </trkpt>
      <trkpt lat="46.49865" lon="6.0018">
        <ele>1125</ele>
        <time>2025-06-09T12:38:21Z</time>
      </trkpt>
      <trkpt lat="46.49866" lon="6.00185">
        <ele>1125</ele>
        <time>2025-06-09T12:38:25Z</time>
      </trkpt>
      <trkpt lat="46.49868" lon="6.00189">
        <ele>1125</ele>
        <time>2025-06-09T12:38:28Z</time>
      </trkpt>
      <trkpt lat="46.49869" lon="6.00193">
        <ele>1125</ele>
        <time>2025-06-09T12:38:32Z</time>
      </trkpt>
      <trkpt lat="46.4987" lon="6.00197">
        <ele>1125</ele>
        <time>2025-06-09T12:38:37Z</time>
      </trkpt>
      <trkpt lat="46.49872" lon="6.00201">
        <ele>1124</ele>
        <time>2025-06-09T12:38:41Z</time>
      </trkpt>
      <trkpt lat="46.49874" lon="6.00205">
        <ele>1125</ele>
        <time>2025-06-09T12:38:45Z</time>
      </trkpt>
      <trkpt lat="46.49875" lon="6.00209">
        <ele>1125</ele>
        <time>2025-06-09T12:38:48Z</time>
      </trkpt>
      <trkpt lat="46.49876" lon="6.00214">
        <ele>1125</ele>
        <time>2025-06-09T12:38:51Z</time>
      </trkpt>
      <trkpt lat="46.49877" lon="6.00218">
        <ele>1125</ele>
        <time>2025-06-09T12:38:55Z</time>
      </trkpt>
      <trkpt lat="46.49878" lon="6.00222">
        <ele>1125</ele>
        <time>2025-06-09T12:39:01Z</time>
      </trkpt>
      <trkpt lat="46.49878" lon="6.00227">
        <ele>1126</ele>
        <time>2025-06-09T12:39:04Z</time>
      </trkpt>
      <trkpt lat="46.49879" lon="6.00231">
        <ele>1126</ele>
        <time>2025-06-09T12:39:08Z</time>
      </trkpt>
      <trkpt lat="46.49881" lon="6.00235">
        <ele>1126</ele>
        <time>2025-06-09T12:39:13Z</time>
      </trkpt>
      <trkpt lat="46.49883" lon="6.00239">
        <ele>1126</ele>
        <time>2025-06-09T12:39:18Z</time>
      </trkpt>
      <trkpt lat="46.49886" lon="6.00238">
        <ele>1125</ele>
        <time>2025-06-09T12:39:38Z</time>
      </trkpt>
      <trkpt lat="46.49891" lon="6.00243">
        <ele>1124</ele>
        <time>2025-06-09T12:40:25Z</time>
      </trkpt>
      <trkpt lat="46.49891" lon="6.00245">
        <ele>1124</ele>
        <time>2025-06-09T12:40:29Z</time>
      </trkpt>
      <trkpt lat="46.49889" lon="6.00248">
        <ele>1123</ele>
        <time>2025-06-09T12:40:33Z</time>
      </trkpt>
      <trkpt lat="46.49886" lon="6.00254">
        <ele>1124</ele>
        <time>2025-06-09T12:40:36Z</time>
      </trkpt>
      <trkpt lat="46.49886" lon="6.00257">
        <ele>1124</ele>
        <time>2025-06-09T12:40:39Z</time>
      </trkpt>
      <trkpt lat="46.49885" lon="6.00261">
        <ele>1124</ele>
        <time>2025-06-09T12:40:42Z</time>
      </trkpt>
      <trkpt lat="46.49885" lon="6.00266">
        <ele>1124</ele>
        <time>2025-06-09T12:40:45Z</time>
      </trkpt>
      <trkpt lat="46.49885" lon="6.0027">
        <ele>1125</ele>
        <time>2025-06-09T12:40:48Z</time>
      </trkpt>
      <trkpt lat="46.49885" lon="6.00275">
        <ele>1125</ele>
        <time>2025-06-09T12:40:52Z</time>
      </trkpt>
      <trkpt lat="46.49886" lon="6.00279">
        <ele>1125</ele>
        <time>2025-06-09T12:40:55Z</time>
      </trkpt>
      <trkpt lat="46.49887" lon="6.00284">
        <ele>1126</ele>
        <time>2025-06-09T12:40:58Z</time>
      </trkpt>
      <trkpt lat="46.49888" lon="6.00288">
        <ele>1126</ele>
        <time>2025-06-09T12:41:02Z</time>
      </trkpt>
      <trkpt lat="46.49889" lon="6.00293">
        <ele>1127</ele>
        <time>2025-06-09T12:41:06Z</time>
      </trkpt>
      <trkpt lat="46.4989" lon="6.00297">
        <ele>1128</ele>
        <time>2025-06-09T12:41:09Z</time>
      </trkpt>
      <trkpt lat="46.49891" lon="6.00301">
        <ele>1129</ele>
        <time>2025-06-09T12:41:13Z</time>
      </trkpt>
      <trkpt lat="46.49892" lon="6.00305">
        <ele>1129</ele>
        <time>2025-06-09T12:41:17Z</time>
      </trkpt>
      <trkpt lat="46.49893" lon="6.00309">
        <ele>1130</ele>
        <time>2025-06-09T12:41:21Z</time>
      </trkpt>
      <trkpt lat="46.49893" lon="6.00314">
        <ele>1130</ele>
        <time>2025-06-09T12:41:26Z</time>
      </trkpt>
      <trkpt lat="46.49893" lon="6.00318">
        <ele>1130</ele>
        <time>2025-06-09T12:41:30Z</time>
      </trkpt>
      <trkpt lat="46.49894" lon="6.00323">
        <ele>1130</ele>
        <time>2025-06-09T12:41:35Z</time>
      </trkpt>
      <trkpt lat="46.49894" lon="6.00327">
        <ele>1131</ele>
        <time>2025-06-09T12:41:39Z</time>
      </trkpt>
      <trkpt lat="46.49894" lon="6.00332">
        <ele>1132</ele>
        <time>2025-06-09T12:41:44Z</time>
      </trkpt>
      <trkpt lat="46.49895" lon="6.00336">
        <ele>1132</ele>
        <time>2025-06-09T12:41:49Z</time>
      </trkpt>
      <trkpt lat="46.49897" lon="6.0034">
        <ele>1133</ele>
        <time>2025-06-09T12:41:54Z</time>
      </trkpt>
      <trkpt lat="46.49897" lon="6.00344">
        <ele>1134</ele>
        <time>2025-06-09T12:41:59Z</time>
      </trkpt>
      <trkpt lat="46.49899" lon="6.00348">
        <ele>1135</ele>
        <time>2025-06-09T12:42:04Z</time>
      </trkpt>
      <trkpt lat="46.499" lon="6.00352">
        <ele>1135</ele>
        <time>2025-06-09T12:42:09Z</time>
      </trkpt>
      <trkpt lat="46.49902" lon="6.00356">
        <ele>1136</ele>
        <time>2025-06-09T12:42:13Z</time>
      </trkpt>
      <trkpt lat="46.49904" lon="6.00358">
        <ele>1136</ele>
        <time>2025-06-09T12:42:16Z</time>
      </trkpt>
      <trkpt lat="46.49906" lon="6.00361">
        <ele>1136</ele>
        <time>2025-06-09T12:42:20Z</time>
      </trkpt>
      <trkpt lat="46.49908" lon="6.00364">
        <ele>1137</ele>
        <time>2025-06-09T12:42:25Z</time>
      </trkpt>
      <trkpt lat="46.49909" lon="6.00368">
        <ele>1137</ele>
        <time>2025-06-09T12:42:29Z</time>
      </trkpt>
      <trkpt lat="46.4991" lon="6.00372">
        <ele>1138</ele>
        <time>2025-06-09T12:42:34Z</time>
      </trkpt>
      <trkpt lat="46.49912" lon="6.00375">
        <ele>1138</ele>
        <time>2025-06-09T12:42:37Z</time>
      </trkpt>
      <trkpt lat="46.49914" lon="6.00379">
        <ele>1138</ele>
        <time>2025-06-09T12:42:40Z</time>
      </trkpt>
      <trkpt lat="46.49916" lon="6.00382">
        <ele>1138</ele>
        <time>2025-06-09T12:42:43Z</time>
      </trkpt>
      <trkpt lat="46.49916" lon="6.00387">
        <ele>1138</ele>
        <time>2025-06-09T12:42:46Z</time>
      </trkpt>
      <trkpt lat="46.49917" lon="6.00391">
        <ele>1138</ele>
        <time>2025-06-09T12:42:50Z</time>
      </trkpt>
      <trkpt lat="46.49917" lon="6.00396">
        <ele>1139</ele>
        <time>2025-06-09T12:42:54Z</time>
      </trkpt>
      <trkpt lat="46.49918" lon="6.00401">
        <ele>1139</ele>
        <time>2025-06-09T12:42:58Z</time>
      </trkpt>
      <trkpt lat="46.49919" lon="6.00405">
        <ele>1139</ele>
        <time>2025-06-09T12:43:02Z</time>
      </trkpt>
      <trkpt lat="46.4992" lon="6.00409">
        <ele>1139</ele>
        <time>2025-06-09T12:43:06Z</time>
      </trkpt>
      <trkpt lat="46.49921" lon="6.00413">
        <ele>1139</ele>
        <time>2025-06-09T12:43:09Z</time>
      </trkpt>
      <trkpt lat="46.49922" lon="6.00417">
        <ele>1139</ele>
        <time>2025-06-09T12:43:12Z</time>
      </trkpt>
      <trkpt lat="46.49924" lon="6.00421">
        <ele>1139</ele>
        <time>2025-06-09T12:43:15Z</time>
      </trkpt>
      <trkpt lat="46.49925" lon="6.00425">
        <ele>1139</ele>
        <time>2025-06-09T12:43:18Z</time>
      </trkpt>
      <trkpt lat="46.49926" lon="6.0043">
        <ele>1138</ele>
        <time>2025-06-09T12:43:22Z</time>
      </trkpt>
      <trkpt lat="46.49927" lon="6.00434">
        <ele>1138</ele>
        <time>2025-06-09T12:43:27Z</time>
      </trkpt>
      <trkpt lat="46.49928" lon="6.00438">
        <ele>1138</ele>
        <time>2025-06-09T12:43:32Z</time>
      </trkpt>
      <trkpt lat="46.49928" lon="6.00442">
        <ele>1138</ele>
        <time>2025-06-09T12:43:36Z</time>
      </trkpt>
      <trkpt lat="46.49928" lon="6.00446">
        <ele>1137</ele>
        <time>2025-06-09T12:43:41Z</time>
      </trkpt>
      <trkpt lat="46.49928" lon="6.00451">
        <ele>1137</ele>
        <time>2025-06-09T12:43:45Z</time>
      </trkpt>
      <trkpt lat="46.49928" lon="6.00455">
        <ele>1137</ele>
        <time>2025-06-09T12:43:49Z</time>
      </trkpt>
      <trkpt lat="46.49927" lon="6.00459">
        <ele>1137</ele>
        <time>2025-06-09T12:43:53Z</time>
      </trkpt>
      <trkpt lat="46.49926" lon="6.00463">
        <ele>1137</ele>
        <time>2025-06-09T12:43:58Z</time>
      </trkpt>
      <trkpt lat="46.49925" lon="6.00467">
        <ele>1137</ele>
        <time>2025-06-09T12:44:02Z</time>
      </trkpt>
      <trkpt lat="46.49925" lon="6.00471">
        <ele>1138</ele>
        <time>2025-06-09T12:44:07Z</time>
      </trkpt>
      <trkpt lat="46.49924" lon="6.00475">
        <ele>1139</ele>
        <time>2025-06-09T12:44:11Z</time>
      </trkpt>
      <trkpt lat="46.49923" lon="6.00479">
        <ele>1139</ele>
        <time>2025-06-09T12:44:15Z</time>
      </trkpt>
      <trkpt lat="46.49922" lon="6.00483">
        <ele>1140</ele>
        <time>2025-06-09T12:44:21Z</time>
      </trkpt>
      <trkpt lat="46.49922" lon="6.00487">
        <ele>1140</ele>
        <time>2025-06-09T12:44:26Z</time>
      </trkpt>
      <trkpt lat="46.49921" lon="6.00492">
        <ele>1141</ele>
        <time>2025-06-09T12:44:32Z</time>
      </trkpt>
      <trkpt lat="46.4992" lon="6.00496">
        <ele>1140</ele>
        <time>2025-06-09T12:44:35Z</time>
      </trkpt>
      <trkpt lat="46.49919" lon="6.005">
        <ele>1140</ele>
        <time>2025-06-09T12:44:40Z</time>
      </trkpt>
      <trkpt lat="46.49918" lon="6.00505">
        <ele>1139</ele>
        <time>2025-06-09T12:44:44Z</time>
      </trkpt>
      <trkpt lat="46.49916" lon="6.00508">
        <ele>1139</ele>
        <time>2025-06-09T12:44:47Z</time>
      </trkpt>
      <trkpt lat="46.49915" lon="6.00512">
        <ele>1139</ele>
        <time>2025-06-09T12:44:51Z</time>
      </trkpt>
      <trkpt lat="46.49914" lon="6.00516">
        <ele>1138</ele>
        <time>2025-06-09T12:44:56Z</time>
      </trkpt>
      <trkpt lat="46.49914" lon="6.00521">
        <ele>1138</ele>
        <time>2025-06-09T12:45:00Z</time>
      </trkpt>
      <trkpt lat="46.49914" lon="6.00526">
        <ele>1137</ele>
        <time>2025-06-09T12:45:03Z</time>
      </trkpt>
      <trkpt lat="46.49915" lon="6.00531">
        <ele>1137</ele>
        <time>2025-06-09T12:45:06Z</time>
      </trkpt>
      <trkpt lat="46.49916" lon="6.00536">
        <ele>1137</ele>
        <time>2025-06-09T12:45:09Z</time>
      </trkpt>
      <trkpt lat="46.49916" lon="6.0054">
        <ele>1137</ele>
        <time>2025-06-09T12:45:13Z</time>
      </trkpt>
      <trkpt lat="46.49917" lon="6.00545">
        <ele>1137</ele>
        <time>2025-06-09T12:45:17Z</time>
      </trkpt>
      <trkpt lat="46.49919" lon="6.00549">
        <ele>1138</ele>
        <time>2025-06-09T12:45:23Z</time>
      </trkpt>
      <trkpt lat="46.4992" lon="6.00552">
        <ele>1138</ele>
        <time>2025-06-09T12:45:27Z</time>
      </trkpt>
      <trkpt lat="46.49922" lon="6.00556">
        <ele>1138</ele>
        <time>2025-06-09T12:45:31Z</time>
      </trkpt>
      <trkpt lat="46.49924" lon="6.0056">
        <ele>1138</ele>
        <time>2025-06-09T12:45:34Z</time>
      </trkpt>
      <trkpt lat="46.49925" lon="6.00564">
        <ele>1139</ele>
        <time>2025-06-09T12:45:36Z</time>
      </trkpt>
      <trkpt lat="46.49927" lon="6.00568">
        <ele>1139</ele>
        <time>2025-06-09T12:45:39Z</time>
      </trkpt>
      <trkpt lat="46.4993" lon="6.00571">
        <ele>1139</ele>
        <time>2025-06-09T12:45:41Z</time>
      </trkpt>
      <trkpt lat="46.49932" lon="6.00574">
        <ele>1139</ele>
        <time>2025-06-09T12:45:44Z</time>
      </trkpt>
      <trkpt lat="46.49934" lon="6.00581">
        <ele>1139</ele>
        <time>2025-06-09T12:45:48Z</time>
      </trkpt>
      <trkpt lat="46.49934" lon="6.00584">
        <ele>1138</ele>
        <time>2025-06-09T12:45:53Z</time>
      </trkpt>
      <trkpt lat="46.49934" lon="6.00588">
        <ele>1138</ele>
        <time>2025-06-09T12:45:57Z</time>
      </trkpt>
      <trkpt lat="46.49934" lon="6.00593">
        <ele>1139</ele>
        <time>2025-06-09T12:46:00Z</time>
      </trkpt>
      <trkpt lat="46.49933" lon="6.00596">
        <ele>1139</ele>
        <time>2025-06-09T12:46:03Z</time>
      </trkpt>
      <trkpt lat="46.49933" lon="6.006">
        <ele>1140</ele>
        <time>2025-06-09T12:46:07Z</time>
      </trkpt>
      <trkpt lat="46.49932" lon="6.00604">
        <ele>1140</ele>
        <time>2025-06-09T12:46:10Z</time>
      </trkpt>
      <trkpt lat="46.49933" lon="6.00608">
        <ele>1141</ele>
        <time>2025-06-09T12:46:13Z</time>
      </trkpt>
      <trkpt lat="46.49933" lon="6.00613">
        <ele>1141</ele>
        <time>2025-06-09T12:46:16Z</time>
      </trkpt>
      <trkpt lat="46.49934" lon="6.00617">
        <ele>1142</ele>
        <time>2025-06-09T12:46:19Z</time>
      </trkpt>
      <trkpt lat="46.49934" lon="6.00622">
        <ele>1143</ele>
        <time>2025-06-09T12:46:24Z</time>
      </trkpt>
      <trkpt lat="46.49936" lon="6.00625">
        <ele>1144</ele>
        <time>2025-06-09T12:46:30Z</time>
      </trkpt>
      <trkpt lat="46.49938" lon="6.00628">
        <ele>1145</ele>
        <time>2025-06-09T12:46:34Z</time>
      </trkpt>
      <trkpt lat="46.4994" lon="6.00632">
        <ele>1146</ele>
        <time>2025-06-09T12:46:36Z</time>
      </trkpt>
      <trkpt lat="46.49941" lon="6.00635">
        <ele>1147</ele>
        <time>2025-06-09T12:46:40Z</time>
      </trkpt>
      <trkpt lat="46.49942" lon="6.00639">
        <ele>1147</ele>
        <time>2025-06-09T12:46:44Z</time>
      </trkpt>
      <trkpt lat="46.49944" lon="6.00644">
        <ele>1147</ele>
        <time>2025-06-09T12:46:47Z</time>
      </trkpt>
      <trkpt lat="46.49945" lon="6.00647">
        <ele>1147</ele>
        <time>2025-06-09T12:46:51Z</time>
      </trkpt>
      <trkpt lat="46.49946" lon="6.00651">
        <ele>1147</ele>
        <time>2025-06-09T12:46:55Z</time>
      </trkpt>
      <trkpt lat="46.49948" lon="6.00655">
        <ele>1147</ele>
        <time>2025-06-09T12:46:58Z</time>
      </trkpt>
      <trkpt lat="46.4995" lon="6.00659">
        <ele>1147</ele>
        <time>2025-06-09T12:47:02Z</time>
      </trkpt>
      <trkpt lat="46.49951" lon="6.00663">
        <ele>1147</ele>
        <time>2025-06-09T12:47:06Z</time>
      </trkpt>
      <trkpt lat="46.49953" lon="6.00666">
        <ele>1147</ele>
        <time>2025-06-09T12:47:12Z</time>
      </trkpt>
      <trkpt lat="46.49952" lon="6.0067">
        <ele>1146</ele>
        <time>2025-06-09T12:47:17Z</time>
      </trkpt>
      <trkpt lat="46.49951" lon="6.00674">
        <ele>1146</ele>
        <time>2025-06-09T12:47:22Z</time>
      </trkpt>
      <trkpt lat="46.49951" lon="6.00678">
        <ele>1146</ele>
        <time>2025-06-09T12:47:26Z</time>
      </trkpt>
      <trkpt lat="46.49949" lon="6.00682">
        <ele>1145</ele>
        <time>2025-06-09T12:47:31Z</time>
      </trkpt>
      <trkpt lat="46.49948" lon="6.00686">
        <ele>1145</ele>
        <time>2025-06-09T12:47:37Z</time>
      </trkpt>
      <trkpt lat="46.49947" lon="6.00689">
        <ele>1145</ele>
        <time>2025-06-09T12:47:44Z</time>
      </trkpt>
      <trkpt lat="46.49945" lon="6.00692">
        <ele>1144</ele>
        <time>2025-06-09T12:47:50Z</time>
      </trkpt>
      <trkpt lat="46.49944" lon="6.00697">
        <ele>1144</ele>
        <time>2025-06-09T12:47:54Z</time>
      </trkpt>
      <trkpt lat="46.49943" lon="6.00701">
        <ele>1144</ele>
        <time>2025-06-09T12:47:58Z</time>
      </trkpt>
      <trkpt lat="46.49942" lon="6.00705">
        <ele>1143</ele>
        <time>2025-06-09T12:48:01Z</time>
      </trkpt>
      <trkpt lat="46.49941" lon="6.00709">
        <ele>1143</ele>
        <time>2025-06-09T12:48:05Z</time>
      </trkpt>
      <trkpt lat="46.4994" lon="6.00714">
        <ele>1143</ele>
        <time>2025-06-09T12:48:09Z</time>
      </trkpt>
      <trkpt lat="46.49939" lon="6.00718">
        <ele>1142</ele>
        <time>2025-06-09T12:48:13Z</time>
      </trkpt>
      <trkpt lat="46.49937" lon="6.00722">
        <ele>1142</ele>
        <time>2025-06-09T12:48:16Z</time>
      </trkpt>
      <trkpt lat="46.49935" lon="6.00726">
        <ele>1142</ele>
        <time>2025-06-09T12:48:19Z</time>
      </trkpt>
      <trkpt lat="46.49933" lon="6.0073">
        <ele>1141</ele>
        <time>2025-06-09T12:48:23Z</time>
      </trkpt>
      <trkpt lat="46.49931" lon="6.00732">
        <ele>1141</ele>
        <time>2025-06-09T12:48:26Z</time>
      </trkpt>
      <trkpt lat="46.49928" lon="6.00734">
        <ele>1141</ele>
        <time>2025-06-09T12:48:29Z</time>
      </trkpt>
      <trkpt lat="46.49926" lon="6.00737">
        <ele>1141</ele>
        <time>2025-06-09T12:48:32Z</time>
      </trkpt>
      <trkpt lat="46.49922" lon="6.00739">
        <ele>1141</ele>
        <time>2025-06-09T12:48:35Z</time>
      </trkpt>
      <trkpt lat="46.49919" lon="6.0074">
        <ele>1141</ele>
        <time>2025-06-09T12:48:39Z</time>
      </trkpt>
      <trkpt lat="46.49916" lon="6.00742">
        <ele>1141</ele>
        <time>2025-06-09T12:48:43Z</time>
      </trkpt>
      <trkpt lat="46.49913" lon="6.00746">
        <ele>1141</ele>
        <time>2025-06-09T12:48:47Z</time>
      </trkpt>
      <trkpt lat="46.4991" lon="6.00748">
        <ele>1141</ele>
        <time>2025-06-09T12:48:50Z</time>
      </trkpt>
      <trkpt lat="46.49907" lon="6.0075">
        <ele>1141</ele>
        <time>2025-06-09T12:48:53Z</time>
      </trkpt>
      <trkpt lat="46.49905" lon="6.00752">
        <ele>1141</ele>
        <time>2025-06-09T12:48:56Z</time>
      </trkpt>
      <trkpt lat="46.49902" lon="6.00754">
        <ele>1141</ele>
        <time>2025-06-09T12:48:59Z</time>
      </trkpt>
      <trkpt lat="46.499" lon="6.00756">
        <ele>1141</ele>
        <time>2025-06-09T12:49:04Z</time>
      </trkpt>
      <trkpt lat="46.49898" lon="6.0076">
        <ele>1141</ele>
        <time>2025-06-09T12:49:11Z</time>
      </trkpt>
      <trkpt lat="46.49896" lon="6.00764">
        <ele>1141</ele>
        <time>2025-06-09T12:49:19Z</time>
      </trkpt>
      <trkpt lat="46.49896" lon="6.00768">
        <ele>1140</ele>
        <time>2025-06-09T12:49:26Z</time>
      </trkpt>
      <trkpt lat="46.49894" lon="6.00771">
        <ele>1139</ele>
        <time>2025-06-09T12:49:34Z</time>
      </trkpt>
      <trkpt lat="46.49891" lon="6.00773">
        <ele>1138</ele>
        <time>2025-06-09T12:49:36Z</time>
      </trkpt>
      <trkpt lat="46.49889" lon="6.00774">
        <ele>1138</ele>
        <time>2025-06-09T12:49:38Z</time>
      </trkpt>
      <trkpt lat="46.49886" lon="6.00776">
        <ele>1137</ele>
        <time>2025-06-09T12:49:43Z</time>
      </trkpt>
      <trkpt lat="46.49888" lon="6.0078">
        <ele>1136</ele>
        <time>2025-06-09T12:49:46Z</time>
      </trkpt>
      <trkpt lat="46.49888" lon="6.00784">
        <ele>1136</ele>
        <time>2025-06-09T12:49:48Z</time>
      </trkpt>
      <trkpt lat="46.49887" lon="6.00786">
        <ele>1136</ele>
        <time>2025-06-09T12:49:50Z</time>
      </trkpt>
      <trkpt lat="46.49885" lon="6.00786">
        <ele>1135</ele>
        <time>2025-06-09T12:49:54Z</time>
      </trkpt>
      <trkpt lat="46.49883" lon="6.00785">
        <ele>1135</ele>
        <time>2025-06-09T12:49:57Z</time>
      </trkpt>
      <trkpt lat="46.49879" lon="6.00787">
        <ele>1136</ele>
        <time>2025-06-09T12:50:05Z</time>
      </trkpt>
      <trkpt lat="46.49877" lon="6.00788">
        <ele>1136</ele>
        <time>2025-06-09T12:50:10Z</time>
      </trkpt>
      <trkpt lat="46.49875" lon="6.00789">
        <ele>1136</ele>
        <time>2025-06-09T12:50:13Z</time>
      </trkpt>
      <trkpt lat="46.49872" lon="6.00791">
        <ele>1136</ele>
        <time>2025-06-09T12:50:17Z</time>
      </trkpt>
      <trkpt lat="46.49868" lon="6.00792">
        <ele>1136</ele>
        <time>2025-06-09T12:50:21Z</time>
      </trkpt>
      <trkpt lat="46.49865" lon="6.00794">
        <ele>1136</ele>
        <time>2025-06-09T12:50:24Z</time>
      </trkpt>
      <trkpt lat="46.49862" lon="6.00796">
        <ele>1136</ele>
        <time>2025-06-09T12:50:27Z</time>
      </trkpt>
      <trkpt lat="46.49859" lon="6.00797">
        <ele>1137</ele>
        <time>2025-06-09T12:50:30Z</time>
      </trkpt>
      <trkpt lat="46.49856" lon="6.00799">
        <ele>1137</ele>
        <time>2025-06-09T12:50:34Z</time>
      </trkpt>
      <trkpt lat="46.49854" lon="6.00801">
        <ele>1138</ele>
        <time>2025-06-09T12:50:38Z</time>
      </trkpt>
      <trkpt lat="46.49851" lon="6.00802">
        <ele>1138</ele>
        <time>2025-06-09T12:50:42Z</time>
      </trkpt>
      <trkpt lat="46.49848" lon="6.00805">
        <ele>1139</ele>
        <time>2025-06-09T12:50:45Z</time>
      </trkpt>
      <trkpt lat="46.49845" lon="6.00808">
        <ele>1140</ele>
        <time>2025-06-09T12:50:48Z</time>
      </trkpt>
      <trkpt lat="46.49842" lon="6.00811">
        <ele>1141</ele>
        <time>2025-06-09T12:50:52Z</time>
      </trkpt>
      <trkpt lat="46.4984" lon="6.00813">
        <ele>1142</ele>
        <time>2025-06-09T12:50:55Z</time>
      </trkpt>
      <trkpt lat="46.49837" lon="6.00815">
        <ele>1142</ele>
        <time>2025-06-09T12:50:58Z</time>
      </trkpt>
      <trkpt lat="46.49835" lon="6.00818">
        <ele>1142</ele>
        <time>2025-06-09T12:51:02Z</time>
      </trkpt>
      <trkpt lat="46.49832" lon="6.0082">
        <ele>1142</ele>
        <time>2025-06-09T12:51:06Z</time>
      </trkpt>
      <trkpt lat="46.4983" lon="6.00823">
        <ele>1142</ele>
        <time>2025-06-09T12:51:10Z</time>
      </trkpt>
      <trkpt lat="46.49827" lon="6.00825">
        <ele>1142</ele>
        <time>2025-06-09T12:51:15Z</time>
      </trkpt>
      <trkpt lat="46.49825" lon="6.00828">
        <ele>1141</ele>
        <time>2025-06-09T12:51:20Z</time>
      </trkpt>
      <trkpt lat="46.49823" lon="6.00832">
        <ele>1141</ele>
        <time>2025-06-09T12:51:24Z</time>
      </trkpt>
      <trkpt lat="46.49822" lon="6.00836">
        <ele>1141</ele>
        <time>2025-06-09T12:51:28Z</time>
      </trkpt>
      <trkpt lat="46.49822" lon="6.0084">
        <ele>1141</ele>
        <time>2025-06-09T12:51:32Z</time>
      </trkpt>
      <trkpt lat="46.49821" lon="6.00845">
        <ele>1141</ele>
        <time>2025-06-09T12:51:36Z</time>
      </trkpt>
      <trkpt lat="46.49821" lon="6.00849">
        <ele>1141</ele>
        <time>2025-06-09T12:51:39Z</time>
      </trkpt>
      <trkpt lat="46.49821" lon="6.00854">
        <ele>1141</ele>
        <time>2025-06-09T12:51:44Z</time>
      </trkpt>
      <trkpt lat="46.49821" lon="6.00858">
        <ele>1141</ele>
        <time>2025-06-09T12:51:49Z</time>
      </trkpt>
      <trkpt lat="46.49821" lon="6.00863">
        <ele>1141</ele>
        <time>2025-06-09T12:51:53Z</time>
      </trkpt>
      <trkpt lat="46.49821" lon="6.00867">
        <ele>1141</ele>
        <time>2025-06-09T12:51:56Z</time>
      </trkpt>
      <trkpt lat="46.49821" lon="6.00872">
        <ele>1141</ele>
        <time>2025-06-09T12:51:59Z</time>
      </trkpt>
      <trkpt lat="46.49821" lon="6.00877">
        <ele>1140</ele>
        <time>2025-06-09T12:52:01Z</time>
      </trkpt>
      <trkpt lat="46.49822" lon="6.00882">
        <ele>1140</ele>
        <time>2025-06-09T12:52:04Z</time>
      </trkpt>
      <trkpt lat="46.49824" lon="6.00886">
        <ele>1139</ele>
        <time>2025-06-09T12:52:07Z</time>
      </trkpt>
      <trkpt lat="46.49825" lon="6.00891">
        <ele>1139</ele>
        <time>2025-06-09T12:52:10Z</time>
      </trkpt>
      <trkpt lat="46.49826" lon="6.00895">
        <ele>1139</ele>
        <time>2025-06-09T12:52:12Z</time>
      </trkpt>
      <trkpt lat="46.49827" lon="6.009">
        <ele>1139</ele>
        <time>2025-06-09T12:52:14Z</time>
      </trkpt>
      <trkpt lat="46.49828" lon="6.00904">
        <ele>1139</ele>
        <time>2025-06-09T12:52:17Z</time>
      </trkpt>
      <trkpt lat="46.49829" lon="6.00908">
        <ele>1139</ele>
        <time>2025-06-09T12:52:20Z</time>
      </trkpt>
      <trkpt lat="46.4983" lon="6.00912">
        <ele>1139</ele>
        <time>2025-06-09T12:52:23Z</time>
      </trkpt>
      <trkpt lat="46.49832" lon="6.00916">
        <ele>1139</ele>
        <time>2025-06-09T12:52:26Z</time>
      </trkpt>
      <trkpt lat="46.49833" lon="6.00921">
        <ele>1139</ele>
        <time>2025-06-09T12:52:30Z</time>
      </trkpt>
      <trkpt lat="46.49833" lon="6.00925">
        <ele>1139</ele>
        <time>2025-06-09T12:52:35Z</time>
      </trkpt>
      <trkpt lat="46.49832" lon="6.00929">
        <ele>1138</ele>
        <time>2025-06-09T12:52:39Z</time>
      </trkpt>
      <trkpt lat="46.49833" lon="6.00934">
        <ele>1138</ele>
        <time>2025-06-09T12:52:44Z</time>
      </trkpt>
      <trkpt lat="46.49835" lon="6.00937">
        <ele>1138</ele>
        <time>2025-06-09T12:52:48Z</time>
      </trkpt>
      <trkpt lat="46.49836" lon="6.00944">
        <ele>1137</ele>
        <time>2025-06-09T12:52:59Z</time>
      </trkpt>
      <trkpt lat="46.49835" lon="6.00949">
        <ele>1137</ele>
        <time>2025-06-09T12:53:07Z</time>
      </trkpt>
      <trkpt lat="46.49835" lon="6.00953">
        <ele>1136</ele>
        <time>2025-06-09T12:53:12Z</time>
      </trkpt>
      <trkpt lat="46.49836" lon="6.00957">
        <ele>1136</ele>
        <time>2025-06-09T12:53:16Z</time>
      </trkpt>
      <trkpt lat="46.49837" lon="6.00962">
        <ele>1135</ele>
        <time>2025-06-09T12:53:21Z</time>
      </trkpt>
      <trkpt lat="46.49837" lon="6.00966">
        <ele>1135</ele>
        <time>2025-06-09T12:53:24Z</time>
      </trkpt>
      <trkpt lat="46.49837" lon="6.00971">
        <ele>1134</ele>
        <time>2025-06-09T12:53:27Z</time>
      </trkpt>
      <trkpt lat="46.49838" lon="6.00975">
        <ele>1134</ele>
        <time>2025-06-09T12:53:30Z</time>
      </trkpt>
      <trkpt lat="46.49839" lon="6.0098">
        <ele>1134</ele>
        <time>2025-06-09T12:53:33Z</time>
      </trkpt>
      <trkpt lat="46.4984" lon="6.00985">
        <ele>1134</ele>
        <time>2025-06-09T12:53:36Z</time>
      </trkpt>
      <trkpt lat="46.49842" lon="6.0099">
        <ele>1134</ele>
        <time>2025-06-09T12:53:39Z</time>
      </trkpt>
      <trkpt lat="46.49844" lon="6.00994">
        <ele>1134</ele>
        <time>2025-06-09T12:53:42Z</time>
      </trkpt>
      <trkpt lat="46.49846" lon="6.00998">
        <ele>1134</ele>
        <time>2025-06-09T12:53:47Z</time>
      </trkpt>
      <trkpt lat="46.49847" lon="6.01002">
        <ele>1133</ele>
        <time>2025-06-09T12:53:50Z</time>
      </trkpt>
      <trkpt lat="46.49849" lon="6.01006">
        <ele>1133</ele>
        <time>2025-06-09T12:53:54Z</time>
      </trkpt>
      <trkpt lat="46.49851" lon="6.01009">
        <ele>1133</ele>
        <time>2025-06-09T12:53:58Z</time>
      </trkpt>
      <trkpt lat="46.49853" lon="6.01013">
        <ele>1133</ele>
        <time>2025-06-09T12:54:01Z</time>
      </trkpt>
      <trkpt lat="46.49855" lon="6.01017">
        <ele>1133</ele>
        <time>2025-06-09T12:54:05Z</time>
      </trkpt>
      <trkpt lat="46.49855" lon="6.01021">
        <ele>1133</ele>
        <time>2025-06-09T12:54:10Z</time>
      </trkpt>
      <trkpt lat="46.49856" lon="6.01025">
        <ele>1133</ele>
        <time>2025-06-09T12:54:14Z</time>
      </trkpt>
      <trkpt lat="46.49855" lon="6.01029">
        <ele>1133</ele>
        <time>2025-06-09T12:54:18Z</time>
      </trkpt>
      <trkpt lat="46.49854" lon="6.01034">
        <ele>1133</ele>
        <time>2025-06-09T12:54:22Z</time>
      </trkpt>
      <trkpt lat="46.49854" lon="6.01038">
        <ele>1133</ele>
        <time>2025-06-09T12:54:26Z</time>
      </trkpt>
      <trkpt lat="46.49854" lon="6.01042">
        <ele>1133</ele>
        <time>2025-06-09T12:54:30Z</time>
      </trkpt>
      <trkpt lat="46.49855" lon="6.01047">
        <ele>1133</ele>
        <time>2025-06-09T12:54:34Z</time>
      </trkpt>
      <trkpt lat="46.49856" lon="6.01051">
        <ele>1133</ele>
        <time>2025-06-09T12:54:37Z</time>
      </trkpt>
      <trkpt lat="46.49857" lon="6.01056">
        <ele>1133</ele>
        <time>2025-06-09T12:54:40Z</time>
      </trkpt>
      <trkpt lat="46.4986" lon="6.01059">
        <ele>1133</ele>
        <time>2025-06-09T12:54:43Z</time>
      </trkpt>
      <trkpt lat="46.49862" lon="6.01063">
        <ele>1133</ele>
        <time>2025-06-09T12:54:46Z</time>
      </trkpt>
      <trkpt lat="46.49864" lon="6.01067">
        <ele>1133</ele>
        <time>2025-06-09T12:54:49Z</time>
      </trkpt>
      <trkpt lat="46.49866" lon="6.01071">
        <ele>1133</ele>
        <time>2025-06-09T12:54:53Z</time>
      </trkpt>
      <trkpt lat="46.49867" lon="6.01075">
        <ele>1132</ele>
        <time>2025-06-09T12:54:57Z</time>
      </trkpt>
      <trkpt lat="46.49868" lon="6.0108">
        <ele>1132</ele>
        <time>2025-06-09T12:55:01Z</time>
      </trkpt>
      <trkpt lat="46.4987" lon="6.01084">
        <ele>1132</ele>
        <time>2025-06-09T12:55:05Z</time>
      </trkpt>
      <trkpt lat="46.49871" lon="6.01088">
        <ele>1132</ele>
        <time>2025-06-09T12:55:08Z</time>
      </trkpt>
      <trkpt lat="46.49873" lon="6.01093">
        <ele>1132</ele>
        <time>2025-06-09T12:55:11Z</time>
      </trkpt>
      <trkpt lat="46.49874" lon="6.01096">
        <ele>1132</ele>
        <time>2025-06-09T12:55:13Z</time>
      </trkpt>
      <trkpt lat="46.49876" lon="6.011">
        <ele>1131</ele>
        <time>2025-06-09T12:55:16Z</time>
      </trkpt>
      <trkpt lat="46.49878" lon="6.01104">
        <ele>1131</ele>
        <time>2025-06-09T12:55:19Z</time>
      </trkpt>
      <trkpt lat="46.4988" lon="6.01107">
        <ele>1130</ele>
        <time>2025-06-09T12:55:22Z</time>
      </trkpt>
      <trkpt lat="46.49881" lon="6.01112">
        <ele>1130</ele>
        <time>2025-06-09T12:55:26Z</time>
      </trkpt>
      <trkpt lat="46.49883" lon="6.01112">
        <ele>1129</ele>
        <time>2025-06-09T12:55:35Z</time>
      </trkpt>
      <trkpt lat="46.49885" lon="6.01111">
        <ele>1128</ele>
        <time>2025-06-09T12:55:41Z</time>
      </trkpt>
      <trkpt lat="46.49888" lon="6.01112">
        <ele>1127</ele>
        <time>2025-06-09T12:55:46Z</time>
      </trkpt>
      <trkpt lat="46.49891" lon="6.01112">
        <ele>1128</ele>
        <time>2025-06-09T12:55:52Z</time>
      </trkpt>
      <trkpt lat="46.49894" lon="6.01113">
        <ele>1129</ele>
        <time>2025-06-09T12:55:56Z</time>
      </trkpt>
      <trkpt lat="46.49898" lon="6.01113">
        <ele>1129</ele>
        <time>2025-06-09T12:55:59Z</time>
      </trkpt>
      <trkpt lat="46.49901" lon="6.01114">
        <ele>1130</ele>
        <time>2025-06-09T12:56:03Z</time>
      </trkpt>
      <trkpt lat="46.49904" lon="6.01114">
        <ele>1130</ele>
        <time>2025-06-09T12:56:06Z</time>
      </trkpt>
      <trkpt lat="46.49907" lon="6.01114">
        <ele>1130</ele>
        <time>2025-06-09T12:56:09Z</time>
      </trkpt>
      <trkpt lat="46.4991" lon="6.01114">
        <ele>1131</ele>
        <time>2025-06-09T12:56:12Z</time>
      </trkpt>
      <trkpt lat="46.49914" lon="6.01112">
        <ele>1131</ele>
        <time>2025-06-09T12:56:15Z</time>
      </trkpt>
      <trkpt lat="46.49916" lon="6.01111">
        <ele>1131</ele>
        <time>2025-06-09T12:56:18Z</time>
      </trkpt>
      <trkpt lat="46.49919" lon="6.01109">
        <ele>1131</ele>
        <time>2025-06-09T12:56:21Z</time>
      </trkpt>
      <trkpt lat="46.49922" lon="6.01108">
        <ele>1132</ele>
        <time>2025-06-09T12:56:24Z</time>
      </trkpt>
      <trkpt lat="46.49925" lon="6.01106">
        <ele>1132</ele>
        <time>2025-06-09T12:56:28Z</time>
      </trkpt>
      <trkpt lat="46.49927" lon="6.01104">
        <ele>1132</ele>
        <time>2025-06-09T12:56:32Z</time>
      </trkpt>
      <trkpt lat="46.49929" lon="6.011">
        <ele>1133</ele>
        <time>2025-06-09T12:56:35Z</time>
      </trkpt>
      <trkpt lat="46.49932" lon="6.01098">
        <ele>1133</ele>
        <time>2025-06-09T12:56:42Z</time>
      </trkpt>
      <trkpt lat="46.49934" lon="6.01097">
        <ele>1134</ele>
        <time>2025-06-09T12:56:48Z</time>
      </trkpt>
      <trkpt lat="46.49937" lon="6.01094">
        <ele>1134</ele>
        <time>2025-06-09T12:56:53Z</time>
      </trkpt>
      <trkpt lat="46.49939" lon="6.01092">
        <ele>1135</ele>
        <time>2025-06-09T12:56:58Z</time>
      </trkpt>
      <trkpt lat="46.49941" lon="6.01088">
        <ele>1135</ele>
        <time>2025-06-09T12:57:02Z</time>
      </trkpt>
      <trkpt lat="46.49943" lon="6.01084">
        <ele>1136</ele>
        <time>2025-06-09T12:57:05Z</time>
      </trkpt>
      <trkpt lat="46.49945" lon="6.01081">
        <ele>1136</ele>
        <time>2025-06-09T12:57:08Z</time>
      </trkpt>
      <trkpt lat="46.49947" lon="6.01078">
        <ele>1136</ele>
        <time>2025-06-09T12:57:12Z</time>
      </trkpt>
      <trkpt lat="46.4995" lon="6.01075">
        <ele>1136</ele>
        <time>2025-06-09T12:57:16Z</time>
      </trkpt>
      <trkpt lat="46.49952" lon="6.01073">
        <ele>1137</ele>
        <time>2025-06-09T12:57:21Z</time>
      </trkpt>
      <trkpt lat="46.49955" lon="6.0107">
        <ele>1137</ele>
        <time>2025-06-09T12:57:30Z</time>
      </trkpt>
      <trkpt lat="46.49959" lon="6.01064">
        <ele>1136</ele>
        <time>2025-06-09T12:57:38Z</time>
      </trkpt>
      <trkpt lat="46.4996" lon="6.01064">
        <ele>1136</ele>
        <time>2025-06-09T12:57:41Z</time>
      </trkpt>
      <trkpt lat="46.49964" lon="6.01064">
        <ele>1136</ele>
        <time>2025-06-09T12:57:44Z</time>
      </trkpt>
      <trkpt lat="46.49965" lon="6.01067">
        <ele>1136</ele>
        <time>2025-06-09T12:57:48Z</time>
      </trkpt>
      <trkpt lat="46.49966" lon="6.01071">
        <ele>1136</ele>
        <time>2025-06-09T12:57:54Z</time>
      </trkpt>
      <trkpt lat="46.49967" lon="6.01075">
        <ele>1137</ele>
        <time>2025-06-09T12:58:00Z</time>
      </trkpt>
      <trkpt lat="46.4997" lon="6.01075">
        <ele>1136</ele>
        <time>2025-06-09T12:58:06Z</time>
      </trkpt>
      <trkpt lat="46.49969" lon="6.01077">
        <ele>1136</ele>
        <time>2025-06-09T12:58:16Z</time>
      </trkpt>
      <trkpt lat="46.49966" lon="6.01079">
        <ele>1135</ele>
        <time>2025-06-09T12:58:20Z</time>
      </trkpt>
      <trkpt lat="46.49965" lon="6.01078">
        <ele>1135</ele>
        <time>2025-06-09T12:58:24Z</time>
      </trkpt>
      <trkpt lat="46.49963" lon="6.01075">
        <ele>1134</ele>
        <time>2025-06-09T12:58:28Z</time>
      </trkpt>
      <trkpt lat="46.49961" lon="6.01073">
        <ele>1134</ele>
        <time>2025-06-09T12:58:36Z</time>
      </trkpt>
      <trkpt lat="46.49959" lon="6.01075">
        <ele>1135</ele>
        <time>2025-06-09T12:58:42Z</time>
      </trkpt>
      <trkpt lat="46.49956" lon="6.01078">
        <ele>1135</ele>
        <time>2025-06-09T12:58:46Z</time>
      </trkpt>
      <trkpt lat="46.49954" lon="6.0108">
        <ele>1136</ele>
        <time>2025-06-09T12:58:49Z</time>
      </trkpt>
      <trkpt lat="46.49951" lon="6.01083">
        <ele>1137</ele>
        <time>2025-06-09T12:58:53Z</time>
      </trkpt>
      <trkpt lat="46.49949" lon="6.01086">
        <ele>1138</ele>
        <time>2025-06-09T12:58:57Z</time>
      </trkpt>
      <trkpt lat="46.49947" lon="6.01089">
        <ele>1139</ele>
        <time>2025-06-09T12:59:01Z</time>
      </trkpt>
      <trkpt lat="46.49945" lon="6.01093">
        <ele>1140</ele>
        <time>2025-06-09T12:59:05Z</time>
      </trkpt>
      <trkpt lat="46.49944" lon="6.01097">
        <ele>1140</ele>
        <time>2025-06-09T12:59:08Z</time>
      </trkpt>
      <trkpt lat="46.49943" lon="6.01101">
        <ele>1140</ele>
        <time>2025-06-09T12:59:11Z</time>
      </trkpt>
      <trkpt lat="46.49942" lon="6.01106">
        <ele>1141</ele>
        <time>2025-06-09T12:59:15Z</time>
      </trkpt>
      <trkpt lat="46.49942" lon="6.01111">
        <ele>1141</ele>
        <time>2025-06-09T12:59:19Z</time>
      </trkpt>
      <trkpt lat="46.49941" lon="6.01115">
        <ele>1141</ele>
        <time>2025-06-09T12:59:23Z</time>
      </trkpt>
      <trkpt lat="46.49941" lon="6.0112">
        <ele>1142</ele>
        <time>2025-06-09T12:59:27Z</time>
      </trkpt>
      <trkpt lat="46.4994" lon="6.01124">
        <ele>1142</ele>
        <time>2025-06-09T12:59:31Z</time>
      </trkpt>
      <trkpt lat="46.49939" lon="6.01129">
        <ele>1143</ele>
        <time>2025-06-09T12:59:35Z</time>
      </trkpt>
      <trkpt lat="46.49938" lon="6.01133">
        <ele>1144</ele>
        <time>2025-06-09T12:59:40Z</time>
      </trkpt>
      <trkpt lat="46.49937" lon="6.01137">
        <ele>1144</ele>
        <time>2025-06-09T12:59:44Z</time>
      </trkpt>
      <trkpt lat="46.49937" lon="6.01141">
        <ele>1145</ele>
        <time>2025-06-09T12:59:49Z</time>
      </trkpt>
      <trkpt lat="46.49935" lon="6.01145">
        <ele>1145</ele>
        <time>2025-06-09T12:59:54Z</time>
      </trkpt>
      <trkpt lat="46.49933" lon="6.01148">
        <ele>1145</ele>
        <time>2025-06-09T12:59:59Z</time>
      </trkpt>
      <trkpt lat="46.49931" lon="6.01151">
        <ele>1145</ele>
        <time>2025-06-09T13:00:03Z</time>
      </trkpt>
      <trkpt lat="46.49929" lon="6.01154">
        <ele>1145</ele>
        <time>2025-06-09T13:00:05Z</time>
      </trkpt>
      <trkpt lat="46.49927" lon="6.01157">
        <ele>1145</ele>
        <time>2025-06-09T13:00:08Z</time>
      </trkpt>
      <trkpt lat="46.49925" lon="6.0116">
        <ele>1145</ele>
        <time>2025-06-09T13:00:11Z</time>
      </trkpt>
      <trkpt lat="46.49923" lon="6.01163">
        <ele>1144</ele>
        <time>2025-06-09T13:00:15Z</time>
      </trkpt>
      <trkpt lat="46.49921" lon="6.01167">
        <ele>1144</ele>
        <time>2025-06-09T13:00:20Z</time>
      </trkpt>
      <trkpt lat="46.49919" lon="6.01169">
        <ele>1143</ele>
        <time>2025-06-09T13:00:25Z</time>
      </trkpt>
      <trkpt lat="46.49916" lon="6.01171">
        <ele>1142</ele>
        <time>2025-06-09T13:00:32Z</time>
      </trkpt>
      <trkpt lat="46.49913" lon="6.01173">
        <ele>1141</ele>
        <time>2025-06-09T13:00:40Z</time>
      </trkpt>
      <trkpt lat="46.49911" lon="6.01175">
        <ele>1140</ele>
        <time>2025-06-09T13:00:44Z</time>
      </trkpt>
      <trkpt lat="46.49909" lon="6.01178">
        <ele>1139</ele>
        <time>2025-06-09T13:00:49Z</time>
      </trkpt>
      <trkpt lat="46.49906" lon="6.0118">
        <ele>1138</ele>
        <time>2025-06-09T13:00:54Z</time>
      </trkpt>
      <trkpt lat="46.49903" lon="6.01182">
        <ele>1137</ele>
        <time>2025-06-09T13:00:58Z</time>
      </trkpt>
      <trkpt lat="46.49901" lon="6.01184">
        <ele>1136</ele>
        <time>2025-06-09T13:01:01Z</time>
      </trkpt>
      <trkpt lat="46.49898" lon="6.01187">
        <ele>1136</ele>
        <time>2025-06-09T13:01:04Z</time>
      </trkpt>
      <trkpt lat="46.49895" lon="6.01189">
        <ele>1135</ele>
        <time>2025-06-09T13:01:06Z</time>
      </trkpt>
      <trkpt lat="46.49893" lon="6.01191">
        <ele>1134</ele>
        <time>2025-06-09T13:01:10Z</time>
      </trkpt>
      <trkpt lat="46.49891" lon="6.01194">
        <ele>1132</ele>
        <time>2025-06-09T13:01:16Z</time>
      </trkpt>
      <trkpt lat="46.49889" lon="6.01198">
        <ele>1131</ele>
        <time>2025-06-09T13:01:20Z</time>
      </trkpt>
      <trkpt lat="46.49887" lon="6.01202">
        <ele>1130</ele>
        <time>2025-06-09T13:01:23Z</time>
      </trkpt>
      <trkpt lat="46.49887" lon="6.01207">
        <ele>1129</ele>
        <time>2025-06-09T13:01:27Z</time>
      </trkpt>
      <trkpt lat="46.49886" lon="6.01211">
        <ele>1127</ele>
        <time>2025-06-09T13:01:31Z</time>
      </trkpt>
      <trkpt lat="46.49885" lon="6.01215">
        <ele>1126</ele>
        <time>2025-06-09T13:01:37Z</time>
      </trkpt>
      <trkpt lat="46.49884" lon="6.0122">
        <ele>1124</ele>
        <time>2025-06-09T13:01:40Z</time>
      </trkpt>
      <trkpt lat="46.49883" lon="6.01224">
        <ele>1123</ele>
        <time>2025-06-09T13:01:43Z</time>
      </trkpt>
      <trkpt lat="46.49881" lon="6.01228">
        <ele>1121</ele>
        <time>2025-06-09T13:01:47Z</time>
      </trkpt>
      <trkpt lat="46.49879" lon="6.01231">
        <ele>1120</ele>
        <time>2025-06-09T13:01:51Z</time>
      </trkpt>
      <trkpt lat="46.49877" lon="6.01235">
        <ele>1119</ele>
        <time>2025-06-09T13:01:55Z</time>
      </trkpt>
      <trkpt lat="46.49876" lon="6.01239">
        <ele>1117</ele>
        <time>2025-06-09T13:01:59Z</time>
      </trkpt>
      <trkpt lat="46.49875" lon="6.01244">
        <ele>1116</ele>
        <time>2025-06-09T13:02:02Z</time>
      </trkpt>
      <trkpt lat="46.49876" lon="6.01249">
        <ele>1115</ele>
        <time>2025-06-09T13:02:05Z</time>
      </trkpt>
      <trkpt lat="46.49877" lon="6.01253">
        <ele>1114</ele>
        <time>2025-06-09T13:02:08Z</time>
      </trkpt>
      <trkpt lat="46.49879" lon="6.01257">
        <ele>1113</ele>
        <time>2025-06-09T13:02:11Z</time>
      </trkpt>
      <trkpt lat="46.49882" lon="6.01259">
        <ele>1112</ele>
        <time>2025-06-09T13:02:15Z</time>
      </trkpt>
      <trkpt lat="46.49883" lon="6.01262">
        <ele>1111</ele>
        <time>2025-06-09T13:02:19Z</time>
      </trkpt>
      <trkpt lat="46.49885" lon="6.01266">
        <ele>1109</ele>
        <time>2025-06-09T13:02:29Z</time>
      </trkpt>
      <trkpt lat="46.49889" lon="6.0127">
        <ele>1106</ele>
        <time>2025-06-09T13:02:38Z</time>
      </trkpt>
      <trkpt lat="46.49889" lon="6.01272">
        <ele>1106</ele>
        <time>2025-06-09T13:02:42Z</time>
      </trkpt>
      <trkpt lat="46.49891" lon="6.01274">
        <ele>1106</ele>
        <time>2025-06-09T13:02:49Z</time>
      </trkpt>
      <trkpt lat="46.49889" lon="6.01275">
        <ele>1105</ele>
        <time>2025-06-09T13:03:06Z</time>
      </trkpt>
      <trkpt lat="46.49887" lon="6.01278">
        <ele>1105</ele>
        <time>2025-06-09T13:03:10Z</time>
      </trkpt>
      <trkpt lat="46.49885" lon="6.01281">
        <ele>1104</ele>
        <time>2025-06-09T13:03:14Z</time>
      </trkpt>
      <trkpt lat="46.49884" lon="6.01285">
        <ele>1104</ele>
        <time>2025-06-09T13:03:17Z</time>
      </trkpt>
      <trkpt lat="46.49883" lon="6.01289">
        <ele>1103</ele>
        <time>2025-06-09T13:03:22Z</time>
      </trkpt>
      <trkpt lat="46.49882" lon="6.01293">
        <ele>1102</ele>
        <time>2025-06-09T13:03:27Z</time>
      </trkpt>
      <trkpt lat="46.49881" lon="6.01297">
        <ele>1102</ele>
        <time>2025-06-09T13:03:31Z</time>
      </trkpt>
      <trkpt lat="46.49881" lon="6.01301">
        <ele>1101</ele>
        <time>2025-06-09T13:03:35Z</time>
      </trkpt>
      <trkpt lat="46.49881" lon="6.01305">
        <ele>1101</ele>
        <time>2025-06-09T13:03:46Z</time>
      </trkpt>
      <trkpt lat="46.49881" lon="6.01309">
        <ele>1100</ele>
        <time>2025-06-09T13:03:50Z</time>
      </trkpt>
      <trkpt lat="46.49881" lon="6.01314">
        <ele>1099</ele>
        <time>2025-06-09T13:03:56Z</time>
      </trkpt>
      <trkpt lat="46.49882" lon="6.01319">
        <ele>1099</ele>
        <time>2025-06-09T13:03:59Z</time>
      </trkpt>
      <trkpt lat="46.49883" lon="6.01323">
        <ele>1098</ele>
        <time>2025-06-09T13:04:04Z</time>
      </trkpt>
      <trkpt lat="46.49883" lon="6.01328">
        <ele>1097</ele>
        <time>2025-06-09T13:04:09Z</time>
      </trkpt>
      <trkpt lat="46.49882" lon="6.01331">
        <ele>1096</ele>
        <time>2025-06-09T13:04:17Z</time>
      </trkpt>
      <trkpt lat="46.49882" lon="6.01335">
        <ele>1094</ele>
        <time>2025-06-09T13:04:22Z</time>
      </trkpt>
      <trkpt lat="46.49881" lon="6.01345">
        <ele>1091</ele>
        <time>2025-06-09T13:04:51Z</time>
      </trkpt>
      <trkpt lat="46.49884" lon="6.0135">
        <ele>1088</ele>
        <time>2025-06-09T13:05:10Z</time>
      </trkpt>
      <trkpt lat="46.49884" lon="6.01357">
        <ele>1087</ele>
        <time>2025-06-09T13:05:39Z</time>
      </trkpt>
      <trkpt lat="46.49882" lon="6.01369">
        <ele>1085</ele>
        <time>2025-06-09T13:06:26Z</time>
      </trkpt>
      <trkpt lat="46.49882" lon="6.01381">
        <ele>1084</ele>
        <time>2025-06-09T13:06:54Z</time>
      </trkpt>
      <trkpt lat="46.49883" lon="6.0139">
        <ele>1083</ele>
        <time>2025-06-09T13:06:58Z</time>
      </trkpt>
      <trkpt lat="46.49885" lon="6.01393">
        <ele>1082</ele>
        <time>2025-06-09T13:07:03Z</time>
      </trkpt>
      <trkpt lat="46.49885" lon="6.01392">
        <ele>1081</ele>
        <time>2025-06-09T13:07:36Z</time>
      </trkpt>
      <trkpt lat="46.49879" lon="6.01388">
        <ele>1078</ele>
        <time>2025-06-09T13:08:02Z</time>
      </trkpt>
      <trkpt lat="46.49878" lon="6.01389">
        <ele>1078</ele>
        <time>2025-06-09T13:08:06Z</time>
      </trkpt>
      <trkpt lat="46.49875" lon="6.01391">
        <ele>1077</ele>
        <time>2025-06-09T13:08:11Z</time>
      </trkpt>
      <trkpt lat="46.49873" lon="6.0139">
        <ele>1074</ele>
        <time>2025-06-09T13:08:19Z</time>
      </trkpt>
      <trkpt lat="46.49869" lon="6.01392">
        <ele>1071</ele>
        <time>2025-06-09T13:08:36Z</time>
      </trkpt>
      <trkpt lat="46.49863" lon="6.014">
        <ele>1068</ele>
        <time>2025-06-09T13:08:53Z</time>
      </trkpt>
      <trkpt lat="46.49861" lon="6.01409">
        <ele>1065</ele>
        <time>2025-06-09T13:09:00Z</time>
      </trkpt>
      <trkpt lat="46.49863" lon="6.01417">
        <ele>1062</ele>
        <time>2025-06-09T13:09:10Z</time>
      </trkpt>
      <trkpt lat="46.49862" lon="6.01419">
        <ele>1062</ele>
        <time>2025-06-09T13:09:18Z</time>
      </trkpt>
      <trkpt lat="46.49861" lon="6.01422">
        <ele>1062</ele>
        <time>2025-06-09T13:09:22Z</time>
      </trkpt>
      <trkpt lat="46.49862" lon="6.01425">
        <ele>1059</ele>
        <time>2025-06-09T13:09:37Z</time>
      </trkpt>
      <trkpt lat="46.49862" lon="6.01423">
        <ele>1058</ele>
        <time>2025-06-09T13:09:42Z</time>
      </trkpt>
      <trkpt lat="46.49863" lon="6.01421">
        <ele>1056</ele>
        <time>2025-06-09T13:09:48Z</time>
      </trkpt>
      <trkpt lat="46.49857" lon="6.0141">
        <ele>1057</ele>
        <time>2025-06-09T13:10:35Z</time>
      </trkpt>
      <trkpt lat="46.49855" lon="6.01417">
        <ele>1055</ele>
        <time>2025-06-09T13:11:02Z</time>
      </trkpt>
      <trkpt lat="46.49853" lon="6.01419">
        <ele>1054</ele>
        <time>2025-06-09T13:11:16Z</time>
      </trkpt>
      <trkpt lat="46.49851" lon="6.01417">
        <ele>1053</ele>
        <time>2025-06-09T13:11:22Z</time>
      </trkpt>
      <trkpt lat="46.49849" lon="6.01415">
        <ele>1054</ele>
        <time>2025-06-09T13:11:30Z</time>
      </trkpt>
      <trkpt lat="46.49844" lon="6.01416">
        <ele>1055</ele>
        <time>2025-06-09T13:11:40Z</time>
      </trkpt>
      <trkpt lat="46.4984" lon="6.01421">
        <ele>1055</ele>
        <time>2025-06-09T13:11:56Z</time>
      </trkpt>
      <trkpt lat="46.4984" lon="6.01419">
        <ele>1054</ele>
        <time>2025-06-09T13:12:04Z</time>
      </trkpt>
      <trkpt lat="46.49839" lon="6.01415">
        <ele>1055</ele>
        <time>2025-06-09T13:12:23Z</time>
      </trkpt>
      <trkpt lat="46.49837" lon="6.01412">
        <ele>1055</ele>
        <time>2025-06-09T13:12:27Z</time>
      </trkpt>
      <trkpt lat="46.49834" lon="6.0141">
        <ele>1056</ele>
        <time>2025-06-09T13:12:33Z</time>
      </trkpt>
      <trkpt lat="46.49831" lon="6.0141">
        <ele>1057</ele>
        <time>2025-06-09T13:12:40Z</time>
      </trkpt>
      <trkpt lat="46.49828" lon="6.0141">
        <ele>1057</ele>
        <time>2025-06-09T13:12:45Z</time>
      </trkpt>
      <trkpt lat="46.49825" lon="6.01409">
        <ele>1057</ele>
        <time>2025-06-09T13:12:50Z</time>
      </trkpt>
      <trkpt lat="46.49822" lon="6.01408">
        <ele>1058</ele>
        <time>2025-06-09T13:12:53Z</time>
      </trkpt>
      <trkpt lat="46.49819" lon="6.01408">
        <ele>1058</ele>
        <time>2025-06-09T13:13:00Z</time>
      </trkpt>
      <trkpt lat="46.49814" lon="6.01404">
        <ele>1057</ele>
        <time>2025-06-09T13:13:13Z</time>
      </trkpt>
      <trkpt lat="46.49812" lon="6.014">
        <ele>1056</ele>
        <time>2025-06-09T13:13:17Z</time>
      </trkpt>
      <trkpt lat="46.4981" lon="6.01396">
        <ele>1055</ele>
        <time>2025-06-09T13:13:23Z</time>
      </trkpt>
      <trkpt lat="46.49807" lon="6.01393">
        <ele>1054</ele>
        <time>2025-06-09T13:13:32Z</time>
      </trkpt>
      <trkpt lat="46.49804" lon="6.0139">
        <ele>1053</ele>
        <time>2025-06-09T13:13:36Z</time>
      </trkpt>
      <trkpt lat="46.49802" lon="6.01388">
        <ele>1052</ele>
        <time>2025-06-09T13:13:42Z</time>
      </trkpt>
      <trkpt lat="46.49799" lon="6.01388">
        <ele>1051</ele>
        <time>2025-06-09T13:13:46Z</time>
      </trkpt>
      <trkpt lat="46.49796" lon="6.01388">
        <ele>1050</ele>
        <time>2025-06-09T13:13:51Z</time>
      </trkpt>
      <trkpt lat="46.49793" lon="6.01387">
        <ele>1050</ele>
        <time>2025-06-09T13:13:55Z</time>
      </trkpt>
      <trkpt lat="46.4979" lon="6.01386">
        <ele>1049</ele>
        <time>2025-06-09T13:13:59Z</time>
      </trkpt>
      <trkpt lat="46.49787" lon="6.01385">
        <ele>1048</ele>
        <time>2025-06-09T13:14:03Z</time>
      </trkpt>
      <trkpt lat="46.49784" lon="6.01384">
        <ele>1047</ele>
        <time>2025-06-09T13:14:09Z</time>
      </trkpt>
      <trkpt lat="46.49781" lon="6.01382">
        <ele>1046</ele>
        <time>2025-06-09T13:14:12Z</time>
      </trkpt>
      <trkpt lat="46.49776" lon="6.01378">
        <ele>1046</ele>
        <time>2025-06-09T13:14:36Z</time>
      </trkpt>
      <trkpt lat="46.49772" lon="6.01375">
        <ele>1044</ele>
        <time>2025-06-09T13:14:58Z</time>
      </trkpt>
      <trkpt lat="46.49769" lon="6.01372">
        <ele>1044</ele>
        <time>2025-06-09T13:15:07Z</time>
      </trkpt>
      <trkpt lat="46.49767" lon="6.01369">
        <ele>1042</ele>
        <time>2025-06-09T13:15:11Z</time>
      </trkpt>
      <trkpt lat="46.49763" lon="6.01367">
        <ele>1040</ele>
        <time>2025-06-09T13:15:27Z</time>
      </trkpt>
      <trkpt lat="46.49759" lon="6.01369">
        <ele>1039</ele>
        <time>2025-06-09T13:15:31Z</time>
      </trkpt>
      <trkpt lat="46.49753" lon="6.01374">
        <ele>1039</ele>
        <time>2025-06-09T13:15:44Z</time>
      </trkpt>
      <trkpt lat="46.49745" lon="6.01375">
        <ele>1038</ele>
        <time>2025-06-09T13:16:08Z</time>
      </trkpt>
      <trkpt lat="46.49742" lon="6.01377">
        <ele>1037</ele>
        <time>2025-06-09T13:16:38Z</time>
      </trkpt>
      <trkpt lat="46.49741" lon="6.01382">
        <ele>1035</ele>
        <time>2025-06-09T13:16:42Z</time>
      </trkpt>
      <trkpt lat="46.49743" lon="6.01389">
        <ele>1032</ele>
        <time>2025-06-09T13:17:07Z</time>
      </trkpt>
      <trkpt lat="46.49742" lon="6.01392">
        <ele>1031</ele>
        <time>2025-06-09T13:17:13Z</time>
      </trkpt>
      <trkpt lat="46.49742" lon="6.01396">
        <ele>1032</ele>
        <time>2025-06-09T13:17:18Z</time>
      </trkpt>
      <trkpt lat="46.49743" lon="6.014">
        <ele>1032</ele>
        <time>2025-06-09T13:17:22Z</time>
      </trkpt>
      <trkpt lat="46.49744" lon="6.01405">
        <ele>1032</ele>
        <time>2025-06-09T13:17:26Z</time>
      </trkpt>
      <trkpt lat="46.49745" lon="6.0141">
        <ele>1033</ele>
        <time>2025-06-09T13:17:29Z</time>
      </trkpt>
      <trkpt lat="46.49746" lon="6.01415">
        <ele>1033</ele>
        <time>2025-06-09T13:17:32Z</time>
      </trkpt>
      <trkpt lat="46.49746" lon="6.01419">
        <ele>1033</ele>
        <time>2025-06-09T13:17:35Z</time>
      </trkpt>
      <trkpt lat="46.49746" lon="6.01423">
        <ele>1033</ele>
        <time>2025-06-09T13:17:38Z</time>
      </trkpt>
      <trkpt lat="46.49746" lon="6.01428">
        <ele>1034</ele>
        <time>2025-06-09T13:17:44Z</time>
      </trkpt>
      <trkpt lat="46.49749" lon="6.01434">
        <ele>1033</ele>
        <time>2025-06-09T13:17:53Z</time>
      </trkpt>
      <trkpt lat="46.49752" lon="6.01437">
        <ele>1032</ele>
        <time>2025-06-09T13:17:56Z</time>
      </trkpt>
      <trkpt lat="46.49755" lon="6.01438">
        <ele>1030</ele>
        <time>2025-06-09T13:18:24Z</time>
      </trkpt>
      <trkpt lat="46.49759" lon="6.01437">
        <ele>1029</ele>
        <time>2025-06-09T13:18:33Z</time>
      </trkpt>
      <trkpt lat="46.49766" lon="6.01435">
        <ele>1026</ele>
        <time>2025-06-09T13:18:51Z</time>
      </trkpt>
      <trkpt lat="46.49767" lon="6.01437">
        <ele>1026</ele>
        <time>2025-06-09T13:18:58Z</time>
      </trkpt>
      <trkpt lat="46.49766" lon="6.01441">
        <ele>1025</ele>
        <time>2025-06-09T13:19:01Z</time>
      </trkpt>
      <trkpt lat="46.49766" lon="6.01447">
        <ele>1025</ele>
        <time>2025-06-09T13:19:04Z</time>
      </trkpt>
      <trkpt lat="46.49766" lon="6.01453">
        <ele>1026</ele>
        <time>2025-06-09T13:19:07Z</time>
      </trkpt>
      <trkpt lat="46.49767" lon="6.01457">
        <ele>1026</ele>
        <time>2025-06-09T13:19:10Z</time>
      </trkpt>
      <trkpt lat="46.49769" lon="6.01462">
        <ele>1026</ele>
        <time>2025-06-09T13:19:16Z</time>
      </trkpt>
      <trkpt lat="46.4977" lon="6.01466">
        <ele>1027</ele>
        <time>2025-06-09T13:19:21Z</time>
      </trkpt>
      <trkpt lat="46.49772" lon="6.0147">
        <ele>1027</ele>
        <time>2025-06-09T13:19:25Z</time>
      </trkpt>
      <trkpt lat="46.49773" lon="6.01474">
        <ele>1027</ele>
        <time>2025-06-09T13:19:29Z</time>
      </trkpt>
      <trkpt lat="46.49775" lon="6.01477">
        <ele>1027</ele>
        <time>2025-06-09T13:19:33Z</time>
      </trkpt>
      <trkpt lat="46.49777" lon="6.01481">
        <ele>1026</ele>
        <time>2025-06-09T13:19:36Z</time>
      </trkpt>
      <trkpt lat="46.49778" lon="6.01485">
        <ele>1026</ele>
        <time>2025-06-09T13:19:39Z</time>
      </trkpt>
      <trkpt lat="46.49779" lon="6.01489">
        <ele>1026</ele>
        <time>2025-06-09T13:19:43Z</time>
      </trkpt>
      <trkpt lat="46.4978" lon="6.01493">
        <ele>1026</ele>
        <time>2025-06-09T13:19:46Z</time>
      </trkpt>
      <trkpt lat="46.49781" lon="6.01497">
        <ele>1026</ele>
        <time>2025-06-09T13:19:49Z</time>
      </trkpt>
      <trkpt lat="46.49782" lon="6.01502">
        <ele>1026</ele>
        <time>2025-06-09T13:19:53Z</time>
      </trkpt>
      <trkpt lat="46.49784" lon="6.01506">
        <ele>1026</ele>
        <time>2025-06-09T13:19:56Z</time>
      </trkpt>
      <trkpt lat="46.49785" lon="6.01509">
        <ele>1026</ele>
        <time>2025-06-09T13:19:59Z</time>
      </trkpt>
      <trkpt lat="46.49788" lon="6.01513">
        <ele>1026</ele>
        <time>2025-06-09T13:20:03Z</time>
      </trkpt>
      <trkpt lat="46.4979" lon="6.01517">
        <ele>1026</ele>
        <time>2025-06-09T13:20:06Z</time>
      </trkpt>
      <trkpt lat="46.49793" lon="6.0152">
        <ele>1025</ele>
        <time>2025-06-09T13:20:09Z</time>
      </trkpt>
      <trkpt lat="46.49796" lon="6.01524">
        <ele>1025</ele>
        <time>2025-06-09T13:20:12Z</time>
      </trkpt>
      <trkpt lat="46.49799" lon="6.01528">
        <ele>1025</ele>
        <time>2025-06-09T13:20:15Z</time>
      </trkpt>
      <trkpt lat="46.49802" lon="6.0153">
        <ele>1024</ele>
        <time>2025-06-09T13:20:17Z</time>
      </trkpt>
      <trkpt lat="46.49804" lon="6.01534">
        <ele>1024</ele>
        <time>2025-06-09T13:20:20Z</time>
      </trkpt>
      <trkpt lat="46.49807" lon="6.01537">
        <ele>1024</ele>
        <time>2025-06-09T13:20:23Z</time>
      </trkpt>
      <trkpt lat="46.4981" lon="6.01539">
        <ele>1023</ele>
        <time>2025-06-09T13:20:26Z</time>
      </trkpt>
      <trkpt lat="46.49813" lon="6.01542">
        <ele>1023</ele>
        <time>2025-06-09T13:20:29Z</time>
      </trkpt>
      <trkpt lat="46.49816" lon="6.01544">
        <ele>1022</ele>
        <time>2025-06-09T13:20:33Z</time>
      </trkpt>
      <trkpt lat="46.49819" lon="6.01547">
        <ele>1021</ele>
        <time>2025-06-09T13:20:36Z</time>
      </trkpt>
      <trkpt lat="46.49821" lon="6.01549">
        <ele>1021</ele>
        <time>2025-06-09T13:20:39Z</time>
      </trkpt>
      <trkpt lat="46.49823" lon="6.01552">
        <ele>1020</ele>
        <time>2025-06-09T13:20:42Z</time>
      </trkpt>
      <trkpt lat="46.49825" lon="6.01554">
        <ele>1020</ele>
        <time>2025-06-09T13:20:45Z</time>
      </trkpt>
      <trkpt lat="46.49828" lon="6.01557">
        <ele>1019</ele>
        <time>2025-06-09T13:20:49Z</time>
      </trkpt>
      <trkpt lat="46.4983" lon="6.01559">
        <ele>1019</ele>
        <time>2025-06-09T13:20:53Z</time>
      </trkpt>
      <trkpt lat="46.49833" lon="6.01562">
        <ele>1018</ele>
        <time>2025-06-09T13:20:57Z</time>
      </trkpt>
      <trkpt lat="46.49836" lon="6.01565">
        <ele>1017</ele>
        <time>2025-06-09T13:21:00Z</time>
      </trkpt>
      <trkpt lat="46.49838" lon="6.01568">
        <ele>1017</ele>
        <time>2025-06-09T13:21:03Z</time>
      </trkpt>
      <trkpt lat="46.49841" lon="6.0157">
        <ele>1016</ele>
        <time>2025-06-09T13:21:06Z</time>
      </trkpt>
      <trkpt lat="46.49844" lon="6.01572">
        <ele>1016</ele>
        <time>2025-06-09T13:21:10Z</time>
      </trkpt>
      <trkpt lat="46.49847" lon="6.01574">
        <ele>1015</ele>
        <time>2025-06-09T13:21:13Z</time>
      </trkpt>
      <trkpt lat="46.49849" lon="6.01576">
        <ele>1015</ele>
        <time>2025-06-09T13:21:15Z</time>
      </trkpt>
      <trkpt lat="46.49852" lon="6.01578">
        <ele>1014</ele>
        <time>2025-06-09T13:21:17Z</time>
      </trkpt>
      <trkpt lat="46.49853" lon="6.01581">
        <ele>1014</ele>
        <time>2025-06-09T13:21:20Z</time>
      </trkpt>
      <trkpt lat="46.49855" lon="6.01585">
        <ele>1013</ele>
        <time>2025-06-09T13:21:24Z</time>
      </trkpt>
      <trkpt lat="46.49857" lon="6.01589">
        <ele>1013</ele>
        <time>2025-06-09T13:21:27Z</time>
      </trkpt>
      <trkpt lat="46.49859" lon="6.01593">
        <ele>1013</ele>
        <time>2025-06-09T13:21:31Z</time>
      </trkpt>
      <trkpt lat="46.49861" lon="6.01596">
        <ele>1012</ele>
        <time>2025-06-09T13:21:34Z</time>
      </trkpt>
      <trkpt lat="46.49863" lon="6.01599">
        <ele>1012</ele>
        <time>2025-06-09T13:21:39Z</time>
      </trkpt>
      <trkpt lat="46.49865" lon="6.01602">
        <ele>1013</ele>
        <time>2025-06-09T13:21:42Z</time>
      </trkpt>
      <trkpt lat="46.49867" lon="6.01606">
        <ele>1013</ele>
        <time>2025-06-09T13:21:45Z</time>
      </trkpt>
      <trkpt lat="46.49868" lon="6.01609">
        <ele>1013</ele>
        <time>2025-06-09T13:21:48Z</time>
      </trkpt>
      <trkpt lat="46.4987" lon="6.01613">
        <ele>1013</ele>
        <time>2025-06-09T13:21:51Z</time>
      </trkpt>
      <trkpt lat="46.49872" lon="6.01617">
        <ele>1013</ele>
        <time>2025-06-09T13:21:55Z</time>
      </trkpt>
      <trkpt lat="46.49873" lon="6.01622">
        <ele>1013</ele>
        <time>2025-06-09T13:21:59Z</time>
      </trkpt>
      <trkpt lat="46.49875" lon="6.01626">
        <ele>1014</ele>
        <time>2025-06-09T13:22:02Z</time>
      </trkpt>
      <trkpt lat="46.49876" lon="6.0163">
        <ele>1014</ele>
        <time>2025-06-09T13:22:05Z</time>
      </trkpt>
      <trkpt lat="46.49878" lon="6.01633">
        <ele>1013</ele>
        <time>2025-06-09T13:22:09Z</time>
      </trkpt>
      <trkpt lat="46.4988" lon="6.01636">
        <ele>1013</ele>
        <time>2025-06-09T13:22:13Z</time>
      </trkpt>
      <trkpt lat="46.49882" lon="6.0164">
        <ele>1013</ele>
        <time>2025-06-09T13:22:16Z</time>
      </trkpt>
      <trkpt lat="46.49884" lon="6.01642">
        <ele>1013</ele>
        <time>2025-06-09T13:22:19Z</time>
      </trkpt>
      <trkpt lat="46.49886" lon="6.01645">
        <ele>1013</ele>
        <time>2025-06-09T13:22:22Z</time>
      </trkpt>
      <trkpt lat="46.49889" lon="6.01647">
        <ele>1013</ele>
        <time>2025-06-09T13:22:26Z</time>
      </trkpt>
      <trkpt lat="46.49892" lon="6.0165">
        <ele>1013</ele>
        <time>2025-06-09T13:22:29Z</time>
      </trkpt>
      <trkpt lat="46.49894" lon="6.01653">
        <ele>1012</ele>
        <time>2025-06-09T13:22:32Z</time>
      </trkpt>
      <trkpt lat="46.49896" lon="6.01656">
        <ele>1012</ele>
        <time>2025-06-09T13:22:35Z</time>
      </trkpt>
      <trkpt lat="46.49898" lon="6.0166">
        <ele>1012</ele>
        <time>2025-06-09T13:22:38Z</time>
      </trkpt>
      <trkpt lat="46.499" lon="6.01664">
        <ele>1011</ele>
        <time>2025-06-09T13:22:41Z</time>
      </trkpt>
      <trkpt lat="46.49902" lon="6.01667">
        <ele>1011</ele>
        <time>2025-06-09T13:22:44Z</time>
      </trkpt>
      <trkpt lat="46.49904" lon="6.01671">
        <ele>1010</ele>
        <time>2025-06-09T13:22:48Z</time>
      </trkpt>
      <trkpt lat="46.49906" lon="6.01674">
        <ele>1010</ele>
        <time>2025-06-09T13:22:52Z</time>
      </trkpt>
      <trkpt lat="46.49908" lon="6.01677">
        <ele>1009</ele>
        <time>2025-06-09T13:22:56Z</time>
      </trkpt>
      <trkpt lat="46.4991" lon="6.01681">
        <ele>1009</ele>
        <time>2025-06-09T13:22:59Z</time>
      </trkpt>
      <trkpt lat="46.49912" lon="6.01686">
        <ele>1009</ele>
        <time>2025-06-09T13:23:02Z</time>
      </trkpt>
      <trkpt lat="46.49913" lon="6.01691">
        <ele>1009</ele>
        <time>2025-06-09T13:23:05Z</time>
      </trkpt>
      <trkpt lat="46.49915" lon="6.01695">
        <ele>1009</ele>
        <time>2025-06-09T13:23:08Z</time>
      </trkpt>
      <trkpt lat="46.49917" lon="6.01699">
        <ele>1009</ele>
        <time>2025-06-09T13:23:11Z</time>
      </trkpt>
      <trkpt lat="46.49919" lon="6.01703">
        <ele>1009</ele>
        <time>2025-06-09T13:23:14Z</time>
      </trkpt>
      <trkpt lat="46.49921" lon="6.01707">
        <ele>1008</ele>
        <time>2025-06-09T13:23:17Z</time>
      </trkpt>
      <trkpt lat="46.49923" lon="6.01711">
        <ele>1008</ele>
        <time>2025-06-09T13:23:20Z</time>
      </trkpt>
      <trkpt lat="46.49925" lon="6.01714">
        <ele>1008</ele>
        <time>2025-06-09T13:23:23Z</time>
      </trkpt>
      <trkpt lat="46.49927" lon="6.01718">
        <ele>1008</ele>
        <time>2025-06-09T13:23:26Z</time>
      </trkpt>
      <trkpt lat="46.49929" lon="6.01722">
        <ele>1007</ele>
        <time>2025-06-09T13:23:30Z</time>
      </trkpt>
      <trkpt lat="46.49931" lon="6.01726">
        <ele>1006</ele>
        <time>2025-06-09T13:23:33Z</time>
      </trkpt>
      <trkpt lat="46.49933" lon="6.01729">
        <ele>1006</ele>
        <time>2025-06-09T13:23:36Z</time>
      </trkpt>
      <trkpt lat="46.49935" lon="6.01733">
        <ele>1006</ele>
        <time>2025-06-09T13:23:39Z</time>
      </trkpt>
      <trkpt lat="46.49937" lon="6.01737">
        <ele>1005</ele>
        <time>2025-06-09T13:23:43Z</time>
      </trkpt>
      <trkpt lat="46.49939" lon="6.0174">
        <ele>1005</ele>
        <time>2025-06-09T13:23:46Z</time>
      </trkpt>
      <trkpt lat="46.49941" lon="6.01743">
        <ele>1004</ele>
        <time>2025-06-09T13:23:49Z</time>
      </trkpt>
      <trkpt lat="46.49943" lon="6.01747">
        <ele>1004</ele>
        <time>2025-06-09T13:23:52Z</time>
      </trkpt>
      <trkpt lat="46.49944" lon="6.0175">
        <ele>1003</ele>
        <time>2025-06-09T13:23:55Z</time>
      </trkpt>
      <trkpt lat="46.49946" lon="6.01754">
        <ele>1003</ele>
        <time>2025-06-09T13:23:58Z</time>
      </trkpt>
      <trkpt lat="46.49948" lon="6.01757">
        <ele>1003</ele>
        <time>2025-06-09T13:24:02Z</time>
      </trkpt>
      <trkpt lat="46.4995" lon="6.0176">
        <ele>1003</ele>
        <time>2025-06-09T13:24:05Z</time>
      </trkpt>
      <trkpt lat="46.49952" lon="6.01763">
        <ele>1003</ele>
        <time>2025-06-09T13:24:08Z</time>
      </trkpt>
      <trkpt lat="46.49954" lon="6.01766">
        <ele>1002</ele>
        <time>2025-06-09T13:24:11Z</time>
      </trkpt>
      <trkpt lat="46.49956" lon="6.0177">
        <ele>1002</ele>
        <time>2025-06-09T13:24:14Z</time>
      </trkpt>
      <trkpt lat="46.49959" lon="6.01772">
        <ele>1002</ele>
        <time>2025-06-09T13:24:17Z</time>
      </trkpt>
      <trkpt lat="46.49963" lon="6.01775">
        <ele>1001</ele>
        <time>2025-06-09T13:24:20Z</time>
      </trkpt>
      <trkpt lat="46.49966" lon="6.01777">
        <ele>1001</ele>
        <time>2025-06-09T13:24:23Z</time>
      </trkpt>
      <trkpt lat="46.49969" lon="6.01779">
        <ele>1000</ele>
        <time>2025-06-09T13:24:25Z</time>
      </trkpt>
      <trkpt lat="46.49972" lon="6.0178">
        <ele>1000</ele>
        <time>2025-06-09T13:24:28Z</time>
      </trkpt>
      <trkpt lat="46.49976" lon="6.0178">
        <ele>999</ele>
        <time>2025-06-09T13:24:31Z</time>
      </trkpt>
      <trkpt lat="46.49979" lon="6.0178">
        <ele>999</ele>
        <time>2025-06-09T13:24:33Z</time>
      </trkpt>
      <trkpt lat="46.49982" lon="6.01779">
        <ele>998</ele>
        <time>2025-06-09T13:24:36Z</time>
      </trkpt>
      <trkpt lat="46.49986" lon="6.01777">
        <ele>998</ele>
        <time>2025-06-09T13:24:39Z</time>
      </trkpt>
      <trkpt lat="46.49989" lon="6.01774">
        <ele>997</ele>
        <time>2025-06-09T13:24:42Z</time>
      </trkpt>
      <trkpt lat="46.49992" lon="6.01772">
        <ele>996</ele>
        <time>2025-06-09T13:24:45Z</time>
      </trkpt>
      <trkpt lat="46.49995" lon="6.0177">
        <ele>996</ele>
        <time>2025-06-09T13:24:49Z</time>
      </trkpt>
      <trkpt lat="46.49998" lon="6.01767">
        <ele>995</ele>
        <time>2025-06-09T13:24:53Z</time>
      </trkpt>
      <trkpt lat="46.5" lon="6.01765">
        <ele>995</ele>
        <time>2025-06-09T13:24:57Z</time>
      </trkpt>
      <trkpt lat="46.50003" lon="6.01763">
        <ele>994</ele>
        <time>2025-06-09T13:25:01Z</time>
      </trkpt>
      <trkpt lat="46.50006" lon="6.01761">
        <ele>994</ele>
        <time>2025-06-09T13:25:04Z</time>
      </trkpt>
      <trkpt lat="46.50009" lon="6.01759">
        <ele>993</ele>
        <time>2025-06-09T13:25:07Z</time>
      </trkpt>
      <trkpt lat="46.50012" lon="6.01758">
        <ele>993</ele>
        <time>2025-06-09T13:25:10Z</time>
      </trkpt>
      <trkpt lat="46.50015" lon="6.01759">
        <ele>993</ele>
        <time>2025-06-09T13:25:15Z</time>
      </trkpt>
      <trkpt lat="46.50018" lon="6.01759">
        <ele>992</ele>
        <time>2025-06-09T13:25:19Z</time>
      </trkpt>
      <trkpt lat="46.50021" lon="6.0176">
        <ele>992</ele>
        <time>2025-06-09T13:25:23Z</time>
      </trkpt>
      <trkpt lat="46.50024" lon="6.01761">
        <ele>992</ele>
        <time>2025-06-09T13:25:28Z</time>
      </trkpt>
      <trkpt lat="46.50027" lon="6.01762">
        <ele>991</ele>
        <time>2025-06-09T13:25:32Z</time>
      </trkpt>
      <trkpt lat="46.50029" lon="6.01763">
        <ele>991</ele>
        <time>2025-06-09T13:25:36Z</time>
      </trkpt>
      <trkpt lat="46.50032" lon="6.01765">
        <ele>991</ele>
        <time>2025-06-09T13:25:40Z</time>
      </trkpt>
      <trkpt lat="46.50035" lon="6.01767">
        <ele>991</ele>
        <time>2025-06-09T13:25:43Z</time>
      </trkpt>
      <trkpt lat="46.50038" lon="6.01769">
        <ele>992</ele>
        <time>2025-06-09T13:25:46Z</time>
      </trkpt>
      <trkpt lat="46.50041" lon="6.01769">
        <ele>992</ele>
        <time>2025-06-09T13:25:49Z</time>
      </trkpt>
      <trkpt lat="46.50044" lon="6.01769">
        <ele>992</ele>
        <time>2025-06-09T13:25:52Z</time>
      </trkpt>
      <trkpt lat="46.50047" lon="6.01769">
        <ele>992</ele>
        <time>2025-06-09T13:25:55Z</time>
      </trkpt>
      <trkpt lat="46.5005" lon="6.01769">
        <ele>992</ele>
        <time>2025-06-09T13:25:58Z</time>
      </trkpt>
      <trkpt lat="46.50053" lon="6.01769">
        <ele>992</ele>
        <time>2025-06-09T13:26:01Z</time>
      </trkpt>
      <trkpt lat="46.50057" lon="6.01768">
        <ele>992</ele>
        <time>2025-06-09T13:26:04Z</time>
      </trkpt>
      <trkpt lat="46.5006" lon="6.01767">
        <ele>991</ele>
        <time>2025-06-09T13:26:07Z</time>
      </trkpt>
      <trkpt lat="46.50063" lon="6.01766">
        <ele>991</ele>
        <time>2025-06-09T13:26:10Z</time>
      </trkpt>
      <trkpt lat="46.50067" lon="6.01766">
        <ele>991</ele>
        <time>2025-06-09T13:26:14Z</time>
      </trkpt>
      <trkpt lat="46.5007" lon="6.01764">
        <ele>991</ele>
        <time>2025-06-09T13:26:16Z</time>
      </trkpt>
      <trkpt lat="46.50073" lon="6.01762">
        <ele>991</ele>
        <time>2025-06-09T13:26:19Z</time>
      </trkpt>
      <trkpt lat="46.50076" lon="6.0176">
        <ele>990</ele>
        <time>2025-06-09T13:26:22Z</time>
      </trkpt>
      <trkpt lat="46.50079" lon="6.01758">
        <ele>990</ele>
        <time>2025-06-09T13:26:25Z</time>
      </trkpt>
      <trkpt lat="46.50083" lon="6.01758">
        <ele>990</ele>
        <time>2025-06-09T13:26:28Z</time>
      </trkpt>
      <trkpt lat="46.50087" lon="6.01757">
        <ele>990</ele>
        <time>2025-06-09T13:26:31Z</time>
      </trkpt>
      <trkpt lat="46.5009" lon="6.01756">
        <ele>990</ele>
        <time>2025-06-09T13:26:34Z</time>
      </trkpt>
      <trkpt lat="46.50093" lon="6.01756">
        <ele>989</ele>
        <time>2025-06-09T13:26:38Z</time>
      </trkpt>
      <trkpt lat="46.50096" lon="6.01754">
        <ele>989</ele>
        <time>2025-06-09T13:26:42Z</time>
      </trkpt>
      <trkpt lat="46.50099" lon="6.01752">
        <ele>989</ele>
        <time>2025-06-09T13:26:45Z</time>
      </trkpt>
      <trkpt lat="46.50102" lon="6.01751">
        <ele>989</ele>
        <time>2025-06-09T13:26:48Z</time>
      </trkpt>
      <trkpt lat="46.50105" lon="6.01749">
        <ele>989</ele>
        <time>2025-06-09T13:26:51Z</time>
      </trkpt>
      <trkpt lat="46.50108" lon="6.01747">
        <ele>989</ele>
        <time>2025-06-09T13:26:54Z</time>
      </trkpt>
      <trkpt lat="46.50111" lon="6.01746">
        <ele>988</ele>
        <time>2025-06-09T13:26:57Z</time>
      </trkpt>
      <trkpt lat="46.50114" lon="6.01743">
        <ele>988</ele>
        <time>2025-06-09T13:27:00Z</time>
      </trkpt>
      <trkpt lat="46.50116" lon="6.01741">
        <ele>987</ele>
        <time>2025-06-09T13:27:03Z</time>
      </trkpt>
      <trkpt lat="46.50119" lon="6.01739">
        <ele>987</ele>
        <time>2025-06-09T13:27:06Z</time>
      </trkpt>
      <trkpt lat="46.50121" lon="6.01736">
        <ele>986</ele>
        <time>2025-06-09T13:27:09Z</time>
      </trkpt>
      <trkpt lat="46.50124" lon="6.01734">
        <ele>986</ele>
        <time>2025-06-09T13:27:13Z</time>
      </trkpt>
      <trkpt lat="46.50127" lon="6.01732">
        <ele>986</ele>
        <time>2025-06-09T13:27:17Z</time>
      </trkpt>
      <trkpt lat="46.50131" lon="6.0173">
        <ele>986</ele>
        <time>2025-06-09T13:27:21Z</time>
      </trkpt>
      <trkpt lat="46.50134" lon="6.01729">
        <ele>986</ele>
        <time>2025-06-09T13:27:24Z</time>
      </trkpt>
      <trkpt lat="46.50136" lon="6.01727">
        <ele>986</ele>
        <time>2025-06-09T13:27:27Z</time>
      </trkpt>
      <trkpt lat="46.50139" lon="6.01725">
        <ele>986</ele>
        <time>2025-06-09T13:27:30Z</time>
      </trkpt>
      <trkpt lat="46.50141" lon="6.01724">
        <ele>985</ele>
        <time>2025-06-09T13:27:33Z</time>
      </trkpt>
      <trkpt lat="46.50144" lon="6.01723">
        <ele>985</ele>
        <time>2025-06-09T13:27:36Z</time>
      </trkpt>
      <trkpt lat="46.50146" lon="6.0172">
        <ele>985</ele>
        <time>2025-06-09T13:27:39Z</time>
      </trkpt>
      <trkpt lat="46.50149" lon="6.01718">
        <ele>985</ele>
        <time>2025-06-09T13:27:43Z</time>
      </trkpt>
      <trkpt lat="46.50152" lon="6.01716">
        <ele>985</ele>
        <time>2025-06-09T13:27:46Z</time>
      </trkpt>
      <trkpt lat="46.50155" lon="6.01714">
        <ele>984</ele>
        <time>2025-06-09T13:27:49Z</time>
      </trkpt>
      <trkpt lat="46.50158" lon="6.01713">
        <ele>984</ele>
        <time>2025-06-09T13:27:53Z</time>
      </trkpt>
      <trkpt lat="46.50161" lon="6.0171">
        <ele>984</ele>
        <time>2025-06-09T13:27:57Z</time>
      </trkpt>
      <trkpt lat="46.50164" lon="6.01708">
        <ele>984</ele>
        <time>2025-06-09T13:28:00Z</time>
      </trkpt>
      <trkpt lat="46.50166" lon="6.01705">
        <ele>984</ele>
        <time>2025-06-09T13:28:03Z</time>
      </trkpt>
      <trkpt lat="46.50168" lon="6.01702">
        <ele>984</ele>
        <time>2025-06-09T13:28:06Z</time>
      </trkpt>
      <trkpt lat="46.50171" lon="6.01698">
        <ele>983</ele>
        <time>2025-06-09T13:28:09Z</time>
      </trkpt>
      <trkpt lat="46.50173" lon="6.01694">
        <ele>983</ele>
        <time>2025-06-09T13:28:12Z</time>
      </trkpt>
      <trkpt lat="46.50176" lon="6.01691">
        <ele>982</ele>
        <time>2025-06-09T13:28:15Z</time>
      </trkpt>
      <trkpt lat="46.50178" lon="6.01689">
        <ele>982</ele>
        <time>2025-06-09T13:28:18Z</time>
      </trkpt>
      <trkpt lat="46.50181" lon="6.01687">
        <ele>981</ele>
        <time>2025-06-09T13:28:22Z</time>
      </trkpt>
      <trkpt lat="46.50184" lon="6.01685">
        <ele>981</ele>
        <time>2025-06-09T13:28:25Z</time>
      </trkpt>
      <trkpt lat="46.50187" lon="6.01684">
        <ele>980</ele>
        <time>2025-06-09T13:28:29Z</time>
      </trkpt>
      <trkpt lat="46.5019" lon="6.01683">
        <ele>980</ele>
        <time>2025-06-09T13:28:32Z</time>
      </trkpt>
      <trkpt lat="46.50193" lon="6.01682">
        <ele>980</ele>
        <time>2025-06-09T13:28:35Z</time>
      </trkpt>
      <trkpt lat="46.50196" lon="6.0168">
        <ele>979</ele>
        <time>2025-06-09T13:28:38Z</time>
      </trkpt>
      <trkpt lat="46.50198" lon="6.01678">
        <ele>979</ele>
        <time>2025-06-09T13:28:42Z</time>
      </trkpt>
      <trkpt lat="46.50202" lon="6.01676">
        <ele>979</ele>
        <time>2025-06-09T13:28:46Z</time>
      </trkpt>
      <trkpt lat="46.50205" lon="6.01675">
        <ele>978</ele>
        <time>2025-06-09T13:28:50Z</time>
      </trkpt>
      <trkpt lat="46.50208" lon="6.01674">
        <ele>978</ele>
        <time>2025-06-09T13:28:54Z</time>
      </trkpt>
      <trkpt lat="46.50211" lon="6.01673">
        <ele>978</ele>
        <time>2025-06-09T13:28:57Z</time>
      </trkpt>
      <trkpt lat="46.50214" lon="6.01673">
        <ele>978</ele>
        <time>2025-06-09T13:29:01Z</time>
      </trkpt>
      <trkpt lat="46.50217" lon="6.01674">
        <ele>977</ele>
        <time>2025-06-09T13:29:05Z</time>
      </trkpt>
      <trkpt lat="46.5022" lon="6.01676">
        <ele>977</ele>
        <time>2025-06-09T13:29:09Z</time>
      </trkpt>
      <trkpt lat="46.50223" lon="6.01678">
        <ele>976</ele>
        <time>2025-06-09T13:29:15Z</time>
      </trkpt>
      <trkpt lat="46.50226" lon="6.0168">
        <ele>976</ele>
        <time>2025-06-09T13:29:19Z</time>
      </trkpt>
      <trkpt lat="46.50229" lon="6.01681">
        <ele>976</ele>
        <time>2025-06-09T13:29:24Z</time>
      </trkpt>
      <trkpt lat="46.50232" lon="6.0168">
        <ele>976</ele>
        <time>2025-06-09T13:29:27Z</time>
      </trkpt>
      <trkpt lat="46.50234" lon="6.01677">
        <ele>976</ele>
        <time>2025-06-09T13:29:32Z</time>
      </trkpt>
      <trkpt lat="46.50236" lon="6.01674">
        <ele>976</ele>
        <time>2025-06-09T13:29:36Z</time>
      </trkpt>
      <trkpt lat="46.50238" lon="6.01671">
        <ele>976</ele>
        <time>2025-06-09T13:29:38Z</time>
      </trkpt>
      <trkpt lat="46.5024" lon="6.01668">
        <ele>975</ele>
        <time>2025-06-09T13:29:42Z</time>
      </trkpt>
      <trkpt lat="46.50243" lon="6.01667">
        <ele>975</ele>
        <time>2025-06-09T13:29:45Z</time>
      </trkpt>
      <trkpt lat="46.50246" lon="6.01669">
        <ele>975</ele>
        <time>2025-06-09T13:29:48Z</time>
      </trkpt>
      <trkpt lat="46.5025" lon="6.01672">
        <ele>975</ele>
        <time>2025-06-09T13:29:50Z</time>
      </trkpt>
      <trkpt lat="46.50254" lon="6.01674">
        <ele>974</ele>
        <time>2025-06-09T13:29:52Z</time>
      </trkpt>
      <trkpt lat="46.50258" lon="6.01677">
        <ele>974</ele>
        <time>2025-06-09T13:29:54Z</time>
      </trkpt>
      <trkpt lat="46.50262" lon="6.01679">
        <ele>974</ele>
        <time>2025-06-09T13:29:56Z</time>
      </trkpt>
      <trkpt lat="46.50266" lon="6.01682">
        <ele>974</ele>
        <time>2025-06-09T13:29:59Z</time>
      </trkpt>
      <trkpt lat="46.50269" lon="6.01684">
        <ele>974</ele>
        <time>2025-06-09T13:30:02Z</time>
      </trkpt>
      <trkpt lat="46.50272" lon="6.01686">
        <ele>974</ele>
        <time>2025-06-09T13:30:05Z</time>
      </trkpt>
      <trkpt lat="46.50275" lon="6.01689">
        <ele>974</ele>
        <time>2025-06-09T13:30:08Z</time>
      </trkpt>
      <trkpt lat="46.50279" lon="6.01694">
        <ele>975</ele>
        <time>2025-06-09T13:30:11Z</time>
      </trkpt>
      <trkpt lat="46.5028" lon="6.01695">
        <ele>975</ele>
        <time>2025-06-09T13:30:14Z</time>
      </trkpt>
      <trkpt lat="46.50283" lon="6.01697">
        <ele>975</ele>
        <time>2025-06-09T13:30:17Z</time>
      </trkpt>
      <trkpt lat="46.50285" lon="6.017">
        <ele>975</ele>
        <time>2025-06-09T13:30:20Z</time>
      </trkpt>
      <trkpt lat="46.50286" lon="6.01705">
        <ele>975</ele>
        <time>2025-06-09T13:30:23Z</time>
      </trkpt>
      <trkpt lat="46.50288" lon="6.01709">
        <ele>975</ele>
        <time>2025-06-09T13:30:26Z</time>
      </trkpt>
      <trkpt lat="46.50289" lon="6.01714">
        <ele>975</ele>
        <time>2025-06-09T13:30:29Z</time>
      </trkpt>
      <trkpt lat="46.50291" lon="6.01716">
        <ele>976</ele>
        <time>2025-06-09T13:30:47Z</time>
      </trkpt>
      <trkpt lat="46.50293" lon="6.01719">
        <ele>976</ele>
        <time>2025-06-09T13:30:50Z</time>
      </trkpt>
      <trkpt lat="46.50296" lon="6.01721">
        <ele>976</ele>
        <time>2025-06-09T13:30:53Z</time>
      </trkpt>
      <trkpt lat="46.50299" lon="6.01722">
        <ele>976</ele>
        <time>2025-06-09T13:30:56Z</time>
      </trkpt>
      <trkpt lat="46.50302" lon="6.01722">
        <ele>976</ele>
        <time>2025-06-09T13:30:58Z</time>
      </trkpt>
      <trkpt lat="46.50306" lon="6.01723">
        <ele>976</ele>
        <time>2025-06-09T13:31:01Z</time>
      </trkpt>
      <trkpt lat="46.50309" lon="6.01723">
        <ele>975</ele>
        <time>2025-06-09T13:31:04Z</time>
      </trkpt>
      <trkpt lat="46.50313" lon="6.01722">
        <ele>975</ele>
        <time>2025-06-09T13:31:07Z</time>
      </trkpt>
      <trkpt lat="46.50316" lon="6.01721">
        <ele>974</ele>
        <time>2025-06-09T13:31:09Z</time>
      </trkpt>
      <trkpt lat="46.5032" lon="6.01721">
        <ele>974</ele>
        <time>2025-06-09T13:31:11Z</time>
      </trkpt>
      <trkpt lat="46.50323" lon="6.0172">
        <ele>974</ele>
        <time>2025-06-09T13:31:13Z</time>
      </trkpt>
      <trkpt lat="46.50325" lon="6.01718">
        <ele>973</ele>
        <time>2025-06-09T13:31:15Z</time>
      </trkpt>
      <trkpt lat="46.50329" lon="6.01716">
        <ele>973</ele>
        <time>2025-06-09T13:31:18Z</time>
      </trkpt>
      <trkpt lat="46.50332" lon="6.01714">
        <ele>973</ele>
        <time>2025-06-09T13:31:21Z</time>
      </trkpt>
      <trkpt lat="46.50334" lon="6.01712">
        <ele>973</ele>
        <time>2025-06-09T13:31:24Z</time>
      </trkpt>
      <trkpt lat="46.50338" lon="6.0171">
        <ele>973</ele>
        <time>2025-06-09T13:31:28Z</time>
      </trkpt>
      <trkpt lat="46.5034" lon="6.01708">
        <ele>973</ele>
        <time>2025-06-09T13:31:30Z</time>
      </trkpt>
      <trkpt lat="46.50344" lon="6.01706">
        <ele>972</ele>
        <time>2025-06-09T13:31:33Z</time>
      </trkpt>
      <trkpt lat="46.50347" lon="6.01705">
        <ele>972</ele>
        <time>2025-06-09T13:31:37Z</time>
      </trkpt>
      <trkpt lat="46.5035" lon="6.01705">
        <ele>972</ele>
        <time>2025-06-09T13:31:41Z</time>
      </trkpt>
      <trkpt lat="46.50353" lon="6.01704">
        <ele>971</ele>
        <time>2025-06-09T13:31:44Z</time>
      </trkpt>
      <trkpt lat="46.50356" lon="6.01703">
        <ele>971</ele>
        <time>2025-06-09T13:31:47Z</time>
      </trkpt>
      <trkpt lat="46.50359" lon="6.01701">
        <ele>971</ele>
        <time>2025-06-09T13:31:50Z</time>
      </trkpt>
      <trkpt lat="46.50362" lon="6.017">
        <ele>971</ele>
        <time>2025-06-09T13:31:53Z</time>
      </trkpt>
      <trkpt lat="46.50365" lon="6.01699">
        <ele>971</ele>
        <time>2025-06-09T13:31:57Z</time>
      </trkpt>
      <trkpt lat="46.50369" lon="6.01697">
        <ele>971</ele>
        <time>2025-06-09T13:32:00Z</time>
      </trkpt>
      <trkpt lat="46.50372" lon="6.01695">
        <ele>971</ele>
        <time>2025-06-09T13:32:03Z</time>
      </trkpt>
      <trkpt lat="46.50375" lon="6.01693">
        <ele>971</ele>
        <time>2025-06-09T13:32:06Z</time>
      </trkpt>
      <trkpt lat="46.50378" lon="6.0169">
        <ele>971</ele>
        <time>2025-06-09T13:32:09Z</time>
      </trkpt>
      <trkpt lat="46.50381" lon="6.01686">
        <ele>970</ele>
        <time>2025-06-09T13:32:12Z</time>
      </trkpt>
      <trkpt lat="46.50383" lon="6.01683">
        <ele>970</ele>
        <time>2025-06-09T13:32:15Z</time>
      </trkpt>
      <trkpt lat="46.50386" lon="6.0168">
        <ele>970</ele>
        <time>2025-06-09T13:32:18Z</time>
      </trkpt>
      <trkpt lat="46.50389" lon="6.01677">
        <ele>970</ele>
        <time>2025-06-09T13:32:21Z</time>
      </trkpt>
      <trkpt lat="46.50391" lon="6.01675">
        <ele>969</ele>
        <time>2025-06-09T13:32:25Z</time>
      </trkpt>
      <trkpt lat="46.50394" lon="6.01673">
        <ele>969</ele>
        <time>2025-06-09T13:32:30Z</time>
      </trkpt>
      <trkpt lat="46.50396" lon="6.0167">
        <ele>969</ele>
        <time>2025-06-09T13:32:34Z</time>
      </trkpt>
      <trkpt lat="46.50399" lon="6.01667">
        <ele>969</ele>
        <time>2025-06-09T13:32:37Z</time>
      </trkpt>
      <trkpt lat="46.50402" lon="6.01664">
        <ele>969</ele>
        <time>2025-06-09T13:32:40Z</time>
      </trkpt>
      <trkpt lat="46.50404" lon="6.0166">
        <ele>969</ele>
        <time>2025-06-09T13:32:43Z</time>
      </trkpt>
      <trkpt lat="46.50406" lon="6.01657">
        <ele>969</ele>
        <time>2025-06-09T13:32:46Z</time>
      </trkpt>
      <trkpt lat="46.50409" lon="6.01653">
        <ele>969</ele>
        <time>2025-06-09T13:32:50Z</time>
      </trkpt>
      <trkpt lat="46.50411" lon="6.0165">
        <ele>969</ele>
        <time>2025-06-09T13:32:53Z</time>
      </trkpt>
      <trkpt lat="46.50414" lon="6.01648">
        <ele>969</ele>
        <time>2025-06-09T13:32:57Z</time>
      </trkpt>
      <trkpt lat="46.50416" lon="6.01645">
        <ele>969</ele>
        <time>2025-06-09T13:33:01Z</time>
      </trkpt>
      <trkpt lat="46.50418" lon="6.01642">
        <ele>969</ele>
        <time>2025-06-09T13:33:05Z</time>
      </trkpt>
      <trkpt lat="46.50421" lon="6.01641">
        <ele>969</ele>
        <time>2025-06-09T13:33:08Z</time>
      </trkpt>
      <trkpt lat="46.50424" lon="6.01639">
        <ele>968</ele>
        <time>2025-06-09T13:33:11Z</time>
      </trkpt>
      <trkpt lat="46.50428" lon="6.01638">
        <ele>968</ele>
        <time>2025-06-09T13:33:15Z</time>
      </trkpt>
      <trkpt lat="46.50431" lon="6.01636">
        <ele>968</ele>
        <time>2025-06-09T13:33:18Z</time>
      </trkpt>
      <trkpt lat="46.50434" lon="6.01635">
        <ele>968</ele>
        <time>2025-06-09T13:33:22Z</time>
      </trkpt>
      <trkpt lat="46.50438" lon="6.01634">
        <ele>967</ele>
        <time>2025-06-09T13:33:25Z</time>
      </trkpt>
      <trkpt lat="46.50441" lon="6.01632">
        <ele>967</ele>
        <time>2025-06-09T13:33:29Z</time>
      </trkpt>
      <trkpt lat="46.50444" lon="6.01631">
        <ele>967</ele>
        <time>2025-06-09T13:33:32Z</time>
      </trkpt>
      <trkpt lat="46.50447" lon="6.01629">
        <ele>967</ele>
        <time>2025-06-09T13:33:35Z</time>
      </trkpt>
      <trkpt lat="46.50451" lon="6.01628">
        <ele>967</ele>
        <time>2025-06-09T13:33:38Z</time>
      </trkpt>
      <trkpt lat="46.50454" lon="6.01627">
        <ele>967</ele>
        <time>2025-06-09T13:33:41Z</time>
      </trkpt>
      <trkpt lat="46.50457" lon="6.01626">
        <ele>966</ele>
        <time>2025-06-09T13:33:44Z</time>
      </trkpt>
      <trkpt lat="46.5046" lon="6.01624">
        <ele>966</ele>
        <time>2025-06-09T13:33:46Z</time>
      </trkpt>
      <trkpt lat="46.50463" lon="6.01622">
        <ele>966</ele>
        <time>2025-06-09T13:33:50Z</time>
      </trkpt>
      <trkpt lat="46.50466" lon="6.0162">
        <ele>966</ele>
        <time>2025-06-09T13:33:54Z</time>
      </trkpt>
      <trkpt lat="46.50469" lon="6.01617">
        <ele>965</ele>
        <time>2025-06-09T13:33:58Z</time>
      </trkpt>
      <trkpt lat="46.50471" lon="6.01614">
        <ele>965</ele>
        <time>2025-06-09T13:34:01Z</time>
      </trkpt>
      <trkpt lat="46.50474" lon="6.01611">
        <ele>964</ele>
        <time>2025-06-09T13:34:04Z</time>
      </trkpt>
      <trkpt lat="46.50476" lon="6.01608">
        <ele>964</ele>
        <time>2025-06-09T13:34:07Z</time>
      </trkpt>
      <trkpt lat="46.50479" lon="6.01605">
        <ele>964</ele>
        <time>2025-06-09T13:34:10Z</time>
      </trkpt>
      <trkpt lat="46.50481" lon="6.01602">
        <ele>963</ele>
        <time>2025-06-09T13:34:13Z</time>
      </trkpt>
      <trkpt lat="46.50484" lon="6.016">
        <ele>963</ele>
        <time>2025-06-09T13:34:16Z</time>
      </trkpt>
      <trkpt lat="46.50487" lon="6.01598">
        <ele>962</ele>
        <time>2025-06-09T13:34:19Z</time>
      </trkpt>
      <trkpt lat="46.5049" lon="6.01596">
        <ele>961</ele>
        <time>2025-06-09T13:34:22Z</time>
      </trkpt>
      <trkpt lat="46.50492" lon="6.01594">
        <ele>960</ele>
        <time>2025-06-09T13:34:26Z</time>
      </trkpt>
      <trkpt lat="46.50495" lon="6.01593">
        <ele>960</ele>
        <time>2025-06-09T13:34:29Z</time>
      </trkpt>
      <trkpt lat="46.50498" lon="6.01592">
        <ele>959</ele>
        <time>2025-06-09T13:34:32Z</time>
      </trkpt>
      <trkpt lat="46.50501" lon="6.0159">
        <ele>959</ele>
        <time>2025-06-09T13:34:36Z</time>
      </trkpt>
      <trkpt lat="46.50504" lon="6.01587">
        <ele>958</ele>
        <time>2025-06-09T13:34:40Z</time>
      </trkpt>
      <trkpt lat="46.50506" lon="6.01583">
        <ele>957</ele>
        <time>2025-06-09T13:34:44Z</time>
      </trkpt>
      <trkpt lat="46.50508" lon="6.0158">
        <ele>957</ele>
        <time>2025-06-09T13:34:47Z</time>
      </trkpt>
      <trkpt lat="46.50511" lon="6.01578">
        <ele>956</ele>
        <time>2025-06-09T13:34:49Z</time>
      </trkpt>
      <trkpt lat="46.50514" lon="6.01576">
        <ele>956</ele>
        <time>2025-06-09T13:34:52Z</time>
      </trkpt>
      <trkpt lat="46.50517" lon="6.01574">
        <ele>956</ele>
        <time>2025-06-09T13:34:55Z</time>
      </trkpt>
      <trkpt lat="46.5052" lon="6.01573">
        <ele>956</ele>
        <time>2025-06-09T13:34:58Z</time>
      </trkpt>
      <trkpt lat="46.50523" lon="6.01571">
        <ele>956</ele>
        <time>2025-06-09T13:35:01Z</time>
      </trkpt>
      <trkpt lat="46.50526" lon="6.0157">
        <ele>956</ele>
        <time>2025-06-09T13:35:05Z</time>
      </trkpt>
      <trkpt lat="46.5053" lon="6.01571">
        <ele>956</ele>
        <time>2025-06-09T13:35:09Z</time>
      </trkpt>
      <trkpt lat="46.50533" lon="6.01571">
        <ele>956</ele>
        <time>2025-06-09T13:35:15Z</time>
      </trkpt>
      <trkpt lat="46.50535" lon="6.01574">
        <ele>955</ele>
        <time>2025-06-09T13:35:22Z</time>
      </trkpt>
      <trkpt lat="46.50536" lon="6.01578">
        <ele>955</ele>
        <time>2025-06-09T13:35:28Z</time>
      </trkpt>
      <trkpt lat="46.50538" lon="6.01582">
        <ele>954</ele>
        <time>2025-06-09T13:35:32Z</time>
      </trkpt>
      <trkpt lat="46.5054" lon="6.01586">
        <ele>954</ele>
        <time>2025-06-09T13:35:36Z</time>
      </trkpt>
      <trkpt lat="46.50543" lon="6.01589">
        <ele>954</ele>
        <time>2025-06-09T13:35:39Z</time>
      </trkpt>
      <trkpt lat="46.50546" lon="6.01593">
        <ele>954</ele>
        <time>2025-06-09T13:35:41Z</time>
      </trkpt>
      <trkpt lat="46.50549" lon="6.01596">
        <ele>954</ele>
        <time>2025-06-09T13:35:44Z</time>
      </trkpt>
      <trkpt lat="46.50552" lon="6.01598">
        <ele>954</ele>
        <time>2025-06-09T13:35:47Z</time>
      </trkpt>
      <trkpt lat="46.50554" lon="6.016">
        <ele>954</ele>
        <time>2025-06-09T13:35:50Z</time>
      </trkpt>
      <trkpt lat="46.50557" lon="6.01602">
        <ele>954</ele>
        <time>2025-06-09T13:35:54Z</time>
      </trkpt>
      <trkpt lat="46.5056" lon="6.01604">
        <ele>953</ele>
        <time>2025-06-09T13:35:58Z</time>
      </trkpt>
      <trkpt lat="46.50562" lon="6.01607">
        <ele>952</ele>
        <time>2025-06-09T13:36:02Z</time>
      </trkpt>
      <trkpt lat="46.50564" lon="6.01611">
        <ele>950</ele>
        <time>2025-06-09T13:36:09Z</time>
      </trkpt>
      <trkpt lat="46.50563" lon="6.01614">
        <ele>949</ele>
        <time>2025-06-09T13:36:16Z</time>
      </trkpt>
      <trkpt lat="46.50561" lon="6.01616">
        <ele>947</ele>
        <time>2025-06-09T13:36:20Z</time>
      </trkpt>
      <trkpt lat="46.50558" lon="6.01618">
        <ele>946</ele>
        <time>2025-06-09T13:36:24Z</time>
      </trkpt>
      <trkpt lat="46.50556" lon="6.01619">
        <ele>945</ele>
        <time>2025-06-09T13:36:32Z</time>
      </trkpt>
      <trkpt lat="46.50556" lon="6.01625">
        <ele>944</ele>
        <time>2025-06-09T13:36:47Z</time>
      </trkpt>
      <trkpt lat="46.50557" lon="6.01629">
        <ele>944</ele>
        <time>2025-06-09T13:36:55Z</time>
      </trkpt>
      <trkpt lat="46.50556" lon="6.01636">
        <ele>947</ele>
        <time>2025-06-09T13:37:09Z</time>
      </trkpt>
      <trkpt lat="46.50557" lon="6.01638">
        <ele>947</ele>
        <time>2025-06-09T13:37:13Z</time>
      </trkpt>
      <trkpt lat="46.50556" lon="6.01643">
        <ele>949</ele>
        <time>2025-06-09T13:37:42Z</time>
      </trkpt>
      <trkpt lat="46.50557" lon="6.01649">
        <ele>952</ele>
        <time>2025-06-09T13:38:10Z</time>
      </trkpt>
      <trkpt lat="46.50559" lon="6.01653">
        <ele>954</ele>
        <time>2025-06-09T13:38:17Z</time>
      </trkpt>
      <trkpt lat="46.50562" lon="6.01657">
        <ele>955</ele>
        <time>2025-06-09T13:38:20Z</time>
      </trkpt>
      <trkpt lat="46.50565" lon="6.0166">
        <ele>955</ele>
        <time>2025-06-09T13:38:24Z</time>
      </trkpt>
      <trkpt lat="46.50567" lon="6.01663">
        <ele>955</ele>
        <time>2025-06-09T13:38:31Z</time>
      </trkpt>
      <trkpt lat="46.5057" lon="6.01665">
        <ele>954</ele>
        <time>2025-06-09T13:38:36Z</time>
      </trkpt>
      <trkpt lat="46.50572" lon="6.01664">
        <ele>954</ele>
        <time>2025-06-09T13:38:41Z</time>
      </trkpt>
      <trkpt lat="46.50577" lon="6.01663">
        <ele>953</ele>
        <time>2025-06-09T13:38:47Z</time>
      </trkpt>
      <trkpt lat="46.50577" lon="6.01665">
        <ele>953</ele>
        <time>2025-06-09T13:39:02Z</time>
      </trkpt>
      <trkpt lat="46.50577" lon="6.0167">
        <ele>954</ele>
        <time>2025-06-09T13:39:08Z</time>
      </trkpt>
      <trkpt lat="46.50577" lon="6.01674">
        <ele>954</ele>
        <time>2025-06-09T13:39:11Z</time>
      </trkpt>
      <trkpt lat="46.50578" lon="6.01678">
        <ele>954</ele>
        <time>2025-06-09T13:39:15Z</time>
      </trkpt>
      <trkpt lat="46.5058" lon="6.01681">
        <ele>954</ele>
        <time>2025-06-09T13:39:19Z</time>
      </trkpt>
      <trkpt lat="46.50582" lon="6.01685">
        <ele>954</ele>
        <time>2025-06-09T13:39:24Z</time>
      </trkpt>
      <trkpt lat="46.50585" lon="6.01688">
        <ele>955</ele>
        <time>2025-06-09T13:39:28Z</time>
      </trkpt>
      <trkpt lat="46.50587" lon="6.01692">
        <ele>955</ele>
        <time>2025-06-09T13:39:33Z</time>
      </trkpt>
      <trkpt lat="46.50588" lon="6.01696">
        <ele>955</ele>
        <time>2025-06-09T13:39:38Z</time>
      </trkpt>
      <trkpt lat="46.50589" lon="6.01701">
        <ele>956</ele>
        <time>2025-06-09T13:39:43Z</time>
      </trkpt>
      <trkpt lat="46.5059" lon="6.01705">
        <ele>956</ele>
        <time>2025-06-09T13:39:47Z</time>
      </trkpt>
      <trkpt lat="46.50591" lon="6.01709">
        <ele>957</ele>
        <time>2025-06-09T13:39:50Z</time>
      </trkpt>
      <trkpt lat="46.50592" lon="6.01713">
        <ele>957</ele>
        <time>2025-06-09T13:39:54Z</time>
      </trkpt>
      <trkpt lat="46.50593" lon="6.01718">
        <ele>957</ele>
        <time>2025-06-09T13:39:58Z</time>
      </trkpt>
      <trkpt lat="46.50594" lon="6.01722">
        <ele>958</ele>
        <time>2025-06-09T13:40:01Z</time>
      </trkpt>
      <trkpt lat="46.50596" lon="6.01726">
        <ele>958</ele>
        <time>2025-06-09T13:40:05Z</time>
      </trkpt>
      <trkpt lat="46.50597" lon="6.0173">
        <ele>958</ele>
        <time>2025-06-09T13:40:08Z</time>
      </trkpt>
      <trkpt lat="46.50599" lon="6.01734">
        <ele>958</ele>
        <time>2025-06-09T13:40:12Z</time>
      </trkpt>
      <trkpt lat="46.50599" lon="6.01739">
        <ele>959</ele>
        <time>2025-06-09T13:40:15Z</time>
      </trkpt>
      <trkpt lat="46.50599" lon="6.01743">
        <ele>959</ele>
        <time>2025-06-09T13:40:17Z</time>
      </trkpt>
      <trkpt lat="46.50601" lon="6.01748">
        <ele>959</ele>
        <time>2025-06-09T13:40:20Z</time>
      </trkpt>
      <trkpt lat="46.50603" lon="6.01752">
        <ele>960</ele>
        <time>2025-06-09T13:40:24Z</time>
      </trkpt>
      <trkpt lat="46.50607" lon="6.01753">
        <ele>958</ele>
        <time>2025-06-09T13:40:31Z</time>
      </trkpt>
      <trkpt lat="46.50608" lon="6.01754">
        <ele>958</ele>
        <time>2025-06-09T13:40:34Z</time>
      </trkpt>
      <trkpt lat="46.5061" lon="6.01757">
        <ele>958</ele>
        <time>2025-06-09T13:40:37Z</time>
      </trkpt>
      <trkpt lat="46.50611" lon="6.01762">
        <ele>959</ele>
        <time>2025-06-09T13:40:40Z</time>
      </trkpt>
      <trkpt lat="46.50611" lon="6.01766">
        <ele>959</ele>
        <time>2025-06-09T13:40:43Z</time>
      </trkpt>
      <trkpt lat="46.50612" lon="6.01771">
        <ele>959</ele>
        <time>2025-06-09T13:40:46Z</time>
      </trkpt>
      <trkpt lat="46.50614" lon="6.01775">
        <ele>960</ele>
        <time>2025-06-09T13:40:49Z</time>
      </trkpt>
      <trkpt lat="46.50615" lon="6.0178">
        <ele>960</ele>
        <time>2025-06-09T13:40:53Z</time>
      </trkpt>
      <trkpt lat="46.50615" lon="6.01784">
        <ele>960</ele>
        <time>2025-06-09T13:40:56Z</time>
      </trkpt>
      <trkpt lat="46.50616" lon="6.01788">
        <ele>960</ele>
        <time>2025-06-09T13:40:59Z</time>
      </trkpt>
      <trkpt lat="46.50617" lon="6.01792">
        <ele>961</ele>
        <time>2025-06-09T13:41:03Z</time>
      </trkpt>
      <trkpt lat="46.50618" lon="6.01796">
        <ele>961</ele>
        <time>2025-06-09T13:41:06Z</time>
      </trkpt>
      <trkpt lat="46.5062" lon="6.018">
        <ele>960</ele>
        <time>2025-06-09T13:41:11Z</time>
      </trkpt>
      <trkpt lat="46.5062" lon="6.01804">
        <ele>960</ele>
        <time>2025-06-09T13:41:14Z</time>
      </trkpt>
      <trkpt lat="46.5062" lon="6.01808">
        <ele>960</ele>
        <time>2025-06-09T13:41:18Z</time>
      </trkpt>
      <trkpt lat="46.5062" lon="6.01812">
        <ele>960</ele>
        <time>2025-06-09T13:41:23Z</time>
      </trkpt>
      <trkpt lat="46.5062" lon="6.01817">
        <ele>960</ele>
        <time>2025-06-09T13:41:29Z</time>
      </trkpt>
      <trkpt lat="46.5062" lon="6.01821">
        <ele>960</ele>
        <time>2025-06-09T13:41:32Z</time>
      </trkpt>
      <trkpt lat="46.5062" lon="6.01826">
        <ele>961</ele>
        <time>2025-06-09T13:41:35Z</time>
      </trkpt>
      <trkpt lat="46.5062" lon="6.0183">
        <ele>961</ele>
        <time>2025-06-09T13:41:38Z</time>
      </trkpt>
      <trkpt lat="46.5062" lon="6.01834">
        <ele>961</ele>
        <time>2025-06-09T13:41:41Z</time>
      </trkpt>
      <trkpt lat="46.5062" lon="6.01838">
        <ele>961</ele>
        <time>2025-06-09T13:41:45Z</time>
      </trkpt>
      <trkpt lat="46.50621" lon="6.01842">
        <ele>962</ele>
        <time>2025-06-09T13:41:49Z</time>
      </trkpt>
      <trkpt lat="46.50622" lon="6.01847">
        <ele>962</ele>
        <time>2025-06-09T13:41:52Z</time>
      </trkpt>
      <trkpt lat="46.50623" lon="6.01852">
        <ele>962</ele>
        <time>2025-06-09T13:41:56Z</time>
      </trkpt>
      <trkpt lat="46.50625" lon="6.01855">
        <ele>962</ele>
        <time>2025-06-09T13:42:00Z</time>
      </trkpt>
      <trkpt lat="46.50626" lon="6.0186">
        <ele>962</ele>
        <time>2025-06-09T13:42:04Z</time>
      </trkpt>
      <trkpt lat="46.50626" lon="6.01864">
        <ele>962</ele>
        <time>2025-06-09T13:42:08Z</time>
      </trkpt>
      <trkpt lat="46.50626" lon="6.01869">
        <ele>962</ele>
        <time>2025-06-09T13:42:11Z</time>
      </trkpt>
      <trkpt lat="46.50626" lon="6.01874">
        <ele>962</ele>
        <time>2025-06-09T13:42:15Z</time>
      </trkpt>
      <trkpt lat="46.50626" lon="6.01879">
        <ele>961</ele>
        <time>2025-06-09T13:42:18Z</time>
      </trkpt>
      <trkpt lat="46.50627" lon="6.01884">
        <ele>960</ele>
        <time>2025-06-09T13:42:23Z</time>
      </trkpt>
      <trkpt lat="46.50627" lon="6.01888">
        <ele>959</ele>
        <time>2025-06-09T13:42:29Z</time>
      </trkpt>
      <trkpt lat="46.50626" lon="6.01892">
        <ele>958</ele>
        <time>2025-06-09T13:42:33Z</time>
      </trkpt>
      <trkpt lat="46.50625" lon="6.01895">
        <ele>958</ele>
        <time>2025-06-09T13:42:36Z</time>
      </trkpt>
      <trkpt lat="46.50625" lon="6.019">
        <ele>958</ele>
        <time>2025-06-09T13:42:39Z</time>
      </trkpt>
      <trkpt lat="46.50625" lon="6.01904">
        <ele>957</ele>
        <time>2025-06-09T13:42:44Z</time>
      </trkpt>
      <trkpt lat="46.50626" lon="6.01908">
        <ele>956</ele>
        <time>2025-06-09T13:42:48Z</time>
      </trkpt>
      <trkpt lat="46.50626" lon="6.01912">
        <ele>955</ele>
        <time>2025-06-09T13:42:53Z</time>
      </trkpt>
      <trkpt lat="46.50625" lon="6.01916">
        <ele>955</ele>
        <time>2025-06-09T13:42:57Z</time>
      </trkpt>
      <trkpt lat="46.50624" lon="6.0192">
        <ele>954</ele>
        <time>2025-06-09T13:43:00Z</time>
      </trkpt>
      <trkpt lat="46.50623" lon="6.01924">
        <ele>954</ele>
        <time>2025-06-09T13:43:04Z</time>
      </trkpt>
      <trkpt lat="46.50622" lon="6.01928">
        <ele>953</ele>
        <time>2025-06-09T13:43:09Z</time>
      </trkpt>
      <trkpt lat="46.50622" lon="6.01932">
        <ele>953</ele>
        <time>2025-06-09T13:43:13Z</time>
      </trkpt>
      <trkpt lat="46.50624" lon="6.01934">
        <ele>952</ele>
        <time>2025-06-09T13:43:24Z</time>
      </trkpt>
      <trkpt lat="46.50627" lon="6.01932">
        <ele>949</ele>
        <time>2025-06-09T13:43:40Z</time>
      </trkpt>
      <trkpt lat="46.50629" lon="6.01931">
        <ele>948</ele>
        <time>2025-06-09T13:43:52Z</time>
      </trkpt>
      <trkpt lat="46.50631" lon="6.01927">
        <ele>946</ele>
        <time>2025-06-09T13:43:56Z</time>
      </trkpt>
      <trkpt lat="46.5063" lon="6.01925">
        <ele>945</ele>
        <time>2025-06-09T13:44:23Z</time>
      </trkpt>
      <trkpt lat="46.50628" lon="6.01926">
        <ele>945</ele>
        <time>2025-06-09T13:44:27Z</time>
      </trkpt>
      <trkpt lat="46.50625" lon="6.01927">
        <ele>945</ele>
        <time>2025-06-09T13:44:31Z</time>
      </trkpt>
      <trkpt lat="46.50623" lon="6.0193">
        <ele>946</ele>
        <time>2025-06-09T13:44:35Z</time>
      </trkpt>
      <trkpt lat="46.5062" lon="6.01933">
        <ele>947</ele>
        <time>2025-06-09T13:44:39Z</time>
      </trkpt>
      <trkpt lat="46.50617" lon="6.01937">
        <ele>948</ele>
        <time>2025-06-09T13:44:43Z</time>
      </trkpt>
      <trkpt lat="46.50614" lon="6.0194">
        <ele>949</ele>
        <time>2025-06-09T13:44:47Z</time>
      </trkpt>
      <trkpt lat="46.50612" lon="6.01943">
        <ele>949</ele>
        <time>2025-06-09T13:44:50Z</time>
      </trkpt>
      <trkpt lat="46.5061" lon="6.01946">
        <ele>950</ele>
        <time>2025-06-09T13:44:53Z</time>
      </trkpt>
      <trkpt lat="46.50607" lon="6.01949">
        <ele>950</ele>
        <time>2025-06-09T13:44:56Z</time>
      </trkpt>
      <trkpt lat="46.50605" lon="6.01952">
        <ele>951</ele>
        <time>2025-06-09T13:45:00Z</time>
      </trkpt>
      <trkpt lat="46.50603" lon="6.01955">
        <ele>951</ele>
        <time>2025-06-09T13:45:03Z</time>
      </trkpt>
      <trkpt lat="46.50601" lon="6.01958">
        <ele>951</ele>
        <time>2025-06-09T13:45:07Z</time>
      </trkpt>
      <trkpt lat="46.50599" lon="6.01962">
        <ele>952</ele>
        <time>2025-06-09T13:45:10Z</time>
      </trkpt>
      <trkpt lat="46.50598" lon="6.01966">
        <ele>952</ele>
        <time>2025-06-09T13:45:13Z</time>
      </trkpt>
      <trkpt lat="46.50596" lon="6.0197">
        <ele>953</ele>
        <time>2025-06-09T13:45:16Z</time>
      </trkpt>
      <trkpt lat="46.50595" lon="6.01975">
        <ele>953</ele>
        <time>2025-06-09T13:45:18Z</time>
      </trkpt>
      <trkpt lat="46.50593" lon="6.01979">
        <ele>953</ele>
        <time>2025-06-09T13:45:21Z</time>
      </trkpt>
      <trkpt lat="46.50592" lon="6.01984">
        <ele>954</ele>
        <time>2025-06-09T13:45:24Z</time>
      </trkpt>
      <trkpt lat="46.50591" lon="6.01988">
        <ele>954</ele>
        <time>2025-06-09T13:45:27Z</time>
      </trkpt>
      <trkpt lat="46.5059" lon="6.01993">
        <ele>954</ele>
        <time>2025-06-09T13:45:30Z</time>
      </trkpt>
      <trkpt lat="46.5059" lon="6.01998">
        <ele>954</ele>
        <time>2025-06-09T13:45:33Z</time>
      </trkpt>
      <trkpt lat="46.5059" lon="6.02003">
        <ele>954</ele>
        <time>2025-06-09T13:45:35Z</time>
      </trkpt>
      <trkpt lat="46.5059" lon="6.02007">
        <ele>954</ele>
        <time>2025-06-09T13:45:37Z</time>
      </trkpt>
      <trkpt lat="46.5059" lon="6.02012">
        <ele>954</ele>
        <time>2025-06-09T13:45:40Z</time>
      </trkpt>
      <trkpt lat="46.5059" lon="6.02017">
        <ele>953</ele>
        <time>2025-06-09T13:45:43Z</time>
      </trkpt>
      <trkpt lat="46.50591" lon="6.02021">
        <ele>953</ele>
        <time>2025-06-09T13:45:45Z</time>
      </trkpt>
      <trkpt lat="46.50592" lon="6.02026">
        <ele>953</ele>
        <time>2025-06-09T13:45:48Z</time>
      </trkpt>
      <trkpt lat="46.50593" lon="6.0203">
        <ele>953</ele>
        <time>2025-06-09T13:45:50Z</time>
      </trkpt>
      <trkpt lat="46.50594" lon="6.02034">
        <ele>953</ele>
        <time>2025-06-09T13:45:52Z</time>
      </trkpt>
      <trkpt lat="46.50596" lon="6.02037">
        <ele>953</ele>
        <time>2025-06-09T13:45:54Z</time>
      </trkpt>
      <trkpt lat="46.50597" lon="6.02042">
        <ele>953</ele>
        <time>2025-06-09T13:45:58Z</time>
      </trkpt>
      <trkpt lat="46.50599" lon="6.02046">
        <ele>953</ele>
        <time>2025-06-09T13:46:01Z</time>
      </trkpt>
      <trkpt lat="46.50601" lon="6.02051">
        <ele>952</ele>
        <time>2025-06-09T13:46:05Z</time>
      </trkpt>
      <trkpt lat="46.50602" lon="6.02055">
        <ele>952</ele>
        <time>2025-06-09T13:46:09Z</time>
      </trkpt>
      <trkpt lat="46.50603" lon="6.0206">
        <ele>952</ele>
        <time>2025-06-09T13:46:13Z</time>
      </trkpt>
      <trkpt lat="46.50603" lon="6.02064">
        <ele>951</ele>
        <time>2025-06-09T13:46:17Z</time>
      </trkpt>
      <trkpt lat="46.50604" lon="6.02068">
        <ele>951</ele>
        <time>2025-06-09T13:46:20Z</time>
      </trkpt>
      <trkpt lat="46.50605" lon="6.02072">
        <ele>951</ele>
        <time>2025-06-09T13:46:25Z</time>
      </trkpt>
      <trkpt lat="46.50608" lon="6.02077">
        <ele>950</ele>
        <time>2025-06-09T13:46:38Z</time>
      </trkpt>
      <trkpt lat="46.50612" lon="6.02083">
        <ele>947</ele>
        <time>2025-06-09T13:46:46Z</time>
      </trkpt>
      <trkpt lat="46.50612" lon="6.02085">
        <ele>947</ele>
        <time>2025-06-09T13:46:52Z</time>
      </trkpt>
      <trkpt lat="46.5061" lon="6.02088">
        <ele>946</ele>
        <time>2025-06-09T13:46:56Z</time>
      </trkpt>
      <trkpt lat="46.50609" lon="6.02092">
        <ele>946</ele>
        <time>2025-06-09T13:46:59Z</time>
      </trkpt>
      <trkpt lat="46.50607" lon="6.02096">
        <ele>946</ele>
        <time>2025-06-09T13:47:02Z</time>
      </trkpt>
      <trkpt lat="46.50606" lon="6.021">
        <ele>946</ele>
        <time>2025-06-09T13:47:05Z</time>
      </trkpt>
      <trkpt lat="46.50606" lon="6.02105">
        <ele>946</ele>
        <time>2025-06-09T13:47:09Z</time>
      </trkpt>
      <trkpt lat="46.50606" lon="6.0211">
        <ele>946</ele>
        <time>2025-06-09T13:47:12Z</time>
      </trkpt>
      <trkpt lat="46.50605" lon="6.02115">
        <ele>947</ele>
        <time>2025-06-09T13:47:16Z</time>
      </trkpt>
      <trkpt lat="46.50604" lon="6.02119">
        <ele>947</ele>
        <time>2025-06-09T13:47:20Z</time>
      </trkpt>
      <trkpt lat="46.50604" lon="6.02124">
        <ele>947</ele>
        <time>2025-06-09T13:47:25Z</time>
      </trkpt>
      <trkpt lat="46.50605" lon="6.02129">
        <ele>947</ele>
        <time>2025-06-09T13:47:29Z</time>
      </trkpt>
      <trkpt lat="46.50605" lon="6.02133">
        <ele>948</ele>
        <time>2025-06-09T13:47:33Z</time>
      </trkpt>
      <trkpt lat="46.50605" lon="6.02138">
        <ele>948</ele>
        <time>2025-06-09T13:47:38Z</time>
      </trkpt>
      <trkpt lat="46.50606" lon="6.02142">
        <ele>949</ele>
        <time>2025-06-09T13:47:43Z</time>
      </trkpt>
      <trkpt lat="46.50607" lon="6.02146">
        <ele>949</ele>
        <time>2025-06-09T13:47:47Z</time>
      </trkpt>
      <trkpt lat="46.50606" lon="6.02151">
        <ele>950</ele>
        <time>2025-06-09T13:47:51Z</time>
      </trkpt>
      <trkpt lat="46.50606" lon="6.02156">
        <ele>950</ele>
        <time>2025-06-09T13:47:54Z</time>
      </trkpt>
      <trkpt lat="46.50606" lon="6.02161">
        <ele>950</ele>
        <time>2025-06-09T13:47:58Z</time>
      </trkpt>
      <trkpt lat="46.50605" lon="6.02165">
        <ele>950</ele>
        <time>2025-06-09T13:48:01Z</time>
      </trkpt>
      <trkpt lat="46.50605" lon="6.0217">
        <ele>950</ele>
        <time>2025-06-09T13:48:05Z</time>
      </trkpt>
      <trkpt lat="46.50606" lon="6.02174">
        <ele>950</ele>
        <time>2025-06-09T13:48:08Z</time>
      </trkpt>
      <trkpt lat="46.50606" lon="6.02179">
        <ele>950</ele>
        <time>2025-06-09T13:48:11Z</time>
      </trkpt>
      <trkpt lat="46.50606" lon="6.02184">
        <ele>950</ele>
        <time>2025-06-09T13:48:14Z</time>
      </trkpt>
      <trkpt lat="46.50606" lon="6.02189">
        <ele>950</ele>
        <time>2025-06-09T13:48:17Z</time>
      </trkpt>
      <trkpt lat="46.50606" lon="6.02194">
        <ele>950</ele>
        <time>2025-06-09T13:48:20Z</time>
      </trkpt>
      <trkpt lat="46.50606" lon="6.02199">
        <ele>950</ele>
        <time>2025-06-09T13:48:23Z</time>
      </trkpt>
      <trkpt lat="46.50606" lon="6.02204">
        <ele>950</ele>
        <time>2025-06-09T13:48:27Z</time>
      </trkpt>
      <trkpt lat="46.50607" lon="6.02208">
        <ele>950</ele>
        <time>2025-06-09T13:48:30Z</time>
      </trkpt>
      <trkpt lat="46.50608" lon="6.02213">
        <ele>951</ele>
        <time>2025-06-09T13:48:35Z</time>
      </trkpt>
      <trkpt lat="46.5061" lon="6.02216">
        <ele>951</ele>
        <time>2025-06-09T13:48:37Z</time>
      </trkpt>
      <trkpt lat="46.50611" lon="6.0222">
        <ele>951</ele>
        <time>2025-06-09T13:48:40Z</time>
      </trkpt>
      <trkpt lat="46.50613" lon="6.02224">
        <ele>951</ele>
        <time>2025-06-09T13:48:43Z</time>
      </trkpt>
      <trkpt lat="46.50613" lon="6.02228">
        <ele>951</ele>
        <time>2025-06-09T13:48:46Z</time>
      </trkpt>
      <trkpt lat="46.50614" lon="6.02233">
        <ele>950</ele>
        <time>2025-06-09T13:48:50Z</time>
      </trkpt>
      <trkpt lat="46.50614" lon="6.02237">
        <ele>950</ele>
        <time>2025-06-09T13:48:53Z</time>
      </trkpt>
      <trkpt lat="46.50615" lon="6.02241">
        <ele>949</ele>
        <time>2025-06-09T13:48:56Z</time>
      </trkpt>
      <trkpt lat="46.50615" lon="6.02246">
        <ele>949</ele>
        <time>2025-06-09T13:48:59Z</time>
      </trkpt>
      <trkpt lat="46.50616" lon="6.0225">
        <ele>948</ele>
        <time>2025-06-09T13:49:04Z</time>
      </trkpt>
      <trkpt lat="46.50617" lon="6.02254">
        <ele>946</ele>
        <time>2025-06-09T13:49:09Z</time>
      </trkpt>
      <trkpt lat="46.50617" lon="6.02258">
        <ele>945</ele>
        <time>2025-06-09T13:49:15Z</time>
      </trkpt>
      <trkpt lat="46.50617" lon="6.02262">
        <ele>944</ele>
        <time>2025-06-09T13:49:22Z</time>
      </trkpt>
      <trkpt lat="46.50617" lon="6.02267">
        <ele>943</ele>
        <time>2025-06-09T13:49:27Z</time>
      </trkpt>
      <trkpt lat="46.50616" lon="6.0227">
        <ele>942</ele>
        <time>2025-06-09T13:49:32Z</time>
      </trkpt>
      <trkpt lat="46.50615" lon="6.02274">
        <ele>942</ele>
        <time>2025-06-09T13:49:35Z</time>
      </trkpt>
      <trkpt lat="46.50614" lon="6.02278">
        <ele>941</ele>
        <time>2025-06-09T13:49:39Z</time>
      </trkpt>
      <trkpt lat="46.50613" lon="6.02282">
        <ele>941</ele>
        <time>2025-06-09T13:49:44Z</time>
      </trkpt>
      <trkpt lat="46.50612" lon="6.02286">
        <ele>940</ele>
        <time>2025-06-09T13:49:49Z</time>
      </trkpt>
      <trkpt lat="46.5061" lon="6.0229">
        <ele>939</ele>
        <time>2025-06-09T13:49:54Z</time>
      </trkpt>
      <trkpt lat="46.50609" lon="6.02294">
        <ele>939</ele>
        <time>2025-06-09T13:49:59Z</time>
      </trkpt>
      <trkpt lat="46.50608" lon="6.02298">
        <ele>938</ele>
        <time>2025-06-09T13:50:05Z</time>
      </trkpt>
      <trkpt lat="46.50607" lon="6.02302">
        <ele>937</ele>
        <time>2025-06-09T13:50:10Z</time>
      </trkpt>
      <trkpt lat="46.50605" lon="6.02306">
        <ele>936</ele>
        <time>2025-06-09T13:50:14Z</time>
      </trkpt>
      <trkpt lat="46.50604" lon="6.02309">
        <ele>935</ele>
        <time>2025-06-09T13:50:17Z</time>
      </trkpt>
      <trkpt lat="46.50603" lon="6.02313">
        <ele>935</ele>
        <time>2025-06-09T13:50:20Z</time>
      </trkpt>
      <trkpt lat="46.50603" lon="6.02317">
        <ele>934</ele>
        <time>2025-06-09T13:50:26Z</time>
      </trkpt>
      <trkpt lat="46.50603" lon="6.02322">
        <ele>933</ele>
        <time>2025-06-09T13:50:29Z</time>
      </trkpt>
      <trkpt lat="46.50602" lon="6.02326">
        <ele>932</ele>
        <time>2025-06-09T13:50:33Z</time>
      </trkpt>
      <trkpt lat="46.50603" lon="6.02331">
        <ele>932</ele>
        <time>2025-06-09T13:50:35Z</time>
      </trkpt>
      <trkpt lat="46.50604" lon="6.02336">
        <ele>931</ele>
        <time>2025-06-09T13:50:38Z</time>
      </trkpt>
      <trkpt lat="46.50606" lon="6.02341">
        <ele>930</ele>
        <time>2025-06-09T13:51:03Z</time>
      </trkpt>
      <trkpt lat="46.50608" lon="6.02345">
        <ele>930</ele>
        <time>2025-06-09T13:51:07Z</time>
      </trkpt>
      <trkpt lat="46.5061" lon="6.02349">
        <ele>929</ele>
        <time>2025-06-09T13:51:11Z</time>
      </trkpt>
      <trkpt lat="46.50613" lon="6.02352">
        <ele>929</ele>
        <time>2025-06-09T13:51:15Z</time>
      </trkpt>
      <trkpt lat="46.50616" lon="6.02355">
        <ele>929</ele>
        <time>2025-06-09T13:51:19Z</time>
      </trkpt>
      <trkpt lat="46.50619" lon="6.02358">
        <ele>929</ele>
        <time>2025-06-09T13:51:24Z</time>
      </trkpt>
      <trkpt lat="46.50622" lon="6.0236">
        <ele>929</ele>
        <time>2025-06-09T13:51:28Z</time>
      </trkpt>
      <trkpt lat="46.50625" lon="6.02361">
        <ele>928</ele>
        <time>2025-06-09T13:51:31Z</time>
      </trkpt>
      <trkpt lat="46.50628" lon="6.02363">
        <ele>928</ele>
        <time>2025-06-09T13:51:35Z</time>
      </trkpt>
      <trkpt lat="46.50631" lon="6.02365">
        <ele>928</ele>
        <time>2025-06-09T13:51:38Z</time>
      </trkpt>
      <trkpt lat="46.50634" lon="6.02366">
        <ele>928</ele>
        <time>2025-06-09T13:51:41Z</time>
      </trkpt>
      <trkpt lat="46.50637" lon="6.02367">
        <ele>927</ele>
        <time>2025-06-09T13:51:44Z</time>
      </trkpt>
      <trkpt lat="46.5064" lon="6.02369">
        <ele>927</ele>
        <time>2025-06-09T13:51:48Z</time>
      </trkpt>
      <trkpt lat="46.50643" lon="6.0237">
        <ele>927</ele>
        <time>2025-06-09T13:51:52Z</time>
      </trkpt>
      <trkpt lat="46.50646" lon="6.02371">
        <ele>926</ele>
        <time>2025-06-09T13:51:56Z</time>
      </trkpt>
      <trkpt lat="46.50649" lon="6.02372">
        <ele>926</ele>
        <time>2025-06-09T13:52:02Z</time>
      </trkpt>
      <trkpt lat="46.50652" lon="6.02374">
        <ele>925</ele>
        <time>2025-06-09T13:52:05Z</time>
      </trkpt>
      <trkpt lat="46.50655" lon="6.02376">
        <ele>925</ele>
        <time>2025-06-09T13:52:09Z</time>
      </trkpt>
      <trkpt lat="46.50656" lon="6.02379">
        <ele>925</ele>
        <time>2025-06-09T13:52:13Z</time>
      </trkpt>
      <trkpt lat="46.50658" lon="6.02383">
        <ele>925</ele>
        <time>2025-06-09T13:52:17Z</time>
      </trkpt>
      <trkpt lat="46.5066" lon="6.02385">
        <ele>925</ele>
        <time>2025-06-09T13:52:21Z</time>
      </trkpt>
      <trkpt lat="46.50662" lon="6.02388">
        <ele>925</ele>
        <time>2025-06-09T13:52:25Z</time>
      </trkpt>
      <trkpt lat="46.50664" lon="6.02391">
        <ele>925</ele>
        <time>2025-06-09T13:52:29Z</time>
      </trkpt>
      <trkpt lat="46.50667" lon="6.02394">
        <ele>925</ele>
        <time>2025-06-09T13:52:33Z</time>
      </trkpt>
      <trkpt lat="46.5067" lon="6.02397">
        <ele>925</ele>
        <time>2025-06-09T13:52:37Z</time>
      </trkpt>
      <trkpt lat="46.50673" lon="6.02399">
        <ele>924</ele>
        <time>2025-06-09T13:52:41Z</time>
      </trkpt>
      <trkpt lat="46.50675" lon="6.02402">
        <ele>924</ele>
        <time>2025-06-09T13:52:44Z</time>
      </trkpt>
      <trkpt lat="46.50678" lon="6.02404">
        <ele>924</ele>
        <time>2025-06-09T13:52:47Z</time>
      </trkpt>
      <trkpt lat="46.5068" lon="6.02407">
        <ele>924</ele>
        <time>2025-06-09T13:52:51Z</time>
      </trkpt>
      <trkpt lat="46.50682" lon="6.02409">
        <ele>924</ele>
        <time>2025-06-09T13:52:55Z</time>
      </trkpt>
      <trkpt lat="46.50685" lon="6.02411">
        <ele>924</ele>
        <time>2025-06-09T13:52:58Z</time>
      </trkpt>
      <trkpt lat="46.50688" lon="6.02414">
        <ele>923</ele>
        <time>2025-06-09T13:53:01Z</time>
      </trkpt>
      <trkpt lat="46.50691" lon="6.02416">
        <ele>923</ele>
        <time>2025-06-09T13:53:04Z</time>
      </trkpt>
      <trkpt lat="46.50694" lon="6.02418">
        <ele>923</ele>
        <time>2025-06-09T13:53:08Z</time>
      </trkpt>
      <trkpt lat="46.50697" lon="6.02419">
        <ele>922</ele>
        <time>2025-06-09T13:53:11Z</time>
      </trkpt>
      <trkpt lat="46.50701" lon="6.0242">
        <ele>921</ele>
        <time>2025-06-09T13:53:15Z</time>
      </trkpt>
      <trkpt lat="46.50704" lon="6.02422">
        <ele>921</ele>
        <time>2025-06-09T13:53:18Z</time>
      </trkpt>
      <trkpt lat="46.50707" lon="6.02424">
        <ele>921</ele>
        <time>2025-06-09T13:53:21Z</time>
      </trkpt>
      <trkpt lat="46.50709" lon="6.02425">
        <ele>921</ele>
        <time>2025-06-09T13:53:25Z</time>
      </trkpt>
      <trkpt lat="46.50712" lon="6.02427">
        <ele>921</ele>
        <time>2025-06-09T13:53:29Z</time>
      </trkpt>
      <trkpt lat="46.50715" lon="6.02428">
        <ele>921</ele>
        <time>2025-06-09T13:53:33Z</time>
      </trkpt>
      <trkpt lat="46.50718" lon="6.02429">
        <ele>921</ele>
        <time>2025-06-09T13:53:38Z</time>
      </trkpt>
      <trkpt lat="46.50721" lon="6.0243">
        <ele>921</ele>
        <time>2025-06-09T13:53:42Z</time>
      </trkpt>
      <trkpt lat="46.50724" lon="6.02431">
        <ele>921</ele>
        <time>2025-06-09T13:53:46Z</time>
      </trkpt>
      <trkpt lat="46.50727" lon="6.02431">
        <ele>921</ele>
        <time>2025-06-09T13:53:50Z</time>
      </trkpt>
      <trkpt lat="46.5073" lon="6.02433">
        <ele>921</ele>
        <time>2025-06-09T13:53:55Z</time>
      </trkpt>
      <trkpt lat="46.50733" lon="6.02434">
        <ele>922</ele>
        <time>2025-06-09T13:53:59Z</time>
      </trkpt>
      <trkpt lat="46.50736" lon="6.02435">
        <ele>922</ele>
        <time>2025-06-09T13:54:03Z</time>
      </trkpt>
      <trkpt lat="46.50739" lon="6.02435">
        <ele>923</ele>
        <time>2025-06-09T13:54:08Z</time>
      </trkpt>
      <trkpt lat="46.50742" lon="6.02436">
        <ele>923</ele>
        <time>2025-06-09T13:54:12Z</time>
      </trkpt>
      <trkpt lat="46.50745" lon="6.02437">
        <ele>923</ele>
        <time>2025-06-09T13:54:15Z</time>
      </trkpt>
      <trkpt lat="46.50748" lon="6.02439">
        <ele>923</ele>
        <time>2025-06-09T13:54:20Z</time>
      </trkpt>
      <trkpt lat="46.50751" lon="6.02441">
        <ele>923</ele>
        <time>2025-06-09T13:54:23Z</time>
      </trkpt>
      <trkpt lat="46.50754" lon="6.02442">
        <ele>924</ele>
        <time>2025-06-09T13:54:26Z</time>
      </trkpt>
      <trkpt lat="46.50758" lon="6.02444">
        <ele>924</ele>
        <time>2025-06-09T13:54:29Z</time>
      </trkpt>
      <trkpt lat="46.50761" lon="6.02446">
        <ele>924</ele>
        <time>2025-06-09T13:54:34Z</time>
      </trkpt>
      <trkpt lat="46.50764" lon="6.02448">
        <ele>924</ele>
        <time>2025-06-09T13:54:38Z</time>
      </trkpt>
      <trkpt lat="46.50767" lon="6.02449">
        <ele>924</ele>
        <time>2025-06-09T13:54:44Z</time>
      </trkpt>
      <trkpt lat="46.5077" lon="6.0245">
        <ele>924</ele>
        <time>2025-06-09T13:54:48Z</time>
      </trkpt>
      <trkpt lat="46.50773" lon="6.0245">
        <ele>925</ele>
        <time>2025-06-09T13:54:51Z</time>
      </trkpt>
      <trkpt lat="46.50776" lon="6.0245">
        <ele>925</ele>
        <time>2025-06-09T13:54:55Z</time>
      </trkpt>
      <trkpt lat="46.50779" lon="6.02449">
        <ele>925</ele>
        <time>2025-06-09T13:54:58Z</time>
      </trkpt>
      <trkpt lat="46.50783" lon="6.02449">
        <ele>926</ele>
        <time>2025-06-09T13:55:01Z</time>
      </trkpt>
      <trkpt lat="46.50786" lon="6.02449">
        <ele>926</ele>
        <time>2025-06-09T13:55:04Z</time>
      </trkpt>
      <trkpt lat="46.50789" lon="6.02449">
        <ele>926</ele>
        <time>2025-06-09T13:55:07Z</time>
      </trkpt>
      <trkpt lat="46.50792" lon="6.0245">
        <ele>926</ele>
        <time>2025-06-09T13:55:13Z</time>
      </trkpt>
      <trkpt lat="46.50795" lon="6.02449">
        <ele>926</ele>
        <time>2025-06-09T13:55:17Z</time>
      </trkpt>
      <trkpt lat="46.50798" lon="6.0245">
        <ele>926</ele>
        <time>2025-06-09T13:55:25Z</time>
      </trkpt>
      <trkpt lat="46.50801" lon="6.02451">
        <ele>926</ele>
        <time>2025-06-09T13:55:30Z</time>
      </trkpt>
      <trkpt lat="46.50804" lon="6.02451">
        <ele>926</ele>
        <time>2025-06-09T13:55:36Z</time>
      </trkpt>
      <trkpt lat="46.50808" lon="6.02452">
        <ele>926</ele>
        <time>2025-06-09T13:55:39Z</time>
      </trkpt>
      <trkpt lat="46.50811" lon="6.02452">
        <ele>926</ele>
        <time>2025-06-09T13:55:43Z</time>
      </trkpt>
      <trkpt lat="46.50814" lon="6.02452">
        <ele>926</ele>
        <time>2025-06-09T13:55:46Z</time>
      </trkpt>
      <trkpt lat="46.50817" lon="6.02453">
        <ele>926</ele>
        <time>2025-06-09T13:55:50Z</time>
      </trkpt>
      <trkpt lat="46.50821" lon="6.02454">
        <ele>926</ele>
        <time>2025-06-09T13:55:54Z</time>
      </trkpt>
      <trkpt lat="46.50824" lon="6.02454">
        <ele>926</ele>
        <time>2025-06-09T13:55:58Z</time>
      </trkpt>
      <trkpt lat="46.50827" lon="6.02455">
        <ele>926</ele>
        <time>2025-06-09T13:56:01Z</time>
      </trkpt>
      <trkpt lat="46.5083" lon="6.02456">
        <ele>926</ele>
        <time>2025-06-09T13:56:04Z</time>
      </trkpt>
      <trkpt lat="46.50833" lon="6.02456">
        <ele>926</ele>
        <time>2025-06-09T13:56:09Z</time>
      </trkpt>
      <trkpt lat="46.50836" lon="6.02457">
        <ele>926</ele>
        <time>2025-06-09T13:56:14Z</time>
      </trkpt>
      <trkpt lat="46.50839" lon="6.02458">
        <ele>926</ele>
        <time>2025-06-09T13:56:18Z</time>
      </trkpt>
      <trkpt lat="46.50842" lon="6.02458">
        <ele>926</ele>
        <time>2025-06-09T13:56:22Z</time>
      </trkpt>
      <trkpt lat="46.50845" lon="6.02459">
        <ele>926</ele>
        <time>2025-06-09T13:56:30Z</time>
      </trkpt>
      <trkpt lat="46.50847" lon="6.02459">
        <ele>925</ele>
        <time>2025-06-09T13:56:33Z</time>
      </trkpt>
      <trkpt lat="46.50849" lon="6.02456">
        <ele>925</ele>
        <time>2025-06-09T13:56:45Z</time>
      </trkpt>
      <trkpt lat="46.50856" lon="6.02456">
        <ele>924</ele>
        <time>2025-06-09T13:57:19Z</time>
      </trkpt>
      <trkpt lat="46.50857" lon="6.02457">
        <ele>924</ele>
        <time>2025-06-09T13:57:30Z</time>
      </trkpt>
      <trkpt lat="46.50859" lon="6.0246">
        <ele>924</ele>
        <time>2025-06-09T13:57:34Z</time>
      </trkpt>
      <trkpt lat="46.50862" lon="6.02463">
        <ele>924</ele>
        <time>2025-06-09T13:57:37Z</time>
      </trkpt>
      <trkpt lat="46.50865" lon="6.02466">
        <ele>924</ele>
        <time>2025-06-09T13:57:41Z</time>
      </trkpt>
      <trkpt lat="46.50868" lon="6.02468">
        <ele>925</ele>
        <time>2025-06-09T13:57:44Z</time>
      </trkpt>
      <trkpt lat="46.50871" lon="6.02471">
        <ele>925</ele>
        <time>2025-06-09T13:57:47Z</time>
      </trkpt>
      <trkpt lat="46.50873" lon="6.02473">
        <ele>926</ele>
        <time>2025-06-09T13:57:49Z</time>
      </trkpt>
      <trkpt lat="46.50876" lon="6.02475">
        <ele>926</ele>
        <time>2025-06-09T13:57:52Z</time>
      </trkpt>
      <trkpt lat="46.50879" lon="6.02477">
        <ele>928</ele>
        <time>2025-06-09T13:57:58Z</time>
      </trkpt>
      <trkpt lat="46.50881" lon="6.02479">
        <ele>929</ele>
        <time>2025-06-09T13:58:07Z</time>
      </trkpt>
      <trkpt lat="46.50884" lon="6.02481">
        <ele>930</ele>
        <time>2025-06-09T13:58:18Z</time>
      </trkpt>
      <trkpt lat="46.50887" lon="6.02482">
        <ele>930</ele>
        <time>2025-06-09T13:58:23Z</time>
      </trkpt>
      <trkpt lat="46.50889" lon="6.02484">
        <ele>930</ele>
        <time>2025-06-09T13:58:26Z</time>
      </trkpt>
      <trkpt lat="46.50891" lon="6.02487">
        <ele>930</ele>
        <time>2025-06-09T13:58:29Z</time>
      </trkpt>
      <trkpt lat="46.50893" lon="6.0249">
        <ele>930</ele>
        <time>2025-06-09T13:58:32Z</time>
      </trkpt>
      <trkpt lat="46.50896" lon="6.02492">
        <ele>930</ele>
        <time>2025-06-09T13:58:36Z</time>
      </trkpt>
      <trkpt lat="46.50898" lon="6.02492">
        <ele>930</ele>
        <time>2025-06-09T13:58:41Z</time>
      </trkpt>
      <trkpt lat="46.50901" lon="6.02492">
        <ele>929</ele>
        <time>2025-06-09T13:58:46Z</time>
      </trkpt>
      <trkpt lat="46.50903" lon="6.02494">
        <ele>929</ele>
        <time>2025-06-09T13:58:51Z</time>
      </trkpt>
      <trkpt lat="46.50905" lon="6.02496">
        <ele>928</ele>
        <time>2025-06-09T13:58:54Z</time>
      </trkpt>
      <trkpt lat="46.50908" lon="6.02499">
        <ele>928</ele>
        <time>2025-06-09T13:58:58Z</time>
      </trkpt>
      <trkpt lat="46.5091" lon="6.02501">
        <ele>927</ele>
        <time>2025-06-09T13:59:01Z</time>
      </trkpt>
      <trkpt lat="46.50913" lon="6.02503">
        <ele>927</ele>
        <time>2025-06-09T13:59:04Z</time>
      </trkpt>
      <trkpt lat="46.50916" lon="6.02505">
        <ele>926</ele>
        <time>2025-06-09T13:59:07Z</time>
      </trkpt>
      <trkpt lat="46.50919" lon="6.02507">
        <ele>926</ele>
        <time>2025-06-09T13:59:10Z</time>
      </trkpt>
      <trkpt lat="46.50922" lon="6.02508">
        <ele>925</ele>
        <time>2025-06-09T13:59:14Z</time>
      </trkpt>
      <trkpt lat="46.50924" lon="6.02511">
        <ele>925</ele>
        <time>2025-06-09T13:59:18Z</time>
      </trkpt>
      <trkpt lat="46.50927" lon="6.02513">
        <ele>925</ele>
        <time>2025-06-09T13:59:21Z</time>
      </trkpt>
      <trkpt lat="46.5093" lon="6.02515">
        <ele>924</ele>
        <time>2025-06-09T13:59:24Z</time>
      </trkpt>
      <trkpt lat="46.50933" lon="6.02516">
        <ele>924</ele>
        <time>2025-06-09T13:59:27Z</time>
      </trkpt>
      <trkpt lat="46.50935" lon="6.02518">
        <ele>923</ele>
        <time>2025-06-09T13:59:30Z</time>
      </trkpt>
      <trkpt lat="46.50938" lon="6.02519">
        <ele>923</ele>
        <time>2025-06-09T13:59:34Z</time>
      </trkpt>
      <trkpt lat="46.50941" lon="6.0252">
        <ele>923</ele>
        <time>2025-06-09T13:59:38Z</time>
      </trkpt>
      <trkpt lat="46.50944" lon="6.02521">
        <ele>923</ele>
        <time>2025-06-09T13:59:41Z</time>
      </trkpt>
      <trkpt lat="46.50947" lon="6.02522">
        <ele>923</ele>
        <time>2025-06-09T13:59:44Z</time>
      </trkpt>
      <trkpt lat="46.5095" lon="6.02523">
        <ele>923</ele>
        <time>2025-06-09T13:59:48Z</time>
      </trkpt>
      <trkpt lat="46.50953" lon="6.02525">
        <ele>923</ele>
        <time>2025-06-09T13:59:51Z</time>
      </trkpt>
      <trkpt lat="46.50956" lon="6.02526">
        <ele>923</ele>
        <time>2025-06-09T13:59:54Z</time>
      </trkpt>
      <trkpt lat="46.50959" lon="6.02528">
        <ele>923</ele>
        <time>2025-06-09T13:59:58Z</time>
      </trkpt>
      <trkpt lat="46.50962" lon="6.02529">
        <ele>923</ele>
        <time>2025-06-09T14:00:03Z</time>
      </trkpt>
      <trkpt lat="46.50964" lon="6.02529">
        <ele>924</ele>
        <time>2025-06-09T14:00:07Z</time>
      </trkpt>
      <trkpt lat="46.50967" lon="6.02531">
        <ele>924</ele>
        <time>2025-06-09T14:00:12Z</time>
      </trkpt>
      <trkpt lat="46.5097" lon="6.02532">
        <ele>925</ele>
        <time>2025-06-09T14:00:15Z</time>
      </trkpt>
      <trkpt lat="46.50973" lon="6.02533">
        <ele>925</ele>
        <time>2025-06-09T14:00:19Z</time>
      </trkpt>
      <trkpt lat="46.50976" lon="6.02534">
        <ele>926</ele>
        <time>2025-06-09T14:00:23Z</time>
      </trkpt>
      <trkpt lat="46.50979" lon="6.02536">
        <ele>926</ele>
        <time>2025-06-09T14:00:27Z</time>
      </trkpt>
      <trkpt lat="46.50982" lon="6.02537">
        <ele>927</ele>
        <time>2025-06-09T14:00:30Z</time>
      </trkpt>
      <trkpt lat="46.50985" lon="6.02537">
        <ele>927</ele>
        <time>2025-06-09T14:00:34Z</time>
      </trkpt>
      <trkpt lat="46.50988" lon="6.02538">
        <ele>927</ele>
        <time>2025-06-09T14:00:37Z</time>
      </trkpt>
      <trkpt lat="46.50991" lon="6.02537">
        <ele>928</ele>
        <time>2025-06-09T14:00:41Z</time>
      </trkpt>
      <trkpt lat="46.50994" lon="6.02537">
        <ele>928</ele>
        <time>2025-06-09T14:00:44Z</time>
      </trkpt>
      <trkpt lat="46.50997" lon="6.02537">
        <ele>928</ele>
        <time>2025-06-09T14:00:47Z</time>
      </trkpt>
      <trkpt lat="46.51001" lon="6.02538">
        <ele>929</ele>
        <time>2025-06-09T14:00:51Z</time>
      </trkpt>
      <trkpt lat="46.51004" lon="6.02538">
        <ele>929</ele>
        <time>2025-06-09T14:00:55Z</time>
      </trkpt>
      <trkpt lat="46.51007" lon="6.02538">
        <ele>930</ele>
        <time>2025-06-09T14:00:58Z</time>
      </trkpt>
      <trkpt lat="46.5101" lon="6.02539">
        <ele>930</ele>
        <time>2025-06-09T14:01:03Z</time>
      </trkpt>
      <trkpt lat="46.51014" lon="6.02538">
        <ele>930</ele>
        <time>2025-06-09T14:01:08Z</time>
      </trkpt>
      <trkpt lat="46.51017" lon="6.02538">
        <ele>930</ele>
        <time>2025-06-09T14:01:11Z</time>
      </trkpt>
      <trkpt lat="46.5102" lon="6.02537">
        <ele>931</ele>
        <time>2025-06-09T14:01:15Z</time>
      </trkpt>
      <trkpt lat="46.51023" lon="6.02535">
        <ele>931</ele>
        <time>2025-06-09T14:01:19Z</time>
      </trkpt>
      <trkpt lat="46.51026" lon="6.02533">
        <ele>931</ele>
        <time>2025-06-09T14:01:25Z</time>
      </trkpt>
      <trkpt lat="46.51028" lon="6.02533">
        <ele>930</ele>
        <time>2025-06-09T14:01:49Z</time>
      </trkpt>
      <trkpt lat="46.51029" lon="6.02526">
        <ele>928</ele>
        <time>2025-06-09T14:04:59Z</time>
      </trkpt>
      <trkpt lat="46.5103" lon="6.02522">
        <ele>926</ele>
        <time>2025-06-09T14:05:42Z</time>
      </trkpt>
      <trkpt lat="46.51034" lon="6.02524">
        <ele>925</ele>
        <time>2025-06-09T14:06:21Z</time>
      </trkpt>
      <trkpt lat="46.51033" lon="6.02523">
        <ele>925</ele>
        <time>2025-06-09T14:06:28Z</time>
      </trkpt>
      <trkpt lat="46.51032" lon="6.02518">
        <ele>924</ele>
        <time>2025-06-09T14:07:00Z</time>
      </trkpt>
      <trkpt lat="46.51035" lon="6.02516">
        <ele>923</ele>
        <time>2025-06-09T14:07:13Z</time>
      </trkpt>
      <trkpt lat="46.51035" lon="6.02515">
        <ele>921</ele>
        <time>2025-06-09T14:07:20Z</time>
      </trkpt>
      <trkpt lat="46.51034" lon="6.02511">
        <ele>922</ele>
        <time>2025-06-09T14:07:34Z</time>
      </trkpt>
      <trkpt lat="46.51033" lon="6.02507">
        <ele>922</ele>
        <time>2025-06-09T14:07:39Z</time>
      </trkpt>
      <trkpt lat="46.51032" lon="6.02503">
        <ele>922</ele>
        <time>2025-06-09T14:07:44Z</time>
      </trkpt>
      <trkpt lat="46.51032" lon="6.02498">
        <ele>923</ele>
        <time>2025-06-09T14:07:48Z</time>
      </trkpt>
      <trkpt lat="46.51031" lon="6.02494">
        <ele>923</ele>
        <time>2025-06-09T14:07:51Z</time>
      </trkpt>
      <trkpt lat="46.51031" lon="6.0249">
        <ele>924</ele>
        <time>2025-06-09T14:07:55Z</time>
      </trkpt>
      <trkpt lat="46.5103" lon="6.02485">
        <ele>924</ele>
        <time>2025-06-09T14:08:00Z</time>
      </trkpt>
      <trkpt lat="46.5103" lon="6.02481">
        <ele>924</ele>
        <time>2025-06-09T14:08:05Z</time>
      </trkpt>
      <trkpt lat="46.5103" lon="6.02476">
        <ele>924</ele>
        <time>2025-06-09T14:08:09Z</time>
      </trkpt>
      <trkpt lat="46.51029" lon="6.02472">
        <ele>924</ele>
        <time>2025-06-09T14:08:14Z</time>
      </trkpt>
      <trkpt lat="46.51029" lon="6.02468">
        <ele>924</ele>
        <time>2025-06-09T14:08:29Z</time>
      </trkpt>
      <trkpt lat="46.51029" lon="6.02463">
        <ele>924</ele>
        <time>2025-06-09T14:08:33Z</time>
      </trkpt>
      <trkpt lat="46.51029" lon="6.02459">
        <ele>925</ele>
        <time>2025-06-09T14:08:40Z</time>
      </trkpt>
      <trkpt lat="46.5103" lon="6.02454">
        <ele>925</ele>
        <time>2025-06-09T14:08:50Z</time>
      </trkpt>
      <trkpt lat="46.51032" lon="6.0245">
        <ele>926</ele>
        <time>2025-06-09T14:08:55Z</time>
      </trkpt>
      <trkpt lat="46.51035" lon="6.02448">
        <ele>927</ele>
        <time>2025-06-09T14:09:01Z</time>
      </trkpt>
      <trkpt lat="46.51037" lon="6.02444">
        <ele>927</ele>
        <time>2025-06-09T14:09:05Z</time>
      </trkpt>
      <trkpt lat="46.51038" lon="6.0244">
        <ele>927</ele>
        <time>2025-06-09T14:09:09Z</time>
      </trkpt>
      <trkpt lat="46.51038" lon="6.02436">
        <ele>927</ele>
        <time>2025-06-09T14:09:12Z</time>
      </trkpt>
      <trkpt lat="46.51039" lon="6.02431">
        <ele>928</ele>
        <time>2025-06-09T14:09:16Z</time>
      </trkpt>
      <trkpt lat="46.5104" lon="6.02427">
        <ele>928</ele>
        <time>2025-06-09T14:09:20Z</time>
      </trkpt>
      <trkpt lat="46.51042" lon="6.02423">
        <ele>928</ele>
        <time>2025-06-09T14:09:24Z</time>
      </trkpt>
      <trkpt lat="46.51043" lon="6.02419">
        <ele>928</ele>
        <time>2025-06-09T14:09:28Z</time>
      </trkpt>
      <trkpt lat="46.51044" lon="6.02415">
        <ele>928</ele>
        <time>2025-06-09T14:09:32Z</time>
      </trkpt>
      <trkpt lat="46.51046" lon="6.02411">
        <ele>928</ele>
        <time>2025-06-09T14:09:36Z</time>
      </trkpt>
      <trkpt lat="46.51045" lon="6.02407">
        <ele>927</ele>
        <time>2025-06-09T14:09:40Z</time>
      </trkpt>
      <trkpt lat="46.51045" lon="6.02402">
        <ele>927</ele>
        <time>2025-06-09T14:09:46Z</time>
      </trkpt>
      <trkpt lat="46.51045" lon="6.02398">
        <ele>927</ele>
        <time>2025-06-09T14:09:53Z</time>
      </trkpt>
      <trkpt lat="46.51042" lon="6.02386">
        <ele>927</ele>
        <time>2025-06-09T14:10:22Z</time>
      </trkpt>
      <trkpt lat="46.51041" lon="6.02379">
        <ele>928</ele>
        <time>2025-06-09T14:10:26Z</time>
      </trkpt>
      <trkpt lat="46.51041" lon="6.02374">
        <ele>928</ele>
        <time>2025-06-09T14:10:32Z</time>
      </trkpt>
      <trkpt lat="46.51041" lon="6.02369">
        <ele>929</ele>
        <time>2025-06-09T14:10:36Z</time>
      </trkpt>
      <trkpt lat="46.51041" lon="6.02365">
        <ele>929</ele>
        <time>2025-06-09T14:10:39Z</time>
      </trkpt>
      <trkpt lat="46.5104" lon="6.02359">
        <ele>930</ele>
        <time>2025-06-09T14:10:46Z</time>
      </trkpt>
      <trkpt lat="46.5104" lon="6.02354">
        <ele>930</ele>
        <time>2025-06-09T14:10:52Z</time>
      </trkpt>
      <trkpt lat="46.51039" lon="6.0235">
        <ele>930</ele>
        <time>2025-06-09T14:10:57Z</time>
      </trkpt>
      <trkpt lat="46.51039" lon="6.02345">
        <ele>930</ele>
        <time>2025-06-09T14:11:02Z</time>
      </trkpt>
      <trkpt lat="46.51038" lon="6.02341">
        <ele>930</ele>
        <time>2025-06-09T14:11:06Z</time>
      </trkpt>
      <trkpt lat="46.51037" lon="6.02337">
        <ele>930</ele>
        <time>2025-06-09T14:11:10Z</time>
      </trkpt>
      <trkpt lat="46.51036" lon="6.02332">
        <ele>930</ele>
        <time>2025-06-09T14:11:15Z</time>
      </trkpt>
      <trkpt lat="46.51036" lon="6.02328">
        <ele>930</ele>
        <time>2025-06-09T14:11:20Z</time>
      </trkpt>
      <trkpt lat="46.51036" lon="6.02324">
        <ele>929</ele>
        <time>2025-06-09T14:11:26Z</time>
      </trkpt>
      <trkpt lat="46.51035" lon="6.02319">
        <ele>928</ele>
        <time>2025-06-09T14:11:32Z</time>
      </trkpt>
      <trkpt lat="46.51035" lon="6.02315">
        <ele>928</ele>
        <time>2025-06-09T14:11:35Z</time>
      </trkpt>
      <trkpt lat="46.51034" lon="6.02311">
        <ele>928</ele>
        <time>2025-06-09T14:11:42Z</time>
      </trkpt>
      <trkpt lat="46.51032" lon="6.02308">
        <ele>928</ele>
        <time>2025-06-09T14:11:49Z</time>
      </trkpt>
      <trkpt lat="46.5103" lon="6.023">
        <ele>928</ele>
        <time>2025-06-09T14:12:03Z</time>
      </trkpt>
      <trkpt lat="46.51028" lon="6.02294">
        <ele>928</ele>
        <time>2025-06-09T14:12:07Z</time>
      </trkpt>
      <trkpt lat="46.51027" lon="6.02289">
        <ele>928</ele>
        <time>2025-06-09T14:12:10Z</time>
      </trkpt>
      <trkpt lat="46.51026" lon="6.02284">
        <ele>928</ele>
        <time>2025-06-09T14:12:13Z</time>
      </trkpt>
      <trkpt lat="46.51025" lon="6.0228">
        <ele>928</ele>
        <time>2025-06-09T14:12:16Z</time>
      </trkpt>
      <trkpt lat="46.51025" lon="6.02276">
        <ele>927</ele>
        <time>2025-06-09T14:12:25Z</time>
      </trkpt>
      <trkpt lat="46.51024" lon="6.02272">
        <ele>928</ele>
        <time>2025-06-09T14:12:30Z</time>
      </trkpt>
      <trkpt lat="46.51023" lon="6.02268">
        <ele>928</ele>
        <time>2025-06-09T14:12:36Z</time>
      </trkpt>
      <trkpt lat="46.51023" lon="6.02263">
        <ele>929</ele>
        <time>2025-06-09T14:12:44Z</time>
      </trkpt>
      <trkpt lat="46.51022" lon="6.0226">
        <ele>930</ele>
        <time>2025-06-09T14:12:50Z</time>
      </trkpt>
      <trkpt lat="46.51022" lon="6.02256">
        <ele>930</ele>
        <time>2025-06-09T14:12:55Z</time>
      </trkpt>
      <trkpt lat="46.51023" lon="6.02252">
        <ele>931</ele>
        <time>2025-06-09T14:13:02Z</time>
      </trkpt>
      <trkpt lat="46.51024" lon="6.02248">
        <ele>932</ele>
        <time>2025-06-09T14:13:05Z</time>
      </trkpt>
      <trkpt lat="46.51025" lon="6.02244">
        <ele>933</ele>
        <time>2025-06-09T14:13:11Z</time>
      </trkpt>
      <trkpt lat="46.51027" lon="6.0224">
        <ele>934</ele>
        <time>2025-06-09T14:13:16Z</time>
      </trkpt>
      <trkpt lat="46.51028" lon="6.02237">
        <ele>934</ele>
        <time>2025-06-09T14:13:20Z</time>
      </trkpt>
      <trkpt lat="46.51029" lon="6.02232">
        <ele>934</ele>
        <time>2025-06-09T14:13:24Z</time>
      </trkpt>
      <trkpt lat="46.51031" lon="6.02229">
        <ele>935</ele>
        <time>2025-06-09T14:13:30Z</time>
      </trkpt>
      <trkpt lat="46.51033" lon="6.02225">
        <ele>935</ele>
        <time>2025-06-09T14:13:36Z</time>
      </trkpt>
      <trkpt lat="46.51035" lon="6.02222">
        <ele>936</ele>
        <time>2025-06-09T14:13:40Z</time>
      </trkpt>
      <trkpt lat="46.51037" lon="6.02218">
        <ele>937</ele>
        <time>2025-06-09T14:13:44Z</time>
      </trkpt>
      <trkpt lat="46.51037" lon="6.02214">
        <ele>938</ele>
        <time>2025-06-09T14:13:49Z</time>
      </trkpt>
      <trkpt lat="46.51038" lon="6.0221">
        <ele>938</ele>
        <time>2025-06-09T14:13:52Z</time>
      </trkpt>
      <trkpt lat="46.51037" lon="6.02206">
        <ele>938</ele>
        <time>2025-06-09T14:13:55Z</time>
      </trkpt>
      <trkpt lat="46.51037" lon="6.02202">
        <ele>938</ele>
        <time>2025-06-09T14:14:01Z</time>
      </trkpt>
      <trkpt lat="46.51036" lon="6.02194">
        <ele>935</ele>
        <time>2025-06-09T14:15:22Z</time>
      </trkpt>
      <trkpt lat="46.51037" lon="6.0219">
        <ele>934</ele>
        <time>2025-06-09T14:15:25Z</time>
      </trkpt>
      <trkpt lat="46.51039" lon="6.02186">
        <ele>934</ele>
        <time>2025-06-09T14:15:30Z</time>
      </trkpt>
      <trkpt lat="46.51042" lon="6.02183">
        <ele>934</ele>
        <time>2025-06-09T14:15:35Z</time>
      </trkpt>
      <trkpt lat="46.51043" lon="6.02181">
        <ele>933</ele>
        <time>2025-06-09T14:15:39Z</time>
      </trkpt>
      <trkpt lat="46.51045" lon="6.02178">
        <ele>934</ele>
        <time>2025-06-09T14:15:45Z</time>
      </trkpt>
      <trkpt lat="46.51047" lon="6.02176">
        <ele>935</ele>
        <time>2025-06-09T14:15:51Z</time>
      </trkpt>
      <trkpt lat="46.5105" lon="6.02173">
        <ele>936</ele>
        <time>2025-06-09T14:15:56Z</time>
      </trkpt>
      <trkpt lat="46.51052" lon="6.0217">
        <ele>936</ele>
        <time>2025-06-09T14:16:01Z</time>
      </trkpt>
      <trkpt lat="46.51054" lon="6.02167">
        <ele>937</ele>
        <time>2025-06-09T14:16:06Z</time>
      </trkpt>
      <trkpt lat="46.51057" lon="6.02166">
        <ele>938</ele>
        <time>2025-06-09T14:16:11Z</time>
      </trkpt>
      <trkpt lat="46.5106" lon="6.02164">
        <ele>938</ele>
        <time>2025-06-09T14:16:16Z</time>
      </trkpt>
      <trkpt lat="46.51062" lon="6.02162">
        <ele>939</ele>
        <time>2025-06-09T14:16:22Z</time>
      </trkpt>
      <trkpt lat="46.51064" lon="6.02159">
        <ele>940</ele>
        <time>2025-06-09T14:16:27Z</time>
      </trkpt>
      <trkpt lat="46.51066" lon="6.02155">
        <ele>940</ele>
        <time>2025-06-09T14:16:30Z</time>
      </trkpt>
      <trkpt lat="46.51071" lon="6.02151">
        <ele>941</ele>
        <time>2025-06-09T14:16:51Z</time>
      </trkpt>
      <trkpt lat="46.51074" lon="6.02148">
        <ele>942</ele>
        <time>2025-06-09T14:16:56Z</time>
      </trkpt>
      <trkpt lat="46.51077" lon="6.02145">
        <ele>943</ele>
        <time>2025-06-09T14:17:01Z</time>
      </trkpt>
      <trkpt lat="46.51079" lon="6.02142">
        <ele>943</ele>
        <time>2025-06-09T14:17:05Z</time>
      </trkpt>
      <trkpt lat="46.51081" lon="6.02139">
        <ele>944</ele>
        <time>2025-06-09T14:17:10Z</time>
      </trkpt>
      <trkpt lat="46.51082" lon="6.02136">
        <ele>944</ele>
        <time>2025-06-09T14:17:13Z</time>
      </trkpt>
      <trkpt lat="46.51083" lon="6.02132">
        <ele>945</ele>
        <time>2025-06-09T14:17:17Z</time>
      </trkpt>
      <trkpt lat="46.51085" lon="6.02128">
        <ele>945</ele>
        <time>2025-06-09T14:17:21Z</time>
      </trkpt>
      <trkpt lat="46.51086" lon="6.02124">
        <ele>945</ele>
        <time>2025-06-09T14:17:27Z</time>
      </trkpt>
      <trkpt lat="46.51088" lon="6.02121">
        <ele>946</ele>
        <time>2025-06-09T14:17:33Z</time>
      </trkpt>
      <trkpt lat="46.51089" lon="6.02117">
        <ele>947</ele>
        <time>2025-06-09T14:17:41Z</time>
      </trkpt>
      <trkpt lat="46.5109" lon="6.02113">
        <ele>948</ele>
        <time>2025-06-09T14:17:45Z</time>
      </trkpt>
      <trkpt lat="46.51092" lon="6.02108">
        <ele>949</ele>
        <time>2025-06-09T14:17:49Z</time>
      </trkpt>
      <trkpt lat="46.51093" lon="6.02105">
        <ele>949</ele>
        <time>2025-06-09T14:17:53Z</time>
      </trkpt>
      <trkpt lat="46.51094" lon="6.02101">
        <ele>950</ele>
        <time>2025-06-09T14:17:58Z</time>
      </trkpt>
      <trkpt lat="46.51096" lon="6.02097">
        <ele>950</ele>
        <time>2025-06-09T14:18:04Z</time>
      </trkpt>
      <trkpt lat="46.51098" lon="6.02093">
        <ele>950</ele>
        <time>2025-06-09T14:18:09Z</time>
      </trkpt>
      <trkpt lat="46.511" lon="6.0209">
        <ele>950</ele>
        <time>2025-06-09T14:18:14Z</time>
      </trkpt>
      <trkpt lat="46.51102" lon="6.02087">
        <ele>950</ele>
        <time>2025-06-09T14:18:18Z</time>
      </trkpt>
      <trkpt lat="46.51104" lon="6.02084">
        <ele>950</ele>
        <time>2025-06-09T14:18:21Z</time>
      </trkpt>
      <trkpt lat="46.51107" lon="6.02081">
        <ele>950</ele>
        <time>2025-06-09T14:18:25Z</time>
      </trkpt>
      <trkpt lat="46.51109" lon="6.02079">
        <ele>950</ele>
        <time>2025-06-09T14:18:29Z</time>
      </trkpt>
      <trkpt lat="46.51111" lon="6.02076">
        <ele>950</ele>
        <time>2025-06-09T14:18:33Z</time>
      </trkpt>
      <trkpt lat="46.51114" lon="6.02074">
        <ele>951</ele>
        <time>2025-06-09T14:18:38Z</time>
      </trkpt>
      <trkpt lat="46.51116" lon="6.02072">
        <ele>951</ele>
        <time>2025-06-09T14:18:43Z</time>
      </trkpt>
      <trkpt lat="46.51118" lon="6.02069">
        <ele>951</ele>
        <time>2025-06-09T14:18:48Z</time>
      </trkpt>
      <trkpt lat="46.5112" lon="6.02065">
        <ele>952</ele>
        <time>2025-06-09T14:18:52Z</time>
      </trkpt>
      <trkpt lat="46.51122" lon="6.02062">
        <ele>952</ele>
        <time>2025-06-09T14:18:57Z</time>
      </trkpt>
      <trkpt lat="46.51123" lon="6.02058">
        <ele>952</ele>
        <time>2025-06-09T14:19:00Z</time>
      </trkpt>
      <trkpt lat="46.51125" lon="6.02055">
        <ele>952</ele>
        <time>2025-06-09T14:19:03Z</time>
      </trkpt>
      <trkpt lat="46.51127" lon="6.02051">
        <ele>953</ele>
        <time>2025-06-09T14:19:07Z</time>
      </trkpt>
      <trkpt lat="46.51128" lon="6.02048">
        <ele>953</ele>
        <time>2025-06-09T14:19:17Z</time>
      </trkpt>
      <trkpt lat="46.5113" lon="6.02044">
        <ele>952</ele>
        <time>2025-06-09T14:19:25Z</time>
      </trkpt>
      <trkpt lat="46.51133" lon="6.02043">
        <ele>952</ele>
        <time>2025-06-09T14:19:33Z</time>
      </trkpt>
      <trkpt lat="46.51135" lon="6.02041">
        <ele>952</ele>
        <time>2025-06-09T14:19:39Z</time>
      </trkpt>
      <trkpt lat="46.51137" lon="6.02039">
        <ele>952</ele>
        <time>2025-06-09T14:19:42Z</time>
      </trkpt>
      <trkpt lat="46.5114" lon="6.02036">
        <ele>952</ele>
        <time>2025-06-09T14:19:47Z</time>
      </trkpt>
      <trkpt lat="46.51142" lon="6.02025">
        <ele>951</ele>
        <time>2025-06-09T14:20:48Z</time>
      </trkpt>
      <trkpt lat="46.51144" lon="6.02023">
        <ele>949</ele>
        <time>2025-06-09T14:21:58Z</time>
      </trkpt>
      <trkpt lat="46.51146" lon="6.0202">
        <ele>949</ele>
        <time>2025-06-09T14:22:08Z</time>
      </trkpt>
      <trkpt lat="46.51148" lon="6.02016">
        <ele>950</ele>
        <time>2025-06-09T14:22:12Z</time>
      </trkpt>
      <trkpt lat="46.5115" lon="6.02013">
        <ele>950</ele>
        <time>2025-06-09T14:22:17Z</time>
      </trkpt>
      <trkpt lat="46.51152" lon="6.0201">
        <ele>951</ele>
        <time>2025-06-09T14:22:21Z</time>
      </trkpt>
      <trkpt lat="46.51155" lon="6.02007">
        <ele>951</ele>
        <time>2025-06-09T14:22:25Z</time>
      </trkpt>
      <trkpt lat="46.51156" lon="6.02004">
        <ele>951</ele>
        <time>2025-06-09T14:22:29Z</time>
      </trkpt>
      <trkpt lat="46.51158" lon="6.02">
        <ele>951</ele>
        <time>2025-06-09T14:22:37Z</time>
      </trkpt>
      <trkpt lat="46.5116" lon="6.01997">
        <ele>951</ele>
        <time>2025-06-09T14:22:41Z</time>
      </trkpt>
      <trkpt lat="46.51162" lon="6.01994">
        <ele>951</ele>
        <time>2025-06-09T14:22:44Z</time>
      </trkpt>
      <trkpt lat="46.51164" lon="6.01991">
        <ele>951</ele>
        <time>2025-06-09T14:22:46Z</time>
      </trkpt>
      <trkpt lat="46.51165" lon="6.01987">
        <ele>951</ele>
        <time>2025-06-09T14:22:49Z</time>
      </trkpt>
      <trkpt lat="46.51167" lon="6.01984">
        <ele>952</ele>
        <time>2025-06-09T14:22:54Z</time>
      </trkpt>
      <trkpt lat="46.5117" lon="6.01981">
        <ele>952</ele>
        <time>2025-06-09T14:22:59Z</time>
      </trkpt>
      <trkpt lat="46.51172" lon="6.01978">
        <ele>952</ele>
        <time>2025-06-09T14:23:03Z</time>
      </trkpt>
      <trkpt lat="46.51174" lon="6.01975">
        <ele>953</ele>
        <time>2025-06-09T14:23:07Z</time>
      </trkpt>
      <trkpt lat="46.51176" lon="6.01971">
        <ele>953</ele>
        <time>2025-06-09T14:23:13Z</time>
      </trkpt>
      <trkpt lat="46.51178" lon="6.01968">
        <ele>954</ele>
        <time>2025-06-09T14:23:18Z</time>
      </trkpt>
      <trkpt lat="46.5118" lon="6.01965">
        <ele>954</ele>
        <time>2025-06-09T14:23:23Z</time>
      </trkpt>
      <trkpt lat="46.51182" lon="6.01962">
        <ele>954</ele>
        <time>2025-06-09T14:23:27Z</time>
      </trkpt>
      <trkpt lat="46.51184" lon="6.01959">
        <ele>955</ele>
        <time>2025-06-09T14:23:31Z</time>
      </trkpt>
      <trkpt lat="46.51186" lon="6.01955">
        <ele>955</ele>
        <time>2025-06-09T14:23:36Z</time>
      </trkpt>
      <trkpt lat="46.51188" lon="6.01952">
        <ele>955</ele>
        <time>2025-06-09T14:23:45Z</time>
      </trkpt>
      <trkpt lat="46.51191" lon="6.0195">
        <ele>956</ele>
        <time>2025-06-09T14:23:51Z</time>
      </trkpt>
      <trkpt lat="46.51193" lon="6.01947">
        <ele>956</ele>
        <time>2025-06-09T14:23:56Z</time>
      </trkpt>
      <trkpt lat="46.51194" lon="6.01942">
        <ele>957</ele>
        <time>2025-06-09T14:24:00Z</time>
      </trkpt>
      <trkpt lat="46.51196" lon="6.01938">
        <ele>957</ele>
        <time>2025-06-09T14:24:04Z</time>
      </trkpt>
      <trkpt lat="46.51198" lon="6.01934">
        <ele>958</ele>
        <time>2025-06-09T14:24:07Z</time>
      </trkpt>
      <trkpt lat="46.51199" lon="6.0193">
        <ele>958</ele>
        <time>2025-06-09T14:24:11Z</time>
      </trkpt>
      <trkpt lat="46.51201" lon="6.01926">
        <ele>959</ele>
        <time>2025-06-09T14:24:14Z</time>
      </trkpt>
      <trkpt lat="46.51203" lon="6.01923">
        <ele>960</ele>
        <time>2025-06-09T14:24:19Z</time>
      </trkpt>
      <trkpt lat="46.51205" lon="6.01921">
        <ele>960</ele>
        <time>2025-06-09T14:24:23Z</time>
      </trkpt>
      <trkpt lat="46.51208" lon="6.01921">
        <ele>961</ele>
        <time>2025-06-09T14:24:29Z</time>
      </trkpt>
      <trkpt lat="46.51211" lon="6.01919">
        <ele>961</ele>
        <time>2025-06-09T14:24:37Z</time>
      </trkpt>
      <trkpt lat="46.51214" lon="6.01918">
        <ele>961</ele>
        <time>2025-06-09T14:24:42Z</time>
      </trkpt>
      <trkpt lat="46.51216" lon="6.01919">
        <ele>962</ele>
        <time>2025-06-09T14:24:46Z</time>
      </trkpt>
      <trkpt lat="46.51219" lon="6.0192">
        <ele>962</ele>
        <time>2025-06-09T14:24:53Z</time>
      </trkpt>
      <trkpt lat="46.51222" lon="6.0192">
        <ele>962</ele>
        <time>2025-06-09T14:24:58Z</time>
      </trkpt>
      <trkpt lat="46.51225" lon="6.01919">
        <ele>962</ele>
        <time>2025-06-09T14:25:04Z</time>
      </trkpt>
      <trkpt lat="46.51226" lon="6.01915">
        <ele>962</ele>
        <time>2025-06-09T14:25:10Z</time>
      </trkpt>
      <trkpt lat="46.5123" lon="6.01912">
        <ele>961</ele>
        <time>2025-06-09T14:25:29Z</time>
      </trkpt>
      <trkpt lat="46.51235" lon="6.01915">
        <ele>953</ele>
        <time>2025-06-09T14:26:07Z</time>
      </trkpt>
      <trkpt lat="46.51236" lon="6.01916">
        <ele>954</ele>
        <time>2025-06-09T14:26:17Z</time>
      </trkpt>
      <trkpt lat="46.51239" lon="6.01915">
        <ele>954</ele>
        <time>2025-06-09T14:26:20Z</time>
      </trkpt>
      <trkpt lat="46.51241" lon="6.01913">
        <ele>954</ele>
        <time>2025-06-09T14:26:23Z</time>
      </trkpt>
      <trkpt lat="46.51243" lon="6.0191">
        <ele>954</ele>
        <time>2025-06-09T14:26:26Z</time>
      </trkpt>
      <trkpt lat="46.51245" lon="6.01907">
        <ele>954</ele>
        <time>2025-06-09T14:26:30Z</time>
      </trkpt>
      <trkpt lat="46.51247" lon="6.01904">
        <ele>954</ele>
        <time>2025-06-09T14:26:35Z</time>
      </trkpt>
      <trkpt lat="46.5125" lon="6.01902">
        <ele>954</ele>
        <time>2025-06-09T14:26:39Z</time>
      </trkpt>
      <trkpt lat="46.51253" lon="6.019">
        <ele>955</ele>
        <time>2025-06-09T14:26:45Z</time>
      </trkpt>
      <trkpt lat="46.51256" lon="6.01899">
        <ele>955</ele>
        <time>2025-06-09T14:26:52Z</time>
      </trkpt>
      <trkpt lat="46.51259" lon="6.01898">
        <ele>956</ele>
        <time>2025-06-09T14:26:57Z</time>
      </trkpt>
      <trkpt lat="46.51262" lon="6.01896">
        <ele>956</ele>
        <time>2025-06-09T14:27:01Z</time>
      </trkpt>
      <trkpt lat="46.51265" lon="6.01894">
        <ele>957</ele>
        <time>2025-06-09T14:27:05Z</time>
      </trkpt>
      <trkpt lat="46.51268" lon="6.01892">
        <ele>957</ele>
        <time>2025-06-09T14:27:09Z</time>
      </trkpt>
      <trkpt lat="46.5127" lon="6.01888">
        <ele>958</ele>
        <time>2025-06-09T14:27:12Z</time>
      </trkpt>
      <trkpt lat="46.51272" lon="6.01884">
        <ele>958</ele>
        <time>2025-06-09T14:27:15Z</time>
      </trkpt>
      <trkpt lat="46.51274" lon="6.0188">
        <ele>959</ele>
        <time>2025-06-09T14:27:20Z</time>
      </trkpt>
      <trkpt lat="46.51276" lon="6.01877">
        <ele>959</ele>
        <time>2025-06-09T14:27:24Z</time>
      </trkpt>
      <trkpt lat="46.51278" lon="6.01874">
        <ele>960</ele>
        <time>2025-06-09T14:27:30Z</time>
      </trkpt>
      <trkpt lat="46.5128" lon="6.01871">
        <ele>961</ele>
        <time>2025-06-09T14:27:38Z</time>
      </trkpt>
      <trkpt lat="46.51283" lon="6.01868">
        <ele>962</ele>
        <time>2025-06-09T14:27:45Z</time>
      </trkpt>
      <trkpt lat="46.51285" lon="6.01866">
        <ele>963</ele>
        <time>2025-06-09T14:27:50Z</time>
      </trkpt>
      <trkpt lat="46.51288" lon="6.01864">
        <ele>963</ele>
        <time>2025-06-09T14:27:56Z</time>
      </trkpt>
      <trkpt lat="46.5129" lon="6.01861">
        <ele>964</ele>
        <time>2025-06-09T14:28:01Z</time>
      </trkpt>
      <trkpt lat="46.51293" lon="6.01858">
        <ele>965</ele>
        <time>2025-06-09T14:28:05Z</time>
      </trkpt>
      <trkpt lat="46.51295" lon="6.01855">
        <ele>966</ele>
        <time>2025-06-09T14:28:10Z</time>
      </trkpt>
      <trkpt lat="46.51297" lon="6.01852">
        <ele>966</ele>
        <time>2025-06-09T14:28:15Z</time>
      </trkpt>
      <trkpt lat="46.51299" lon="6.0185">
        <ele>967</ele>
        <time>2025-06-09T14:28:20Z</time>
      </trkpt>
      <trkpt lat="46.51302" lon="6.01848">
        <ele>967</ele>
        <time>2025-06-09T14:28:28Z</time>
      </trkpt>
      <trkpt lat="46.51305" lon="6.01844">
        <ele>966</ele>
        <time>2025-06-09T14:28:40Z</time>
      </trkpt>
      <trkpt lat="46.51308" lon="6.01842">
        <ele>965</ele>
        <time>2025-06-09T14:28:46Z</time>
      </trkpt>
      <trkpt lat="46.5131" lon="6.01839">
        <ele>965</ele>
        <time>2025-06-09T14:28:50Z</time>
      </trkpt>
      <trkpt lat="46.51313" lon="6.01837">
        <ele>965</ele>
        <time>2025-06-09T14:28:54Z</time>
      </trkpt>
      <trkpt lat="46.51316" lon="6.01834">
        <ele>965</ele>
        <time>2025-06-09T14:28:57Z</time>
      </trkpt>
      <trkpt lat="46.51317" lon="6.01831">
        <ele>964</ele>
        <time>2025-06-09T14:29:01Z</time>
      </trkpt>
      <trkpt lat="46.51319" lon="6.01827">
        <ele>964</ele>
        <time>2025-06-09T14:29:05Z</time>
      </trkpt>
      <trkpt lat="46.51321" lon="6.01823">
        <ele>964</ele>
        <time>2025-06-09T14:29:10Z</time>
      </trkpt>
      <trkpt lat="46.51322" lon="6.01819">
        <ele>964</ele>
        <time>2025-06-09T14:29:14Z</time>
      </trkpt>
      <trkpt lat="46.51323" lon="6.01815">
        <ele>964</ele>
        <time>2025-06-09T14:29:18Z</time>
      </trkpt>
      <trkpt lat="46.51325" lon="6.01812">
        <ele>964</ele>
        <time>2025-06-09T14:29:21Z</time>
      </trkpt>
      <trkpt lat="46.51327" lon="6.01808">
        <ele>965</ele>
        <time>2025-06-09T14:29:25Z</time>
      </trkpt>
      <trkpt lat="46.51329" lon="6.01805">
        <ele>965</ele>
        <time>2025-06-09T14:29:29Z</time>
      </trkpt>
      <trkpt lat="46.51332" lon="6.01804">
        <ele>966</ele>
        <time>2025-06-09T14:29:37Z</time>
      </trkpt>
      <trkpt lat="46.51334" lon="6.01801">
        <ele>966</ele>
        <time>2025-06-09T14:29:42Z</time>
      </trkpt>
      <trkpt lat="46.51338" lon="6.01795">
        <ele>967</ele>
        <time>2025-06-09T14:30:01Z</time>
      </trkpt>
      <trkpt lat="46.51339" lon="6.0179">
        <ele>968</ele>
        <time>2025-06-09T14:30:07Z</time>
      </trkpt>
      <trkpt lat="46.5134" lon="6.01785">
        <ele>968</ele>
        <time>2025-06-09T14:30:11Z</time>
      </trkpt>
      <trkpt lat="46.51341" lon="6.01781">
        <ele>968</ele>
        <time>2025-06-09T14:30:14Z</time>
      </trkpt>
      <trkpt lat="46.51342" lon="6.01776">
        <ele>968</ele>
        <time>2025-06-09T14:30:18Z</time>
      </trkpt>
      <trkpt lat="46.51344" lon="6.01772">
        <ele>968</ele>
        <time>2025-06-09T14:30:25Z</time>
      </trkpt>
      <trkpt lat="46.51345" lon="6.01766">
        <ele>967</ele>
        <time>2025-06-09T14:31:10Z</time>
      </trkpt>
      <trkpt lat="46.51349" lon="6.01759">
        <ele>966</ele>
        <time>2025-06-09T14:31:21Z</time>
      </trkpt>
      <trkpt lat="46.51346" lon="6.01761">
        <ele>966</ele>
        <time>2025-06-09T14:31:25Z</time>
      </trkpt>
      <trkpt lat="46.51347" lon="6.01759">
        <ele>966</ele>
        <time>2025-06-09T14:31:29Z</time>
      </trkpt>
      <trkpt lat="46.51344" lon="6.01761">
        <ele>969</ele>
        <time>2025-06-09T14:31:46Z</time>
      </trkpt>
      <trkpt lat="46.51345" lon="6.01761">
        <ele>971</ele>
        <time>2025-06-09T14:32:37Z</time>
      </trkpt>
      <trkpt lat="46.51347" lon="6.01761">
        <ele>972</ele>
        <time>2025-06-09T14:32:40Z</time>
      </trkpt>
      <trkpt lat="46.51349" lon="6.01758">
        <ele>973</ele>
        <time>2025-06-09T14:32:43Z</time>
      </trkpt>
      <trkpt lat="46.51352" lon="6.01755">
        <ele>973</ele>
        <time>2025-06-09T14:32:46Z</time>
      </trkpt>
      <trkpt lat="46.51355" lon="6.01752">
        <ele>973</ele>
        <time>2025-06-09T14:32:49Z</time>
      </trkpt>
      <trkpt lat="46.51357" lon="6.0175">
        <ele>973</ele>
        <time>2025-06-09T14:32:52Z</time>
      </trkpt>
      <trkpt lat="46.51361" lon="6.0175">
        <ele>974</ele>
        <time>2025-06-09T14:32:56Z</time>
      </trkpt>
      <trkpt lat="46.51363" lon="6.01748">
        <ele>974</ele>
        <time>2025-06-09T14:33:01Z</time>
      </trkpt>
      <trkpt lat="46.51364" lon="6.01745">
        <ele>973</ele>
        <time>2025-06-09T14:33:06Z</time>
      </trkpt>
      <trkpt lat="46.51365" lon="6.01741">
        <ele>971</ele>
        <time>2025-06-09T14:33:16Z</time>
      </trkpt>
      <trkpt lat="46.51368" lon="6.01739">
        <ele>971</ele>
        <time>2025-06-09T14:33:21Z</time>
      </trkpt>
      <trkpt lat="46.5137" lon="6.01738">
        <ele>971</ele>
        <time>2025-06-09T14:33:26Z</time>
      </trkpt>
      <trkpt lat="46.51373" lon="6.01736">
        <ele>971</ele>
        <time>2025-06-09T14:33:32Z</time>
      </trkpt>
      <trkpt lat="46.51375" lon="6.01733">
        <ele>971</ele>
        <time>2025-06-09T14:33:38Z</time>
      </trkpt>
      <trkpt lat="46.51377" lon="6.0173">
        <ele>972</ele>
        <time>2025-06-09T14:33:43Z</time>
      </trkpt>
      <trkpt lat="46.5138" lon="6.01728">
        <ele>973</ele>
        <time>2025-06-09T14:33:48Z</time>
      </trkpt>
      <trkpt lat="46.51383" lon="6.01727">
        <ele>974</ele>
        <time>2025-06-09T14:33:53Z</time>
      </trkpt>
      <trkpt lat="46.51386" lon="6.01726">
        <ele>975</ele>
        <time>2025-06-09T14:33:59Z</time>
      </trkpt>
      <trkpt lat="46.51389" lon="6.01726">
        <ele>976</ele>
        <time>2025-06-09T14:34:04Z</time>
      </trkpt>
      <trkpt lat="46.51392" lon="6.01726">
        <ele>977</ele>
        <time>2025-06-09T14:34:07Z</time>
      </trkpt>
      <trkpt lat="46.51395" lon="6.01726">
        <ele>976</ele>
        <time>2025-06-09T14:34:10Z</time>
      </trkpt>
      <trkpt lat="46.51398" lon="6.01726">
        <ele>976</ele>
        <time>2025-06-09T14:34:13Z</time>
      </trkpt>
      <trkpt lat="46.51401" lon="6.01726">
        <ele>975</ele>
        <time>2025-06-09T14:34:16Z</time>
      </trkpt>
      <trkpt lat="46.51404" lon="6.01726">
        <ele>975</ele>
        <time>2025-06-09T14:34:20Z</time>
      </trkpt>
      <trkpt lat="46.51407" lon="6.01726">
        <ele>974</ele>
        <time>2025-06-09T14:34:25Z</time>
      </trkpt>
      <trkpt lat="46.5141" lon="6.01725">
        <ele>973</ele>
        <time>2025-06-09T14:34:28Z</time>
      </trkpt>
      <trkpt lat="46.51412" lon="6.01723">
        <ele>972</ele>
        <time>2025-06-09T14:34:31Z</time>
      </trkpt>
      <trkpt lat="46.51415" lon="6.01723">
        <ele>972</ele>
        <time>2025-06-09T14:34:35Z</time>
      </trkpt>
      <trkpt lat="46.51417" lon="6.01715">
        <ele>971</ele>
        <time>2025-06-09T14:35:05Z</time>
      </trkpt>
      <trkpt lat="46.51415" lon="6.01715">
        <ele>971</ele>
        <time>2025-06-09T14:35:09Z</time>
      </trkpt>
      <trkpt lat="46.51413" lon="6.01715">
        <ele>971</ele>
        <time>2025-06-09T14:35:11Z</time>
      </trkpt>
      <trkpt lat="46.5141" lon="6.01716">
        <ele>972</ele>
        <time>2025-06-09T14:35:15Z</time>
      </trkpt>
      <trkpt lat="46.51407" lon="6.01715">
        <ele>973</ele>
        <time>2025-06-09T14:35:22Z</time>
      </trkpt>
      <trkpt lat="46.51404" lon="6.01715">
        <ele>974</ele>
        <time>2025-06-09T14:35:25Z</time>
      </trkpt>
      <trkpt lat="46.51401" lon="6.01714">
        <ele>975</ele>
        <time>2025-06-09T14:35:28Z</time>
      </trkpt>
      <trkpt lat="46.51398" lon="6.01714">
        <ele>976</ele>
        <time>2025-06-09T14:35:36Z</time>
      </trkpt>
      <trkpt lat="46.51395" lon="6.01712">
        <ele>977</ele>
        <time>2025-06-09T14:35:42Z</time>
      </trkpt>
      <trkpt lat="46.51394" lon="6.01708">
        <ele>977</ele>
        <time>2025-06-09T14:36:07Z</time>
      </trkpt>
      <trkpt lat="46.51395" lon="6.01704">
        <ele>977</ele>
        <time>2025-06-09T14:36:12Z</time>
      </trkpt>
      <trkpt lat="46.51396" lon="6.017">
        <ele>977</ele>
        <time>2025-06-09T14:36:15Z</time>
      </trkpt>
      <trkpt lat="46.51397" lon="6.01696">
        <ele>977</ele>
        <time>2025-06-09T14:36:20Z</time>
      </trkpt>
      <trkpt lat="46.51399" lon="6.01688">
        <ele>977</ele>
        <time>2025-06-09T14:36:51Z</time>
      </trkpt>
      <trkpt lat="46.51399" lon="6.01685">
        <ele>977</ele>
        <time>2025-06-09T14:36:54Z</time>
      </trkpt>
      <trkpt lat="46.51399" lon="6.01681">
        <ele>977</ele>
        <time>2025-06-09T14:36:56Z</time>
      </trkpt>
      <trkpt lat="46.51399" lon="6.01676">
        <ele>976</ele>
        <time>2025-06-09T14:36:59Z</time>
      </trkpt>
      <trkpt lat="46.51398" lon="6.01672">
        <ele>976</ele>
        <time>2025-06-09T14:37:02Z</time>
      </trkpt>
      <trkpt lat="46.51397" lon="6.01668">
        <ele>976</ele>
        <time>2025-06-09T14:37:08Z</time>
      </trkpt>
      <trkpt lat="46.51397" lon="6.01664">
        <ele>975</ele>
        <time>2025-06-09T14:37:13Z</time>
      </trkpt>
      <trkpt lat="46.51397" lon="6.0166">
        <ele>974</ele>
        <time>2025-06-09T14:37:17Z</time>
      </trkpt>
      <trkpt lat="46.51398" lon="6.01656">
        <ele>973</ele>
        <time>2025-06-09T14:37:22Z</time>
      </trkpt>
      <trkpt lat="46.51397" lon="6.01652">
        <ele>972</ele>
        <time>2025-06-09T14:37:29Z</time>
      </trkpt>
      <trkpt lat="46.51397" lon="6.01647">
        <ele>972</ele>
        <time>2025-06-09T14:37:33Z</time>
      </trkpt>
      <trkpt lat="46.51397" lon="6.01643">
        <ele>970</ele>
        <time>2025-06-09T14:37:39Z</time>
      </trkpt>
      <trkpt lat="46.51397" lon="6.01638">
        <ele>969</ele>
        <time>2025-06-09T14:37:45Z</time>
      </trkpt>
      <trkpt lat="46.51396" lon="6.01635">
        <ele>969</ele>
        <time>2025-06-09T14:37:59Z</time>
      </trkpt>
      <trkpt lat="46.51396" lon="6.0163">
        <ele>969</ele>
        <time>2025-06-09T14:38:01Z</time>
      </trkpt>
      <trkpt lat="46.51397" lon="6.01626">
        <ele>969</ele>
        <time>2025-06-09T14:38:03Z</time>
      </trkpt>
      <trkpt lat="46.51397" lon="6.01622">
        <ele>969</ele>
        <time>2025-06-09T14:38:06Z</time>
      </trkpt>
      <trkpt lat="46.51397" lon="6.01617">
        <ele>969</ele>
        <time>2025-06-09T14:38:09Z</time>
      </trkpt>
      <trkpt lat="46.51397" lon="6.01613">
        <ele>969</ele>
        <time>2025-06-09T14:38:13Z</time>
      </trkpt>
      <trkpt lat="46.51397" lon="6.01608">
        <ele>969</ele>
        <time>2025-06-09T14:38:16Z</time>
      </trkpt>
      <trkpt lat="46.51397" lon="6.01604">
        <ele>969</ele>
        <time>2025-06-09T14:38:19Z</time>
      </trkpt>
      <trkpt lat="46.51396" lon="6.01599">
        <ele>969</ele>
        <time>2025-06-09T14:38:22Z</time>
      </trkpt>
      <trkpt lat="46.51395" lon="6.01595">
        <ele>969</ele>
        <time>2025-06-09T14:38:25Z</time>
      </trkpt>
      <trkpt lat="46.51392" lon="6.01592">
        <ele>969</ele>
        <time>2025-06-09T14:38:29Z</time>
      </trkpt>
      <trkpt lat="46.51391" lon="6.01589">
        <ele>969</ele>
        <time>2025-06-09T14:38:33Z</time>
      </trkpt>
      <trkpt lat="46.5139" lon="6.01585">
        <ele>968</ele>
        <time>2025-06-09T14:38:36Z</time>
      </trkpt>
      <trkpt lat="46.5139" lon="6.01581">
        <ele>968</ele>
        <time>2025-06-09T14:38:39Z</time>
      </trkpt>
      <trkpt lat="46.5139" lon="6.01577">
        <ele>968</ele>
        <time>2025-06-09T14:38:43Z</time>
      </trkpt>
      <trkpt lat="46.5139" lon="6.01572">
        <ele>967</ele>
        <time>2025-06-09T14:38:47Z</time>
      </trkpt>
      <trkpt lat="46.5139" lon="6.01568">
        <ele>967</ele>
        <time>2025-06-09T14:38:51Z</time>
      </trkpt>
      <trkpt lat="46.51391" lon="6.01563">
        <ele>967</ele>
        <time>2025-06-09T14:38:55Z</time>
      </trkpt>
      <trkpt lat="46.51391" lon="6.01558">
        <ele>967</ele>
        <time>2025-06-09T14:38:59Z</time>
      </trkpt>
      <trkpt lat="46.51392" lon="6.01554">
        <ele>967</ele>
        <time>2025-06-09T14:39:04Z</time>
      </trkpt>
      <trkpt lat="46.51392" lon="6.01549">
        <ele>967</ele>
        <time>2025-06-09T14:39:08Z</time>
      </trkpt>
      <trkpt lat="46.51392" lon="6.01545">
        <ele>968</ele>
        <time>2025-06-09T14:39:15Z</time>
      </trkpt>
      <trkpt lat="46.51391" lon="6.01538">
        <ele>968</ele>
        <time>2025-06-09T14:39:34Z</time>
      </trkpt>
      <trkpt lat="46.51391" lon="6.01533">
        <ele>968</ele>
        <time>2025-06-09T14:39:44Z</time>
      </trkpt>
      <trkpt lat="46.5139" lon="6.01533">
        <ele>968</ele>
        <time>2025-06-09T14:39:51Z</time>
      </trkpt>
      <trkpt lat="46.51388" lon="6.0153">
        <ele>970</ele>
        <time>2025-06-09T14:40:13Z</time>
      </trkpt>
      <trkpt lat="46.5139" lon="6.01531">
        <ele>970</ele>
        <time>2025-06-09T14:40:25Z</time>
      </trkpt>
      <trkpt lat="46.51389" lon="6.01529">
        <ele>971</ele>
        <time>2025-06-09T14:40:32Z</time>
      </trkpt>
      <trkpt lat="46.51389" lon="6.01525">
        <ele>971</ele>
        <time>2025-06-09T14:40:37Z</time>
      </trkpt>
      <trkpt lat="46.5139" lon="6.01521">
        <ele>971</ele>
        <time>2025-06-09T14:40:41Z</time>
      </trkpt>
      <trkpt lat="46.51392" lon="6.01516">
        <ele>971</ele>
        <time>2025-06-09T14:40:44Z</time>
      </trkpt>
      <trkpt lat="46.51393" lon="6.01513">
        <ele>971</ele>
        <time>2025-06-09T14:40:46Z</time>
      </trkpt>
      <trkpt lat="46.51395" lon="6.01508">
        <ele>971</ele>
        <time>2025-06-09T14:40:49Z</time>
      </trkpt>
      <trkpt lat="46.51396" lon="6.01504">
        <ele>971</ele>
        <time>2025-06-09T14:40:52Z</time>
      </trkpt>
      <trkpt lat="46.51396" lon="6.01499">
        <ele>971</ele>
        <time>2025-06-09T14:40:55Z</time>
      </trkpt>
      <trkpt lat="46.51397" lon="6.01495">
        <ele>972</ele>
        <time>2025-06-09T14:40:59Z</time>
      </trkpt>
      <trkpt lat="46.51396" lon="6.0149">
        <ele>972</ele>
        <time>2025-06-09T14:41:04Z</time>
      </trkpt>
      <trkpt lat="46.51396" lon="6.01486">
        <ele>972</ele>
        <time>2025-06-09T14:41:09Z</time>
      </trkpt>
      <trkpt lat="46.51397" lon="6.01482">
        <ele>972</ele>
        <time>2025-06-09T14:41:14Z</time>
      </trkpt>
      <trkpt lat="46.51399" lon="6.01479">
        <ele>972</ele>
        <time>2025-06-09T14:41:18Z</time>
      </trkpt>
      <trkpt lat="46.514" lon="6.01475">
        <ele>971</ele>
        <time>2025-06-09T14:41:24Z</time>
      </trkpt>
      <trkpt lat="46.51402" lon="6.01472">
        <ele>971</ele>
        <time>2025-06-09T14:41:30Z</time>
      </trkpt>
      <trkpt lat="46.51404" lon="6.01469">
        <ele>972</ele>
        <time>2025-06-09T14:41:35Z</time>
      </trkpt>
      <trkpt lat="46.51407" lon="6.01467">
        <ele>972</ele>
        <time>2025-06-09T14:41:40Z</time>
      </trkpt>
      <trkpt lat="46.5141" lon="6.01464">
        <ele>973</ele>
        <time>2025-06-09T14:41:45Z</time>
      </trkpt>
      <trkpt lat="46.51412" lon="6.01461">
        <ele>973</ele>
        <time>2025-06-09T14:41:49Z</time>
      </trkpt>
      <trkpt lat="46.51414" lon="6.01458">
        <ele>973</ele>
        <time>2025-06-09T14:41:54Z</time>
      </trkpt>
      <trkpt lat="46.51416" lon="6.01454">
        <ele>974</ele>
        <time>2025-06-09T14:41:58Z</time>
      </trkpt>
      <trkpt lat="46.51418" lon="6.0145">
        <ele>974</ele>
        <time>2025-06-09T14:42:02Z</time>
      </trkpt>
      <trkpt lat="46.51419" lon="6.01446">
        <ele>975</ele>
        <time>2025-06-09T14:42:05Z</time>
      </trkpt>
      <trkpt lat="46.5142" lon="6.01442">
        <ele>975</ele>
        <time>2025-06-09T14:42:08Z</time>
      </trkpt>
      <trkpt lat="46.51421" lon="6.01438">
        <ele>975</ele>
        <time>2025-06-09T14:42:12Z</time>
      </trkpt>
      <trkpt lat="46.51423" lon="6.01434">
        <ele>976</ele>
        <time>2025-06-09T14:42:16Z</time>
      </trkpt>
      <trkpt lat="46.51423" lon="6.01429">
        <ele>976</ele>
        <time>2025-06-09T14:42:19Z</time>
      </trkpt>
      <trkpt lat="46.51424" lon="6.01424">
        <ele>976</ele>
        <time>2025-06-09T14:42:22Z</time>
      </trkpt>
      <trkpt lat="46.51424" lon="6.01419">
        <ele>977</ele>
        <time>2025-06-09T14:42:25Z</time>
      </trkpt>
      <trkpt lat="46.51424" lon="6.01414">
        <ele>977</ele>
        <time>2025-06-09T14:42:28Z</time>
      </trkpt>
      <trkpt lat="46.51424" lon="6.0141">
        <ele>977</ele>
        <time>2025-06-09T14:42:32Z</time>
      </trkpt>
      <trkpt lat="46.51422" lon="6.01406">
        <ele>977</ele>
        <time>2025-06-09T14:42:37Z</time>
      </trkpt>
      <trkpt lat="46.51421" lon="6.01402">
        <ele>977</ele>
        <time>2025-06-09T14:42:41Z</time>
      </trkpt>
      <trkpt lat="46.51419" lon="6.01398">
        <ele>977</ele>
        <time>2025-06-09T14:42:44Z</time>
      </trkpt>
      <trkpt lat="46.51417" lon="6.01395">
        <ele>977</ele>
        <time>2025-06-09T14:42:48Z</time>
      </trkpt>
      <trkpt lat="46.51414" lon="6.01392">
        <ele>977</ele>
        <time>2025-06-09T14:42:52Z</time>
      </trkpt>
      <trkpt lat="46.51412" lon="6.01388">
        <ele>977</ele>
        <time>2025-06-09T14:42:56Z</time>
      </trkpt>
      <trkpt lat="46.51409" lon="6.01385">
        <ele>977</ele>
        <time>2025-06-09T14:42:59Z</time>
      </trkpt>
      <trkpt lat="46.51408" lon="6.01381">
        <ele>976</ele>
        <time>2025-06-09T14:43:03Z</time>
      </trkpt>
      <trkpt lat="46.51406" lon="6.01377">
        <ele>976</ele>
        <time>2025-06-09T14:43:07Z</time>
      </trkpt>
      <trkpt lat="46.51406" lon="6.01373">
        <ele>977</ele>
        <time>2025-06-09T14:43:11Z</time>
      </trkpt>
      <trkpt lat="46.51405" lon="6.01369">
        <ele>977</ele>
        <time>2025-06-09T14:43:15Z</time>
      </trkpt>
      <trkpt lat="46.51404" lon="6.01364">
        <ele>977</ele>
        <time>2025-06-09T14:43:19Z</time>
      </trkpt>
      <trkpt lat="46.51402" lon="6.01364">
        <ele>978</ele>
        <time>2025-06-09T14:43:41Z</time>
      </trkpt>
      <trkpt lat="46.514" lon="6.01364">
        <ele>978</ele>
        <time>2025-06-09T14:43:46Z</time>
      </trkpt>
      <trkpt lat="46.51394" lon="6.01362">
        <ele>977</ele>
        <time>2025-06-09T14:44:17Z</time>
      </trkpt>
      <trkpt lat="46.51395" lon="6.01361">
        <ele>977</ele>
        <time>2025-06-09T14:44:24Z</time>
      </trkpt>
      <trkpt lat="46.51398" lon="6.01362">
        <ele>978</ele>
        <time>2025-06-09T14:44:31Z</time>
      </trkpt>
      <trkpt lat="46.514" lon="6.01363">
        <ele>979</ele>
        <time>2025-06-09T14:44:41Z</time>
      </trkpt>
      <trkpt lat="46.514" lon="6.01365">
        <ele>981</ele>
        <time>2025-06-09T14:44:50Z</time>
      </trkpt>
      <trkpt lat="46.514" lon="6.01368">
        <ele>982</ele>
        <time>2025-06-09T14:45:15Z</time>
      </trkpt>
      <trkpt lat="46.51401" lon="6.01372">
        <ele>983</ele>
        <time>2025-06-09T14:45:22Z</time>
      </trkpt>
      <trkpt lat="46.51401" lon="6.01375">
        <ele>984</ele>
        <time>2025-06-09T14:45:27Z</time>
      </trkpt>
      <trkpt lat="46.51399" lon="6.01374">
        <ele>984</ele>
        <time>2025-06-09T14:47:03Z</time>
      </trkpt>
      <trkpt lat="46.51396" lon="6.01365">
        <ele>984</ele>
        <time>2025-06-09T14:47:33Z</time>
      </trkpt>
      <trkpt lat="46.51396" lon="6.01364">
        <ele>984</ele>
        <time>2025-06-09T14:47:55Z</time>
      </trkpt>
      <trkpt lat="46.51398" lon="6.01364">
        <ele>985</ele>
        <time>2025-06-09T14:47:58Z</time>
      </trkpt>
      <trkpt lat="46.514" lon="6.01362">
        <ele>985</ele>
        <time>2025-06-09T14:48:02Z</time>
      </trkpt>
      <trkpt lat="46.51403" lon="6.01359">
        <ele>985</ele>
        <time>2025-06-09T14:48:06Z</time>
      </trkpt>
      <trkpt lat="46.51404" lon="6.01356">
        <ele>985</ele>
        <time>2025-06-09T14:48:10Z</time>
      </trkpt>
      <trkpt lat="46.51404" lon="6.01351">
        <ele>985</ele>
        <time>2025-06-09T14:48:14Z</time>
      </trkpt>
      <trkpt lat="46.51404" lon="6.01347">
        <ele>986</ele>
        <time>2025-06-09T14:48:19Z</time>
      </trkpt>
      <trkpt lat="46.51404" lon="6.01343">
        <ele>986</ele>
        <time>2025-06-09T14:48:23Z</time>
      </trkpt>
      <trkpt lat="46.51403" lon="6.01338">
        <ele>986</ele>
        <time>2025-06-09T14:48:29Z</time>
      </trkpt>
      <trkpt lat="46.51403" lon="6.01334">
        <ele>987</ele>
        <time>2025-06-09T14:48:35Z</time>
      </trkpt>
      <trkpt lat="46.51403" lon="6.01329">
        <ele>987</ele>
        <time>2025-06-09T14:48:39Z</time>
      </trkpt>
      <trkpt lat="46.51402" lon="6.01325">
        <ele>988</ele>
        <time>2025-06-09T14:48:43Z</time>
      </trkpt>
      <trkpt lat="46.51402" lon="6.01321">
        <ele>988</ele>
        <time>2025-06-09T14:48:47Z</time>
      </trkpt>
      <trkpt lat="46.51401" lon="6.01316">
        <ele>988</ele>
        <time>2025-06-09T14:48:51Z</time>
      </trkpt>
      <trkpt lat="46.51401" lon="6.01311">
        <ele>988</ele>
        <time>2025-06-09T14:48:55Z</time>
      </trkpt>
      <trkpt lat="46.51401" lon="6.01307">
        <ele>989</ele>
        <time>2025-06-09T14:49:00Z</time>
      </trkpt>
      <trkpt lat="46.514" lon="6.01302">
        <ele>989</ele>
        <time>2025-06-09T14:49:06Z</time>
      </trkpt>
      <trkpt lat="46.51398" lon="6.01299">
        <ele>990</ele>
        <time>2025-06-09T14:49:13Z</time>
      </trkpt>
      <trkpt lat="46.51396" lon="6.01296">
        <ele>991</ele>
        <time>2025-06-09T14:49:17Z</time>
      </trkpt>
      <trkpt lat="46.51393" lon="6.01293">
        <ele>992</ele>
        <time>2025-06-09T14:49:22Z</time>
      </trkpt>
      <trkpt lat="46.51391" lon="6.0129">
        <ele>993</ele>
        <time>2025-06-09T14:49:26Z</time>
      </trkpt>
      <trkpt lat="46.5139" lon="6.01287">
        <ele>993</ele>
        <time>2025-06-09T14:49:30Z</time>
      </trkpt>
      <trkpt lat="46.51388" lon="6.01284">
        <ele>994</ele>
        <time>2025-06-09T14:49:35Z</time>
      </trkpt>
      <trkpt lat="46.51386" lon="6.01281">
        <ele>994</ele>
        <time>2025-06-09T14:49:40Z</time>
      </trkpt>
      <trkpt lat="46.51383" lon="6.01278">
        <ele>995</ele>
        <time>2025-06-09T14:49:44Z</time>
      </trkpt>
      <trkpt lat="46.5138" lon="6.01277">
        <ele>995</ele>
        <time>2025-06-09T14:49:47Z</time>
      </trkpt>
      <trkpt lat="46.51378" lon="6.01276">
        <ele>996</ele>
        <time>2025-06-09T14:49:51Z</time>
      </trkpt>
      <trkpt lat="46.51375" lon="6.01274">
        <ele>996</ele>
        <time>2025-06-09T14:49:56Z</time>
      </trkpt>
      <trkpt lat="46.51372" lon="6.01272">
        <ele>996</ele>
        <time>2025-06-09T14:49:59Z</time>
      </trkpt>
      <trkpt lat="46.5137" lon="6.0127">
        <ele>996</ele>
        <time>2025-06-09T14:50:02Z</time>
      </trkpt>
      <trkpt lat="46.51367" lon="6.01268">
        <ele>997</ele>
        <time>2025-06-09T14:50:06Z</time>
      </trkpt>
      <trkpt lat="46.51364" lon="6.01267">
        <ele>997</ele>
        <time>2025-06-09T14:50:11Z</time>
      </trkpt>
      <trkpt lat="46.51361" lon="6.01266">
        <ele>996</ele>
        <time>2025-06-09T14:50:16Z</time>
      </trkpt>
      <trkpt lat="46.51359" lon="6.01266">
        <ele>996</ele>
        <time>2025-06-09T14:50:20Z</time>
      </trkpt>
      <trkpt lat="46.51356" lon="6.01265">
        <ele>996</ele>
        <time>2025-06-09T14:50:24Z</time>
      </trkpt>
      <trkpt lat="46.51353" lon="6.01264">
        <ele>996</ele>
        <time>2025-06-09T14:50:29Z</time>
      </trkpt>
      <trkpt lat="46.51349" lon="6.01263">
        <ele>996</ele>
        <time>2025-06-09T14:50:34Z</time>
      </trkpt>
      <trkpt lat="46.51346" lon="6.01262">
        <ele>996</ele>
        <time>2025-06-09T14:50:38Z</time>
      </trkpt>
      <trkpt lat="46.51344" lon="6.01261">
        <ele>996</ele>
        <time>2025-06-09T14:50:43Z</time>
      </trkpt>
      <trkpt lat="46.51341" lon="6.01259">
        <ele>996</ele>
        <time>2025-06-09T14:50:49Z</time>
      </trkpt>
      <trkpt lat="46.51338" lon="6.01259">
        <ele>996</ele>
        <time>2025-06-09T14:50:55Z</time>
      </trkpt>
      <trkpt lat="46.51335" lon="6.01257">
        <ele>997</ele>
        <time>2025-06-09T14:51:00Z</time>
      </trkpt>
      <trkpt lat="46.51329" lon="6.01256">
        <ele>997</ele>
        <time>2025-06-09T14:51:09Z</time>
      </trkpt>
      <trkpt lat="46.51325" lon="6.01255">
        <ele>997</ele>
        <time>2025-06-09T14:51:13Z</time>
      </trkpt>
      <trkpt lat="46.51321" lon="6.01254">
        <ele>998</ele>
        <time>2025-06-09T14:51:17Z</time>
      </trkpt>
      <trkpt lat="46.51318" lon="6.01253">
        <ele>998</ele>
        <time>2025-06-09T14:51:22Z</time>
      </trkpt>
      <trkpt lat="46.51315" lon="6.01251">
        <ele>998</ele>
        <time>2025-06-09T14:51:26Z</time>
      </trkpt>
      <trkpt lat="46.51312" lon="6.01249">
        <ele>997</ele>
        <time>2025-06-09T14:51:29Z</time>
      </trkpt>
      <trkpt lat="46.51309" lon="6.01248">
        <ele>998</ele>
        <time>2025-06-09T14:51:33Z</time>
      </trkpt>
      <trkpt lat="46.51306" lon="6.01248">
        <ele>998</ele>
        <time>2025-06-09T14:51:36Z</time>
      </trkpt>
      <trkpt lat="46.51303" lon="6.01247">
        <ele>998</ele>
        <time>2025-06-09T14:51:39Z</time>
      </trkpt>
      <trkpt lat="46.51299" lon="6.01246">
        <ele>998</ele>
        <time>2025-06-09T14:51:44Z</time>
      </trkpt>
      <trkpt lat="46.51296" lon="6.01245">
        <ele>998</ele>
        <time>2025-06-09T14:51:48Z</time>
      </trkpt>
      <trkpt lat="46.51294" lon="6.01244">
        <ele>998</ele>
        <time>2025-06-09T14:51:52Z</time>
      </trkpt>
      <trkpt lat="46.51291" lon="6.01242">
        <ele>999</ele>
        <time>2025-06-09T14:51:58Z</time>
      </trkpt>
      <trkpt lat="46.51289" lon="6.01239">
        <ele>1000</ele>
        <time>2025-06-09T14:52:06Z</time>
      </trkpt>
      <trkpt lat="46.51288" lon="6.01235">
        <ele>1001</ele>
        <time>2025-06-09T14:52:12Z</time>
      </trkpt>
      <trkpt lat="46.51286" lon="6.01232">
        <ele>1002</ele>
        <time>2025-06-09T14:52:18Z</time>
      </trkpt>
      <trkpt lat="46.51284" lon="6.01228">
        <ele>1002</ele>
        <time>2025-06-09T14:52:23Z</time>
      </trkpt>
      <trkpt lat="46.51283" lon="6.01224">
        <ele>1003</ele>
        <time>2025-06-09T14:52:28Z</time>
      </trkpt>
      <trkpt lat="46.51281" lon="6.01221">
        <ele>1003</ele>
        <time>2025-06-09T14:52:34Z</time>
      </trkpt>
      <trkpt lat="46.51279" lon="6.01217">
        <ele>1004</ele>
        <time>2025-06-09T14:52:39Z</time>
      </trkpt>
      <trkpt lat="46.51278" lon="6.01213">
        <ele>1004</ele>
        <time>2025-06-09T14:52:43Z</time>
      </trkpt>
      <trkpt lat="46.51276" lon="6.01209">
        <ele>1004</ele>
        <time>2025-06-09T14:52:48Z</time>
      </trkpt>
      <trkpt lat="46.51275" lon="6.01205">
        <ele>1004</ele>
        <time>2025-06-09T14:52:53Z</time>
      </trkpt>
      <trkpt lat="46.51274" lon="6.01201">
        <ele>1005</ele>
        <time>2025-06-09T14:52:58Z</time>
      </trkpt>
      <trkpt lat="46.51271" lon="6.01198">
        <ele>1005</ele>
        <time>2025-06-09T14:53:02Z</time>
      </trkpt>
      <trkpt lat="46.51269" lon="6.01197">
        <ele>1006</ele>
        <time>2025-06-09T14:53:06Z</time>
      </trkpt>
      <trkpt lat="46.51265" lon="6.01196">
        <ele>1006</ele>
        <time>2025-06-09T14:53:12Z</time>
      </trkpt>
      <trkpt lat="46.51263" lon="6.01193">
        <ele>1006</ele>
        <time>2025-06-09T14:53:16Z</time>
      </trkpt>
      <trkpt lat="46.5126" lon="6.01191">
        <ele>1005</ele>
        <time>2025-06-09T14:53:20Z</time>
      </trkpt>
      <trkpt lat="46.51257" lon="6.01188">
        <ele>1005</ele>
        <time>2025-06-09T14:53:23Z</time>
      </trkpt>
      <trkpt lat="46.51255" lon="6.01185">
        <ele>1005</ele>
        <time>2025-06-09T14:53:27Z</time>
      </trkpt>
      <trkpt lat="46.51253" lon="6.01183">
        <ele>1004</ele>
        <time>2025-06-09T14:53:30Z</time>
      </trkpt>
      <trkpt lat="46.51251" lon="6.0118">
        <ele>1004</ele>
        <time>2025-06-09T14:53:34Z</time>
      </trkpt>
      <trkpt lat="46.51249" lon="6.01177">
        <ele>1004</ele>
        <time>2025-06-09T14:53:38Z</time>
      </trkpt>
      <trkpt lat="46.51246" lon="6.01174">
        <ele>1004</ele>
        <time>2025-06-09T14:53:42Z</time>
      </trkpt>
      <trkpt lat="46.51243" lon="6.01171">
        <ele>1004</ele>
        <time>2025-06-09T14:53:47Z</time>
      </trkpt>
      <trkpt lat="46.51241" lon="6.01168">
        <ele>1004</ele>
        <time>2025-06-09T14:53:50Z</time>
      </trkpt>
      <trkpt lat="46.51238" lon="6.01168">
        <ele>1004</ele>
        <time>2025-06-09T14:53:56Z</time>
      </trkpt>
      <trkpt lat="46.51236" lon="6.01167">
        <ele>1005</ele>
        <time>2025-06-09T14:54:11Z</time>
      </trkpt>
      <trkpt lat="46.51234" lon="6.01164">
        <ele>1005</ele>
        <time>2025-06-09T14:54:16Z</time>
      </trkpt>
      <trkpt lat="46.51232" lon="6.01161">
        <ele>1005</ele>
        <time>2025-06-09T14:54:21Z</time>
      </trkpt>
      <trkpt lat="46.51231" lon="6.01158">
        <ele>1005</ele>
        <time>2025-06-09T14:54:25Z</time>
      </trkpt>
      <trkpt lat="46.5123" lon="6.01153">
        <ele>1005</ele>
        <time>2025-06-09T14:54:29Z</time>
      </trkpt>
      <trkpt lat="46.5123" lon="6.01148">
        <ele>1005</ele>
        <time>2025-06-09T14:54:33Z</time>
      </trkpt>
      <trkpt lat="46.51229" lon="6.01144">
        <ele>1005</ele>
        <time>2025-06-09T14:54:38Z</time>
      </trkpt>
      <trkpt lat="46.51229" lon="6.01139">
        <ele>1004</ele>
        <time>2025-06-09T14:54:42Z</time>
      </trkpt>
      <trkpt lat="46.51229" lon="6.01135">
        <ele>1004</ele>
        <time>2025-06-09T14:54:45Z</time>
      </trkpt>
      <trkpt lat="46.51229" lon="6.01131">
        <ele>1004</ele>
        <time>2025-06-09T14:54:48Z</time>
      </trkpt>
      <trkpt lat="46.51228" lon="6.01126">
        <ele>1004</ele>
        <time>2025-06-09T14:54:52Z</time>
      </trkpt>
      <trkpt lat="46.51229" lon="6.01121">
        <ele>1003</ele>
        <time>2025-06-09T14:54:55Z</time>
      </trkpt>
      <trkpt lat="46.51229" lon="6.01116">
        <ele>1003</ele>
        <time>2025-06-09T14:54:58Z</time>
      </trkpt>
      <trkpt lat="46.5123" lon="6.01112">
        <ele>1003</ele>
        <time>2025-06-09T14:55:01Z</time>
      </trkpt>
      <trkpt lat="46.51229" lon="6.01107">
        <ele>1003</ele>
        <time>2025-06-09T14:55:05Z</time>
      </trkpt>
      <trkpt lat="46.51229" lon="6.01103">
        <ele>1003</ele>
        <time>2025-06-09T14:55:10Z</time>
      </trkpt>
      <trkpt lat="46.51228" lon="6.01099">
        <ele>1003</ele>
        <time>2025-06-09T14:55:13Z</time>
      </trkpt>
      <trkpt lat="46.51228" lon="6.01095">
        <ele>1003</ele>
        <time>2025-06-09T14:55:16Z</time>
      </trkpt>
      <trkpt lat="46.51227" lon="6.01091">
        <ele>1003</ele>
        <time>2025-06-09T14:55:19Z</time>
      </trkpt>
      <trkpt lat="46.51227" lon="6.01086">
        <ele>1003</ele>
        <time>2025-06-09T14:55:22Z</time>
      </trkpt>
      <trkpt lat="46.51228" lon="6.01081">
        <ele>1003</ele>
        <time>2025-06-09T14:55:25Z</time>
      </trkpt>
      <trkpt lat="46.51227" lon="6.01077">
        <ele>1003</ele>
        <time>2025-06-09T14:55:28Z</time>
      </trkpt>
      <trkpt lat="46.51227" lon="6.01072">
        <ele>1003</ele>
        <time>2025-06-09T14:55:32Z</time>
      </trkpt>
      <trkpt lat="46.51228" lon="6.01068">
        <ele>1003</ele>
        <time>2025-06-09T14:55:36Z</time>
      </trkpt>
      <trkpt lat="46.5123" lon="6.01064">
        <ele>1003</ele>
        <time>2025-06-09T14:55:39Z</time>
      </trkpt>
      <trkpt lat="46.51231" lon="6.0106">
        <ele>1003</ele>
        <time>2025-06-09T14:55:44Z</time>
      </trkpt>
      <trkpt lat="46.5123" lon="6.01054">
        <ele>1003</ele>
        <time>2025-06-09T14:55:50Z</time>
      </trkpt>
      <trkpt lat="46.51231" lon="6.01052">
        <ele>1003</ele>
        <time>2025-06-09T14:55:54Z</time>
      </trkpt>
      <trkpt lat="46.51232" lon="6.01048">
        <ele>1003</ele>
        <time>2025-06-09T14:55:57Z</time>
      </trkpt>
      <trkpt lat="46.51233" lon="6.01043">
        <ele>1003</ele>
        <time>2025-06-09T14:56:00Z</time>
      </trkpt>
      <trkpt lat="46.51235" lon="6.0104">
        <ele>1004</ele>
        <time>2025-06-09T14:56:03Z</time>
      </trkpt>
      <trkpt lat="46.51238" lon="6.01037">
        <ele>1005</ele>
        <time>2025-06-09T14:56:06Z</time>
      </trkpt>
      <trkpt lat="46.5124" lon="6.01034">
        <ele>1006</ele>
        <time>2025-06-09T14:56:10Z</time>
      </trkpt>
      <trkpt lat="46.51243" lon="6.01031">
        <ele>1007</ele>
        <time>2025-06-09T14:56:15Z</time>
      </trkpt>
      <trkpt lat="46.51245" lon="6.01027">
        <ele>1008</ele>
        <time>2025-06-09T14:56:19Z</time>
      </trkpt>
      <trkpt lat="46.51247" lon="6.01023">
        <ele>1008</ele>
        <time>2025-06-09T14:56:23Z</time>
      </trkpt>
      <trkpt lat="46.51248" lon="6.01019">
        <ele>1009</ele>
        <time>2025-06-09T14:56:26Z</time>
      </trkpt>
      <trkpt lat="46.5125" lon="6.01015">
        <ele>1009</ele>
        <time>2025-06-09T14:56:30Z</time>
      </trkpt>
      <trkpt lat="46.51251" lon="6.01011">
        <ele>1009</ele>
        <time>2025-06-09T14:56:34Z</time>
      </trkpt>
      <trkpt lat="46.51252" lon="6.01007">
        <ele>1009</ele>
        <time>2025-06-09T14:56:38Z</time>
      </trkpt>
      <trkpt lat="46.51253" lon="6.01003">
        <ele>1009</ele>
        <time>2025-06-09T14:56:43Z</time>
      </trkpt>
      <trkpt lat="46.51254" lon="6.01">
        <ele>1010</ele>
        <time>2025-06-09T14:56:55Z</time>
      </trkpt>
      <trkpt lat="46.51256" lon="6.00996">
        <ele>1010</ele>
        <time>2025-06-09T14:57:00Z</time>
      </trkpt>
      <trkpt lat="46.51257" lon="6.00992">
        <ele>1010</ele>
        <time>2025-06-09T14:57:04Z</time>
      </trkpt>
      <trkpt lat="46.51259" lon="6.00988">
        <ele>1010</ele>
        <time>2025-06-09T14:57:09Z</time>
      </trkpt>
      <trkpt lat="46.51261" lon="6.00985">
        <ele>1010</ele>
        <time>2025-06-09T14:57:13Z</time>
      </trkpt>
      <trkpt lat="46.51263" lon="6.00982">
        <ele>1011</ele>
        <time>2025-06-09T14:57:17Z</time>
      </trkpt>
      <trkpt lat="46.51266" lon="6.00979">
        <ele>1011</ele>
        <time>2025-06-09T14:57:20Z</time>
      </trkpt>
      <trkpt lat="46.51268" lon="6.00977">
        <ele>1012</ele>
        <time>2025-06-09T14:57:23Z</time>
      </trkpt>
      <trkpt lat="46.5127" lon="6.00974">
        <ele>1012</ele>
        <time>2025-06-09T14:57:28Z</time>
      </trkpt>
      <trkpt lat="46.51272" lon="6.00971">
        <ele>1013</ele>
        <time>2025-06-09T14:57:33Z</time>
      </trkpt>
      <trkpt lat="46.51275" lon="6.00969">
        <ele>1013</ele>
        <time>2025-06-09T14:57:36Z</time>
      </trkpt>
      <trkpt lat="46.51277" lon="6.00967">
        <ele>1014</ele>
        <time>2025-06-09T14:57:40Z</time>
      </trkpt>
      <trkpt lat="46.5128" lon="6.00965">
        <ele>1015</ele>
        <time>2025-06-09T14:57:44Z</time>
      </trkpt>
      <trkpt lat="46.51283" lon="6.00964">
        <ele>1015</ele>
        <time>2025-06-09T14:57:47Z</time>
      </trkpt>
      <trkpt lat="46.51285" lon="6.00961">
        <ele>1016</ele>
        <time>2025-06-09T14:57:52Z</time>
      </trkpt>
      <trkpt lat="46.51287" lon="6.00959">
        <ele>1017</ele>
        <time>2025-06-09T14:57:57Z</time>
      </trkpt>
      <trkpt lat="46.5129" lon="6.00956">
        <ele>1017</ele>
        <time>2025-06-09T14:58:02Z</time>
      </trkpt>
      <trkpt lat="46.51292" lon="6.00953">
        <ele>1017</ele>
        <time>2025-06-09T14:58:06Z</time>
      </trkpt>
      <trkpt lat="46.51295" lon="6.0095">
        <ele>1017</ele>
        <time>2025-06-09T14:58:09Z</time>
      </trkpt>
      <trkpt lat="46.51297" lon="6.00947">
        <ele>1017</ele>
        <time>2025-06-09T14:58:13Z</time>
      </trkpt>
      <trkpt lat="46.51299" lon="6.00943">
        <ele>1017</ele>
        <time>2025-06-09T14:58:16Z</time>
      </trkpt>
      <trkpt lat="46.51301" lon="6.0094">
        <ele>1017</ele>
        <time>2025-06-09T14:58:19Z</time>
      </trkpt>
      <trkpt lat="46.51303" lon="6.00937">
        <ele>1017</ele>
        <time>2025-06-09T14:58:23Z</time>
      </trkpt>
      <trkpt lat="46.51305" lon="6.00933">
        <ele>1018</ele>
        <time>2025-06-09T14:58:27Z</time>
      </trkpt>
      <trkpt lat="46.51307" lon="6.0093">
        <ele>1018</ele>
        <time>2025-06-09T14:58:31Z</time>
      </trkpt>
      <trkpt lat="46.51309" lon="6.00927">
        <ele>1018</ele>
        <time>2025-06-09T14:58:36Z</time>
      </trkpt>
      <trkpt lat="46.51312" lon="6.00924">
        <ele>1018</ele>
        <time>2025-06-09T14:58:39Z</time>
      </trkpt>
      <trkpt lat="46.51314" lon="6.00921">
        <ele>1018</ele>
        <time>2025-06-09T14:58:43Z</time>
      </trkpt>
      <trkpt lat="46.51316" lon="6.00917">
        <ele>1018</ele>
        <time>2025-06-09T14:58:47Z</time>
      </trkpt>
      <trkpt lat="46.51318" lon="6.00913">
        <ele>1019</ele>
        <time>2025-06-09T14:58:51Z</time>
      </trkpt>
      <trkpt lat="46.5132" lon="6.00909">
        <ele>1019</ele>
        <time>2025-06-09T14:58:55Z</time>
      </trkpt>
      <trkpt lat="46.51322" lon="6.00905">
        <ele>1019</ele>
        <time>2025-06-09T14:58:59Z</time>
      </trkpt>
      <trkpt lat="46.51323" lon="6.00901">
        <ele>1019</ele>
        <time>2025-06-09T14:59:03Z</time>
      </trkpt>
      <trkpt lat="46.51325" lon="6.00897">
        <ele>1019</ele>
        <time>2025-06-09T14:59:06Z</time>
      </trkpt>
      <trkpt lat="46.51326" lon="6.00893">
        <ele>1019</ele>
        <time>2025-06-09T14:59:09Z</time>
      </trkpt>
      <trkpt lat="46.51327" lon="6.00888">
        <ele>1019</ele>
        <time>2025-06-09T14:59:13Z</time>
      </trkpt>
      <trkpt lat="46.51329" lon="6.00884">
        <ele>1020</ele>
        <time>2025-06-09T14:59:17Z</time>
      </trkpt>
      <trkpt lat="46.5133" lon="6.0088">
        <ele>1020</ele>
        <time>2025-06-09T14:59:21Z</time>
      </trkpt>
      <trkpt lat="46.51331" lon="6.00875">
        <ele>1020</ele>
        <time>2025-06-09T14:59:24Z</time>
      </trkpt>
      <trkpt lat="46.51332" lon="6.0087">
        <ele>1020</ele>
        <time>2025-06-09T14:59:27Z</time>
      </trkpt>
      <trkpt lat="46.51332" lon="6.00866">
        <ele>1020</ele>
        <time>2025-06-09T14:59:30Z</time>
      </trkpt>
      <trkpt lat="46.51332" lon="6.00861">
        <ele>1020</ele>
        <time>2025-06-09T14:59:33Z</time>
      </trkpt>
      <trkpt lat="46.51333" lon="6.00856">
        <ele>1020</ele>
        <time>2025-06-09T14:59:37Z</time>
      </trkpt>
      <trkpt lat="46.51333" lon="6.00851">
        <ele>1020</ele>
        <time>2025-06-09T14:59:41Z</time>
      </trkpt>
      <trkpt lat="46.51333" lon="6.00847">
        <ele>1021</ele>
        <time>2025-06-09T14:59:44Z</time>
      </trkpt>
      <trkpt lat="46.51333" lon="6.00843">
        <ele>1021</ele>
        <time>2025-06-09T14:59:47Z</time>
      </trkpt>
      <trkpt lat="46.51332" lon="6.00839">
        <ele>1021</ele>
        <time>2025-06-09T14:59:51Z</time>
      </trkpt>
      <trkpt lat="46.51331" lon="6.00835">
        <ele>1021</ele>
        <time>2025-06-09T14:59:55Z</time>
      </trkpt>
      <trkpt lat="46.51331" lon="6.0083">
        <ele>1021</ele>
        <time>2025-06-09T14:59:59Z</time>
      </trkpt>
      <trkpt lat="46.51331" lon="6.00826">
        <ele>1021</ele>
        <time>2025-06-09T15:00:03Z</time>
      </trkpt>
      <trkpt lat="46.51331" lon="6.00821">
        <ele>1021</ele>
        <time>2025-06-09T15:00:06Z</time>
      </trkpt>
      <trkpt lat="46.5133" lon="6.00817">
        <ele>1021</ele>
        <time>2025-06-09T15:00:09Z</time>
      </trkpt>
      <trkpt lat="46.51329" lon="6.00814">
        <ele>1021</ele>
        <time>2025-06-09T15:00:12Z</time>
      </trkpt>
      <trkpt lat="46.51328" lon="6.0081">
        <ele>1021</ele>
        <time>2025-06-09T15:00:16Z</time>
      </trkpt>
      <trkpt lat="46.51327" lon="6.00806">
        <ele>1021</ele>
        <time>2025-06-09T15:00:19Z</time>
      </trkpt>
      <trkpt lat="46.51326" lon="6.00802">
        <ele>1021</ele>
        <time>2025-06-09T15:00:22Z</time>
      </trkpt>
      <trkpt lat="46.51326" lon="6.00798">
        <ele>1021</ele>
        <time>2025-06-09T15:00:25Z</time>
      </trkpt>
      <trkpt lat="46.51326" lon="6.00794">
        <ele>1020</ele>
        <time>2025-06-09T15:00:28Z</time>
      </trkpt>
      <trkpt lat="46.51326" lon="6.00789">
        <ele>1020</ele>
        <time>2025-06-09T15:00:32Z</time>
      </trkpt>
      <trkpt lat="46.51326" lon="6.00785">
        <ele>1020</ele>
        <time>2025-06-09T15:00:35Z</time>
      </trkpt>
      <trkpt lat="46.51326" lon="6.0078">
        <ele>1020</ele>
        <time>2025-06-09T15:00:39Z</time>
      </trkpt>
      <trkpt lat="46.51325" lon="6.00776">
        <ele>1019</ele>
        <time>2025-06-09T15:00:43Z</time>
      </trkpt>
      <trkpt lat="46.51325" lon="6.00771">
        <ele>1019</ele>
        <time>2025-06-09T15:00:53Z</time>
      </trkpt>
      <trkpt lat="46.51324" lon="6.00765">
        <ele>1019</ele>
        <time>2025-06-09T15:00:56Z</time>
      </trkpt>
      <trkpt lat="46.51324" lon="6.00761">
        <ele>1018</ele>
        <time>2025-06-09T15:00:59Z</time>
      </trkpt>
      <trkpt lat="46.51323" lon="6.00756">
        <ele>1018</ele>
        <time>2025-06-09T15:01:02Z</time>
      </trkpt>
      <trkpt lat="46.51322" lon="6.00752">
        <ele>1017</ele>
        <time>2025-06-09T15:01:05Z</time>
      </trkpt>
      <trkpt lat="46.51322" lon="6.00747">
        <ele>1017</ele>
        <time>2025-06-09T15:01:08Z</time>
      </trkpt>
      <trkpt lat="46.51322" lon="6.00743">
        <ele>1016</ele>
        <time>2025-06-09T15:01:11Z</time>
      </trkpt>
      <trkpt lat="46.51322" lon="6.00738">
        <ele>1016</ele>
        <time>2025-06-09T15:01:14Z</time>
      </trkpt>
      <trkpt lat="46.51322" lon="6.00733">
        <ele>1016</ele>
        <time>2025-06-09T15:01:17Z</time>
      </trkpt>
      <trkpt lat="46.51323" lon="6.00728">
        <ele>1015</ele>
        <time>2025-06-09T15:01:20Z</time>
      </trkpt>
      <trkpt lat="46.51323" lon="6.00724">
        <ele>1015</ele>
        <time>2025-06-09T15:01:23Z</time>
      </trkpt>
      <trkpt lat="46.51322" lon="6.00719">
        <ele>1015</ele>
        <time>2025-06-09T15:01:26Z</time>
      </trkpt>
      <trkpt lat="46.51322" lon="6.00715">
        <ele>1015</ele>
        <time>2025-06-09T15:01:36Z</time>
      </trkpt>
      <trkpt lat="46.51317" lon="6.00711">
        <ele>1017</ele>
        <time>2025-06-09T15:02:08Z</time>
      </trkpt>
      <trkpt lat="46.51317" lon="6.00704">
        <ele>1019</ele>
        <time>2025-06-09T15:02:25Z</time>
      </trkpt>
      <trkpt lat="46.51319" lon="6.00703">
        <ele>1020</ele>
        <time>2025-06-09T15:02:43Z</time>
      </trkpt>
      <trkpt lat="46.51321" lon="6.007">
        <ele>1021</ele>
        <time>2025-06-09T15:02:46Z</time>
      </trkpt>
      <trkpt lat="46.51321" lon="6.00696">
        <ele>1021</ele>
        <time>2025-06-09T15:02:49Z</time>
      </trkpt>
      <trkpt lat="46.5132" lon="6.00691">
        <ele>1021</ele>
        <time>2025-06-09T15:02:53Z</time>
      </trkpt>
      <trkpt lat="46.5132" lon="6.00686">
        <ele>1021</ele>
        <time>2025-06-09T15:02:56Z</time>
      </trkpt>
      <trkpt lat="46.5132" lon="6.00681">
        <ele>1020</ele>
        <time>2025-06-09T15:02:59Z</time>
      </trkpt>
      <trkpt lat="46.51319" lon="6.00677">
        <ele>1020</ele>
        <time>2025-06-09T15:03:02Z</time>
      </trkpt>
      <trkpt lat="46.51319" lon="6.00673">
        <ele>1020</ele>
        <time>2025-06-09T15:03:05Z</time>
      </trkpt>
      <trkpt lat="46.51319" lon="6.00668">
        <ele>1020</ele>
        <time>2025-06-09T15:03:08Z</time>
      </trkpt>
      <trkpt lat="46.51318" lon="6.00664">
        <ele>1019</ele>
        <time>2025-06-09T15:03:11Z</time>
      </trkpt>
      <trkpt lat="46.51318" lon="6.00659">
        <ele>1019</ele>
        <time>2025-06-09T15:03:14Z</time>
      </trkpt>
      <trkpt lat="46.51318" lon="6.00655">
        <ele>1018</ele>
        <time>2025-06-09T15:03:17Z</time>
      </trkpt>
      <trkpt lat="46.51317" lon="6.0065">
        <ele>1018</ele>
        <time>2025-06-09T15:03:19Z</time>
      </trkpt>
      <trkpt lat="46.51317" lon="6.00646">
        <ele>1018</ele>
        <time>2025-06-09T15:03:22Z</time>
      </trkpt>
      <trkpt lat="46.51317" lon="6.00642">
        <ele>1017</ele>
        <time>2025-06-09T15:03:25Z</time>
      </trkpt>
      <trkpt lat="46.51316" lon="6.00638">
        <ele>1017</ele>
        <time>2025-06-09T15:03:28Z</time>
      </trkpt>
      <trkpt lat="46.51316" lon="6.00633">
        <ele>1017</ele>
        <time>2025-06-09T15:03:31Z</time>
      </trkpt>
      <trkpt lat="46.51314" lon="6.00629">
        <ele>1016</ele>
        <time>2025-06-09T15:03:34Z</time>
      </trkpt>
      <trkpt lat="46.51312" lon="6.00625">
        <ele>1016</ele>
        <time>2025-06-09T15:03:37Z</time>
      </trkpt>
      <trkpt lat="46.51311" lon="6.00622">
        <ele>1015</ele>
        <time>2025-06-09T15:03:40Z</time>
      </trkpt>
      <trkpt lat="46.51309" lon="6.00618">
        <ele>1015</ele>
        <time>2025-06-09T15:03:43Z</time>
      </trkpt>
      <trkpt lat="46.51308" lon="6.00613">
        <ele>1015</ele>
        <time>2025-06-09T15:03:46Z</time>
      </trkpt>
      <trkpt lat="46.51307" lon="6.00609">
        <ele>1014</ele>
        <time>2025-06-09T15:03:50Z</time>
      </trkpt>
      <trkpt lat="46.51306" lon="6.00604">
        <ele>1014</ele>
        <time>2025-06-09T15:03:54Z</time>
      </trkpt>
      <trkpt lat="46.51304" lon="6.006">
        <ele>1013</ele>
        <time>2025-06-09T15:03:57Z</time>
      </trkpt>
      <trkpt lat="46.51303" lon="6.00596">
        <ele>1013</ele>
        <time>2025-06-09T15:04:01Z</time>
      </trkpt>
      <trkpt lat="46.51302" lon="6.00592">
        <ele>1013</ele>
        <time>2025-06-09T15:04:04Z</time>
      </trkpt>
      <trkpt lat="46.51302" lon="6.00588">
        <ele>1013</ele>
        <time>2025-06-09T15:04:07Z</time>
      </trkpt>
      <trkpt lat="46.51301" lon="6.00583">
        <ele>1012</ele>
        <time>2025-06-09T15:04:11Z</time>
      </trkpt>
      <trkpt lat="46.51298" lon="6.00579">
        <ele>1012</ele>
        <time>2025-06-09T15:04:15Z</time>
      </trkpt>
      <trkpt lat="46.51297" lon="6.00575">
        <ele>1012</ele>
        <time>2025-06-09T15:04:18Z</time>
      </trkpt>
      <trkpt lat="46.51294" lon="6.00571">
        <ele>1012</ele>
        <time>2025-06-09T15:04:22Z</time>
      </trkpt>
      <trkpt lat="46.51292" lon="6.00568">
        <ele>1013</ele>
        <time>2025-06-09T15:04:25Z</time>
      </trkpt>
      <trkpt lat="46.51291" lon="6.00565">
        <ele>1013</ele>
        <time>2025-06-09T15:04:28Z</time>
      </trkpt>
      <trkpt lat="46.51289" lon="6.00562">
        <ele>1013</ele>
        <time>2025-06-09T15:04:32Z</time>
      </trkpt>
      <trkpt lat="46.51286" lon="6.00558">
        <ele>1013</ele>
        <time>2025-06-09T15:04:35Z</time>
      </trkpt>
      <trkpt lat="46.51284" lon="6.00556">
        <ele>1014</ele>
        <time>2025-06-09T15:04:39Z</time>
      </trkpt>
      <trkpt lat="46.51281" lon="6.00553">
        <ele>1014</ele>
        <time>2025-06-09T15:04:43Z</time>
      </trkpt>
      <trkpt lat="46.51279" lon="6.00551">
        <ele>1014</ele>
        <time>2025-06-09T15:04:46Z</time>
      </trkpt>
      <trkpt lat="46.51276" lon="6.00549">
        <ele>1015</ele>
        <time>2025-06-09T15:04:49Z</time>
      </trkpt>
      <trkpt lat="46.51273" lon="6.00547">
        <ele>1015</ele>
        <time>2025-06-09T15:04:52Z</time>
      </trkpt>
      <trkpt lat="46.51271" lon="6.00544">
        <ele>1016</ele>
        <time>2025-06-09T15:05:02Z</time>
      </trkpt>
      <trkpt lat="46.51269" lon="6.00541">
        <ele>1016</ele>
        <time>2025-06-09T15:05:05Z</time>
      </trkpt>
      <trkpt lat="46.51266" lon="6.00538">
        <ele>1016</ele>
        <time>2025-06-09T15:05:08Z</time>
      </trkpt>
      <trkpt lat="46.51264" lon="6.00535">
        <ele>1016</ele>
        <time>2025-06-09T15:05:11Z</time>
      </trkpt>
      <trkpt lat="46.51261" lon="6.00533">
        <ele>1016</ele>
        <time>2025-06-09T15:05:14Z</time>
      </trkpt>
      <trkpt lat="46.51259" lon="6.0053">
        <ele>1016</ele>
        <time>2025-06-09T15:05:17Z</time>
      </trkpt>
      <trkpt lat="46.51257" lon="6.00527">
        <ele>1017</ele>
        <time>2025-06-09T15:05:21Z</time>
      </trkpt>
      <trkpt lat="46.51255" lon="6.00524">
        <ele>1017</ele>
        <time>2025-06-09T15:05:25Z</time>
      </trkpt>
      <trkpt lat="46.51252" lon="6.00521">
        <ele>1017</ele>
        <time>2025-06-09T15:05:29Z</time>
      </trkpt>
      <trkpt lat="46.51251" lon="6.00518">
        <ele>1017</ele>
        <time>2025-06-09T15:05:33Z</time>
      </trkpt>
      <trkpt lat="46.51249" lon="6.00515">
        <ele>1017</ele>
        <time>2025-06-09T15:05:37Z</time>
      </trkpt>
      <trkpt lat="46.51247" lon="6.00512">
        <ele>1017</ele>
        <time>2025-06-09T15:05:41Z</time>
      </trkpt>
      <trkpt lat="46.51245" lon="6.00509">
        <ele>1017</ele>
        <time>2025-06-09T15:05:45Z</time>
      </trkpt>
      <trkpt lat="46.51243" lon="6.00506">
        <ele>1018</ele>
        <time>2025-06-09T15:05:48Z</time>
      </trkpt>
      <trkpt lat="46.5124" lon="6.00504">
        <ele>1018</ele>
        <time>2025-06-09T15:05:59Z</time>
      </trkpt>
      <trkpt lat="46.51238" lon="6.00501">
        <ele>1019</ele>
        <time>2025-06-09T15:06:03Z</time>
      </trkpt>
      <trkpt lat="46.51236" lon="6.00499">
        <ele>1020</ele>
        <time>2025-06-09T15:06:06Z</time>
      </trkpt>
      <trkpt lat="46.51233" lon="6.00496">
        <ele>1020</ele>
        <time>2025-06-09T15:06:10Z</time>
      </trkpt>
      <trkpt lat="46.51231" lon="6.00493">
        <ele>1021</ele>
        <time>2025-06-09T15:06:15Z</time>
      </trkpt>
      <trkpt lat="46.51229" lon="6.0049">
        <ele>1022</ele>
        <time>2025-06-09T15:06:20Z</time>
      </trkpt>
      <trkpt lat="46.51228" lon="6.00486">
        <ele>1022</ele>
        <time>2025-06-09T15:06:25Z</time>
      </trkpt>
      <trkpt lat="46.51226" lon="6.00482">
        <ele>1023</ele>
        <time>2025-06-09T15:06:29Z</time>
      </trkpt>
      <trkpt lat="46.51225" lon="6.00479">
        <ele>1023</ele>
        <time>2025-06-09T15:06:33Z</time>
      </trkpt>
      <trkpt lat="46.51224" lon="6.00475">
        <ele>1024</ele>
        <time>2025-06-09T15:06:36Z</time>
      </trkpt>
      <trkpt lat="46.51222" lon="6.00471">
        <ele>1024</ele>
        <time>2025-06-09T15:06:40Z</time>
      </trkpt>
      <trkpt lat="46.51221" lon="6.00467">
        <ele>1024</ele>
        <time>2025-06-09T15:06:44Z</time>
      </trkpt>
      <trkpt lat="46.51221" lon="6.00462">
        <ele>1025</ele>
        <time>2025-06-09T15:06:48Z</time>
      </trkpt>
      <trkpt lat="46.51219" lon="6.00458">
        <ele>1025</ele>
        <time>2025-06-09T15:06:52Z</time>
      </trkpt>
      <trkpt lat="46.51219" lon="6.00454">
        <ele>1026</ele>
        <time>2025-06-09T15:06:55Z</time>
      </trkpt>
      <trkpt lat="46.51218" lon="6.0045">
        <ele>1026</ele>
        <time>2025-06-09T15:06:58Z</time>
      </trkpt>
      <trkpt lat="46.51218" lon="6.00446">
        <ele>1026</ele>
        <time>2025-06-09T15:07:05Z</time>
      </trkpt>
      <trkpt lat="46.51216" lon="6.00441">
        <ele>1026</ele>
        <time>2025-06-09T15:07:28Z</time>
      </trkpt>
      <trkpt lat="46.51215" lon="6.00436">
        <ele>1025</ele>
        <time>2025-06-09T15:07:33Z</time>
      </trkpt>
      <trkpt lat="46.51214" lon="6.00432">
        <ele>1025</ele>
        <time>2025-06-09T15:07:37Z</time>
      </trkpt>
      <trkpt lat="46.51213" lon="6.00428">
        <ele>1025</ele>
        <time>2025-06-09T15:07:41Z</time>
      </trkpt>
      <trkpt lat="46.51211" lon="6.00424">
        <ele>1025</ele>
        <time>2025-06-09T15:07:45Z</time>
      </trkpt>
      <trkpt lat="46.5121" lon="6.0042">
        <ele>1025</ele>
        <time>2025-06-09T15:07:48Z</time>
      </trkpt>
      <trkpt lat="46.51208" lon="6.00416">
        <ele>1025</ele>
        <time>2025-06-09T15:07:51Z</time>
      </trkpt>
      <trkpt lat="46.51206" lon="6.00412">
        <ele>1025</ele>
        <time>2025-06-09T15:07:54Z</time>
      </trkpt>
      <trkpt lat="46.51204" lon="6.00409">
        <ele>1025</ele>
        <time>2025-06-09T15:07:57Z</time>
      </trkpt>
      <trkpt lat="46.51202" lon="6.00405">
        <ele>1025</ele>
        <time>2025-06-09T15:08:00Z</time>
      </trkpt>
      <trkpt lat="46.51199" lon="6.00403">
        <ele>1025</ele>
        <time>2025-06-09T15:08:03Z</time>
      </trkpt>
      <trkpt lat="46.51197" lon="6.00399">
        <ele>1025</ele>
        <time>2025-06-09T15:08:07Z</time>
      </trkpt>
      <trkpt lat="46.51195" lon="6.00396">
        <ele>1025</ele>
        <time>2025-06-09T15:08:10Z</time>
      </trkpt>
      <trkpt lat="46.51192" lon="6.00394">
        <ele>1025</ele>
        <time>2025-06-09T15:08:13Z</time>
      </trkpt>
      <trkpt lat="46.5119" lon="6.00391">
        <ele>1025</ele>
        <time>2025-06-09T15:08:17Z</time>
      </trkpt>
      <trkpt lat="46.51187" lon="6.00388">
        <ele>1025</ele>
        <time>2025-06-09T15:08:20Z</time>
      </trkpt>
      <trkpt lat="46.51184" lon="6.00385">
        <ele>1025</ele>
        <time>2025-06-09T15:08:23Z</time>
      </trkpt>
      <trkpt lat="46.51181" lon="6.00383">
        <ele>1025</ele>
        <time>2025-06-09T15:08:26Z</time>
      </trkpt>
      <trkpt lat="46.51178" lon="6.0038">
        <ele>1024</ele>
        <time>2025-06-09T15:08:30Z</time>
      </trkpt>
      <trkpt lat="46.51175" lon="6.00378">
        <ele>1024</ele>
        <time>2025-06-09T15:08:34Z</time>
      </trkpt>
      <trkpt lat="46.51172" lon="6.00375">
        <ele>1024</ele>
        <time>2025-06-09T15:08:38Z</time>
      </trkpt>
      <trkpt lat="46.5117" lon="6.00372">
        <ele>1024</ele>
        <time>2025-06-09T15:08:41Z</time>
      </trkpt>
      <trkpt lat="46.51167" lon="6.00371">
        <ele>1023</ele>
        <time>2025-06-09T15:08:44Z</time>
      </trkpt>
      <trkpt lat="46.51164" lon="6.00368">
        <ele>1023</ele>
        <time>2025-06-09T15:08:48Z</time>
      </trkpt>
      <trkpt lat="46.51161" lon="6.00365">
        <ele>1023</ele>
        <time>2025-06-09T15:08:52Z</time>
      </trkpt>
      <trkpt lat="46.51159" lon="6.00363">
        <ele>1022</ele>
        <time>2025-06-09T15:08:55Z</time>
      </trkpt>
      <trkpt lat="46.51156" lon="6.0036">
        <ele>1022</ele>
        <time>2025-06-09T15:08:58Z</time>
      </trkpt>
      <trkpt lat="46.51153" lon="6.00357">
        <ele>1022</ele>
        <time>2025-06-09T15:09:02Z</time>
      </trkpt>
      <trkpt lat="46.51151" lon="6.00354">
        <ele>1022</ele>
        <time>2025-06-09T15:09:06Z</time>
      </trkpt>
      <trkpt lat="46.51148" lon="6.00351">
        <ele>1022</ele>
        <time>2025-06-09T15:09:10Z</time>
      </trkpt>
      <trkpt lat="46.51146" lon="6.0035">
        <ele>1022</ele>
        <time>2025-06-09T15:09:17Z</time>
      </trkpt>
      <trkpt lat="46.51143" lon="6.00351">
        <ele>1023</ele>
        <time>2025-06-09T15:09:25Z</time>
      </trkpt>
      <trkpt lat="46.51141" lon="6.0035">
        <ele>1025</ele>
        <time>2025-06-09T15:09:34Z</time>
      </trkpt>
      <trkpt lat="46.51138" lon="6.00348">
        <ele>1025</ele>
        <time>2025-06-09T15:09:37Z</time>
      </trkpt>
      <trkpt lat="46.51136" lon="6.00346">
        <ele>1025</ele>
        <time>2025-06-09T15:09:42Z</time>
      </trkpt>
      <trkpt lat="46.51134" lon="6.00343">
        <ele>1025</ele>
        <time>2025-06-09T15:09:45Z</time>
      </trkpt>
      <trkpt lat="46.51132" lon="6.0034">
        <ele>1025</ele>
        <time>2025-06-09T15:09:47Z</time>
      </trkpt>
      <trkpt lat="46.5113" lon="6.00336">
        <ele>1025</ele>
        <time>2025-06-09T15:09:50Z</time>
      </trkpt>
      <trkpt lat="46.51127" lon="6.00332">
        <ele>1024</ele>
        <time>2025-06-09T15:09:53Z</time>
      </trkpt>
      <trkpt lat="46.51125" lon="6.00329">
        <ele>1024</ele>
        <time>2025-06-09T15:09:57Z</time>
      </trkpt>
      <trkpt lat="46.51123" lon="6.00325">
        <ele>1023</ele>
        <time>2025-06-09T15:10:00Z</time>
      </trkpt>
      <trkpt lat="46.51122" lon="6.00321">
        <ele>1023</ele>
        <time>2025-06-09T15:10:03Z</time>
      </trkpt>
      <trkpt lat="46.51121" lon="6.00317">
        <ele>1022</ele>
        <time>2025-06-09T15:10:07Z</time>
      </trkpt>
      <trkpt lat="46.51119" lon="6.0031">
        <ele>1022</ele>
        <time>2025-06-09T15:10:11Z</time>
      </trkpt>
      <trkpt lat="46.51119" lon="6.00308">
        <ele>1021</ele>
        <time>2025-06-09T15:10:14Z</time>
      </trkpt>
      <trkpt lat="46.51118" lon="6.00304">
        <ele>1021</ele>
        <time>2025-06-09T15:10:18Z</time>
      </trkpt>
      <trkpt lat="46.51118" lon="6.00299">
        <ele>1020</ele>
        <time>2025-06-09T15:10:21Z</time>
      </trkpt>
      <trkpt lat="46.51118" lon="6.00295">
        <ele>1020</ele>
        <time>2025-06-09T15:10:24Z</time>
      </trkpt>
      <trkpt lat="46.51119" lon="6.0029">
        <ele>1019</ele>
        <time>2025-06-09T15:10:27Z</time>
      </trkpt>
      <trkpt lat="46.51119" lon="6.00286">
        <ele>1019</ele>
        <time>2025-06-09T15:10:30Z</time>
      </trkpt>
      <trkpt lat="46.51118" lon="6.00282">
        <ele>1018</ele>
        <time>2025-06-09T15:10:33Z</time>
      </trkpt>
      <trkpt lat="46.51118" lon="6.00277">
        <ele>1018</ele>
        <time>2025-06-09T15:10:37Z</time>
      </trkpt>
      <trkpt lat="46.51118" lon="6.00273">
        <ele>1018</ele>
        <time>2025-06-09T15:10:40Z</time>
      </trkpt>
      <trkpt lat="46.51118" lon="6.00268">
        <ele>1017</ele>
        <time>2025-06-09T15:10:43Z</time>
      </trkpt>
      <trkpt lat="46.51117" lon="6.00264">
        <ele>1017</ele>
        <time>2025-06-09T15:10:47Z</time>
      </trkpt>
      <trkpt lat="46.51116" lon="6.00259">
        <ele>1016</ele>
        <time>2025-06-09T15:10:50Z</time>
      </trkpt>
      <trkpt lat="46.51115" lon="6.00255">
        <ele>1016</ele>
        <time>2025-06-09T15:10:53Z</time>
      </trkpt>
      <trkpt lat="46.51114" lon="6.0025">
        <ele>1015</ele>
        <time>2025-06-09T15:10:57Z</time>
      </trkpt>
      <trkpt lat="46.51113" lon="6.00246">
        <ele>1015</ele>
        <time>2025-06-09T15:11:00Z</time>
      </trkpt>
      <trkpt lat="46.51112" lon="6.00242">
        <ele>1015</ele>
        <time>2025-06-09T15:11:03Z</time>
      </trkpt>
      <trkpt lat="46.5111" lon="6.00238">
        <ele>1014</ele>
        <time>2025-06-09T15:11:06Z</time>
      </trkpt>
      <trkpt lat="46.51109" lon="6.00233">
        <ele>1014</ele>
        <time>2025-06-09T15:11:10Z</time>
      </trkpt>
      <trkpt lat="46.51108" lon="6.00229">
        <ele>1014</ele>
        <time>2025-06-09T15:11:13Z</time>
      </trkpt>
      <trkpt lat="46.51107" lon="6.00225">
        <ele>1014</ele>
        <time>2025-06-09T15:11:16Z</time>
      </trkpt>
      <trkpt lat="46.51106" lon="6.00221">
        <ele>1014</ele>
        <time>2025-06-09T15:11:19Z</time>
      </trkpt>
      <trkpt lat="46.51104" lon="6.00217">
        <ele>1013</ele>
        <time>2025-06-09T15:11:22Z</time>
      </trkpt>
      <trkpt lat="46.51103" lon="6.00214">
        <ele>1013</ele>
        <time>2025-06-09T15:11:25Z</time>
      </trkpt>
      <trkpt lat="46.51102" lon="6.00209">
        <ele>1013</ele>
        <time>2025-06-09T15:11:28Z</time>
      </trkpt>
      <trkpt lat="46.51101" lon="6.00205">
        <ele>1013</ele>
        <time>2025-06-09T15:11:31Z</time>
      </trkpt>
      <trkpt lat="46.511" lon="6.00201">
        <ele>1012</ele>
        <time>2025-06-09T15:11:35Z</time>
      </trkpt>
      <trkpt lat="46.51099" lon="6.00196">
        <ele>1012</ele>
        <time>2025-06-09T15:11:39Z</time>
      </trkpt>
      <trkpt lat="46.51098" lon="6.00192">
        <ele>1011</ele>
        <time>2025-06-09T15:11:45Z</time>
      </trkpt>
      <trkpt lat="46.51097" lon="6.00187">
        <ele>1011</ele>
        <time>2025-06-09T15:11:55Z</time>
      </trkpt>
      <trkpt lat="46.51097" lon="6.00182">
        <ele>1010</ele>
        <time>2025-06-09T15:11:58Z</time>
      </trkpt>
      <trkpt lat="46.51097" lon="6.00178">
        <ele>1010</ele>
        <time>2025-06-09T15:12:01Z</time>
      </trkpt>
      <trkpt lat="46.51097" lon="6.00173">
        <ele>1010</ele>
        <time>2025-06-09T15:12:04Z</time>
      </trkpt>
      <trkpt lat="46.51096" lon="6.00169">
        <ele>1009</ele>
        <time>2025-06-09T15:12:07Z</time>
      </trkpt>
      <trkpt lat="46.51095" lon="6.00165">
        <ele>1009</ele>
        <time>2025-06-09T15:12:11Z</time>
      </trkpt>
      <trkpt lat="46.51095" lon="6.00161">
        <ele>1008</ele>
        <time>2025-06-09T15:12:14Z</time>
      </trkpt>
      <trkpt lat="46.51094" lon="6.00157">
        <ele>1008</ele>
        <time>2025-06-09T15:12:17Z</time>
      </trkpt>
      <trkpt lat="46.51093" lon="6.00152">
        <ele>1007</ele>
        <time>2025-06-09T15:12:21Z</time>
      </trkpt>
      <trkpt lat="46.51093" lon="6.00148">
        <ele>1007</ele>
        <time>2025-06-09T15:12:25Z</time>
      </trkpt>
      <trkpt lat="46.51092" lon="6.00143">
        <ele>1006</ele>
        <time>2025-06-09T15:12:28Z</time>
      </trkpt>
      <trkpt lat="46.51091" lon="6.00139">
        <ele>1005</ele>
        <time>2025-06-09T15:12:32Z</time>
      </trkpt>
      <trkpt lat="46.5109" lon="6.00134">
        <ele>1005</ele>
        <time>2025-06-09T15:12:35Z</time>
      </trkpt>
      <trkpt lat="46.51088" lon="6.0013">
        <ele>1005</ele>
        <time>2025-06-09T15:12:38Z</time>
      </trkpt>
      <trkpt lat="46.51087" lon="6.00126">
        <ele>1004</ele>
        <time>2025-06-09T15:12:41Z</time>
      </trkpt>
      <trkpt lat="46.51085" lon="6.00123">
        <ele>1004</ele>
        <time>2025-06-09T15:12:44Z</time>
      </trkpt>
      <trkpt lat="46.51083" lon="6.00119">
        <ele>1004</ele>
        <time>2025-06-09T15:12:47Z</time>
      </trkpt>
      <trkpt lat="46.5108" lon="6.00116">
        <ele>1004</ele>
        <time>2025-06-09T15:12:50Z</time>
      </trkpt>
      <trkpt lat="46.51078" lon="6.00113">
        <ele>1003</ele>
        <time>2025-06-09T15:12:53Z</time>
      </trkpt>
      <trkpt lat="46.51075" lon="6.0011">
        <ele>1003</ele>
        <time>2025-06-09T15:12:56Z</time>
      </trkpt>
      <trkpt lat="46.51072" lon="6.00107">
        <ele>1002</ele>
        <time>2025-06-09T15:12:59Z</time>
      </trkpt>
      <trkpt lat="46.5107" lon="6.00104">
        <ele>1001</ele>
        <time>2025-06-09T15:13:02Z</time>
      </trkpt>
      <trkpt lat="46.51067" lon="6.00101">
        <ele>1001</ele>
        <time>2025-06-09T15:13:05Z</time>
      </trkpt>
      <trkpt lat="46.51064" lon="6.00099">
        <ele>1000</ele>
        <time>2025-06-09T15:13:08Z</time>
      </trkpt>
      <trkpt lat="46.51061" lon="6.00097">
        <ele>1000</ele>
        <time>2025-06-09T15:13:10Z</time>
      </trkpt>
      <trkpt lat="46.51058" lon="6.00094">
        <ele>999</ele>
        <time>2025-06-09T15:13:13Z</time>
      </trkpt>
      <trkpt lat="46.51055" lon="6.00091">
        <ele>998</ele>
        <time>2025-06-09T15:13:16Z</time>
      </trkpt>
      <trkpt lat="46.51053" lon="6.00089">
        <ele>997</ele>
        <time>2025-06-09T15:13:19Z</time>
      </trkpt>
      <trkpt lat="46.51051" lon="6.00086">
        <ele>997</ele>
        <time>2025-06-09T15:13:22Z</time>
      </trkpt>
      <trkpt lat="46.5105" lon="6.00082">
        <ele>996</ele>
        <time>2025-06-09T15:13:25Z</time>
      </trkpt>
      <trkpt lat="46.51047" lon="6.0008">
        <ele>995</ele>
        <time>2025-06-09T15:13:28Z</time>
      </trkpt>
      <trkpt lat="46.51045" lon="6.00077">
        <ele>994</ele>
        <time>2025-06-09T15:13:32Z</time>
      </trkpt>
      <trkpt lat="46.51042" lon="6.00074">
        <ele>994</ele>
        <time>2025-06-09T15:13:35Z</time>
      </trkpt>
      <trkpt lat="46.51041" lon="6.0007">
        <ele>993</ele>
        <time>2025-06-09T15:13:38Z</time>
      </trkpt>
      <trkpt lat="46.51038" lon="6.00067">
        <ele>993</ele>
        <time>2025-06-09T15:13:41Z</time>
      </trkpt>
      <trkpt lat="46.51036" lon="6.00064">
        <ele>992</ele>
        <time>2025-06-09T15:13:44Z</time>
      </trkpt>
      <trkpt lat="46.51034" lon="6.00061">
        <ele>992</ele>
        <time>2025-06-09T15:13:47Z</time>
      </trkpt>
      <trkpt lat="46.51032" lon="6.00057">
        <ele>992</ele>
        <time>2025-06-09T15:13:51Z</time>
      </trkpt>
      <trkpt lat="46.51029" lon="6.00055">
        <ele>991</ele>
        <time>2025-06-09T15:13:55Z</time>
      </trkpt>
      <trkpt lat="46.51027" lon="6.00052">
        <ele>991</ele>
        <time>2025-06-09T15:13:58Z</time>
      </trkpt>
      <trkpt lat="46.51024" lon="6.0005">
        <ele>991</ele>
        <time>2025-06-09T15:14:01Z</time>
      </trkpt>
      <trkpt lat="46.51021" lon="6.00048">
        <ele>991</ele>
        <time>2025-06-09T15:14:03Z</time>
      </trkpt>
      <trkpt lat="46.51019" lon="6.00046">
        <ele>991</ele>
        <time>2025-06-09T15:14:06Z</time>
      </trkpt>
      <trkpt lat="46.51016" lon="6.00043">
        <ele>991</ele>
        <time>2025-06-09T15:14:10Z</time>
      </trkpt>
      <trkpt lat="46.51014" lon="6.0004">
        <ele>991</ele>
        <time>2025-06-09T15:14:13Z</time>
      </trkpt>
      <trkpt lat="46.51012" lon="6.00037">
        <ele>991</ele>
        <time>2025-06-09T15:14:16Z</time>
      </trkpt>
      <trkpt lat="46.51011" lon="6.00033">
        <ele>992</ele>
        <time>2025-06-09T15:14:19Z</time>
      </trkpt>
      <trkpt lat="46.51009" lon="6.00029">
        <ele>992</ele>
        <time>2025-06-09T15:14:22Z</time>
      </trkpt>
      <trkpt lat="46.51009" lon="6.00025">
        <ele>992</ele>
        <time>2025-06-09T15:14:26Z</time>
      </trkpt>
      <trkpt lat="46.51009" lon="6.00021">
        <ele>992</ele>
        <time>2025-06-09T15:14:30Z</time>
      </trkpt>
      <trkpt lat="46.51009" lon="6.00016">
        <ele>993</ele>
        <time>2025-06-09T15:14:34Z</time>
      </trkpt>
      <trkpt lat="46.51009" lon="6.00011">
        <ele>993</ele>
        <time>2025-06-09T15:14:38Z</time>
      </trkpt>
      <trkpt lat="46.51009" lon="6.00007">
        <ele>993</ele>
        <time>2025-06-09T15:14:42Z</time>
      </trkpt>
      <trkpt lat="46.51009" lon="6.00002">
        <ele>994</ele>
        <time>2025-06-09T15:14:45Z</time>
      </trkpt>
      <trkpt lat="46.51009" lon="5.99998">
        <ele>994</ele>
        <time>2025-06-09T15:14:49Z</time>
      </trkpt>
      <trkpt lat="46.5101" lon="5.99993">
        <ele>994</ele>
        <time>2025-06-09T15:14:53Z</time>
      </trkpt>
      <trkpt lat="46.51011" lon="5.99988">
        <ele>994</ele>
        <time>2025-06-09T15:14:56Z</time>
      </trkpt>
      <trkpt lat="46.51011" lon="5.99984">
        <ele>994</ele>
        <time>2025-06-09T15:14:59Z</time>
      </trkpt>
      <trkpt lat="46.51011" lon="5.99979">
        <ele>994</ele>
        <time>2025-06-09T15:15:04Z</time>
      </trkpt>
      <trkpt lat="46.51011" lon="5.99974">
        <ele>994</ele>
        <time>2025-06-09T15:15:08Z</time>
      </trkpt>
      <trkpt lat="46.5101" lon="5.9997">
        <ele>994</ele>
        <time>2025-06-09T15:15:13Z</time>
      </trkpt>
      <trkpt lat="46.5101" lon="5.99965">
        <ele>994</ele>
        <time>2025-06-09T15:15:17Z</time>
      </trkpt>
      <trkpt lat="46.5101" lon="5.99961">
        <ele>994</ele>
        <time>2025-06-09T15:15:20Z</time>
      </trkpt>
      <trkpt lat="46.5101" lon="5.99956">
        <ele>994</ele>
        <time>2025-06-09T15:15:24Z</time>
      </trkpt>
      <trkpt lat="46.5101" lon="5.99952">
        <ele>994</ele>
        <time>2025-06-09T15:15:27Z</time>
      </trkpt>
      <trkpt lat="46.5101" lon="5.99947">
        <ele>994</ele>
        <time>2025-06-09T15:15:30Z</time>
      </trkpt>
      <trkpt lat="46.51011" lon="5.99944">
        <ele>993</ele>
        <time>2025-06-09T15:15:33Z</time>
      </trkpt>
      <trkpt lat="46.51012" lon="5.99939">
        <ele>993</ele>
        <time>2025-06-09T15:15:37Z</time>
      </trkpt>
      <trkpt lat="46.51012" lon="5.99935">
        <ele>993</ele>
        <time>2025-06-09T15:15:40Z</time>
      </trkpt>
      <trkpt lat="46.51012" lon="5.9993">
        <ele>993</ele>
        <time>2025-06-09T15:15:44Z</time>
      </trkpt>
      <trkpt lat="46.51011" lon="5.99926">
        <ele>992</ele>
        <time>2025-06-09T15:15:48Z</time>
      </trkpt>
      <trkpt lat="46.51011" lon="5.99921">
        <ele>992</ele>
        <time>2025-06-09T15:15:51Z</time>
      </trkpt>
      <trkpt lat="46.51011" lon="5.99917">
        <ele>992</ele>
        <time>2025-06-09T15:15:54Z</time>
      </trkpt>
      <trkpt lat="46.51011" lon="5.99912">
        <ele>992</ele>
        <time>2025-06-09T15:15:58Z</time>
      </trkpt>
      <trkpt lat="46.51011" lon="5.99908">
        <ele>992</ele>
        <time>2025-06-09T15:16:02Z</time>
      </trkpt>
      <trkpt lat="46.51012" lon="5.99903">
        <ele>993</ele>
        <time>2025-06-09T15:16:06Z</time>
      </trkpt>
      <trkpt lat="46.51012" lon="5.99899">
        <ele>993</ele>
        <time>2025-06-09T15:16:09Z</time>
      </trkpt>
      <trkpt lat="46.51012" lon="5.99894">
        <ele>993</ele>
        <time>2025-06-09T15:16:12Z</time>
      </trkpt>
      <trkpt lat="46.51013" lon="5.9989">
        <ele>992</ele>
        <time>2025-06-09T15:16:15Z</time>
      </trkpt>
      <trkpt lat="46.51013" lon="5.99886">
        <ele>992</ele>
        <time>2025-06-09T15:16:19Z</time>
      </trkpt>
      <trkpt lat="46.51014" lon="5.9988">
        <ele>992</ele>
        <time>2025-06-09T15:16:22Z</time>
      </trkpt>
      <trkpt lat="46.51015" lon="5.99875">
        <ele>992</ele>
        <time>2025-06-09T15:16:25Z</time>
      </trkpt>
      <trkpt lat="46.51016" lon="5.9987">
        <ele>991</ele>
        <time>2025-06-09T15:16:28Z</time>
      </trkpt>
      <trkpt lat="46.51017" lon="5.99865">
        <ele>991</ele>
        <time>2025-06-09T15:16:30Z</time>
      </trkpt>
      <trkpt lat="46.51017" lon="5.9986">
        <ele>991</ele>
        <time>2025-06-09T15:16:33Z</time>
      </trkpt>
      <trkpt lat="46.51017" lon="5.99855">
        <ele>990</ele>
        <time>2025-06-09T15:16:36Z</time>
      </trkpt>
      <trkpt lat="46.51017" lon="5.99851">
        <ele>990</ele>
        <time>2025-06-09T15:16:39Z</time>
      </trkpt>
      <trkpt lat="46.51017" lon="5.99846">
        <ele>990</ele>
        <time>2025-06-09T15:16:42Z</time>
      </trkpt>
      <trkpt lat="46.51017" lon="5.99842">
        <ele>990</ele>
        <time>2025-06-09T15:16:46Z</time>
      </trkpt>
      <trkpt lat="46.51018" lon="5.99837">
        <ele>990</ele>
        <time>2025-06-09T15:16:50Z</time>
      </trkpt>
      <trkpt lat="46.51018" lon="5.99833">
        <ele>990</ele>
        <time>2025-06-09T15:16:53Z</time>
      </trkpt>
      <trkpt lat="46.51018" lon="5.99828">
        <ele>989</ele>
        <time>2025-06-09T15:16:56Z</time>
      </trkpt>
      <trkpt lat="46.51019" lon="5.99824">
        <ele>989</ele>
        <time>2025-06-09T15:16:59Z</time>
      </trkpt>
      <trkpt lat="46.51021" lon="5.99819">
        <ele>989</ele>
        <time>2025-06-09T15:17:02Z</time>
      </trkpt>
      <trkpt lat="46.51023" lon="5.99816">
        <ele>988</ele>
        <time>2025-06-09T15:17:04Z</time>
      </trkpt>
      <trkpt lat="46.51025" lon="5.99812">
        <ele>988</ele>
        <time>2025-06-09T15:17:07Z</time>
      </trkpt>
      <trkpt lat="46.51026" lon="5.99807">
        <ele>988</ele>
        <time>2025-06-09T15:17:10Z</time>
      </trkpt>
      <trkpt lat="46.51028" lon="5.99802">
        <ele>987</ele>
        <time>2025-06-09T15:17:13Z</time>
      </trkpt>
      <trkpt lat="46.51029" lon="5.99798">
        <ele>987</ele>
        <time>2025-06-09T15:17:16Z</time>
      </trkpt>
      <trkpt lat="46.51029" lon="5.99794">
        <ele>987</ele>
        <time>2025-06-09T15:17:19Z</time>
      </trkpt>
      <trkpt lat="46.5103" lon="5.9979">
        <ele>986</ele>
        <time>2025-06-09T15:17:22Z</time>
      </trkpt>
      <trkpt lat="46.51031" lon="5.99785">
        <ele>986</ele>
        <time>2025-06-09T15:17:25Z</time>
      </trkpt>
      <trkpt lat="46.51032" lon="5.99781">
        <ele>986</ele>
        <time>2025-06-09T15:17:28Z</time>
      </trkpt>
      <trkpt lat="46.51032" lon="5.99776">
        <ele>986</ele>
        <time>2025-06-09T15:17:32Z</time>
      </trkpt>
      <trkpt lat="46.51034" lon="5.99772">
        <ele>985</ele>
        <time>2025-06-09T15:17:35Z</time>
      </trkpt>
      <trkpt lat="46.51035" lon="5.99767">
        <ele>985</ele>
        <time>2025-06-09T15:17:38Z</time>
      </trkpt>
      <trkpt lat="46.51036" lon="5.99763">
        <ele>985</ele>
        <time>2025-06-09T15:17:41Z</time>
      </trkpt>
      <trkpt lat="46.51036" lon="5.99758">
        <ele>985</ele>
        <time>2025-06-09T15:17:45Z</time>
      </trkpt>
      <trkpt lat="46.51037" lon="5.99753">
        <ele>985</ele>
        <time>2025-06-09T15:17:50Z</time>
      </trkpt>
      <trkpt lat="46.51037" lon="5.99749">
        <ele>984</ele>
        <time>2025-06-09T15:17:53Z</time>
      </trkpt>
      <trkpt lat="46.51037" lon="5.99744">
        <ele>984</ele>
        <time>2025-06-09T15:17:57Z</time>
      </trkpt>
      <trkpt lat="46.51037" lon="5.99739">
        <ele>984</ele>
        <time>2025-06-09T15:18:00Z</time>
      </trkpt>
      <trkpt lat="46.51037" lon="5.99734">
        <ele>984</ele>
        <time>2025-06-09T15:18:03Z</time>
      </trkpt>
      <trkpt lat="46.51038" lon="5.99729">
        <ele>983</ele>
        <time>2025-06-09T15:18:06Z</time>
      </trkpt>
      <trkpt lat="46.51038" lon="5.99725">
        <ele>983</ele>
        <time>2025-06-09T15:18:09Z</time>
      </trkpt>
      <trkpt lat="46.51039" lon="5.99721">
        <ele>982</ele>
        <time>2025-06-09T15:18:12Z</time>
      </trkpt>
      <trkpt lat="46.51039" lon="5.99717">
        <ele>982</ele>
        <time>2025-06-09T15:18:15Z</time>
      </trkpt>
      <trkpt lat="46.51039" lon="5.99712">
        <ele>981</ele>
        <time>2025-06-09T15:18:19Z</time>
      </trkpt>
      <trkpt lat="46.51039" lon="5.99707">
        <ele>981</ele>
        <time>2025-06-09T15:18:23Z</time>
      </trkpt>
      <trkpt lat="46.51039" lon="5.99702">
        <ele>980</ele>
        <time>2025-06-09T15:18:26Z</time>
      </trkpt>
      <trkpt lat="46.51039" lon="5.99697">
        <ele>980</ele>
        <time>2025-06-09T15:18:30Z</time>
      </trkpt>
      <trkpt lat="46.5104" lon="5.99693">
        <ele>979</ele>
        <time>2025-06-09T15:18:33Z</time>
      </trkpt>
      <trkpt lat="46.51041" lon="5.99688">
        <ele>979</ele>
        <time>2025-06-09T15:18:36Z</time>
      </trkpt>
      <trkpt lat="46.51042" lon="5.99684">
        <ele>979</ele>
        <time>2025-06-09T15:18:39Z</time>
      </trkpt>
      <trkpt lat="46.51043" lon="5.99679">
        <ele>979</ele>
        <time>2025-06-09T15:18:42Z</time>
      </trkpt>
      <trkpt lat="46.51044" lon="5.99675">
        <ele>979</ele>
        <time>2025-06-09T15:18:46Z</time>
      </trkpt>
      <trkpt lat="46.51046" lon="5.99672">
        <ele>979</ele>
        <time>2025-06-09T15:18:50Z</time>
      </trkpt>
      <trkpt lat="46.51048" lon="5.99668">
        <ele>979</ele>
        <time>2025-06-09T15:18:54Z</time>
      </trkpt>
      <trkpt lat="46.5105" lon="5.99665">
        <ele>979</ele>
        <time>2025-06-09T15:18:58Z</time>
      </trkpt>
      <trkpt lat="46.51053" lon="5.99661">
        <ele>979</ele>
        <time>2025-06-09T15:19:01Z</time>
      </trkpt>
      <trkpt lat="46.51055" lon="5.99658">
        <ele>978</ele>
        <time>2025-06-09T15:19:04Z</time>
      </trkpt>
      <trkpt lat="46.51057" lon="5.99655">
        <ele>978</ele>
        <time>2025-06-09T15:19:07Z</time>
      </trkpt>
      <trkpt lat="46.51059" lon="5.99652">
        <ele>977</ele>
        <time>2025-06-09T15:19:11Z</time>
      </trkpt>
      <trkpt lat="46.51061" lon="5.99648">
        <ele>977</ele>
        <time>2025-06-09T15:19:16Z</time>
      </trkpt>
      <trkpt lat="46.51063" lon="5.99645">
        <ele>976</ele>
        <time>2025-06-09T15:19:21Z</time>
      </trkpt>
      <trkpt lat="46.51066" lon="5.99641">
        <ele>975</ele>
        <time>2025-06-09T15:19:25Z</time>
      </trkpt>
      <trkpt lat="46.51068" lon="5.99637">
        <ele>975</ele>
        <time>2025-06-09T15:19:29Z</time>
      </trkpt>
      <trkpt lat="46.5107" lon="5.99634">
        <ele>974</ele>
        <time>2025-06-09T15:19:32Z</time>
      </trkpt>
      <trkpt lat="46.51072" lon="5.9963">
        <ele>974</ele>
        <time>2025-06-09T15:19:35Z</time>
      </trkpt>
      <trkpt lat="46.51075" lon="5.99626">
        <ele>973</ele>
        <time>2025-06-09T15:19:38Z</time>
      </trkpt>
      <trkpt lat="46.51077" lon="5.99624">
        <ele>973</ele>
        <time>2025-06-09T15:19:41Z</time>
      </trkpt>
      <trkpt lat="46.51079" lon="5.99621">
        <ele>972</ele>
        <time>2025-06-09T15:19:45Z</time>
      </trkpt>
      <trkpt lat="46.51081" lon="5.99617">
        <ele>973</ele>
        <time>2025-06-09T15:19:50Z</time>
      </trkpt>
      <trkpt lat="46.51082" lon="5.99613">
        <ele>973</ele>
        <time>2025-06-09T15:19:56Z</time>
      </trkpt>
      <trkpt lat="46.51085" lon="5.99605">
        <ele>973</ele>
        <time>2025-06-09T15:20:27Z</time>
      </trkpt>
      <trkpt lat="46.51088" lon="5.99602">
        <ele>973</ele>
        <time>2025-06-09T15:20:31Z</time>
      </trkpt>
      <trkpt lat="46.5109" lon="5.99598">
        <ele>973</ele>
        <time>2025-06-09T15:20:33Z</time>
      </trkpt>
      <trkpt lat="46.51091" lon="5.99593">
        <ele>973</ele>
        <time>2025-06-09T15:20:36Z</time>
      </trkpt>
      <trkpt lat="46.51092" lon="5.99589">
        <ele>973</ele>
        <time>2025-06-09T15:20:41Z</time>
      </trkpt>
      <trkpt lat="46.51094" lon="5.99586">
        <ele>973</ele>
        <time>2025-06-09T15:20:46Z</time>
      </trkpt>
      <trkpt lat="46.51096" lon="5.9958">
        <ele>974</ele>
        <time>2025-06-09T15:20:51Z</time>
      </trkpt>
      <trkpt lat="46.51096" lon="5.99577">
        <ele>975</ele>
        <time>2025-06-09T15:20:55Z</time>
      </trkpt>
      <trkpt lat="46.51096" lon="5.99573">
        <ele>975</ele>
        <time>2025-06-09T15:20:58Z</time>
      </trkpt>
      <trkpt lat="46.51096" lon="5.99569">
        <ele>975</ele>
        <time>2025-06-09T15:21:01Z</time>
      </trkpt>
      <trkpt lat="46.51095" lon="5.99565">
        <ele>976</ele>
        <time>2025-06-09T15:21:09Z</time>
      </trkpt>
      <trkpt lat="46.51095" lon="5.9956">
        <ele>977</ele>
        <time>2025-06-09T15:21:15Z</time>
      </trkpt>
      <trkpt lat="46.51094" lon="5.99556">
        <ele>977</ele>
        <time>2025-06-09T15:21:19Z</time>
      </trkpt>
      <trkpt lat="46.51094" lon="5.99552">
        <ele>978</ele>
        <time>2025-06-09T15:21:23Z</time>
      </trkpt>
      <trkpt lat="46.51094" lon="5.99548">
        <ele>978</ele>
        <time>2025-06-09T15:21:27Z</time>
      </trkpt>
      <trkpt lat="46.51093" lon="5.99543">
        <ele>978</ele>
        <time>2025-06-09T15:21:31Z</time>
      </trkpt>
      <trkpt lat="46.51092" lon="5.9954">
        <ele>978</ele>
        <time>2025-06-09T15:21:35Z</time>
      </trkpt>
      <trkpt lat="46.51091" lon="5.99536">
        <ele>979</ele>
        <time>2025-06-09T15:21:38Z</time>
      </trkpt>
      <trkpt lat="46.51089" lon="5.99533">
        <ele>979</ele>
        <time>2025-06-09T15:21:42Z</time>
      </trkpt>
      <trkpt lat="46.51088" lon="5.99529">
        <ele>979</ele>
        <time>2025-06-09T15:21:45Z</time>
      </trkpt>
      <trkpt lat="46.51086" lon="5.99525">
        <ele>980</ele>
        <time>2025-06-09T15:21:48Z</time>
      </trkpt>
      <trkpt lat="46.51084" lon="5.99523">
        <ele>980</ele>
        <time>2025-06-09T15:21:54Z</time>
      </trkpt>
      <trkpt lat="46.51082" lon="5.9952">
        <ele>981</ele>
        <time>2025-06-09T15:22:01Z</time>
      </trkpt>
      <trkpt lat="46.51081" lon="5.99516">
        <ele>981</ele>
        <time>2025-06-09T15:22:04Z</time>
      </trkpt>
      <trkpt lat="46.5108" lon="5.99512">
        <ele>981</ele>
        <time>2025-06-09T15:22:08Z</time>
      </trkpt>
      <trkpt lat="46.51079" lon="5.99508">
        <ele>982</ele>
        <time>2025-06-09T15:22:12Z</time>
      </trkpt>
      <trkpt lat="46.51077" lon="5.99504">
        <ele>982</ele>
        <time>2025-06-09T15:22:16Z</time>
      </trkpt>
      <trkpt lat="46.51076" lon="5.99499">
        <ele>982</ele>
        <time>2025-06-09T15:22:21Z</time>
      </trkpt>
      <trkpt lat="46.51075" lon="5.99495">
        <ele>982</ele>
        <time>2025-06-09T15:22:24Z</time>
      </trkpt>
      <trkpt lat="46.51073" lon="5.99491">
        <ele>982</ele>
        <time>2025-06-09T15:22:28Z</time>
      </trkpt>
      <trkpt lat="46.5107" lon="5.99488">
        <ele>982</ele>
        <time>2025-06-09T15:22:32Z</time>
      </trkpt>
      <trkpt lat="46.51068" lon="5.99484">
        <ele>982</ele>
        <time>2025-06-09T15:22:35Z</time>
      </trkpt>
      <trkpt lat="46.51066" lon="5.99481">
        <ele>982</ele>
        <time>2025-06-09T15:22:38Z</time>
      </trkpt>
      <trkpt lat="46.51065" lon="5.99476">
        <ele>982</ele>
        <time>2025-06-09T15:22:42Z</time>
      </trkpt>
      <trkpt lat="46.51065" lon="5.99472">
        <ele>983</ele>
        <time>2025-06-09T15:22:46Z</time>
      </trkpt>
      <trkpt lat="46.51065" lon="5.99468">
        <ele>983</ele>
        <time>2025-06-09T15:22:50Z</time>
      </trkpt>
      <trkpt lat="46.51065" lon="5.99463">
        <ele>983</ele>
        <time>2025-06-09T15:22:54Z</time>
      </trkpt>
      <trkpt lat="46.51066" lon="5.99459">
        <ele>983</ele>
        <time>2025-06-09T15:22:58Z</time>
      </trkpt>
      <trkpt lat="46.51065" lon="5.99455">
        <ele>983</ele>
        <time>2025-06-09T15:23:01Z</time>
      </trkpt>
      <trkpt lat="46.51064" lon="5.99451">
        <ele>984</ele>
        <time>2025-06-09T15:23:04Z</time>
      </trkpt>
      <trkpt lat="46.51064" lon="5.99447">
        <ele>984</ele>
        <time>2025-06-09T15:23:07Z</time>
      </trkpt>
      <trkpt lat="46.51064" lon="5.99442">
        <ele>984</ele>
        <time>2025-06-09T15:23:12Z</time>
      </trkpt>
      <trkpt lat="46.51063" lon="5.99437">
        <ele>984</ele>
        <time>2025-06-09T15:23:16Z</time>
      </trkpt>
      <trkpt lat="46.51063" lon="5.99433">
        <ele>985</ele>
        <time>2025-06-09T15:23:19Z</time>
      </trkpt>
      <trkpt lat="46.51062" lon="5.99428">
        <ele>985</ele>
        <time>2025-06-09T15:23:23Z</time>
      </trkpt>
      <trkpt lat="46.51061" lon="5.99424">
        <ele>986</ele>
        <time>2025-06-09T15:23:26Z</time>
      </trkpt>
      <trkpt lat="46.51059" lon="5.9942">
        <ele>986</ele>
        <time>2025-06-09T15:23:29Z</time>
      </trkpt>
      <trkpt lat="46.51057" lon="5.99416">
        <ele>986</ele>
        <time>2025-06-09T15:23:32Z</time>
      </trkpt>
      <trkpt lat="46.51056" lon="5.99412">
        <ele>986</ele>
        <time>2025-06-09T15:23:35Z</time>
      </trkpt>
      <trkpt lat="46.51055" lon="5.99409">
        <ele>986</ele>
        <time>2025-06-09T15:23:38Z</time>
      </trkpt>
      <trkpt lat="46.51052" lon="5.99407">
        <ele>986</ele>
        <time>2025-06-09T15:23:44Z</time>
      </trkpt>
      <trkpt lat="46.51049" lon="5.99405">
        <ele>988</ele>
        <time>2025-06-09T15:25:09Z</time>
      </trkpt>
      <trkpt lat="46.51047" lon="5.99402">
        <ele>989</ele>
        <time>2025-06-09T15:25:13Z</time>
      </trkpt>
      <trkpt lat="46.51045" lon="5.99398">
        <ele>990</ele>
        <time>2025-06-09T15:25:17Z</time>
      </trkpt>
      <trkpt lat="46.51043" lon="5.99394">
        <ele>990</ele>
        <time>2025-06-09T15:25:21Z</time>
      </trkpt>
      <trkpt lat="46.51042" lon="5.9939">
        <ele>990</ele>
        <time>2025-06-09T15:25:24Z</time>
      </trkpt>
      <trkpt lat="46.51041" lon="5.99385">
        <ele>990</ele>
        <time>2025-06-09T15:25:28Z</time>
      </trkpt>
      <trkpt lat="46.5104" lon="5.99382">
        <ele>991</ele>
        <time>2025-06-09T15:25:32Z</time>
      </trkpt>
      <trkpt lat="46.51038" lon="5.99377">
        <ele>991</ele>
        <time>2025-06-09T15:25:36Z</time>
      </trkpt>
      <trkpt lat="46.51037" lon="5.99373">
        <ele>991</ele>
        <time>2025-06-09T15:25:40Z</time>
      </trkpt>
      <trkpt lat="46.51036" lon="5.99368">
        <ele>991</ele>
        <time>2025-06-09T15:25:44Z</time>
      </trkpt>
      <trkpt lat="46.51036" lon="5.99364">
        <ele>991</ele>
        <time>2025-06-09T15:25:47Z</time>
      </trkpt>
      <trkpt lat="46.51035" lon="5.99361">
        <ele>991</ele>
        <time>2025-06-09T15:25:50Z</time>
      </trkpt>
      <trkpt lat="46.51034" lon="5.99357">
        <ele>991</ele>
        <time>2025-06-09T15:25:53Z</time>
      </trkpt>
      <trkpt lat="46.51032" lon="5.99353">
        <ele>991</ele>
        <time>2025-06-09T15:25:56Z</time>
      </trkpt>
      <trkpt lat="46.51031" lon="5.99349">
        <ele>991</ele>
        <time>2025-06-09T15:25:59Z</time>
      </trkpt>
      <trkpt lat="46.51029" lon="5.99346">
        <ele>991</ele>
        <time>2025-06-09T15:26:02Z</time>
      </trkpt>
      <trkpt lat="46.51027" lon="5.99342">
        <ele>991</ele>
        <time>2025-06-09T15:26:06Z</time>
      </trkpt>
      <trkpt lat="46.51026" lon="5.99337">
        <ele>991</ele>
        <time>2025-06-09T15:26:10Z</time>
      </trkpt>
      <trkpt lat="46.51025" lon="5.99333">
        <ele>992</ele>
        <time>2025-06-09T15:26:13Z</time>
      </trkpt>
      <trkpt lat="46.51025" lon="5.99329">
        <ele>992</ele>
        <time>2025-06-09T15:26:16Z</time>
      </trkpt>
      <trkpt lat="46.51024" lon="5.99325">
        <ele>992</ele>
        <time>2025-06-09T15:26:20Z</time>
      </trkpt>
      <trkpt lat="46.51023" lon="5.99321">
        <ele>992</ele>
        <time>2025-06-09T15:26:24Z</time>
      </trkpt>
      <trkpt lat="46.51021" lon="5.99317">
        <ele>993</ele>
        <time>2025-06-09T15:26:27Z</time>
      </trkpt>
      <trkpt lat="46.5102" lon="5.99313">
        <ele>993</ele>
        <time>2025-06-09T15:26:30Z</time>
      </trkpt>
      <trkpt lat="46.51019" lon="5.99309">
        <ele>994</ele>
        <time>2025-06-09T15:26:34Z</time>
      </trkpt>
      <trkpt lat="46.51018" lon="5.99304">
        <ele>994</ele>
        <time>2025-06-09T15:26:38Z</time>
      </trkpt>
      <trkpt lat="46.51017" lon="5.993">
        <ele>995</ele>
        <time>2025-06-09T15:26:41Z</time>
      </trkpt>
      <trkpt lat="46.51015" lon="5.99296">
        <ele>995</ele>
        <time>2025-06-09T15:26:45Z</time>
      </trkpt>
      <trkpt lat="46.51013" lon="5.99292">
        <ele>995</ele>
        <time>2025-06-09T15:26:49Z</time>
      </trkpt>
      <trkpt lat="46.51011" lon="5.99288">
        <ele>996</ele>
        <time>2025-06-09T15:26:53Z</time>
      </trkpt>
      <trkpt lat="46.51009" lon="5.99284">
        <ele>996</ele>
        <time>2025-06-09T15:26:56Z</time>
      </trkpt>
      <trkpt lat="46.51008" lon="5.9928">
        <ele>996</ele>
        <time>2025-06-09T15:27:00Z</time>
      </trkpt>
      <trkpt lat="46.51006" lon="5.99276">
        <ele>996</ele>
        <time>2025-06-09T15:27:04Z</time>
      </trkpt>
      <trkpt lat="46.51005" lon="5.99271">
        <ele>996</ele>
        <time>2025-06-09T15:27:07Z</time>
      </trkpt>
      <trkpt lat="46.51003" lon="5.99268">
        <ele>996</ele>
        <time>2025-06-09T15:27:10Z</time>
      </trkpt>
      <trkpt lat="46.51001" lon="5.99264">
        <ele>996</ele>
        <time>2025-06-09T15:27:13Z</time>
      </trkpt>
      <trkpt lat="46.51" lon="5.9926">
        <ele>996</ele>
        <time>2025-06-09T15:27:16Z</time>
      </trkpt>
      <trkpt lat="46.50998" lon="5.99257">
        <ele>996</ele>
        <time>2025-06-09T15:27:19Z</time>
      </trkpt>
      <trkpt lat="46.50996" lon="5.99253">
        <ele>996</ele>
        <time>2025-06-09T15:27:22Z</time>
      </trkpt>
      <trkpt lat="46.50994" lon="5.99249">
        <ele>995</ele>
        <time>2025-06-09T15:27:25Z</time>
      </trkpt>
      <trkpt lat="46.50993" lon="5.99246">
        <ele>995</ele>
        <time>2025-06-09T15:27:31Z</time>
      </trkpt>
      <trkpt lat="46.50991" lon="5.99245">
        <ele>995</ele>
        <time>2025-06-09T15:28:06Z</time>
      </trkpt>
      <trkpt lat="46.50989" lon="5.99243">
        <ele>994</ele>
        <time>2025-06-09T15:28:09Z</time>
      </trkpt>
      <trkpt lat="46.50987" lon="5.9924">
        <ele>994</ele>
        <time>2025-06-09T15:28:12Z</time>
      </trkpt>
      <trkpt lat="46.50986" lon="5.99236">
        <ele>994</ele>
        <time>2025-06-09T15:28:15Z</time>
      </trkpt>
      <trkpt lat="46.50985" lon="5.99232">
        <ele>994</ele>
        <time>2025-06-09T15:28:18Z</time>
      </trkpt>
      <trkpt lat="46.50983" lon="5.99228">
        <ele>993</ele>
        <time>2025-06-09T15:28:22Z</time>
      </trkpt>
      <trkpt lat="46.50982" lon="5.99223">
        <ele>993</ele>
        <time>2025-06-09T15:28:25Z</time>
      </trkpt>
      <trkpt lat="46.50981" lon="5.99219">
        <ele>993</ele>
        <time>2025-06-09T15:28:28Z</time>
      </trkpt>
      <trkpt lat="46.50981" lon="5.99215">
        <ele>993</ele>
        <time>2025-06-09T15:28:31Z</time>
      </trkpt>
      <trkpt lat="46.5098" lon="5.99211">
        <ele>993</ele>
        <time>2025-06-09T15:28:34Z</time>
      </trkpt>
      <trkpt lat="46.50979" lon="5.99207">
        <ele>993</ele>
        <time>2025-06-09T15:28:37Z</time>
      </trkpt>
      <trkpt lat="46.50978" lon="5.99202">
        <ele>993</ele>
        <time>2025-06-09T15:28:40Z</time>
      </trkpt>
      <trkpt lat="46.50976" lon="5.99199">
        <ele>993</ele>
        <time>2025-06-09T15:28:43Z</time>
      </trkpt>
      <trkpt lat="46.50974" lon="5.99195">
        <ele>993</ele>
        <time>2025-06-09T15:28:46Z</time>
      </trkpt>
      <trkpt lat="46.50972" lon="5.99191">
        <ele>993</ele>
        <time>2025-06-09T15:28:49Z</time>
      </trkpt>
      <trkpt lat="46.50971" lon="5.99187">
        <ele>993</ele>
        <time>2025-06-09T15:28:52Z</time>
      </trkpt>
      <trkpt lat="46.5097" lon="5.99183">
        <ele>993</ele>
        <time>2025-06-09T15:28:55Z</time>
      </trkpt>
      <trkpt lat="46.50969" lon="5.99179">
        <ele>993</ele>
        <time>2025-06-09T15:28:58Z</time>
      </trkpt>
      <trkpt lat="46.50969" lon="5.99175">
        <ele>993</ele>
        <time>2025-06-09T15:29:01Z</time>
      </trkpt>
      <trkpt lat="46.50968" lon="5.9917">
        <ele>992</ele>
        <time>2025-06-09T15:29:04Z</time>
      </trkpt>
      <trkpt lat="46.50967" lon="5.99166">
        <ele>992</ele>
        <time>2025-06-09T15:29:07Z</time>
      </trkpt>
      <trkpt lat="46.50967" lon="5.99161">
        <ele>992</ele>
        <time>2025-06-09T15:29:10Z</time>
      </trkpt>
      <trkpt lat="46.50966" lon="5.99157">
        <ele>992</ele>
        <time>2025-06-09T15:29:13Z</time>
      </trkpt>
      <trkpt lat="46.50966" lon="5.99152">
        <ele>992</ele>
        <time>2025-06-09T15:29:17Z</time>
      </trkpt>
      <trkpt lat="46.50965" lon="5.99147">
        <ele>992</ele>
        <time>2025-06-09T15:29:20Z</time>
      </trkpt>
      <trkpt lat="46.50965" lon="5.99142">
        <ele>993</ele>
        <time>2025-06-09T15:29:24Z</time>
      </trkpt>
      <trkpt lat="46.50964" lon="5.99138">
        <ele>993</ele>
        <time>2025-06-09T15:29:27Z</time>
      </trkpt>
      <trkpt lat="46.50963" lon="5.99134">
        <ele>993</ele>
        <time>2025-06-09T15:29:30Z</time>
      </trkpt>
      <trkpt lat="46.50962" lon="5.9913">
        <ele>993</ele>
        <time>2025-06-09T15:29:33Z</time>
      </trkpt>
      <trkpt lat="46.50961" lon="5.99126">
        <ele>993</ele>
        <time>2025-06-09T15:29:36Z</time>
      </trkpt>
      <trkpt lat="46.5096" lon="5.99122">
        <ele>993</ele>
        <time>2025-06-09T15:29:39Z</time>
      </trkpt>
      <trkpt lat="46.5096" lon="5.99117">
        <ele>993</ele>
        <time>2025-06-09T15:29:42Z</time>
      </trkpt>
      <trkpt lat="46.50959" lon="5.99112">
        <ele>993</ele>
        <time>2025-06-09T15:29:45Z</time>
      </trkpt>
      <trkpt lat="46.50959" lon="5.99107">
        <ele>993</ele>
        <time>2025-06-09T15:29:48Z</time>
      </trkpt>
      <trkpt lat="46.50958" lon="5.99103">
        <ele>993</ele>
        <time>2025-06-09T15:29:51Z</time>
      </trkpt>
      <trkpt lat="46.50957" lon="5.99098">
        <ele>993</ele>
        <time>2025-06-09T15:29:54Z</time>
      </trkpt>
      <trkpt lat="46.50956" lon="5.99094">
        <ele>993</ele>
        <time>2025-06-09T15:29:57Z</time>
      </trkpt>
      <trkpt lat="46.50955" lon="5.9909">
        <ele>992</ele>
        <time>2025-06-09T15:30:00Z</time>
      </trkpt>
      <trkpt lat="46.50953" lon="5.99086">
        <ele>992</ele>
        <time>2025-06-09T15:30:03Z</time>
      </trkpt>
      <trkpt lat="46.50951" lon="5.99082">
        <ele>992</ele>
        <time>2025-06-09T15:30:06Z</time>
      </trkpt>
      <trkpt lat="46.50949" lon="5.99078">
        <ele>992</ele>
        <time>2025-06-09T15:30:09Z</time>
      </trkpt>
      <trkpt lat="46.50948" lon="5.99074">
        <ele>992</ele>
        <time>2025-06-09T15:30:12Z</time>
      </trkpt>
      <trkpt lat="46.50946" lon="5.9907">
        <ele>991</ele>
        <time>2025-06-09T15:30:15Z</time>
      </trkpt>
      <trkpt lat="46.50944" lon="5.99066">
        <ele>990</ele>
        <time>2025-06-09T15:30:18Z</time>
      </trkpt>
      <trkpt lat="46.50942" lon="5.99062">
        <ele>989</ele>
        <time>2025-06-09T15:30:21Z</time>
      </trkpt>
      <trkpt lat="46.5094" lon="5.99058">
        <ele>989</ele>
        <time>2025-06-09T15:30:24Z</time>
      </trkpt>
      <trkpt lat="46.50939" lon="5.99053">
        <ele>988</ele>
        <time>2025-06-09T15:30:27Z</time>
      </trkpt>
      <trkpt lat="46.50937" lon="5.99049">
        <ele>987</ele>
        <time>2025-06-09T15:30:30Z</time>
      </trkpt>
      <trkpt lat="46.50935" lon="5.99045">
        <ele>987</ele>
        <time>2025-06-09T15:30:33Z</time>
      </trkpt>
      <trkpt lat="46.50933" lon="5.99042">
        <ele>986</ele>
        <time>2025-06-09T15:30:36Z</time>
      </trkpt>
      <trkpt lat="46.50931" lon="5.99038">
        <ele>985</ele>
        <time>2025-06-09T15:30:39Z</time>
      </trkpt>
      <trkpt lat="46.50929" lon="5.99035">
        <ele>985</ele>
        <time>2025-06-09T15:30:41Z</time>
      </trkpt>
      <trkpt lat="46.50926" lon="5.99032">
        <ele>984</ele>
        <time>2025-06-09T15:30:44Z</time>
      </trkpt>
      <trkpt lat="46.50924" lon="5.9903">
        <ele>984</ele>
        <time>2025-06-09T15:30:46Z</time>
      </trkpt>
      <trkpt lat="46.50921" lon="5.99027">
        <ele>984</ele>
        <time>2025-06-09T15:30:49Z</time>
      </trkpt>
      <trkpt lat="46.50919" lon="5.99025">
        <ele>984</ele>
        <time>2025-06-09T15:30:52Z</time>
      </trkpt>
      <trkpt lat="46.50916" lon="5.99022">
        <ele>984</ele>
        <time>2025-06-09T15:30:55Z</time>
      </trkpt>
      <trkpt lat="46.50914" lon="5.99019">
        <ele>984</ele>
        <time>2025-06-09T15:30:58Z</time>
      </trkpt>
      <trkpt lat="46.50911" lon="5.99016">
        <ele>983</ele>
        <time>2025-06-09T15:31:01Z</time>
      </trkpt>
      <trkpt lat="46.50909" lon="5.99013">
        <ele>982</ele>
        <time>2025-06-09T15:31:04Z</time>
      </trkpt>
      <trkpt lat="46.50906" lon="5.9901">
        <ele>982</ele>
        <time>2025-06-09T15:31:07Z</time>
      </trkpt>
      <trkpt lat="46.50903" lon="5.99007">
        <ele>981</ele>
        <time>2025-06-09T15:31:10Z</time>
      </trkpt>
      <trkpt lat="46.50901" lon="5.99004">
        <ele>980</ele>
        <time>2025-06-09T15:31:14Z</time>
      </trkpt>
      <trkpt lat="46.50898" lon="5.99">
        <ele>979</ele>
        <time>2025-06-09T15:31:18Z</time>
      </trkpt>
      <trkpt lat="46.50896" lon="5.98997">
        <ele>978</ele>
        <time>2025-06-09T15:31:21Z</time>
      </trkpt>
      <trkpt lat="46.50894" lon="5.98994">
        <ele>977</ele>
        <time>2025-06-09T15:31:24Z</time>
      </trkpt>
      <trkpt lat="46.50891" lon="5.98991">
        <ele>977</ele>
        <time>2025-06-09T15:31:27Z</time>
      </trkpt>
      <trkpt lat="46.50889" lon="5.98988">
        <ele>976</ele>
        <time>2025-06-09T15:31:31Z</time>
      </trkpt>
      <trkpt lat="46.50887" lon="5.98986">
        <ele>976</ele>
        <time>2025-06-09T15:31:34Z</time>
      </trkpt>
      <trkpt lat="46.50884" lon="5.98984">
        <ele>976</ele>
        <time>2025-06-09T15:31:36Z</time>
      </trkpt>
      <trkpt lat="46.50882" lon="5.98982">
        <ele>976</ele>
        <time>2025-06-09T15:31:43Z</time>
      </trkpt>
      <trkpt lat="46.50879" lon="5.98982">
        <ele>976</ele>
        <time>2025-06-09T15:31:46Z</time>
      </trkpt>
      <trkpt lat="46.50876" lon="5.98981">
        <ele>976</ele>
        <time>2025-06-09T15:31:51Z</time>
      </trkpt>
      <trkpt lat="46.50872" lon="5.98978">
        <ele>979</ele>
        <time>2025-06-09T15:32:17Z</time>
      </trkpt>
      <trkpt lat="46.5087" lon="5.98977">
        <ele>979</ele>
        <time>2025-06-09T15:32:20Z</time>
      </trkpt>
      <trkpt lat="46.50868" lon="5.98975">
        <ele>978</ele>
        <time>2025-06-09T15:32:23Z</time>
      </trkpt>
      <trkpt lat="46.50866" lon="5.98972">
        <ele>978</ele>
        <time>2025-06-09T15:32:26Z</time>
      </trkpt>
      <trkpt lat="46.50863" lon="5.9897">
        <ele>977</ele>
        <time>2025-06-09T15:32:29Z</time>
      </trkpt>
      <trkpt lat="46.5086" lon="5.98968">
        <ele>977</ele>
        <time>2025-06-09T15:32:33Z</time>
      </trkpt>
      <trkpt lat="46.50858" lon="5.98966">
        <ele>978</ele>
        <time>2025-06-09T15:32:36Z</time>
      </trkpt>
      <trkpt lat="46.50855" lon="5.98964">
        <ele>978</ele>
        <time>2025-06-09T15:32:41Z</time>
      </trkpt>
      <trkpt lat="46.50852" lon="5.98962">
        <ele>979</ele>
        <time>2025-06-09T15:32:45Z</time>
      </trkpt>
      <trkpt lat="46.50849" lon="5.98961">
        <ele>979</ele>
        <time>2025-06-09T15:32:48Z</time>
      </trkpt>
      <trkpt lat="46.50846" lon="5.9896">
        <ele>979</ele>
        <time>2025-06-09T15:32:51Z</time>
      </trkpt>
      <trkpt lat="46.50843" lon="5.98959">
        <ele>980</ele>
        <time>2025-06-09T15:32:55Z</time>
      </trkpt>
      <trkpt lat="46.5084" lon="5.98958">
        <ele>980</ele>
        <time>2025-06-09T15:32:58Z</time>
      </trkpt>
      <trkpt lat="46.50837" lon="5.98955">
        <ele>980</ele>
        <time>2025-06-09T15:33:03Z</time>
      </trkpt>
      <trkpt lat="46.50835" lon="5.98952">
        <ele>980</ele>
        <time>2025-06-09T15:33:07Z</time>
      </trkpt>
      <trkpt lat="46.50833" lon="5.98951">
        <ele>980</ele>
        <time>2025-06-09T15:33:10Z</time>
      </trkpt>
      <trkpt lat="46.5083" lon="5.98949">
        <ele>981</ele>
        <time>2025-06-09T15:33:13Z</time>
      </trkpt>
      <trkpt lat="46.50827" lon="5.98946">
        <ele>981</ele>
        <time>2025-06-09T15:33:17Z</time>
      </trkpt>
      <trkpt lat="46.50825" lon="5.98944">
        <ele>981</ele>
        <time>2025-06-09T15:33:21Z</time>
      </trkpt>
      <trkpt lat="46.50822" lon="5.98942">
        <ele>982</ele>
        <time>2025-06-09T15:33:24Z</time>
      </trkpt>
      <trkpt lat="46.5082" lon="5.9894">
        <ele>982</ele>
        <time>2025-06-09T15:33:27Z</time>
      </trkpt>
      <trkpt lat="46.50817" lon="5.98939">
        <ele>982</ele>
        <time>2025-06-09T15:33:30Z</time>
      </trkpt>
      <trkpt lat="46.50814" lon="5.98938">
        <ele>983</ele>
        <time>2025-06-09T15:33:33Z</time>
      </trkpt>
      <trkpt lat="46.50811" lon="5.98937">
        <ele>983</ele>
        <time>2025-06-09T15:33:37Z</time>
      </trkpt>
      <trkpt lat="46.50808" lon="5.98936">
        <ele>984</ele>
        <time>2025-06-09T15:33:42Z</time>
      </trkpt>
      <trkpt lat="46.50805" lon="5.98935">
        <ele>984</ele>
        <time>2025-06-09T15:33:45Z</time>
      </trkpt>
      <trkpt lat="46.50802" lon="5.98935">
        <ele>985</ele>
        <time>2025-06-09T15:33:49Z</time>
      </trkpt>
      <trkpt lat="46.50799" lon="5.98934">
        <ele>985</ele>
        <time>2025-06-09T15:33:52Z</time>
      </trkpt>
      <trkpt lat="46.50796" lon="5.98935">
        <ele>986</ele>
        <time>2025-06-09T15:33:55Z</time>
      </trkpt>
      <trkpt lat="46.50793" lon="5.98936">
        <ele>986</ele>
        <time>2025-06-09T15:33:59Z</time>
      </trkpt>
      <trkpt lat="46.5079" lon="5.98937">
        <ele>986</ele>
        <time>2025-06-09T15:34:02Z</time>
      </trkpt>
      <trkpt lat="46.50787" lon="5.98938">
        <ele>987</ele>
        <time>2025-06-09T15:34:06Z</time>
      </trkpt>
      <trkpt lat="46.50783" lon="5.98938">
        <ele>988</ele>
        <time>2025-06-09T15:34:10Z</time>
      </trkpt>
      <trkpt lat="46.5078" lon="5.98938">
        <ele>988</ele>
        <time>2025-06-09T15:34:14Z</time>
      </trkpt>
      <trkpt lat="46.50777" lon="5.98937">
        <ele>989</ele>
        <time>2025-06-09T15:34:17Z</time>
      </trkpt>
      <trkpt lat="46.50774" lon="5.98936">
        <ele>990</ele>
        <time>2025-06-09T15:34:21Z</time>
      </trkpt>
      <trkpt lat="46.50771" lon="5.98935">
        <ele>990</ele>
        <time>2025-06-09T15:34:25Z</time>
      </trkpt>
      <trkpt lat="46.50768" lon="5.98934">
        <ele>991</ele>
        <time>2025-06-09T15:34:28Z</time>
      </trkpt>
      <trkpt lat="46.50765" lon="5.98933">
        <ele>991</ele>
        <time>2025-06-09T15:34:31Z</time>
      </trkpt>
      <trkpt lat="46.50763" lon="5.98933">
        <ele>992</ele>
        <time>2025-06-09T15:34:35Z</time>
      </trkpt>
      <trkpt lat="46.5076" lon="5.98932">
        <ele>992</ele>
        <time>2025-06-09T15:34:39Z</time>
      </trkpt>
      <trkpt lat="46.50756" lon="5.98932">
        <ele>992</ele>
        <time>2025-06-09T15:34:43Z</time>
      </trkpt>
      <trkpt lat="46.50754" lon="5.9893">
        <ele>992</ele>
        <time>2025-06-09T15:34:46Z</time>
      </trkpt>
      <trkpt lat="46.50751" lon="5.98929">
        <ele>992</ele>
        <time>2025-06-09T15:34:50Z</time>
      </trkpt>
      <trkpt lat="46.50747" lon="5.98928">
        <ele>992</ele>
        <time>2025-06-09T15:34:53Z</time>
      </trkpt>
      <trkpt lat="46.50744" lon="5.98927">
        <ele>992</ele>
        <time>2025-06-09T15:34:57Z</time>
      </trkpt>
      <trkpt lat="46.50741" lon="5.98926">
        <ele>992</ele>
        <time>2025-06-09T15:35:00Z</time>
      </trkpt>
      <trkpt lat="46.50738" lon="5.98925">
        <ele>992</ele>
        <time>2025-06-09T15:35:02Z</time>
      </trkpt>
      <trkpt lat="46.50735" lon="5.98924">
        <ele>992</ele>
        <time>2025-06-09T15:35:06Z</time>
      </trkpt>
      <trkpt lat="46.50732" lon="5.98924">
        <ele>992</ele>
        <time>2025-06-09T15:35:09Z</time>
      </trkpt>
      <trkpt lat="46.50729" lon="5.98924">
        <ele>991</ele>
        <time>2025-06-09T15:35:14Z</time>
      </trkpt>
      <trkpt lat="46.50725" lon="5.98923">
        <ele>991</ele>
        <time>2025-06-09T15:35:18Z</time>
      </trkpt>
      <trkpt lat="46.50722" lon="5.98921">
        <ele>991</ele>
        <time>2025-06-09T15:35:22Z</time>
      </trkpt>
      <trkpt lat="46.50719" lon="5.98919">
        <ele>991</ele>
        <time>2025-06-09T15:35:25Z</time>
      </trkpt>
      <trkpt lat="46.50716" lon="5.98917">
        <ele>990</ele>
        <time>2025-06-09T15:35:28Z</time>
      </trkpt>
      <trkpt lat="46.50714" lon="5.98914">
        <ele>990</ele>
        <time>2025-06-09T15:35:32Z</time>
      </trkpt>
      <trkpt lat="46.50712" lon="5.98911">
        <ele>989</ele>
        <time>2025-06-09T15:35:35Z</time>
      </trkpt>
      <trkpt lat="46.5071" lon="5.98909">
        <ele>989</ele>
        <time>2025-06-09T15:35:38Z</time>
      </trkpt>
      <trkpt lat="46.50707" lon="5.98906">
        <ele>989</ele>
        <time>2025-06-09T15:35:42Z</time>
      </trkpt>
      <trkpt lat="46.50704" lon="5.98903">
        <ele>988</ele>
        <time>2025-06-09T15:35:45Z</time>
      </trkpt>
      <trkpt lat="46.50702" lon="5.989">
        <ele>988</ele>
        <time>2025-06-09T15:35:48Z</time>
      </trkpt>
      <trkpt lat="46.50699" lon="5.98898">
        <ele>988</ele>
        <time>2025-06-09T15:35:51Z</time>
      </trkpt>
      <trkpt lat="46.50696" lon="5.98896">
        <ele>988</ele>
        <time>2025-06-09T15:35:54Z</time>
      </trkpt>
      <trkpt lat="46.50693" lon="5.98893">
        <ele>988</ele>
        <time>2025-06-09T15:35:57Z</time>
      </trkpt>
      <trkpt lat="46.50691" lon="5.98891">
        <ele>987</ele>
        <time>2025-06-09T15:36:00Z</time>
      </trkpt>
      <trkpt lat="46.50689" lon="5.98888">
        <ele>987</ele>
        <time>2025-06-09T15:36:03Z</time>
      </trkpt>
      <trkpt lat="46.50686" lon="5.98885">
        <ele>987</ele>
        <time>2025-06-09T15:36:06Z</time>
      </trkpt>
      <trkpt lat="46.50684" lon="5.98881">
        <ele>987</ele>
        <time>2025-06-09T15:36:10Z</time>
      </trkpt>
      <trkpt lat="46.50682" lon="5.98878">
        <ele>987</ele>
        <time>2025-06-09T15:36:14Z</time>
      </trkpt>
      <trkpt lat="46.50679" lon="5.98875">
        <ele>987</ele>
        <time>2025-06-09T15:36:17Z</time>
      </trkpt>
      <trkpt lat="46.50676" lon="5.98873">
        <ele>987</ele>
        <time>2025-06-09T15:36:20Z</time>
      </trkpt>
      <trkpt lat="46.50673" lon="5.9887">
        <ele>986</ele>
        <time>2025-06-09T15:36:23Z</time>
      </trkpt>
      <trkpt lat="46.50671" lon="5.98867">
        <ele>986</ele>
        <time>2025-06-09T15:36:26Z</time>
      </trkpt>
      <trkpt lat="46.50669" lon="5.98865">
        <ele>986</ele>
        <time>2025-06-09T15:36:29Z</time>
      </trkpt>
      <trkpt lat="46.50666" lon="5.98862">
        <ele>986</ele>
        <time>2025-06-09T15:36:32Z</time>
      </trkpt>
      <trkpt lat="46.50663" lon="5.98859">
        <ele>986</ele>
        <time>2025-06-09T15:36:35Z</time>
      </trkpt>
      <trkpt lat="46.5066" lon="5.98856">
        <ele>986</ele>
        <time>2025-06-09T15:36:38Z</time>
      </trkpt>
      <trkpt lat="46.50658" lon="5.98853">
        <ele>986</ele>
        <time>2025-06-09T15:36:41Z</time>
      </trkpt>
      <trkpt lat="46.50655" lon="5.98851">
        <ele>986</ele>
        <time>2025-06-09T15:36:44Z</time>
      </trkpt>
      <trkpt lat="46.50653" lon="5.98847">
        <ele>986</ele>
        <time>2025-06-09T15:36:48Z</time>
      </trkpt>
      <trkpt lat="46.50651" lon="5.98844">
        <ele>986</ele>
        <time>2025-06-09T15:36:51Z</time>
      </trkpt>
      <trkpt lat="46.50649" lon="5.9884">
        <ele>986</ele>
        <time>2025-06-09T15:36:55Z</time>
      </trkpt>
      <trkpt lat="46.50647" lon="5.98836">
        <ele>986</ele>
        <time>2025-06-09T15:36:58Z</time>
      </trkpt>
      <trkpt lat="46.50644" lon="5.98833">
        <ele>986</ele>
        <time>2025-06-09T15:37:02Z</time>
      </trkpt>
      <trkpt lat="46.50642" lon="5.9883">
        <ele>986</ele>
        <time>2025-06-09T15:37:05Z</time>
      </trkpt>
      <trkpt lat="46.5064" lon="5.98828">
        <ele>986</ele>
        <time>2025-06-09T15:37:08Z</time>
      </trkpt>
      <trkpt lat="46.50637" lon="5.98826">
        <ele>986</ele>
        <time>2025-06-09T15:37:11Z</time>
      </trkpt>
      <trkpt lat="46.50634" lon="5.98823">
        <ele>985</ele>
        <time>2025-06-09T15:37:15Z</time>
      </trkpt>
      <trkpt lat="46.50632" lon="5.98821">
        <ele>984</ele>
        <time>2025-06-09T15:37:18Z</time>
      </trkpt>
      <trkpt lat="46.50629" lon="5.98818">
        <ele>984</ele>
        <time>2025-06-09T15:37:21Z</time>
      </trkpt>
      <trkpt lat="46.50627" lon="5.98815">
        <ele>983</ele>
        <time>2025-06-09T15:37:24Z</time>
      </trkpt>
      <trkpt lat="46.50625" lon="5.98812">
        <ele>982</ele>
        <time>2025-06-09T15:37:28Z</time>
      </trkpt>
      <trkpt lat="46.50622" lon="5.98808">
        <ele>981</ele>
        <time>2025-06-09T15:37:32Z</time>
      </trkpt>
      <trkpt lat="46.50619" lon="5.98806">
        <ele>981</ele>
        <time>2025-06-09T15:37:35Z</time>
      </trkpt>
      <trkpt lat="46.50617" lon="5.98803">
        <ele>980</ele>
        <time>2025-06-09T15:37:38Z</time>
      </trkpt>
      <trkpt lat="46.50614" lon="5.98801">
        <ele>980</ele>
        <time>2025-06-09T15:37:41Z</time>
      </trkpt>
      <trkpt lat="46.5061" lon="5.98799">
        <ele>979</ele>
        <time>2025-06-09T15:37:45Z</time>
      </trkpt>
      <trkpt lat="46.50607" lon="5.98797">
        <ele>978</ele>
        <time>2025-06-09T15:37:48Z</time>
      </trkpt>
      <trkpt lat="46.50604" lon="5.98795">
        <ele>977</ele>
        <time>2025-06-09T15:37:52Z</time>
      </trkpt>
      <trkpt lat="46.50601" lon="5.98794">
        <ele>977</ele>
        <time>2025-06-09T15:37:56Z</time>
      </trkpt>
      <trkpt lat="46.50598" lon="5.98792">
        <ele>976</ele>
        <time>2025-06-09T15:38:00Z</time>
      </trkpt>
      <trkpt lat="46.50596" lon="5.98789">
        <ele>975</ele>
        <time>2025-06-09T15:38:13Z</time>
      </trkpt>
      <trkpt lat="46.50594" lon="5.98787">
        <ele>974</ele>
        <time>2025-06-09T15:38:16Z</time>
      </trkpt>
      <trkpt lat="46.50591" lon="5.98786">
        <ele>974</ele>
        <time>2025-06-09T15:38:19Z</time>
      </trkpt>
      <trkpt lat="46.50588" lon="5.98786">
        <ele>973</ele>
        <time>2025-06-09T15:38:22Z</time>
      </trkpt>
      <trkpt lat="46.50585" lon="5.98785">
        <ele>972</ele>
        <time>2025-06-09T15:38:25Z</time>
      </trkpt>
      <trkpt lat="46.50581" lon="5.98784">
        <ele>972</ele>
        <time>2025-06-09T15:38:28Z</time>
      </trkpt>
      <trkpt lat="46.50579" lon="5.98783">
        <ele>971</ele>
        <time>2025-06-09T15:38:31Z</time>
      </trkpt>
      <trkpt lat="46.50576" lon="5.98782">
        <ele>971</ele>
        <time>2025-06-09T15:38:34Z</time>
      </trkpt>
      <trkpt lat="46.50573" lon="5.9878">
        <ele>970</ele>
        <time>2025-06-09T15:38:37Z</time>
      </trkpt>
      <trkpt lat="46.50571" lon="5.98777">
        <ele>970</ele>
        <time>2025-06-09T15:38:40Z</time>
      </trkpt>
      <trkpt lat="46.50569" lon="5.98773">
        <ele>970</ele>
        <time>2025-06-09T15:38:44Z</time>
      </trkpt>
      <trkpt lat="46.50567" lon="5.98769">
        <ele>970</ele>
        <time>2025-06-09T15:38:47Z</time>
      </trkpt>
      <trkpt lat="46.50565" lon="5.98765">
        <ele>969</ele>
        <time>2025-06-09T15:38:50Z</time>
      </trkpt>
      <trkpt lat="46.50564" lon="5.98761">
        <ele>969</ele>
        <time>2025-06-09T15:38:53Z</time>
      </trkpt>
      <trkpt lat="46.50563" lon="5.98757">
        <ele>969</ele>
        <time>2025-06-09T15:38:56Z</time>
      </trkpt>
      <trkpt lat="46.50563" lon="5.98752">
        <ele>968</ele>
        <time>2025-06-09T15:38:59Z</time>
      </trkpt>
      <trkpt lat="46.50562" lon="5.98748">
        <ele>968</ele>
        <time>2025-06-09T15:39:02Z</time>
      </trkpt>
      <trkpt lat="46.50562" lon="5.98744">
        <ele>968</ele>
        <time>2025-06-09T15:39:05Z</time>
      </trkpt>
      <trkpt lat="46.50561" lon="5.9874">
        <ele>967</ele>
        <time>2025-06-09T15:39:08Z</time>
      </trkpt>
      <trkpt lat="46.5056" lon="5.98735">
        <ele>967</ele>
        <time>2025-06-09T15:39:11Z</time>
      </trkpt>
      <trkpt lat="46.50559" lon="5.9873">
        <ele>966</ele>
        <time>2025-06-09T15:39:14Z</time>
      </trkpt>
      <trkpt lat="46.50558" lon="5.98726">
        <ele>966</ele>
        <time>2025-06-09T15:39:17Z</time>
      </trkpt>
      <trkpt lat="46.50556" lon="5.98721">
        <ele>966</ele>
        <time>2025-06-09T15:39:20Z</time>
      </trkpt>
      <trkpt lat="46.50556" lon="5.98717">
        <ele>966</ele>
        <time>2025-06-09T15:39:23Z</time>
      </trkpt>
      <trkpt lat="46.50555" lon="5.98713">
        <ele>965</ele>
        <time>2025-06-09T15:39:26Z</time>
      </trkpt>
      <trkpt lat="46.50554" lon="5.98708">
        <ele>965</ele>
        <time>2025-06-09T15:39:29Z</time>
      </trkpt>
      <trkpt lat="46.50555" lon="5.98704">
        <ele>965</ele>
        <time>2025-06-09T15:39:32Z</time>
      </trkpt>
      <trkpt lat="46.50555" lon="5.987">
        <ele>964</ele>
        <time>2025-06-09T15:39:36Z</time>
      </trkpt>
    </trkseg>
  </trk>
</gpx>